<?xml version="1.0" encoding="UTF-8" standalone="no" ?>
<gpx xmlns="http://www.topografix.com/GPX/1/1" xmlns:xsi="http://www.w3.org/2001/XMLSchema-instance" xsi:schemaLocation="http://www.topografix.com/GPX/1/1 http://www.topografix.com/GPX/1/1/gpx.xsd" version="1.1" creator="VisuGPX - https://www.visugpx.com">
  <metadata>
    <name>Champagnat Cyclisme sur route</name>
  </metadata>
  <trk>
    <name><![CDATA[Champagnat Cyclisme sur route_1]]></name>
    <trkseg>
      <trkpt lat="46.48271" lon="5.36838">
        <ele>269.6</ele>
        <time>2022-03-14T11:39:09Z</time>
      </trkpt>
      <trkpt lat="46.48262" lon="5.36825">
        <ele>268.8</ele>
        <time>2022-03-14T11:39:10Z</time>
      </trkpt>
      <trkpt lat="46.48252" lon="5.36814">
        <ele>268.4</ele>
        <time>2022-03-14T11:39:11Z</time>
      </trkpt>
      <trkpt lat="46.48241" lon="5.36805">
        <ele>267</ele>
        <time>2022-03-14T11:39:12Z</time>
      </trkpt>
      <trkpt lat="46.4823" lon="5.36796">
        <ele>266</ele>
        <time>2022-03-14T11:39:13Z</time>
      </trkpt>
      <trkpt lat="46.48219" lon="5.36788">
        <ele>265.6</ele>
        <time>2022-03-14T11:39:14Z</time>
      </trkpt>
      <trkpt lat="46.48208" lon="5.36779">
        <ele>264</ele>
        <time>2022-03-14T11:39:15Z</time>
      </trkpt>
      <trkpt lat="46.48186" lon="5.36761">
        <ele>262.4</ele>
        <time>2022-03-14T11:39:17Z</time>
      </trkpt>
      <trkpt lat="46.48153" lon="5.36735">
        <ele>260.2</ele>
        <time>2022-03-14T11:39:20Z</time>
      </trkpt>
      <trkpt lat="46.48143" lon="5.36727">
        <ele>259.8</ele>
        <time>2022-03-14T11:39:21Z</time>
      </trkpt>
      <trkpt lat="46.48134" lon="5.36719">
        <ele>258.8</ele>
        <time>2022-03-14T11:39:22Z</time>
      </trkpt>
      <trkpt lat="46.48117" lon="5.36707">
        <ele>257.4</ele>
        <time>2022-03-14T11:39:24Z</time>
      </trkpt>
      <trkpt lat="46.4811" lon="5.36701">
        <ele>257.2</ele>
        <time>2022-03-14T11:39:25Z</time>
      </trkpt>
      <trkpt lat="46.48107" lon="5.36693">
        <ele>256</ele>
        <time>2022-03-14T11:39:26Z</time>
      </trkpt>
      <trkpt lat="46.48105" lon="5.36684">
        <ele>255.2</ele>
        <time>2022-03-14T11:39:27Z</time>
      </trkpt>
      <trkpt lat="46.48107" lon="5.36675">
        <ele>254.8</ele>
        <time>2022-03-14T11:39:28Z</time>
      </trkpt>
      <trkpt lat="46.48112" lon="5.36667">
        <ele>253.8</ele>
        <time>2022-03-14T11:39:29Z</time>
      </trkpt>
      <trkpt lat="46.48117" lon="5.36661">
        <ele>253.6</ele>
        <time>2022-03-14T11:39:30Z</time>
      </trkpt>
      <trkpt lat="46.48124" lon="5.36654">
        <ele>253</ele>
        <time>2022-03-14T11:39:31Z</time>
      </trkpt>
      <trkpt lat="46.48131" lon="5.36648">
        <ele>252.4</ele>
        <time>2022-03-14T11:39:32Z</time>
      </trkpt>
      <trkpt lat="46.48136" lon="5.3664">
        <ele>251.8</ele>
        <time>2022-03-14T11:39:33Z</time>
      </trkpt>
      <trkpt lat="46.48141" lon="5.36632">
        <ele>251.2</ele>
        <time>2022-03-14T11:39:34Z</time>
      </trkpt>
      <trkpt lat="46.48146" lon="5.36622">
        <ele>250.8</ele>
        <time>2022-03-14T11:39:35Z</time>
      </trkpt>
      <trkpt lat="46.48151" lon="5.36615">
        <ele>250.6</ele>
        <time>2022-03-14T11:39:36Z</time>
      </trkpt>
      <trkpt lat="46.48173" lon="5.3661">
        <ele>250.4</ele>
        <time>2022-03-14T11:39:38Z</time>
      </trkpt>
      <trkpt lat="46.48191" lon="5.36604">
        <ele>250.4</ele>
        <time>2022-03-14T11:39:40Z</time>
      </trkpt>
      <trkpt lat="46.48207" lon="5.36598">
        <ele>250.4</ele>
        <time>2022-03-14T11:39:42Z</time>
      </trkpt>
      <trkpt lat="46.48218" lon="5.36584">
        <ele>250.4</ele>
        <time>2022-03-14T11:39:44Z</time>
      </trkpt>
      <trkpt lat="46.48224" lon="5.36564">
        <ele>250</ele>
        <time>2022-03-14T11:39:46Z</time>
      </trkpt>
      <trkpt lat="46.48229" lon="5.36556">
        <ele>249.8</ele>
        <time>2022-03-14T11:39:47Z</time>
      </trkpt>
      <trkpt lat="46.48235" lon="5.36549">
        <ele>249.8</ele>
        <time>2022-03-14T11:39:48Z</time>
      </trkpt>
      <trkpt lat="46.48253" lon="5.3653">
        <ele>249</ele>
        <time>2022-03-14T11:39:51Z</time>
      </trkpt>
      <trkpt lat="46.48259" lon="5.36523">
        <ele>249</ele>
        <time>2022-03-14T11:39:52Z</time>
      </trkpt>
      <trkpt lat="46.48284" lon="5.36496">
        <ele>248.2</ele>
        <time>2022-03-14T11:39:56Z</time>
      </trkpt>
      <trkpt lat="46.48291" lon="5.36489">
        <ele>247.8</ele>
        <time>2022-03-14T11:39:57Z</time>
      </trkpt>
      <trkpt lat="46.48323" lon="5.36454">
        <ele>247</ele>
        <time>2022-03-14T11:40:02Z</time>
      </trkpt>
      <trkpt lat="46.48329" lon="5.36447">
        <ele>246.6</ele>
        <time>2022-03-14T11:40:03Z</time>
      </trkpt>
      <trkpt lat="46.48355" lon="5.36419">
        <ele>245.6</ele>
        <time>2022-03-14T11:40:07Z</time>
      </trkpt>
      <trkpt lat="46.48361" lon="5.36412">
        <ele>245.4</ele>
        <time>2022-03-14T11:40:08Z</time>
      </trkpt>
      <trkpt lat="46.48374" lon="5.36398">
        <ele>245</ele>
        <time>2022-03-14T11:40:10Z</time>
      </trkpt>
      <trkpt lat="46.48394" lon="5.36377">
        <ele>244.2</ele>
        <time>2022-03-14T11:40:13Z</time>
      </trkpt>
      <trkpt lat="46.48407" lon="5.36365">
        <ele>244</ele>
        <time>2022-03-14T11:40:15Z</time>
      </trkpt>
      <trkpt lat="46.48414" lon="5.3636">
        <ele>244</ele>
        <time>2022-03-14T11:40:16Z</time>
      </trkpt>
      <trkpt lat="46.48421" lon="5.36356">
        <ele>243.6</ele>
        <time>2022-03-14T11:40:17Z</time>
      </trkpt>
      <trkpt lat="46.48428" lon="5.36353">
        <ele>243.4</ele>
        <time>2022-03-14T11:40:18Z</time>
      </trkpt>
      <trkpt lat="46.48436" lon="5.3635">
        <ele>243.2</ele>
        <time>2022-03-14T11:40:19Z</time>
      </trkpt>
      <trkpt lat="46.48443" lon="5.36349">
        <ele>243</ele>
        <time>2022-03-14T11:40:20Z</time>
      </trkpt>
      <trkpt lat="46.48492" lon="5.36342">
        <ele>242.6</ele>
        <time>2022-03-14T11:40:27Z</time>
      </trkpt>
      <trkpt lat="46.48518" lon="5.36337">
        <ele>242.4</ele>
        <time>2022-03-14T11:40:31Z</time>
      </trkpt>
      <trkpt lat="46.48539" lon="5.36334">
        <ele>242.2</ele>
        <time>2022-03-14T11:40:34Z</time>
      </trkpt>
      <trkpt lat="46.4856" lon="5.36332">
        <ele>242</ele>
        <time>2022-03-14T11:40:37Z</time>
      </trkpt>
      <trkpt lat="46.48596" lon="5.36326">
        <ele>241.4</ele>
        <time>2022-03-14T11:40:42Z</time>
      </trkpt>
      <trkpt lat="46.48604" lon="5.36325">
        <ele>241</ele>
        <time>2022-03-14T11:40:43Z</time>
      </trkpt>
      <trkpt lat="46.48612" lon="5.36323">
        <ele>240.8</ele>
        <time>2022-03-14T11:40:44Z</time>
      </trkpt>
      <trkpt lat="46.48626" lon="5.3631">
        <ele>240.2</ele>
        <time>2022-03-14T11:40:46Z</time>
      </trkpt>
      <trkpt lat="46.4863" lon="5.36302">
        <ele>240</ele>
        <time>2022-03-14T11:40:47Z</time>
      </trkpt>
      <trkpt lat="46.48634" lon="5.36289">
        <ele>239.8</ele>
        <time>2022-03-14T11:40:48Z</time>
      </trkpt>
      <trkpt lat="46.48638" lon="5.36266">
        <ele>238.8</ele>
        <time>2022-03-14T11:40:50Z</time>
      </trkpt>
      <trkpt lat="46.48642" lon="5.36224">
        <ele>237.6</ele>
        <time>2022-03-14T11:40:53Z</time>
      </trkpt>
      <trkpt lat="46.48645" lon="5.36187">
        <ele>236.4</ele>
        <time>2022-03-14T11:40:56Z</time>
      </trkpt>
      <trkpt lat="46.48645" lon="5.36174">
        <ele>235.6</ele>
        <time>2022-03-14T11:40:57Z</time>
      </trkpt>
      <trkpt lat="46.48648" lon="5.36146">
        <ele>235.2</ele>
        <time>2022-03-14T11:40:59Z</time>
      </trkpt>
      <trkpt lat="46.48654" lon="5.36111">
        <ele>234.6</ele>
        <time>2022-03-14T11:41:02Z</time>
      </trkpt>
      <trkpt lat="46.48664" lon="5.36063">
        <ele>234</ele>
        <time>2022-03-14T11:41:06Z</time>
      </trkpt>
      <trkpt lat="46.48669" lon="5.36045">
        <ele>234</ele>
        <time>2022-03-14T11:41:08Z</time>
      </trkpt>
      <trkpt lat="46.48671" lon="5.36033">
        <ele>234</ele>
        <time>2022-03-14T11:41:09Z</time>
      </trkpt>
      <trkpt lat="46.48675" lon="5.36008">
        <ele>234.2</ele>
        <time>2022-03-14T11:41:12Z</time>
      </trkpt>
      <trkpt lat="46.48676" lon="5.36">
        <ele>234.2</ele>
        <time>2022-03-14T11:41:13Z</time>
      </trkpt>
      <trkpt lat="46.48678" lon="5.35989">
        <ele>234.2</ele>
        <time>2022-03-14T11:41:14Z</time>
      </trkpt>
      <trkpt lat="46.48681" lon="5.35963">
        <ele>234.8</ele>
        <time>2022-03-14T11:41:17Z</time>
      </trkpt>
      <trkpt lat="46.48686" lon="5.35921">
        <ele>235</ele>
        <time>2022-03-14T11:41:21Z</time>
      </trkpt>
      <trkpt lat="46.48689" lon="5.35911">
        <ele>235</ele>
        <time>2022-03-14T11:41:22Z</time>
      </trkpt>
      <trkpt lat="46.48694" lon="5.35893">
        <ele>235.2</ele>
        <time>2022-03-14T11:41:24Z</time>
      </trkpt>
      <trkpt lat="46.48703" lon="5.35873">
        <ele>235.2</ele>
        <time>2022-03-14T11:41:26Z</time>
      </trkpt>
      <trkpt lat="46.48708" lon="5.35864">
        <ele>235.2</ele>
        <time>2022-03-14T11:41:27Z</time>
      </trkpt>
      <trkpt lat="46.48715" lon="5.35847">
        <ele>235</ele>
        <time>2022-03-14T11:41:29Z</time>
      </trkpt>
      <trkpt lat="46.48719" lon="5.35836">
        <ele>234.8</ele>
        <time>2022-03-14T11:41:30Z</time>
      </trkpt>
      <trkpt lat="46.48727" lon="5.35817">
        <ele>234.4</ele>
        <time>2022-03-14T11:41:32Z</time>
      </trkpt>
      <trkpt lat="46.48734" lon="5.35801">
        <ele>234</ele>
        <time>2022-03-14T11:41:34Z</time>
      </trkpt>
      <trkpt lat="46.48742" lon="5.35782">
        <ele>233.4</ele>
        <time>2022-03-14T11:41:36Z</time>
      </trkpt>
      <trkpt lat="46.4875" lon="5.35764">
        <ele>232.8</ele>
        <time>2022-03-14T11:41:38Z</time>
      </trkpt>
      <trkpt lat="46.48753" lon="5.35757">
        <ele>232.6</ele>
        <time>2022-03-14T11:41:39Z</time>
      </trkpt>
      <trkpt lat="46.48779" lon="5.35693">
        <ele>232.4</ele>
        <time>2022-03-14T11:41:46Z</time>
      </trkpt>
      <trkpt lat="46.48794" lon="5.3566">
        <ele>232.4</ele>
        <time>2022-03-14T11:41:50Z</time>
      </trkpt>
      <trkpt lat="46.48802" lon="5.35643">
        <ele>232.4</ele>
        <time>2022-03-14T11:41:52Z</time>
      </trkpt>
      <trkpt lat="46.48827" lon="5.35584">
        <ele>232.4</ele>
        <time>2022-03-14T11:41:59Z</time>
      </trkpt>
      <trkpt lat="46.48856" lon="5.35523">
        <ele>233</ele>
        <time>2022-03-14T11:42:07Z</time>
      </trkpt>
      <trkpt lat="46.4888" lon="5.35471">
        <ele>233</ele>
        <time>2022-03-14T11:42:13Z</time>
      </trkpt>
      <trkpt lat="46.48907" lon="5.3541">
        <ele>232.8</ele>
        <time>2022-03-14T11:42:20Z</time>
      </trkpt>
      <trkpt lat="46.48918" lon="5.35384">
        <ele>232.4</ele>
        <time>2022-03-14T11:42:23Z</time>
      </trkpt>
      <trkpt lat="46.48942" lon="5.35329">
        <ele>232</ele>
        <time>2022-03-14T11:42:29Z</time>
      </trkpt>
      <trkpt lat="46.48955" lon="5.35302">
        <ele>231.8</ele>
        <time>2022-03-14T11:42:32Z</time>
      </trkpt>
      <trkpt lat="46.48962" lon="5.35287">
        <ele>231.8</ele>
        <time>2022-03-14T11:42:34Z</time>
      </trkpt>
      <trkpt lat="46.48973" lon="5.35263">
        <ele>231.8</ele>
        <time>2022-03-14T11:42:37Z</time>
      </trkpt>
      <trkpt lat="46.48992" lon="5.35218">
        <ele>231.6</ele>
        <time>2022-03-14T11:42:43Z</time>
      </trkpt>
      <trkpt lat="46.48997" lon="5.35203">
        <ele>231.6</ele>
        <time>2022-03-14T11:42:45Z</time>
      </trkpt>
      <trkpt lat="46.49006" lon="5.35179">
        <ele>231.8</ele>
        <time>2022-03-14T11:42:48Z</time>
      </trkpt>
      <trkpt lat="46.49008" lon="5.35173">
        <ele>231.8</ele>
        <time>2022-03-14T11:42:49Z</time>
      </trkpt>
      <trkpt lat="46.49011" lon="5.35166">
        <ele>232</ele>
        <time>2022-03-14T11:42:50Z</time>
      </trkpt>
      <trkpt lat="46.49019" lon="5.35144">
        <ele>232.2</ele>
        <time>2022-03-14T11:42:53Z</time>
      </trkpt>
      <trkpt lat="46.49026" lon="5.35131">
        <ele>232.6</ele>
        <time>2022-03-14T11:42:55Z</time>
      </trkpt>
      <trkpt lat="46.49036" lon="5.35115">
        <ele>232.8</ele>
        <time>2022-03-14T11:42:57Z</time>
      </trkpt>
      <trkpt lat="46.49042" lon="5.3511">
        <ele>233</ele>
        <time>2022-03-14T11:42:58Z</time>
      </trkpt>
      <trkpt lat="46.49056" lon="5.35097">
        <ele>233.2</ele>
        <time>2022-03-14T11:43:01Z</time>
      </trkpt>
      <trkpt lat="46.49067" lon="5.35088">
        <ele>233.4</ele>
        <time>2022-03-14T11:43:04Z</time>
      </trkpt>
      <trkpt lat="46.49095" lon="5.35064">
        <ele>233.2</ele>
        <time>2022-03-14T11:43:09Z</time>
      </trkpt>
      <trkpt lat="46.49119" lon="5.35042">
        <ele>232.4</ele>
        <time>2022-03-14T11:43:13Z</time>
      </trkpt>
      <trkpt lat="46.49138" lon="5.35026">
        <ele>232.2</ele>
        <time>2022-03-14T11:43:16Z</time>
      </trkpt>
      <trkpt lat="46.49153" lon="5.35013">
        <ele>231.8</ele>
        <time>2022-03-14T11:43:18Z</time>
      </trkpt>
      <trkpt lat="46.49168" lon="5.34996">
        <ele>231.6</ele>
        <time>2022-03-14T11:43:21Z</time>
      </trkpt>
      <trkpt lat="46.49181" lon="5.34984">
        <ele>231.4</ele>
        <time>2022-03-14T11:43:23Z</time>
      </trkpt>
      <trkpt lat="46.49197" lon="5.34964">
        <ele>231.2</ele>
        <time>2022-03-14T11:43:26Z</time>
      </trkpt>
      <trkpt lat="46.49204" lon="5.34957">
        <ele>231</ele>
        <time>2022-03-14T11:43:27Z</time>
      </trkpt>
      <trkpt lat="46.49209" lon="5.3495">
        <ele>231</ele>
        <time>2022-03-14T11:43:28Z</time>
      </trkpt>
      <trkpt lat="46.49219" lon="5.34934">
        <ele>230.8</ele>
        <time>2022-03-14T11:43:30Z</time>
      </trkpt>
      <trkpt lat="46.49235" lon="5.34907">
        <ele>230.4</ele>
        <time>2022-03-14T11:43:34Z</time>
      </trkpt>
      <trkpt lat="46.49247" lon="5.34895">
        <ele>230.4</ele>
        <time>2022-03-14T11:43:36Z</time>
      </trkpt>
      <trkpt lat="46.49252" lon="5.34889">
        <ele>230.4</ele>
        <time>2022-03-14T11:43:37Z</time>
      </trkpt>
      <trkpt lat="46.49258" lon="5.34884">
        <ele>230.4</ele>
        <time>2022-03-14T11:43:38Z</time>
      </trkpt>
      <trkpt lat="46.49275" lon="5.34862">
        <ele>230.2</ele>
        <time>2022-03-14T11:43:41Z</time>
      </trkpt>
      <trkpt lat="46.4928" lon="5.34856">
        <ele>230.2</ele>
        <time>2022-03-14T11:43:42Z</time>
      </trkpt>
      <trkpt lat="46.49293" lon="5.34843">
        <ele>230.2</ele>
        <time>2022-03-14T11:43:45Z</time>
      </trkpt>
      <trkpt lat="46.49301" lon="5.34839">
        <ele>230.2</ele>
        <time>2022-03-14T11:43:47Z</time>
      </trkpt>
      <trkpt lat="46.49309" lon="5.34837">
        <ele>230.2</ele>
        <time>2022-03-14T11:43:49Z</time>
      </trkpt>
      <trkpt lat="46.49328" lon="5.34833">
        <ele>230.2</ele>
        <time>2022-03-14T11:43:54Z</time>
      </trkpt>
      <trkpt lat="46.49332" lon="5.34832">
        <ele>230.2</ele>
        <time>2022-03-14T11:43:55Z</time>
      </trkpt>
      <trkpt lat="46.49351" lon="5.34827">
        <ele>230</ele>
        <time>2022-03-14T11:43:59Z</time>
      </trkpt>
      <trkpt lat="46.49375" lon="5.34816">
        <ele>230</ele>
        <time>2022-03-14T11:44:04Z</time>
      </trkpt>
      <trkpt lat="46.49397" lon="5.34799">
        <ele>230</ele>
        <time>2022-03-14T11:44:08Z</time>
      </trkpt>
      <trkpt lat="46.49421" lon="5.34778">
        <ele>230</ele>
        <time>2022-03-14T11:44:12Z</time>
      </trkpt>
      <trkpt lat="46.49439" lon="5.34765">
        <ele>229.6</ele>
        <time>2022-03-14T11:44:14Z</time>
      </trkpt>
      <trkpt lat="46.49462" lon="5.34743">
        <ele>228.8</ele>
        <time>2022-03-14T11:44:17Z</time>
      </trkpt>
      <trkpt lat="46.49471" lon="5.34735">
        <ele>228.4</ele>
        <time>2022-03-14T11:44:18Z</time>
      </trkpt>
      <trkpt lat="46.49487" lon="5.3472">
        <ele>227.2</ele>
        <time>2022-03-14T11:44:20Z</time>
      </trkpt>
      <trkpt lat="46.49496" lon="5.34711">
        <ele>227</ele>
        <time>2022-03-14T11:44:21Z</time>
      </trkpt>
      <trkpt lat="46.49515" lon="5.34693">
        <ele>226</ele>
        <time>2022-03-14T11:44:23Z</time>
      </trkpt>
      <trkpt lat="46.49541" lon="5.34667">
        <ele>225.4</ele>
        <time>2022-03-14T11:44:26Z</time>
      </trkpt>
      <trkpt lat="46.4955" lon="5.34658">
        <ele>225</ele>
        <time>2022-03-14T11:44:27Z</time>
      </trkpt>
      <trkpt lat="46.49558" lon="5.34647">
        <ele>224.6</ele>
        <time>2022-03-14T11:44:28Z</time>
      </trkpt>
      <trkpt lat="46.49574" lon="5.34628">
        <ele>223.4</ele>
        <time>2022-03-14T11:44:30Z</time>
      </trkpt>
      <trkpt lat="46.49585" lon="5.3461">
        <ele>222.2</ele>
        <time>2022-03-14T11:44:32Z</time>
      </trkpt>
      <trkpt lat="46.49599" lon="5.34591">
        <ele>221.4</ele>
        <time>2022-03-14T11:44:34Z</time>
      </trkpt>
      <trkpt lat="46.49605" lon="5.34581">
        <ele>221</ele>
        <time>2022-03-14T11:44:35Z</time>
      </trkpt>
      <trkpt lat="46.49617" lon="5.34559">
        <ele>220</ele>
        <time>2022-03-14T11:44:38Z</time>
      </trkpt>
      <trkpt lat="46.49623" lon="5.34551">
        <ele>219.2</ele>
        <time>2022-03-14T11:44:39Z</time>
      </trkpt>
      <trkpt lat="46.49628" lon="5.34545">
        <ele>218.8</ele>
        <time>2022-03-14T11:44:40Z</time>
      </trkpt>
      <trkpt lat="46.49636" lon="5.34539">
        <ele>218.2</ele>
        <time>2022-03-14T11:44:42Z</time>
      </trkpt>
      <trkpt lat="46.49639" lon="5.34536">
        <ele>218</ele>
        <time>2022-03-14T11:44:43Z</time>
      </trkpt>
      <trkpt lat="46.49646" lon="5.34524">
        <ele>217.8</ele>
        <time>2022-03-14T11:44:45Z</time>
      </trkpt>
      <trkpt lat="46.49648" lon="5.34517">
        <ele>217.8</ele>
        <time>2022-03-14T11:44:46Z</time>
      </trkpt>
      <trkpt lat="46.49652" lon="5.34503">
        <ele>217.8</ele>
        <time>2022-03-14T11:44:48Z</time>
      </trkpt>
      <trkpt lat="46.49656" lon="5.34487">
        <ele>217.8</ele>
        <time>2022-03-14T11:44:50Z</time>
      </trkpt>
      <trkpt lat="46.4966" lon="5.34473">
        <ele>217.8</ele>
        <time>2022-03-14T11:44:52Z</time>
      </trkpt>
      <trkpt lat="46.49666" lon="5.3445">
        <ele>218</ele>
        <time>2022-03-14T11:44:55Z</time>
      </trkpt>
      <trkpt lat="46.49674" lon="5.34421">
        <ele>218.8</ele>
        <time>2022-03-14T11:44:59Z</time>
      </trkpt>
      <trkpt lat="46.49677" lon="5.34412">
        <ele>219.2</ele>
        <time>2022-03-14T11:45:00Z</time>
      </trkpt>
      <trkpt lat="46.49684" lon="5.34378">
        <ele>220.2</ele>
        <time>2022-03-14T11:45:05Z</time>
      </trkpt>
      <trkpt lat="46.49686" lon="5.34368">
        <ele>220.2</ele>
        <time>2022-03-14T11:45:06Z</time>
      </trkpt>
      <trkpt lat="46.4969" lon="5.34353">
        <ele>220.6</ele>
        <time>2022-03-14T11:45:08Z</time>
      </trkpt>
      <trkpt lat="46.49693" lon="5.3434">
        <ele>220.8</ele>
        <time>2022-03-14T11:45:10Z</time>
      </trkpt>
      <trkpt lat="46.49695" lon="5.34332">
        <ele>221.2</ele>
        <time>2022-03-14T11:45:11Z</time>
      </trkpt>
      <trkpt lat="46.49697" lon="5.34327">
        <ele>221.4</ele>
        <time>2022-03-14T11:45:12Z</time>
      </trkpt>
      <trkpt lat="46.49706" lon="5.34313">
        <ele>222.2</ele>
        <time>2022-03-14T11:45:14Z</time>
      </trkpt>
      <trkpt lat="46.49712" lon="5.34305">
        <ele>222.2</ele>
        <time>2022-03-14T11:45:15Z</time>
      </trkpt>
      <trkpt lat="46.49724" lon="5.34287">
        <ele>222.4</ele>
        <time>2022-03-14T11:45:17Z</time>
      </trkpt>
      <trkpt lat="46.4973" lon="5.34281">
        <ele>222.6</ele>
        <time>2022-03-14T11:45:18Z</time>
      </trkpt>
      <trkpt lat="46.49736" lon="5.34274">
        <ele>222.6</ele>
        <time>2022-03-14T11:45:19Z</time>
      </trkpt>
      <trkpt lat="46.49751" lon="5.34244">
        <ele>222.8</ele>
        <time>2022-03-14T11:45:23Z</time>
      </trkpt>
      <trkpt lat="46.49757" lon="5.34232">
        <ele>222.8</ele>
        <time>2022-03-14T11:45:25Z</time>
      </trkpt>
      <trkpt lat="46.49779" lon="5.34192">
        <ele>222.4</ele>
        <time>2022-03-14T11:45:31Z</time>
      </trkpt>
      <trkpt lat="46.49787" lon="5.34179">
        <ele>222.4</ele>
        <time>2022-03-14T11:45:33Z</time>
      </trkpt>
      <trkpt lat="46.49808" lon="5.34148">
        <ele>222.6</ele>
        <time>2022-03-14T11:45:38Z</time>
      </trkpt>
      <trkpt lat="46.49818" lon="5.3413">
        <ele>222.8</ele>
        <time>2022-03-14T11:45:41Z</time>
      </trkpt>
      <trkpt lat="46.49835" lon="5.34103">
        <ele>223.2</ele>
        <time>2022-03-14T11:45:45Z</time>
      </trkpt>
      <trkpt lat="46.49842" lon="5.34091">
        <ele>223.4</ele>
        <time>2022-03-14T11:45:47Z</time>
      </trkpt>
      <trkpt lat="46.49867" lon="5.3406">
        <ele>223.2</ele>
        <time>2022-03-14T11:45:52Z</time>
      </trkpt>
      <trkpt lat="46.49905" lon="5.34015">
        <ele>223.2</ele>
        <time>2022-03-14T11:46:00Z</time>
      </trkpt>
      <trkpt lat="46.49913" lon="5.34005">
        <ele>223.4</ele>
        <time>2022-03-14T11:46:02Z</time>
      </trkpt>
      <trkpt lat="46.49919" lon="5.33996">
        <ele>223.6</ele>
        <time>2022-03-14T11:46:04Z</time>
      </trkpt>
      <trkpt lat="46.49924" lon="5.33991">
        <ele>223.6</ele>
        <time>2022-03-14T11:46:05Z</time>
      </trkpt>
      <trkpt lat="46.49943" lon="5.33969">
        <ele>224.4</ele>
        <time>2022-03-14T11:46:10Z</time>
      </trkpt>
      <trkpt lat="46.49963" lon="5.33943">
        <ele>225</ele>
        <time>2022-03-14T11:46:16Z</time>
      </trkpt>
      <trkpt lat="46.49971" lon="5.33934">
        <ele>225.4</ele>
        <time>2022-03-14T11:46:18Z</time>
      </trkpt>
      <trkpt lat="46.49984" lon="5.33924">
        <ele>225.6</ele>
        <time>2022-03-14T11:46:20Z</time>
      </trkpt>
      <trkpt lat="46.49995" lon="5.33912">
        <ele>225.6</ele>
        <time>2022-03-14T11:46:22Z</time>
      </trkpt>
      <trkpt lat="46.50012" lon="5.33897">
        <ele>225.8</ele>
        <time>2022-03-14T11:46:25Z</time>
      </trkpt>
      <trkpt lat="46.50025" lon="5.33884">
        <ele>225.8</ele>
        <time>2022-03-14T11:46:27Z</time>
      </trkpt>
      <trkpt lat="46.5007" lon="5.33839">
        <ele>225.6</ele>
        <time>2022-03-14T11:46:33Z</time>
      </trkpt>
      <trkpt lat="46.50114" lon="5.3379">
        <ele>224.4</ele>
        <time>2022-03-14T11:46:40Z</time>
      </trkpt>
      <trkpt lat="46.50114" lon="5.3379">
        <ele>224.2</ele>
        <time>2022-03-14T11:46:41Z</time>
      </trkpt>
      <trkpt lat="46.50142" lon="5.33758">
        <ele>223.8</ele>
        <time>2022-03-14T11:46:45Z</time>
      </trkpt>
      <trkpt lat="46.50146" lon="5.33753">
        <ele>223.8</ele>
        <time>2022-03-14T11:46:47Z</time>
      </trkpt>
      <trkpt lat="46.5017" lon="5.3373">
        <ele>223.8</ele>
        <time>2022-03-14T11:46:50Z</time>
      </trkpt>
      <trkpt lat="46.50174" lon="5.33725">
        <ele>224</ele>
        <time>2022-03-14T11:46:52Z</time>
      </trkpt>
      <trkpt lat="46.50188" lon="5.33712">
        <ele>224</ele>
        <time>2022-03-14T11:46:53Z</time>
      </trkpt>
      <trkpt lat="46.5019" lon="5.33705">
        <ele>224</ele>
        <time>2022-03-14T11:46:54Z</time>
      </trkpt>
      <trkpt lat="46.50198" lon="5.33695">
        <ele>224.2</ele>
        <time>2022-03-14T11:46:56Z</time>
      </trkpt>
      <trkpt lat="46.50207" lon="5.33683">
        <ele>224.2</ele>
        <time>2022-03-14T11:46:58Z</time>
      </trkpt>
      <trkpt lat="46.50227" lon="5.33661">
        <ele>224</ele>
        <time>2022-03-14T11:47:02Z</time>
      </trkpt>
      <trkpt lat="46.5024" lon="5.33649">
        <ele>224</ele>
        <time>2022-03-14T11:47:04Z</time>
      </trkpt>
      <trkpt lat="46.50255" lon="5.33638">
        <ele>224</ele>
        <time>2022-03-14T11:47:06Z</time>
      </trkpt>
      <trkpt lat="46.50302" lon="5.33585">
        <ele>223.8</ele>
        <time>2022-03-14T11:47:14Z</time>
      </trkpt>
      <trkpt lat="46.50312" lon="5.33572">
        <ele>223.2</ele>
        <time>2022-03-14T11:47:16Z</time>
      </trkpt>
      <trkpt lat="46.50322" lon="5.33561">
        <ele>223</ele>
        <time>2022-03-14T11:47:18Z</time>
      </trkpt>
      <trkpt lat="46.50345" lon="5.33537">
        <ele>222.4</ele>
        <time>2022-03-14T11:47:22Z</time>
      </trkpt>
      <trkpt lat="46.50377" lon="5.33502">
        <ele>222.2</ele>
        <time>2022-03-14T11:47:28Z</time>
      </trkpt>
      <trkpt lat="46.5038" lon="5.33498">
        <ele>222.2</ele>
        <time>2022-03-14T11:47:29Z</time>
      </trkpt>
      <trkpt lat="46.50389" lon="5.33485">
        <ele>221.8</ele>
        <time>2022-03-14T11:47:31Z</time>
      </trkpt>
      <trkpt lat="46.50401" lon="5.33473">
        <ele>221.6</ele>
        <time>2022-03-14T11:47:33Z</time>
      </trkpt>
      <trkpt lat="46.50408" lon="5.33467">
        <ele>221.6</ele>
        <time>2022-03-14T11:47:34Z</time>
      </trkpt>
      <trkpt lat="46.50423" lon="5.33452">
        <ele>221.4</ele>
        <time>2022-03-14T11:47:36Z</time>
      </trkpt>
      <trkpt lat="46.50439" lon="5.33428">
        <ele>221</ele>
        <time>2022-03-14T11:47:39Z</time>
      </trkpt>
      <trkpt lat="46.50445" lon="5.33419">
        <ele>221</ele>
        <time>2022-03-14T11:47:40Z</time>
      </trkpt>
      <trkpt lat="46.50451" lon="5.33407">
        <ele>220.8</ele>
        <time>2022-03-14T11:47:41Z</time>
      </trkpt>
      <trkpt lat="46.50458" lon="5.33386">
        <ele>220.6</ele>
        <time>2022-03-14T11:47:43Z</time>
      </trkpt>
      <trkpt lat="46.5046" lon="5.33377">
        <ele>220.4</ele>
        <time>2022-03-14T11:47:44Z</time>
      </trkpt>
      <trkpt lat="46.50463" lon="5.33354">
        <ele>220.2</ele>
        <time>2022-03-14T11:47:46Z</time>
      </trkpt>
      <trkpt lat="46.50464" lon="5.33343">
        <ele>220.2</ele>
        <time>2022-03-14T11:47:47Z</time>
      </trkpt>
      <trkpt lat="46.50465" lon="5.33331">
        <ele>220.2</ele>
        <time>2022-03-14T11:47:48Z</time>
      </trkpt>
      <trkpt lat="46.50464" lon="5.33309">
        <ele>220</ele>
        <time>2022-03-14T11:47:51Z</time>
      </trkpt>
      <trkpt lat="46.50466" lon="5.33237">
        <ele>220.2</ele>
        <time>2022-03-14T11:47:57Z</time>
      </trkpt>
      <trkpt lat="46.50466" lon="5.33218">
        <ele>220.2</ele>
        <time>2022-03-14T11:47:59Z</time>
      </trkpt>
      <trkpt lat="46.50467" lon="5.33201">
        <ele>220.2</ele>
        <time>2022-03-14T11:48:01Z</time>
      </trkpt>
      <trkpt lat="46.50468" lon="5.33169">
        <ele>220</ele>
        <time>2022-03-14T11:48:04Z</time>
      </trkpt>
      <trkpt lat="46.50468" lon="5.33127">
        <ele>220</ele>
        <time>2022-03-14T11:48:08Z</time>
      </trkpt>
      <trkpt lat="46.50469" lon="5.33084">
        <ele>219.6</ele>
        <time>2022-03-14T11:48:12Z</time>
      </trkpt>
      <trkpt lat="46.50469" lon="5.3307">
        <ele>219.2</ele>
        <time>2022-03-14T11:48:13Z</time>
      </trkpt>
      <trkpt lat="46.50469" lon="5.33034">
        <ele>218.2</ele>
        <time>2022-03-14T11:48:16Z</time>
      </trkpt>
      <trkpt lat="46.5047" lon="5.3299">
        <ele>217.2</ele>
        <time>2022-03-14T11:48:19Z</time>
      </trkpt>
      <trkpt lat="46.50471" lon="5.32976">
        <ele>216.6</ele>
        <time>2022-03-14T11:48:20Z</time>
      </trkpt>
      <trkpt lat="46.50471" lon="5.32937">
        <ele>215.2</ele>
        <time>2022-03-14T11:48:23Z</time>
      </trkpt>
      <trkpt lat="46.50472" lon="5.32892">
        <ele>214</ele>
        <time>2022-03-14T11:48:26Z</time>
      </trkpt>
      <trkpt lat="46.50472" lon="5.32881">
        <ele>213.6</ele>
        <time>2022-03-14T11:48:27Z</time>
      </trkpt>
      <trkpt lat="46.50473" lon="5.32866">
        <ele>212.4</ele>
        <time>2022-03-14T11:48:29Z</time>
      </trkpt>
      <trkpt lat="46.50474" lon="5.32808">
        <ele>210.8</ele>
        <time>2022-03-14T11:48:32Z</time>
      </trkpt>
      <trkpt lat="46.50474" lon="5.32794">
        <ele>209.6</ele>
        <time>2022-03-14T11:48:34Z</time>
      </trkpt>
      <trkpt lat="46.50475" lon="5.32737">
        <ele>208.6</ele>
        <time>2022-03-14T11:48:37Z</time>
      </trkpt>
      <trkpt lat="46.50476" lon="5.32685">
        <ele>207.4</ele>
        <time>2022-03-14T11:48:41Z</time>
      </trkpt>
      <trkpt lat="46.50477" lon="5.32647">
        <ele>207</ele>
        <time>2022-03-14T11:48:44Z</time>
      </trkpt>
      <trkpt lat="46.50476" lon="5.32586">
        <ele>206.4</ele>
        <time>2022-03-14T11:48:50Z</time>
      </trkpt>
      <trkpt lat="46.50475" lon="5.32562">
        <ele>206.4</ele>
        <time>2022-03-14T11:48:51Z</time>
      </trkpt>
      <trkpt lat="46.50471" lon="5.32491">
        <ele>205.4</ele>
        <time>2022-03-14T11:48:57Z</time>
      </trkpt>
      <trkpt lat="46.50468" lon="5.32458">
        <ele>204.6</ele>
        <time>2022-03-14T11:49:01Z</time>
      </trkpt>
      <trkpt lat="46.50462" lon="5.32414">
        <ele>204.2</ele>
        <time>2022-03-14T11:49:04Z</time>
      </trkpt>
      <trkpt lat="46.50455" lon="5.32383">
        <ele>204</ele>
        <time>2022-03-14T11:49:07Z</time>
      </trkpt>
      <trkpt lat="46.50439" lon="5.32303">
        <ele>203.6</ele>
        <time>2022-03-14T11:49:15Z</time>
      </trkpt>
      <trkpt lat="46.50437" lon="5.32293">
        <ele>203.6</ele>
        <time>2022-03-14T11:49:17Z</time>
      </trkpt>
      <trkpt lat="46.50431" lon="5.32235">
        <ele>203.2</ele>
        <time>2022-03-14T11:49:22Z</time>
      </trkpt>
      <trkpt lat="46.50431" lon="5.32224">
        <ele>203.2</ele>
        <time>2022-03-14T11:49:23Z</time>
      </trkpt>
      <trkpt lat="46.50431" lon="5.32214">
        <ele>203.2</ele>
        <time>2022-03-14T11:49:24Z</time>
      </trkpt>
      <trkpt lat="46.50432" lon="5.32205">
        <ele>203</ele>
        <time>2022-03-14T11:49:26Z</time>
      </trkpt>
      <trkpt lat="46.5044" lon="5.3219">
        <ele>203</ele>
        <time>2022-03-14T11:49:27Z</time>
      </trkpt>
      <trkpt lat="46.50445" lon="5.32185">
        <ele>203</ele>
        <time>2022-03-14T11:49:28Z</time>
      </trkpt>
      <trkpt lat="46.5045" lon="5.3218">
        <ele>202.8</ele>
        <time>2022-03-14T11:49:29Z</time>
      </trkpt>
      <trkpt lat="46.5046" lon="5.32167">
        <ele>202.6</ele>
        <time>2022-03-14T11:49:31Z</time>
      </trkpt>
      <trkpt lat="46.50464" lon="5.32158">
        <ele>202.6</ele>
        <time>2022-03-14T11:49:32Z</time>
      </trkpt>
      <trkpt lat="46.5047" lon="5.32139">
        <ele>202.6</ele>
        <time>2022-03-14T11:49:34Z</time>
      </trkpt>
      <trkpt lat="46.50479" lon="5.32111">
        <ele>202.8</ele>
        <time>2022-03-14T11:49:38Z</time>
      </trkpt>
      <trkpt lat="46.50508" lon="5.32053">
        <ele>203.4</ele>
        <time>2022-03-14T11:49:44Z</time>
      </trkpt>
      <trkpt lat="46.5054" lon="5.32005">
        <ele>203.6</ele>
        <time>2022-03-14T11:49:51Z</time>
      </trkpt>
      <trkpt lat="46.5056" lon="5.31967">
        <ele>204</ele>
        <time>2022-03-14T11:49:57Z</time>
      </trkpt>
      <trkpt lat="46.50565" lon="5.31948">
        <ele>204.4</ele>
        <time>2022-03-14T11:50:00Z</time>
      </trkpt>
      <trkpt lat="46.50567" lon="5.31942">
        <ele>204.6</ele>
        <time>2022-03-14T11:50:01Z</time>
      </trkpt>
      <trkpt lat="46.50573" lon="5.31924">
        <ele>205.6</ele>
        <time>2022-03-14T11:50:04Z</time>
      </trkpt>
      <trkpt lat="46.50581" lon="5.31901">
        <ele>206.8</ele>
        <time>2022-03-14T11:50:08Z</time>
      </trkpt>
      <trkpt lat="46.50585" lon="5.31891">
        <ele>207.2</ele>
        <time>2022-03-14T11:50:10Z</time>
      </trkpt>
      <trkpt lat="46.50587" lon="5.31886">
        <ele>207.4</ele>
        <time>2022-03-14T11:50:11Z</time>
      </trkpt>
      <trkpt lat="46.50591" lon="5.31875">
        <ele>207.8</ele>
        <time>2022-03-14T11:50:13Z</time>
      </trkpt>
      <trkpt lat="46.50598" lon="5.31849">
        <ele>209.2</ele>
        <time>2022-03-14T11:50:18Z</time>
      </trkpt>
      <trkpt lat="46.50607" lon="5.31816">
        <ele>210.2</ele>
        <time>2022-03-14T11:50:24Z</time>
      </trkpt>
      <trkpt lat="46.50609" lon="5.3181">
        <ele>210.4</ele>
        <time>2022-03-14T11:50:25Z</time>
      </trkpt>
      <trkpt lat="46.50618" lon="5.31785">
        <ele>211.4</ele>
        <time>2022-03-14T11:50:29Z</time>
      </trkpt>
      <trkpt lat="46.5062" lon="5.31778">
        <ele>211.4</ele>
        <time>2022-03-14T11:50:30Z</time>
      </trkpt>
      <trkpt lat="46.50626" lon="5.31765">
        <ele>211.8</ele>
        <time>2022-03-14T11:50:32Z</time>
      </trkpt>
      <trkpt lat="46.50641" lon="5.31737">
        <ele>212</ele>
        <time>2022-03-14T11:50:36Z</time>
      </trkpt>
      <trkpt lat="46.5065" lon="5.31725">
        <ele>212.2</ele>
        <time>2022-03-14T11:50:38Z</time>
      </trkpt>
      <trkpt lat="46.50661" lon="5.31719">
        <ele>212.2</ele>
        <time>2022-03-14T11:50:40Z</time>
      </trkpt>
      <trkpt lat="46.50678" lon="5.31712">
        <ele>212.2</ele>
        <time>2022-03-14T11:50:43Z</time>
      </trkpt>
      <trkpt lat="46.50707" lon="5.31709">
        <ele>212.4</ele>
        <time>2022-03-14T11:50:48Z</time>
      </trkpt>
      <trkpt lat="46.50731" lon="5.31706">
        <ele>212.6</ele>
        <time>2022-03-14T11:50:52Z</time>
      </trkpt>
      <trkpt lat="46.50755" lon="5.31704">
        <ele>212.6</ele>
        <time>2022-03-14T11:50:56Z</time>
      </trkpt>
      <trkpt lat="46.50773" lon="5.31707">
        <ele>212.6</ele>
        <time>2022-03-14T11:50:59Z</time>
      </trkpt>
      <trkpt lat="46.50801" lon="5.31726">
        <ele>212.8</ele>
        <time>2022-03-14T11:51:04Z</time>
      </trkpt>
      <trkpt lat="46.50821" lon="5.31742">
        <ele>212.8</ele>
        <time>2022-03-14T11:51:08Z</time>
      </trkpt>
      <trkpt lat="46.50832" lon="5.31746">
        <ele>213</ele>
        <time>2022-03-14T11:51:10Z</time>
      </trkpt>
      <trkpt lat="46.50837" lon="5.31747">
        <ele>213</ele>
        <time>2022-03-14T11:51:11Z</time>
      </trkpt>
      <trkpt lat="46.50842" lon="5.31746">
        <ele>213.2</ele>
        <time>2022-03-14T11:51:12Z</time>
      </trkpt>
      <trkpt lat="46.50852" lon="5.31741">
        <ele>213.4</ele>
        <time>2022-03-14T11:51:14Z</time>
      </trkpt>
      <trkpt lat="46.50857" lon="5.31736">
        <ele>213.6</ele>
        <time>2022-03-14T11:51:15Z</time>
      </trkpt>
      <trkpt lat="46.50878" lon="5.31712">
        <ele>214</ele>
        <time>2022-03-14T11:51:20Z</time>
      </trkpt>
      <trkpt lat="46.50908" lon="5.31681">
        <ele>214.2</ele>
        <time>2022-03-14T11:51:26Z</time>
      </trkpt>
      <trkpt lat="46.50946" lon="5.31642">
        <ele>214</ele>
        <time>2022-03-14T11:51:32Z</time>
      </trkpt>
      <trkpt lat="46.50996" lon="5.31591">
        <ele>213</ele>
        <time>2022-03-14T11:51:40Z</time>
      </trkpt>
      <trkpt lat="46.51012" lon="5.31575">
        <ele>212.8</ele>
        <time>2022-03-14T11:51:43Z</time>
      </trkpt>
      <trkpt lat="46.51027" lon="5.31557">
        <ele>213</ele>
        <time>2022-03-14T11:51:46Z</time>
      </trkpt>
      <trkpt lat="46.51031" lon="5.3155">
        <ele>213</ele>
        <time>2022-03-14T11:51:47Z</time>
      </trkpt>
      <trkpt lat="46.51038" lon="5.31534">
        <ele>213.2</ele>
        <time>2022-03-14T11:51:49Z</time>
      </trkpt>
      <trkpt lat="46.51041" lon="5.31525">
        <ele>213.2</ele>
        <time>2022-03-14T11:51:50Z</time>
      </trkpt>
      <trkpt lat="46.51053" lon="5.31474">
        <ele>212.8</ele>
        <time>2022-03-14T11:51:55Z</time>
      </trkpt>
      <trkpt lat="46.51058" lon="5.31452">
        <ele>212.4</ele>
        <time>2022-03-14T11:51:57Z</time>
      </trkpt>
      <trkpt lat="46.51068" lon="5.31408">
        <ele>211.2</ele>
        <time>2022-03-14T11:52:01Z</time>
      </trkpt>
      <trkpt lat="46.51071" lon="5.31384">
        <ele>210.8</ele>
        <time>2022-03-14T11:52:03Z</time>
      </trkpt>
      <trkpt lat="46.51071" lon="5.3136">
        <ele>210.2</ele>
        <time>2022-03-14T11:52:05Z</time>
      </trkpt>
      <trkpt lat="46.5107" lon="5.31337">
        <ele>209.6</ele>
        <time>2022-03-14T11:52:07Z</time>
      </trkpt>
      <trkpt lat="46.51071" lon="5.31324">
        <ele>208.8</ele>
        <time>2022-03-14T11:52:09Z</time>
      </trkpt>
      <trkpt lat="46.51076" lon="5.31302">
        <ele>208.6</ele>
        <time>2022-03-14T11:52:10Z</time>
      </trkpt>
      <trkpt lat="46.51094" lon="5.31275">
        <ele>207.8</ele>
        <time>2022-03-14T11:52:13Z</time>
      </trkpt>
      <trkpt lat="46.51101" lon="5.31266">
        <ele>207.8</ele>
        <time>2022-03-14T11:52:14Z</time>
      </trkpt>
      <trkpt lat="46.5113" lon="5.31232">
        <ele>206.4</ele>
        <time>2022-03-14T11:52:18Z</time>
      </trkpt>
      <trkpt lat="46.51137" lon="5.31224">
        <ele>206</ele>
        <time>2022-03-14T11:52:19Z</time>
      </trkpt>
      <trkpt lat="46.51158" lon="5.31198">
        <ele>205</ele>
        <time>2022-03-14T11:52:22Z</time>
      </trkpt>
      <trkpt lat="46.51177" lon="5.31174">
        <ele>204.2</ele>
        <time>2022-03-14T11:52:25Z</time>
      </trkpt>
      <trkpt lat="46.51189" lon="5.31158">
        <ele>204</ele>
        <time>2022-03-14T11:52:27Z</time>
      </trkpt>
      <trkpt lat="46.512" lon="5.31142">
        <ele>203.8</ele>
        <time>2022-03-14T11:52:30Z</time>
      </trkpt>
      <trkpt lat="46.51233" lon="5.31105">
        <ele>202.8</ele>
        <time>2022-03-14T11:52:34Z</time>
      </trkpt>
      <trkpt lat="46.5125" lon="5.3109">
        <ele>202.6</ele>
        <time>2022-03-14T11:52:36Z</time>
      </trkpt>
      <trkpt lat="46.51267" lon="5.31081">
        <ele>202.4</ele>
        <time>2022-03-14T11:52:38Z</time>
      </trkpt>
      <trkpt lat="46.51276" lon="5.3108">
        <ele>202.2</ele>
        <time>2022-03-14T11:52:39Z</time>
      </trkpt>
      <trkpt lat="46.51285" lon="5.31079">
        <ele>201.8</ele>
        <time>2022-03-14T11:52:40Z</time>
      </trkpt>
      <trkpt lat="46.51332" lon="5.31076">
        <ele>201.2</ele>
        <time>2022-03-14T11:52:46Z</time>
      </trkpt>
      <trkpt lat="46.51389" lon="5.31073">
        <ele>201.4</ele>
        <time>2022-03-14T11:52:54Z</time>
      </trkpt>
      <trkpt lat="46.51445" lon="5.3107">
        <ele>201.4</ele>
        <time>2022-03-14T11:53:02Z</time>
      </trkpt>
      <trkpt lat="46.51467" lon="5.3107">
        <ele>201.4</ele>
        <time>2022-03-14T11:53:05Z</time>
      </trkpt>
      <trkpt lat="46.51528" lon="5.31073">
        <ele>201.2</ele>
        <time>2022-03-14T11:53:14Z</time>
      </trkpt>
      <trkpt lat="46.51535" lon="5.31074">
        <ele>201.2</ele>
        <time>2022-03-14T11:53:16Z</time>
      </trkpt>
      <trkpt lat="46.51592" lon="5.31084">
        <ele>201.4</ele>
        <time>2022-03-14T11:53:24Z</time>
      </trkpt>
      <trkpt lat="46.51592" lon="5.31084">
        <ele>201.4</ele>
        <time>2022-03-14T11:53:25Z</time>
      </trkpt>
      <trkpt lat="46.51625" lon="5.31099">
        <ele>201.6</ele>
        <time>2022-03-14T11:53:31Z</time>
      </trkpt>
      <trkpt lat="46.51634" lon="5.31104">
        <ele>201.8</ele>
        <time>2022-03-14T11:53:32Z</time>
      </trkpt>
      <trkpt lat="46.51649" lon="5.31105">
        <ele>202.2</ele>
        <time>2022-03-14T11:53:35Z</time>
      </trkpt>
      <trkpt lat="46.51654" lon="5.31105">
        <ele>202.4</ele>
        <time>2022-03-14T11:53:36Z</time>
      </trkpt>
      <trkpt lat="46.51664" lon="5.31105">
        <ele>203</ele>
        <time>2022-03-14T11:53:38Z</time>
      </trkpt>
      <trkpt lat="46.51672" lon="5.31111">
        <ele>203.6</ele>
        <time>2022-03-14T11:53:40Z</time>
      </trkpt>
      <trkpt lat="46.51691" lon="5.31144">
        <ele>203.8</ele>
        <time>2022-03-14T11:53:45Z</time>
      </trkpt>
      <trkpt lat="46.51696" lon="5.3115">
        <ele>204</ele>
        <time>2022-03-14T11:53:46Z</time>
      </trkpt>
      <trkpt lat="46.51713" lon="5.31167">
        <ele>203.8</ele>
        <time>2022-03-14T11:53:49Z</time>
      </trkpt>
      <trkpt lat="46.5172" lon="5.31171">
        <ele>203.6</ele>
        <time>2022-03-14T11:53:50Z</time>
      </trkpt>
      <trkpt lat="46.51742" lon="5.31179">
        <ele>203.4</ele>
        <time>2022-03-14T11:53:53Z</time>
      </trkpt>
      <trkpt lat="46.5175" lon="5.31181">
        <ele>203.4</ele>
        <time>2022-03-14T11:53:54Z</time>
      </trkpt>
      <trkpt lat="46.51784" lon="5.31182">
        <ele>202</ele>
        <time>2022-03-14T11:53:58Z</time>
      </trkpt>
      <trkpt lat="46.51793" lon="5.31182">
        <ele>201.8</ele>
        <time>2022-03-14T11:53:59Z</time>
      </trkpt>
      <trkpt lat="46.51821" lon="5.31184">
        <ele>200.6</ele>
        <time>2022-03-14T11:54:02Z</time>
      </trkpt>
      <trkpt lat="46.51839" lon="5.3119">
        <ele>199.8</ele>
        <time>2022-03-14T11:54:04Z</time>
      </trkpt>
      <trkpt lat="46.51847" lon="5.31194">
        <ele>199.6</ele>
        <time>2022-03-14T11:54:05Z</time>
      </trkpt>
      <trkpt lat="46.51855" lon="5.31201">
        <ele>199.2</ele>
        <time>2022-03-14T11:54:06Z</time>
      </trkpt>
      <trkpt lat="46.51863" lon="5.31208">
        <ele>198.8</ele>
        <time>2022-03-14T11:54:07Z</time>
      </trkpt>
      <trkpt lat="46.5187" lon="5.31215">
        <ele>198.2</ele>
        <time>2022-03-14T11:54:08Z</time>
      </trkpt>
      <trkpt lat="46.51888" lon="5.31241">
        <ele>197.4</ele>
        <time>2022-03-14T11:54:11Z</time>
      </trkpt>
      <trkpt lat="46.51899" lon="5.31257">
        <ele>196.8</ele>
        <time>2022-03-14T11:54:13Z</time>
      </trkpt>
      <trkpt lat="46.51931" lon="5.31306">
        <ele>196.2</ele>
        <time>2022-03-14T11:54:19Z</time>
      </trkpt>
      <trkpt lat="46.51971" lon="5.31365">
        <ele>196.4</ele>
        <time>2022-03-14T11:54:27Z</time>
      </trkpt>
      <trkpt lat="46.52008" lon="5.3142">
        <ele>197</ele>
        <time>2022-03-14T11:54:35Z</time>
      </trkpt>
      <trkpt lat="46.52041" lon="5.3147">
        <ele>197.8</ele>
        <time>2022-03-14T11:54:43Z</time>
      </trkpt>
      <trkpt lat="46.52049" lon="5.31482">
        <ele>198</ele>
        <time>2022-03-14T11:54:45Z</time>
      </trkpt>
      <trkpt lat="46.52072" lon="5.31513">
        <ele>199</ele>
        <time>2022-03-14T11:54:51Z</time>
      </trkpt>
      <trkpt lat="46.52075" lon="5.31518">
        <ele>199</ele>
        <time>2022-03-14T11:54:52Z</time>
      </trkpt>
      <trkpt lat="46.52099" lon="5.31552">
        <ele>200.2</ele>
        <time>2022-03-14T11:54:59Z</time>
      </trkpt>
      <trkpt lat="46.52119" lon="5.31581">
        <ele>200.8</ele>
        <time>2022-03-14T11:55:05Z</time>
      </trkpt>
      <trkpt lat="46.52126" lon="5.31591">
        <ele>201</ele>
        <time>2022-03-14T11:55:07Z</time>
      </trkpt>
      <trkpt lat="46.52129" lon="5.31596">
        <ele>201.2</ele>
        <time>2022-03-14T11:55:08Z</time>
      </trkpt>
      <trkpt lat="46.52146" lon="5.31621">
        <ele>202.2</ele>
        <time>2022-03-14T11:55:13Z</time>
      </trkpt>
      <trkpt lat="46.52149" lon="5.31625">
        <ele>202.2</ele>
        <time>2022-03-14T11:55:14Z</time>
      </trkpt>
      <trkpt lat="46.52153" lon="5.3163">
        <ele>202.6</ele>
        <time>2022-03-14T11:55:15Z</time>
      </trkpt>
      <trkpt lat="46.52169" lon="5.31657">
        <ele>203.4</ele>
        <time>2022-03-14T11:55:20Z</time>
      </trkpt>
      <trkpt lat="46.52191" lon="5.31685">
        <ele>204.4</ele>
        <time>2022-03-14T11:55:26Z</time>
      </trkpt>
      <trkpt lat="46.52207" lon="5.31704">
        <ele>205</ele>
        <time>2022-03-14T11:55:30Z</time>
      </trkpt>
      <trkpt lat="46.52216" lon="5.31718">
        <ele>205.4</ele>
        <time>2022-03-14T11:55:33Z</time>
      </trkpt>
      <trkpt lat="46.52231" lon="5.31741">
        <ele>206</ele>
        <time>2022-03-14T11:55:38Z</time>
      </trkpt>
      <trkpt lat="46.52244" lon="5.31758">
        <ele>206.4</ele>
        <time>2022-03-14T11:55:42Z</time>
      </trkpt>
      <trkpt lat="46.52253" lon="5.31773">
        <ele>206.8</ele>
        <time>2022-03-14T11:55:45Z</time>
      </trkpt>
      <trkpt lat="46.5227" lon="5.31797">
        <ele>207.4</ele>
        <time>2022-03-14T11:55:51Z</time>
      </trkpt>
      <trkpt lat="46.52294" lon="5.31829">
        <ele>208.4</ele>
        <time>2022-03-14T11:55:57Z</time>
      </trkpt>
      <trkpt lat="46.52301" lon="5.3184">
        <ele>208.6</ele>
        <time>2022-03-14T11:55:59Z</time>
      </trkpt>
      <trkpt lat="46.52326" lon="5.31875">
        <ele>209.6</ele>
        <time>2022-03-14T11:56:06Z</time>
      </trkpt>
      <trkpt lat="46.52338" lon="5.31893">
        <ele>210.6</ele>
        <time>2022-03-14T11:56:10Z</time>
      </trkpt>
      <trkpt lat="46.52341" lon="5.31897">
        <ele>210.8</ele>
        <time>2022-03-14T11:56:11Z</time>
      </trkpt>
      <trkpt lat="46.52361" lon="5.31926">
        <ele>211.8</ele>
        <time>2022-03-14T11:56:17Z</time>
      </trkpt>
      <trkpt lat="46.52368" lon="5.31937">
        <ele>212</ele>
        <time>2022-03-14T11:56:19Z</time>
      </trkpt>
      <trkpt lat="46.52401" lon="5.31982">
        <ele>211.8</ele>
        <time>2022-03-14T11:56:26Z</time>
      </trkpt>
      <trkpt lat="46.52431" lon="5.32027">
        <ele>210.8</ele>
        <time>2022-03-14T11:56:32Z</time>
      </trkpt>
      <trkpt lat="46.52465" lon="5.32074">
        <ele>209.2</ele>
        <time>2022-03-14T11:56:38Z</time>
      </trkpt>
      <trkpt lat="46.52482" lon="5.32098">
        <ele>208.2</ele>
        <time>2022-03-14T11:56:41Z</time>
      </trkpt>
      <trkpt lat="46.52488" lon="5.32106">
        <ele>208</ele>
        <time>2022-03-14T11:56:42Z</time>
      </trkpt>
      <trkpt lat="46.52511" lon="5.32138">
        <ele>206.6</ele>
        <time>2022-03-14T11:56:46Z</time>
      </trkpt>
      <trkpt lat="46.5253" lon="5.32162">
        <ele>205.8</ele>
        <time>2022-03-14T11:56:49Z</time>
      </trkpt>
      <trkpt lat="46.52536" lon="5.32169">
        <ele>205.2</ele>
        <time>2022-03-14T11:56:50Z</time>
      </trkpt>
      <trkpt lat="46.52543" lon="5.32176">
        <ele>205</ele>
        <time>2022-03-14T11:56:51Z</time>
      </trkpt>
      <trkpt lat="46.52555" lon="5.32186">
        <ele>204.8</ele>
        <time>2022-03-14T11:56:53Z</time>
      </trkpt>
      <trkpt lat="46.52561" lon="5.32188">
        <ele>204.4</ele>
        <time>2022-03-14T11:56:54Z</time>
      </trkpt>
      <trkpt lat="46.52567" lon="5.32188">
        <ele>204</ele>
        <time>2022-03-14T11:56:55Z</time>
      </trkpt>
      <trkpt lat="46.52577" lon="5.32181">
        <ele>203</ele>
        <time>2022-03-14T11:56:57Z</time>
      </trkpt>
      <trkpt lat="46.5258" lon="5.32174">
        <ele>202.8</ele>
        <time>2022-03-14T11:56:58Z</time>
      </trkpt>
      <trkpt lat="46.52591" lon="5.32147">
        <ele>202.2</ele>
        <time>2022-03-14T11:57:02Z</time>
      </trkpt>
      <trkpt lat="46.52609" lon="5.32104">
        <ele>202.2</ele>
        <time>2022-03-14T11:57:09Z</time>
      </trkpt>
      <trkpt lat="46.52628" lon="5.32057">
        <ele>204.2</ele>
        <time>2022-03-14T11:57:17Z</time>
      </trkpt>
      <trkpt lat="46.52641" lon="5.3202">
        <ele>205.4</ele>
        <time>2022-03-14T11:57:24Z</time>
      </trkpt>
      <trkpt lat="46.52644" lon="5.3201">
        <ele>206</ele>
        <time>2022-03-14T11:57:26Z</time>
      </trkpt>
      <trkpt lat="46.52652" lon="5.31986">
        <ele>206.4</ele>
        <time>2022-03-14T11:57:31Z</time>
      </trkpt>
      <trkpt lat="46.52656" lon="5.31966">
        <ele>207.2</ele>
        <time>2022-03-14T11:57:35Z</time>
      </trkpt>
      <trkpt lat="46.52657" lon="5.31961">
        <ele>207.6</ele>
        <time>2022-03-14T11:57:36Z</time>
      </trkpt>
      <trkpt lat="46.52665" lon="5.31933">
        <ele>208.8</ele>
        <time>2022-03-14T11:57:42Z</time>
      </trkpt>
      <trkpt lat="46.5267" lon="5.31912">
        <ele>210</ele>
        <time>2022-03-14T11:57:47Z</time>
      </trkpt>
      <trkpt lat="46.52672" lon="5.31903">
        <ele>210.6</ele>
        <time>2022-03-14T11:57:49Z</time>
      </trkpt>
      <trkpt lat="46.52672" lon="5.31899">
        <ele>211</ele>
        <time>2022-03-14T11:57:50Z</time>
      </trkpt>
      <trkpt lat="46.52681" lon="5.31869">
        <ele>212</ele>
        <time>2022-03-14T11:57:56Z</time>
      </trkpt>
      <trkpt lat="46.52683" lon="5.31864">
        <ele>212.4</ele>
        <time>2022-03-14T11:57:57Z</time>
      </trkpt>
      <trkpt lat="46.52686" lon="5.31852">
        <ele>213.2</ele>
        <time>2022-03-14T11:57:59Z</time>
      </trkpt>
      <trkpt lat="46.52696" lon="5.31831">
        <ele>214.2</ele>
        <time>2022-03-14T11:58:03Z</time>
      </trkpt>
      <trkpt lat="46.52699" lon="5.31826">
        <ele>214.6</ele>
        <time>2022-03-14T11:58:04Z</time>
      </trkpt>
      <trkpt lat="46.52702" lon="5.31821">
        <ele>214.6</ele>
        <time>2022-03-14T11:58:05Z</time>
      </trkpt>
      <trkpt lat="46.52721" lon="5.31801">
        <ele>215.4</ele>
        <time>2022-03-14T11:58:10Z</time>
      </trkpt>
      <trkpt lat="46.52726" lon="5.31797">
        <ele>215.6</ele>
        <time>2022-03-14T11:58:11Z</time>
      </trkpt>
      <trkpt lat="46.52751" lon="5.31785">
        <ele>216.2</ele>
        <time>2022-03-14T11:58:16Z</time>
      </trkpt>
      <trkpt lat="46.52781" lon="5.31771">
        <ele>216.6</ele>
        <time>2022-03-14T11:58:22Z</time>
      </trkpt>
      <trkpt lat="46.5279" lon="5.31767">
        <ele>216.8</ele>
        <time>2022-03-14T11:58:24Z</time>
      </trkpt>
      <trkpt lat="46.52794" lon="5.31765">
        <ele>216.8</ele>
        <time>2022-03-14T11:58:25Z</time>
      </trkpt>
      <trkpt lat="46.52825" lon="5.31753">
        <ele>217</ele>
        <time>2022-03-14T11:58:31Z</time>
      </trkpt>
      <trkpt lat="46.52853" lon="5.3174">
        <ele>217</ele>
        <time>2022-03-14T11:58:36Z</time>
      </trkpt>
      <trkpt lat="46.5288" lon="5.31729">
        <ele>216.8</ele>
        <time>2022-03-14T11:58:40Z</time>
      </trkpt>
      <trkpt lat="46.52887" lon="5.31728">
        <ele>216.6</ele>
        <time>2022-03-14T11:58:41Z</time>
      </trkpt>
      <trkpt lat="46.52904" lon="5.31728">
        <ele>216.2</ele>
        <time>2022-03-14T11:58:44Z</time>
      </trkpt>
      <trkpt lat="46.52909" lon="5.3173">
        <ele>216.2</ele>
        <time>2022-03-14T11:58:45Z</time>
      </trkpt>
      <trkpt lat="46.52914" lon="5.31734">
        <ele>216</ele>
        <time>2022-03-14T11:58:46Z</time>
      </trkpt>
      <trkpt lat="46.52932" lon="5.31753">
        <ele>216</ele>
        <time>2022-03-14T11:58:49Z</time>
      </trkpt>
      <trkpt lat="46.52959" lon="5.31779">
        <ele>216</ele>
        <time>2022-03-14T11:58:54Z</time>
      </trkpt>
      <trkpt lat="46.52965" lon="5.31782">
        <ele>216</ele>
        <time>2022-03-14T11:58:55Z</time>
      </trkpt>
      <trkpt lat="46.52972" lon="5.31785">
        <ele>216</ele>
        <time>2022-03-14T11:58:56Z</time>
      </trkpt>
      <trkpt lat="46.52985" lon="5.31785">
        <ele>216</ele>
        <time>2022-03-14T11:58:58Z</time>
      </trkpt>
      <trkpt lat="46.52992" lon="5.31783">
        <ele>215.8</ele>
        <time>2022-03-14T11:58:59Z</time>
      </trkpt>
      <trkpt lat="46.53" lon="5.31778">
        <ele>215.8</ele>
        <time>2022-03-14T11:59:00Z</time>
      </trkpt>
      <trkpt lat="46.5301" lon="5.31766">
        <ele>215.6</ele>
        <time>2022-03-14T11:59:02Z</time>
      </trkpt>
      <trkpt lat="46.53029" lon="5.31725">
        <ele>215</ele>
        <time>2022-03-14T11:59:07Z</time>
      </trkpt>
      <trkpt lat="46.53038" lon="5.31699">
        <ele>214.6</ele>
        <time>2022-03-14T11:59:10Z</time>
      </trkpt>
      <trkpt lat="46.53055" lon="5.31662">
        <ele>213.8</ele>
        <time>2022-03-14T11:59:14Z</time>
      </trkpt>
      <trkpt lat="46.53067" lon="5.31648">
        <ele>213.4</ele>
        <time>2022-03-14T11:59:16Z</time>
      </trkpt>
      <trkpt lat="46.53074" lon="5.31644">
        <ele>213</ele>
        <time>2022-03-14T11:59:17Z</time>
      </trkpt>
      <trkpt lat="46.531" lon="5.31632">
        <ele>212.2</ele>
        <time>2022-03-14T11:59:20Z</time>
      </trkpt>
      <trkpt lat="46.53109" lon="5.31628">
        <ele>212</ele>
        <time>2022-03-14T11:59:21Z</time>
      </trkpt>
      <trkpt lat="46.53126" lon="5.31621">
        <ele>211.2</ele>
        <time>2022-03-14T11:59:23Z</time>
      </trkpt>
      <trkpt lat="46.53151" lon="5.3161">
        <ele>209.8</ele>
        <time>2022-03-14T11:59:26Z</time>
      </trkpt>
      <trkpt lat="46.5316" lon="5.31606">
        <ele>209.6</ele>
        <time>2022-03-14T11:59:27Z</time>
      </trkpt>
      <trkpt lat="46.53177" lon="5.316">
        <ele>208.8</ele>
        <time>2022-03-14T11:59:29Z</time>
      </trkpt>
      <trkpt lat="46.53212" lon="5.31584">
        <ele>207.6</ele>
        <time>2022-03-14T11:59:33Z</time>
      </trkpt>
      <trkpt lat="46.5322" lon="5.3158">
        <ele>207.2</ele>
        <time>2022-03-14T11:59:34Z</time>
      </trkpt>
      <trkpt lat="46.53238" lon="5.31571">
        <ele>206.2</ele>
        <time>2022-03-14T11:59:36Z</time>
      </trkpt>
      <trkpt lat="46.53255" lon="5.3156">
        <ele>205</ele>
        <time>2022-03-14T11:59:38Z</time>
      </trkpt>
      <trkpt lat="46.53264" lon="5.31553">
        <ele>204.8</ele>
        <time>2022-03-14T11:59:39Z</time>
      </trkpt>
      <trkpt lat="46.53281" lon="5.31538">
        <ele>204</ele>
        <time>2022-03-14T11:59:41Z</time>
      </trkpt>
      <trkpt lat="46.53298" lon="5.31523">
        <ele>202.8</ele>
        <time>2022-03-14T11:59:43Z</time>
      </trkpt>
      <trkpt lat="46.53322" lon="5.31502">
        <ele>201.4</ele>
        <time>2022-03-14T11:59:46Z</time>
      </trkpt>
      <trkpt lat="46.5333" lon="5.31495">
        <ele>200.6</ele>
        <time>2022-03-14T11:59:47Z</time>
      </trkpt>
      <trkpt lat="46.53338" lon="5.31488">
        <ele>200.2</ele>
        <time>2022-03-14T11:59:48Z</time>
      </trkpt>
      <trkpt lat="46.53359" lon="5.31469">
        <ele>199.2</ele>
        <time>2022-03-14T11:59:51Z</time>
      </trkpt>
      <trkpt lat="46.53365" lon="5.31462">
        <ele>198.8</ele>
        <time>2022-03-14T11:59:52Z</time>
      </trkpt>
      <trkpt lat="46.53376" lon="5.31448">
        <ele>198.6</ele>
        <time>2022-03-14T11:59:54Z</time>
      </trkpt>
      <trkpt lat="46.53384" lon="5.31432">
        <ele>198.6</ele>
        <time>2022-03-14T11:59:56Z</time>
      </trkpt>
      <trkpt lat="46.53402" lon="5.31392">
        <ele>198.8</ele>
        <time>2022-03-14T12:00:01Z</time>
      </trkpt>
      <trkpt lat="46.5343" lon="5.31329">
        <ele>198.8</ele>
        <time>2022-03-14T12:00:08Z</time>
      </trkpt>
      <trkpt lat="46.53443" lon="5.31301">
        <ele>198</ele>
        <time>2022-03-14T12:00:11Z</time>
      </trkpt>
      <trkpt lat="46.5346" lon="5.31266">
        <ele>197</ele>
        <time>2022-03-14T12:00:15Z</time>
      </trkpt>
      <trkpt lat="46.53463" lon="5.31258">
        <ele>196.8</ele>
        <time>2022-03-14T12:00:16Z</time>
      </trkpt>
      <trkpt lat="46.53482" lon="5.3121">
        <ele>196.6</ele>
        <time>2022-03-14T12:00:22Z</time>
      </trkpt>
      <trkpt lat="46.53489" lon="5.31165">
        <ele>197.4</ele>
        <time>2022-03-14T12:00:28Z</time>
      </trkpt>
      <trkpt lat="46.53493" lon="5.31137">
        <ele>198</ele>
        <time>2022-03-14T12:00:32Z</time>
      </trkpt>
      <trkpt lat="46.53495" lon="5.3113">
        <ele>198.2</ele>
        <time>2022-03-14T12:00:33Z</time>
      </trkpt>
      <trkpt lat="46.53497" lon="5.31125">
        <ele>198.4</ele>
        <time>2022-03-14T12:00:34Z</time>
      </trkpt>
      <trkpt lat="46.53506" lon="5.3111">
        <ele>199.2</ele>
        <time>2022-03-14T12:00:37Z</time>
      </trkpt>
      <trkpt lat="46.5351" lon="5.31106">
        <ele>199.4</ele>
        <time>2022-03-14T12:00:38Z</time>
      </trkpt>
      <trkpt lat="46.53531" lon="5.31092">
        <ele>200.6</ele>
        <time>2022-03-14T12:00:43Z</time>
      </trkpt>
      <trkpt lat="46.53539" lon="5.31087">
        <ele>201</ele>
        <time>2022-03-14T12:00:45Z</time>
      </trkpt>
      <trkpt lat="46.53558" lon="5.31078">
        <ele>201.6</ele>
        <time>2022-03-14T12:00:49Z</time>
      </trkpt>
      <trkpt lat="46.53578" lon="5.31067">
        <ele>202.2</ele>
        <time>2022-03-14T12:00:53Z</time>
      </trkpt>
      <trkpt lat="46.53628" lon="5.31036">
        <ele>202.4</ele>
        <time>2022-03-14T12:01:02Z</time>
      </trkpt>
      <trkpt lat="46.53651" lon="5.31025">
        <ele>202.6</ele>
        <time>2022-03-14T12:01:06Z</time>
      </trkpt>
      <trkpt lat="46.53664" lon="5.31023">
        <ele>202.6</ele>
        <time>2022-03-14T12:01:08Z</time>
      </trkpt>
      <trkpt lat="46.5367" lon="5.31023">
        <ele>202.6</ele>
        <time>2022-03-14T12:01:09Z</time>
      </trkpt>
      <trkpt lat="46.537" lon="5.31029">
        <ele>202.6</ele>
        <time>2022-03-14T12:01:14Z</time>
      </trkpt>
      <trkpt lat="46.53725" lon="5.31032">
        <ele>202.6</ele>
        <time>2022-03-14T12:01:18Z</time>
      </trkpt>
      <trkpt lat="46.53744" lon="5.31028">
        <ele>202.6</ele>
        <time>2022-03-14T12:01:21Z</time>
      </trkpt>
      <trkpt lat="46.53785" lon="5.31016">
        <ele>202.2</ele>
        <time>2022-03-14T12:01:27Z</time>
      </trkpt>
      <trkpt lat="46.53793" lon="5.31013">
        <ele>202</ele>
        <time>2022-03-14T12:01:28Z</time>
      </trkpt>
      <trkpt lat="46.53805" lon="5.30998">
        <ele>201.6</ele>
        <time>2022-03-14T12:01:30Z</time>
      </trkpt>
      <trkpt lat="46.53818" lon="5.30968">
        <ele>200.6</ele>
        <time>2022-03-14T12:01:33Z</time>
      </trkpt>
      <trkpt lat="46.53827" lon="5.30948">
        <ele>199.8</ele>
        <time>2022-03-14T12:01:35Z</time>
      </trkpt>
      <trkpt lat="46.53839" lon="5.30918">
        <ele>199.4</ele>
        <time>2022-03-14T12:01:38Z</time>
      </trkpt>
      <trkpt lat="46.53857" lon="5.30874">
        <ele>199</ele>
        <time>2022-03-14T12:01:43Z</time>
      </trkpt>
      <trkpt lat="46.53874" lon="5.3083">
        <ele>199</ele>
        <time>2022-03-14T12:01:49Z</time>
      </trkpt>
      <trkpt lat="46.53887" lon="5.30796">
        <ele>200.2</ele>
        <time>2022-03-14T12:01:55Z</time>
      </trkpt>
      <trkpt lat="46.53889" lon="5.30784">
        <ele>200.6</ele>
        <time>2022-03-14T12:01:57Z</time>
      </trkpt>
      <trkpt lat="46.5389" lon="5.30778">
        <ele>201</ele>
        <time>2022-03-14T12:01:58Z</time>
      </trkpt>
      <trkpt lat="46.53892" lon="5.30761">
        <ele>201.4</ele>
        <time>2022-03-14T12:02:01Z</time>
      </trkpt>
      <trkpt lat="46.53892" lon="5.30749">
        <ele>202</ele>
        <time>2022-03-14T12:02:03Z</time>
      </trkpt>
      <trkpt lat="46.53893" lon="5.30725">
        <ele>203.2</ele>
        <time>2022-03-14T12:02:07Z</time>
      </trkpt>
      <trkpt lat="46.53894" lon="5.30719">
        <ele>203.2</ele>
        <time>2022-03-14T12:02:08Z</time>
      </trkpt>
      <trkpt lat="46.53896" lon="5.30682">
        <ele>204.4</ele>
        <time>2022-03-14T12:02:14Z</time>
      </trkpt>
      <trkpt lat="46.53898" lon="5.30669">
        <ele>205</ele>
        <time>2022-03-14T12:02:16Z</time>
      </trkpt>
      <trkpt lat="46.53901" lon="5.30655">
        <ele>205.4</ele>
        <time>2022-03-14T12:02:18Z</time>
      </trkpt>
      <trkpt lat="46.5391" lon="5.30624">
        <ele>206.2</ele>
        <time>2022-03-14T12:02:23Z</time>
      </trkpt>
      <trkpt lat="46.53913" lon="5.30618">
        <ele>206.4</ele>
        <time>2022-03-14T12:02:24Z</time>
      </trkpt>
      <trkpt lat="46.53934" lon="5.30569">
        <ele>207.2</ele>
        <time>2022-03-14T12:02:33Z</time>
      </trkpt>
      <trkpt lat="46.5394" lon="5.30561">
        <ele>207.6</ele>
        <time>2022-03-14T12:02:35Z</time>
      </trkpt>
      <trkpt lat="46.53949" lon="5.3055">
        <ele>208.2</ele>
        <time>2022-03-14T12:02:38Z</time>
      </trkpt>
      <trkpt lat="46.53953" lon="5.30548">
        <ele>208.4</ele>
        <time>2022-03-14T12:02:39Z</time>
      </trkpt>
      <trkpt lat="46.53956" lon="5.30546">
        <ele>208.8</ele>
        <time>2022-03-14T12:02:40Z</time>
      </trkpt>
      <trkpt lat="46.53973" lon="5.30536">
        <ele>209.6</ele>
        <time>2022-03-14T12:02:45Z</time>
      </trkpt>
      <trkpt lat="46.5398" lon="5.30532">
        <ele>210</ele>
        <time>2022-03-14T12:02:47Z</time>
      </trkpt>
      <trkpt lat="46.53999" lon="5.30522">
        <ele>211</ele>
        <time>2022-03-14T12:02:52Z</time>
      </trkpt>
      <trkpt lat="46.54003" lon="5.30519">
        <ele>211.4</ele>
        <time>2022-03-14T12:02:53Z</time>
      </trkpt>
      <trkpt lat="46.54018" lon="5.30505">
        <ele>212</ele>
        <time>2022-03-14T12:02:57Z</time>
      </trkpt>
      <trkpt lat="46.54021" lon="5.305">
        <ele>212.4</ele>
        <time>2022-03-14T12:02:58Z</time>
      </trkpt>
      <trkpt lat="46.54032" lon="5.30486">
        <ele>213</ele>
        <time>2022-03-14T12:03:01Z</time>
      </trkpt>
      <trkpt lat="46.54039" lon="5.30474">
        <ele>213.2</ele>
        <time>2022-03-14T12:03:03Z</time>
      </trkpt>
      <trkpt lat="46.54042" lon="5.30468">
        <ele>213.2</ele>
        <time>2022-03-14T12:03:04Z</time>
      </trkpt>
      <trkpt lat="46.54045" lon="5.30462">
        <ele>213.2</ele>
        <time>2022-03-14T12:03:05Z</time>
      </trkpt>
      <trkpt lat="46.54054" lon="5.30435">
        <ele>213.4</ele>
        <time>2022-03-14T12:03:09Z</time>
      </trkpt>
      <trkpt lat="46.54062" lon="5.30396">
        <ele>213.6</ele>
        <time>2022-03-14T12:03:14Z</time>
      </trkpt>
      <trkpt lat="46.54068" lon="5.30374">
        <ele>213.8</ele>
        <time>2022-03-14T12:03:17Z</time>
      </trkpt>
      <trkpt lat="46.54086" lon="5.30307">
        <ele>213.8</ele>
        <time>2022-03-14T12:03:26Z</time>
      </trkpt>
      <trkpt lat="46.54093" lon="5.30285">
        <ele>213.8</ele>
        <time>2022-03-14T12:03:29Z</time>
      </trkpt>
      <trkpt lat="46.54101" lon="5.30262">
        <ele>214</ele>
        <time>2022-03-14T12:03:32Z</time>
      </trkpt>
      <trkpt lat="46.54113" lon="5.30226">
        <ele>214.6</ele>
        <time>2022-03-14T12:03:37Z</time>
      </trkpt>
      <trkpt lat="46.54126" lon="5.30188">
        <ele>215</ele>
        <time>2022-03-14T12:03:42Z</time>
      </trkpt>
      <trkpt lat="46.54133" lon="5.30165">
        <ele>214.8</ele>
        <time>2022-03-14T12:03:45Z</time>
      </trkpt>
      <trkpt lat="46.54148" lon="5.3012">
        <ele>214.6</ele>
        <time>2022-03-14T12:03:51Z</time>
      </trkpt>
      <trkpt lat="46.54151" lon="5.30114">
        <ele>214.6</ele>
        <time>2022-03-14T12:03:52Z</time>
      </trkpt>
      <trkpt lat="46.54156" lon="5.3011">
        <ele>214.6</ele>
        <time>2022-03-14T12:03:53Z</time>
      </trkpt>
      <trkpt lat="46.54161" lon="5.30107">
        <ele>214.4</ele>
        <time>2022-03-14T12:03:55Z</time>
      </trkpt>
      <trkpt lat="46.54195" lon="5.30095">
        <ele>214.2</ele>
        <time>2022-03-14T12:04:00Z</time>
      </trkpt>
      <trkpt lat="46.54206" lon="5.30094">
        <ele>214.2</ele>
        <time>2022-03-14T12:04:02Z</time>
      </trkpt>
      <trkpt lat="46.54255" lon="5.301">
        <ele>214.4</ele>
        <time>2022-03-14T12:04:10Z</time>
      </trkpt>
      <trkpt lat="46.54307" lon="5.30106">
        <ele>214</ele>
        <time>2022-03-14T12:04:18Z</time>
      </trkpt>
      <trkpt lat="46.54329" lon="5.30112">
        <ele>213.6</ele>
        <time>2022-03-14T12:04:21Z</time>
      </trkpt>
      <trkpt lat="46.54344" lon="5.30117">
        <ele>213.2</ele>
        <time>2022-03-14T12:04:23Z</time>
      </trkpt>
      <trkpt lat="46.54376" lon="5.30131">
        <ele>212.6</ele>
        <time>2022-03-14T12:04:27Z</time>
      </trkpt>
      <trkpt lat="46.54403" lon="5.30141">
        <ele>211.4</ele>
        <time>2022-03-14T12:04:30Z</time>
      </trkpt>
      <trkpt lat="46.54439" lon="5.30147">
        <ele>210.4</ele>
        <time>2022-03-14T12:04:34Z</time>
      </trkpt>
      <trkpt lat="46.54448" lon="5.30146">
        <ele>209.8</ele>
        <time>2022-03-14T12:04:35Z</time>
      </trkpt>
      <trkpt lat="46.54466" lon="5.30143">
        <ele>209.2</ele>
        <time>2022-03-14T12:04:37Z</time>
      </trkpt>
      <trkpt lat="46.54484" lon="5.30137">
        <ele>208.6</ele>
        <time>2022-03-14T12:04:39Z</time>
      </trkpt>
      <trkpt lat="46.54493" lon="5.30133">
        <ele>208</ele>
        <time>2022-03-14T12:04:40Z</time>
      </trkpt>
      <trkpt lat="46.54528" lon="5.30114">
        <ele>207</ele>
        <time>2022-03-14T12:04:44Z</time>
      </trkpt>
      <trkpt lat="46.54537" lon="5.30109">
        <ele>206.8</ele>
        <time>2022-03-14T12:04:45Z</time>
      </trkpt>
      <trkpt lat="46.54556" lon="5.30099">
        <ele>205.4</ele>
        <time>2022-03-14T12:04:47Z</time>
      </trkpt>
      <trkpt lat="46.54583" lon="5.30082">
        <ele>204.2</ele>
        <time>2022-03-14T12:04:50Z</time>
      </trkpt>
      <trkpt lat="46.54611" lon="5.30065">
        <ele>203.2</ele>
        <time>2022-03-14T12:04:53Z</time>
      </trkpt>
      <trkpt lat="46.5462" lon="5.30059">
        <ele>202.4</ele>
        <time>2022-03-14T12:04:54Z</time>
      </trkpt>
      <trkpt lat="46.54638" lon="5.30048">
        <ele>201.4</ele>
        <time>2022-03-14T12:04:56Z</time>
      </trkpt>
      <trkpt lat="46.54657" lon="5.30037">
        <ele>200.4</ele>
        <time>2022-03-14T12:04:58Z</time>
      </trkpt>
      <trkpt lat="46.54685" lon="5.3002">
        <ele>199</ele>
        <time>2022-03-14T12:05:01Z</time>
      </trkpt>
      <trkpt lat="46.54713" lon="5.30002">
        <ele>198</ele>
        <time>2022-03-14T12:05:04Z</time>
      </trkpt>
      <trkpt lat="46.5473" lon="5.29988">
        <ele>196.6</ele>
        <time>2022-03-14T12:05:06Z</time>
      </trkpt>
      <trkpt lat="46.54746" lon="5.29975">
        <ele>195.2</ele>
        <time>2022-03-14T12:05:08Z</time>
      </trkpt>
      <trkpt lat="46.54777" lon="5.29947">
        <ele>194</ele>
        <time>2022-03-14T12:05:12Z</time>
      </trkpt>
      <trkpt lat="46.54784" lon="5.29939">
        <ele>193.8</ele>
        <time>2022-03-14T12:05:13Z</time>
      </trkpt>
      <trkpt lat="46.54818" lon="5.29898">
        <ele>192.8</ele>
        <time>2022-03-14T12:05:18Z</time>
      </trkpt>
      <trkpt lat="46.54825" lon="5.29889">
        <ele>192.6</ele>
        <time>2022-03-14T12:05:19Z</time>
      </trkpt>
      <trkpt lat="46.54869" lon="5.29833">
        <ele>191.8</ele>
        <time>2022-03-14T12:05:26Z</time>
      </trkpt>
      <trkpt lat="46.5488" lon="5.29818">
        <ele>191.8</ele>
        <time>2022-03-14T12:05:28Z</time>
      </trkpt>
      <trkpt lat="46.54911" lon="5.29772">
        <ele>191.8</ele>
        <time>2022-03-14T12:05:34Z</time>
      </trkpt>
      <trkpt lat="46.54942" lon="5.29711">
        <ele>191.4</ele>
        <time>2022-03-14T12:05:41Z</time>
      </trkpt>
      <trkpt lat="46.54954" lon="5.29666">
        <ele>191.2</ele>
        <time>2022-03-14T12:05:46Z</time>
      </trkpt>
      <trkpt lat="46.54962" lon="5.2962">
        <ele>191.4</ele>
        <time>2022-03-14T12:05:52Z</time>
      </trkpt>
      <trkpt lat="46.54964" lon="5.29613">
        <ele>191.4</ele>
        <time>2022-03-14T12:05:53Z</time>
      </trkpt>
      <trkpt lat="46.54969" lon="5.29601">
        <ele>191.6</ele>
        <time>2022-03-14T12:05:55Z</time>
      </trkpt>
      <trkpt lat="46.54977" lon="5.29582">
        <ele>192.4</ele>
        <time>2022-03-14T12:05:58Z</time>
      </trkpt>
      <trkpt lat="46.54979" lon="5.29577">
        <ele>192.4</ele>
        <time>2022-03-14T12:05:59Z</time>
      </trkpt>
      <trkpt lat="46.54986" lon="5.29567">
        <ele>193</ele>
        <time>2022-03-14T12:06:01Z</time>
      </trkpt>
      <trkpt lat="46.54999" lon="5.29547">
        <ele>193.4</ele>
        <time>2022-03-14T12:06:05Z</time>
      </trkpt>
      <trkpt lat="46.55002" lon="5.29543">
        <ele>193.4</ele>
        <time>2022-03-14T12:06:06Z</time>
      </trkpt>
      <trkpt lat="46.55009" lon="5.29534">
        <ele>194</ele>
        <time>2022-03-14T12:06:08Z</time>
      </trkpt>
      <trkpt lat="46.5502" lon="5.29519">
        <ele>194.6</ele>
        <time>2022-03-14T12:06:11Z</time>
      </trkpt>
      <trkpt lat="46.55032" lon="5.29509">
        <ele>195.2</ele>
        <time>2022-03-14T12:06:14Z</time>
      </trkpt>
      <trkpt lat="46.55036" lon="5.29507">
        <ele>195.2</ele>
        <time>2022-03-14T12:06:15Z</time>
      </trkpt>
      <trkpt lat="46.55044" lon="5.29504">
        <ele>195.6</ele>
        <time>2022-03-14T12:06:17Z</time>
      </trkpt>
      <trkpt lat="46.55055" lon="5.29502">
        <ele>196.4</ele>
        <time>2022-03-14T12:06:20Z</time>
      </trkpt>
      <trkpt lat="46.55066" lon="5.29502">
        <ele>197.6</ele>
        <time>2022-03-14T12:06:23Z</time>
      </trkpt>
      <trkpt lat="46.55078" lon="5.29504">
        <ele>198.8</ele>
        <time>2022-03-14T12:06:26Z</time>
      </trkpt>
      <trkpt lat="46.55088" lon="5.29508">
        <ele>199.4</ele>
        <time>2022-03-14T12:06:29Z</time>
      </trkpt>
      <trkpt lat="46.55096" lon="5.29511">
        <ele>199.8</ele>
        <time>2022-03-14T12:06:31Z</time>
      </trkpt>
      <trkpt lat="46.55114" lon="5.29518">
        <ele>200.4</ele>
        <time>2022-03-14T12:06:35Z</time>
      </trkpt>
      <trkpt lat="46.55132" lon="5.29525">
        <ele>200.8</ele>
        <time>2022-03-14T12:06:39Z</time>
      </trkpt>
      <trkpt lat="46.5516" lon="5.29536">
        <ele>201.6</ele>
        <time>2022-03-14T12:06:45Z</time>
      </trkpt>
      <trkpt lat="46.5517" lon="5.29539">
        <ele>201.8</ele>
        <time>2022-03-14T12:06:47Z</time>
      </trkpt>
      <trkpt lat="46.55174" lon="5.2954">
        <ele>201.8</ele>
        <time>2022-03-14T12:06:48Z</time>
      </trkpt>
      <trkpt lat="46.55188" lon="5.29541">
        <ele>202.2</ele>
        <time>2022-03-14T12:06:51Z</time>
      </trkpt>
      <trkpt lat="46.55193" lon="5.2954">
        <ele>202.2</ele>
        <time>2022-03-14T12:06:52Z</time>
      </trkpt>
      <trkpt lat="46.55209" lon="5.29536">
        <ele>203</ele>
        <time>2022-03-14T12:06:56Z</time>
      </trkpt>
      <trkpt lat="46.5522" lon="5.2953">
        <ele>203</ele>
        <time>2022-03-14T12:06:59Z</time>
      </trkpt>
      <trkpt lat="46.55235" lon="5.29521">
        <ele>204.2</ele>
        <time>2022-03-14T12:07:03Z</time>
      </trkpt>
      <trkpt lat="46.55246" lon="5.29513">
        <ele>205</ele>
        <time>2022-03-14T12:07:06Z</time>
      </trkpt>
      <trkpt lat="46.55258" lon="5.29505">
        <ele>205.4</ele>
        <time>2022-03-14T12:07:09Z</time>
      </trkpt>
      <trkpt lat="46.55274" lon="5.29497">
        <ele>205.8</ele>
        <time>2022-03-14T12:07:13Z</time>
      </trkpt>
      <trkpt lat="46.55283" lon="5.29496">
        <ele>205.8</ele>
        <time>2022-03-14T12:07:15Z</time>
      </trkpt>
      <trkpt lat="46.55305" lon="5.29505">
        <ele>205.6</ele>
        <time>2022-03-14T12:07:19Z</time>
      </trkpt>
      <trkpt lat="46.55343" lon="5.29513">
        <ele>205</ele>
        <time>2022-03-14T12:07:25Z</time>
      </trkpt>
      <trkpt lat="46.55389" lon="5.29527">
        <ele>204.4</ele>
        <time>2022-03-14T12:07:32Z</time>
      </trkpt>
      <trkpt lat="46.55395" lon="5.29529">
        <ele>204.4</ele>
        <time>2022-03-14T12:07:33Z</time>
      </trkpt>
      <trkpt lat="46.55437" lon="5.29554">
        <ele>204.2</ele>
        <time>2022-03-14T12:07:40Z</time>
      </trkpt>
      <trkpt lat="46.55487" lon="5.2959">
        <ele>204</ele>
        <time>2022-03-14T12:07:49Z</time>
      </trkpt>
      <trkpt lat="46.55492" lon="5.29594">
        <ele>204</ele>
        <time>2022-03-14T12:07:50Z</time>
      </trkpt>
      <trkpt lat="46.5554" lon="5.29629">
        <ele>204.2</ele>
        <time>2022-03-14T12:07:59Z</time>
      </trkpt>
      <trkpt lat="46.55556" lon="5.29641">
        <ele>204.2</ele>
        <time>2022-03-14T12:08:02Z</time>
      </trkpt>
      <trkpt lat="46.55605" lon="5.29669">
        <ele>204.8</ele>
        <time>2022-03-14T12:08:11Z</time>
      </trkpt>
      <trkpt lat="46.55648" lon="5.29689">
        <ele>205.6</ele>
        <time>2022-03-14T12:08:19Z</time>
      </trkpt>
      <trkpt lat="46.55685" lon="5.29695">
        <ele>206</ele>
        <time>2022-03-14T12:08:26Z</time>
      </trkpt>
      <trkpt lat="46.55711" lon="5.29693">
        <ele>206.6</ele>
        <time>2022-03-14T12:08:31Z</time>
      </trkpt>
      <trkpt lat="46.55716" lon="5.29694">
        <ele>206.8</ele>
        <time>2022-03-14T12:08:32Z</time>
      </trkpt>
      <trkpt lat="46.55721" lon="5.29696">
        <ele>207</ele>
        <time>2022-03-14T12:08:33Z</time>
      </trkpt>
      <trkpt lat="46.5574" lon="5.29705">
        <ele>207.8</ele>
        <time>2022-03-14T12:08:37Z</time>
      </trkpt>
      <trkpt lat="46.55754" lon="5.29714">
        <ele>208.8</ele>
        <time>2022-03-14T12:08:40Z</time>
      </trkpt>
      <trkpt lat="46.55762" lon="5.2972">
        <ele>209.4</ele>
        <time>2022-03-14T12:08:42Z</time>
      </trkpt>
      <trkpt lat="46.55779" lon="5.29738">
        <ele>210</ele>
        <time>2022-03-14T12:08:46Z</time>
      </trkpt>
      <trkpt lat="46.55786" lon="5.2975">
        <ele>210.4</ele>
        <time>2022-03-14T12:08:48Z</time>
      </trkpt>
      <trkpt lat="46.55798" lon="5.29767">
        <ele>211.2</ele>
        <time>2022-03-14T12:08:51Z</time>
      </trkpt>
      <trkpt lat="46.55823" lon="5.298">
        <ele>211.8</ele>
        <time>2022-03-14T12:08:57Z</time>
      </trkpt>
      <trkpt lat="46.55842" lon="5.29828">
        <ele>212.2</ele>
        <time>2022-03-14T12:09:02Z</time>
      </trkpt>
      <trkpt lat="46.55859" lon="5.29851">
        <ele>212.4</ele>
        <time>2022-03-14T12:09:06Z</time>
      </trkpt>
      <trkpt lat="46.55889" lon="5.29891">
        <ele>212</ele>
        <time>2022-03-14T12:09:12Z</time>
      </trkpt>
      <trkpt lat="46.55918" lon="5.29929">
        <ele>211.2</ele>
        <time>2022-03-14T12:09:17Z</time>
      </trkpt>
      <trkpt lat="46.5593" lon="5.29945">
        <ele>210.4</ele>
        <time>2022-03-14T12:09:19Z</time>
      </trkpt>
      <trkpt lat="46.55942" lon="5.29962">
        <ele>210</ele>
        <time>2022-03-14T12:09:21Z</time>
      </trkpt>
      <trkpt lat="46.55972" lon="5.30002">
        <ele>209</ele>
        <time>2022-03-14T12:09:26Z</time>
      </trkpt>
      <trkpt lat="46.55977" lon="5.30009">
        <ele>209</ele>
        <time>2022-03-14T12:09:27Z</time>
      </trkpt>
      <trkpt lat="46.56006" lon="5.30047">
        <ele>208.8</ele>
        <time>2022-03-14T12:09:33Z</time>
      </trkpt>
      <trkpt lat="46.56033" lon="5.30085">
        <ele>210</ele>
        <time>2022-03-14T12:09:40Z</time>
      </trkpt>
      <trkpt lat="46.56051" lon="5.3011">
        <ele>211</ele>
        <time>2022-03-14T12:09:45Z</time>
      </trkpt>
      <trkpt lat="46.56058" lon="5.3012">
        <ele>211.6</ele>
        <time>2022-03-14T12:09:47Z</time>
      </trkpt>
      <trkpt lat="46.56065" lon="5.3013">
        <ele>212.2</ele>
        <time>2022-03-14T12:09:49Z</time>
      </trkpt>
      <trkpt lat="46.56088" lon="5.30162">
        <ele>213</ele>
        <time>2022-03-14T12:09:55Z</time>
      </trkpt>
      <trkpt lat="46.56101" lon="5.30178">
        <ele>213.4</ele>
        <time>2022-03-14T12:09:58Z</time>
      </trkpt>
      <trkpt lat="46.56126" lon="5.30211">
        <ele>213.8</ele>
        <time>2022-03-14T12:10:04Z</time>
      </trkpt>
      <trkpt lat="46.56168" lon="5.30266">
        <ele>214</ele>
        <time>2022-03-14T12:10:14Z</time>
      </trkpt>
      <trkpt lat="46.56207" lon="5.30322">
        <ele>214.2</ele>
        <time>2022-03-14T12:10:23Z</time>
      </trkpt>
      <trkpt lat="46.56242" lon="5.30385">
        <ele>214.2</ele>
        <time>2022-03-14T12:10:32Z</time>
      </trkpt>
      <trkpt lat="46.56277" lon="5.30434">
        <ele>214.6</ele>
        <time>2022-03-14T12:10:40Z</time>
      </trkpt>
      <trkpt lat="46.56291" lon="5.30451">
        <ele>214.6</ele>
        <time>2022-03-14T12:10:43Z</time>
      </trkpt>
      <trkpt lat="46.56334" lon="5.30511">
        <ele>215</ele>
        <time>2022-03-14T12:10:53Z</time>
      </trkpt>
      <trkpt lat="46.56342" lon="5.30523">
        <ele>215</ele>
        <time>2022-03-14T12:10:55Z</time>
      </trkpt>
      <trkpt lat="46.56378" lon="5.30573">
        <ele>215</ele>
        <time>2022-03-14T12:11:03Z</time>
      </trkpt>
      <trkpt lat="46.56406" lon="5.30613">
        <ele>214.6</ele>
        <time>2022-03-14T12:11:10Z</time>
      </trkpt>
      <trkpt lat="46.56409" lon="5.30624">
        <ele>214.4</ele>
        <time>2022-03-14T12:11:13Z</time>
      </trkpt>
      <trkpt lat="46.56409" lon="5.30625">
        <ele>213.8</ele>
        <time>2022-03-14T12:11:16Z</time>
      </trkpt>
      <trkpt lat="46.56412" lon="5.30629">
        <ele>213.6</ele>
        <time>2022-03-14T12:11:19Z</time>
      </trkpt>
      <trkpt lat="46.56422" lon="5.30626">
        <ele>213.4</ele>
        <time>2022-03-14T12:11:23Z</time>
      </trkpt>
      <trkpt lat="46.56435" lon="5.30629">
        <ele>213.4</ele>
        <time>2022-03-14T12:11:26Z</time>
      </trkpt>
      <trkpt lat="46.5644" lon="5.30629">
        <ele>213.2</ele>
        <time>2022-03-14T12:11:27Z</time>
      </trkpt>
      <trkpt lat="46.56446" lon="5.30627">
        <ele>213.2</ele>
        <time>2022-03-14T12:11:28Z</time>
      </trkpt>
      <trkpt lat="46.56451" lon="5.30625">
        <ele>213.2</ele>
        <time>2022-03-14T12:11:29Z</time>
      </trkpt>
      <trkpt lat="46.56471" lon="5.30619">
        <ele>213.2</ele>
        <time>2022-03-14T12:11:32Z</time>
      </trkpt>
      <trkpt lat="46.56526" lon="5.30608">
        <ele>213</ele>
        <time>2022-03-14T12:11:40Z</time>
      </trkpt>
      <trkpt lat="46.56581" lon="5.30602">
        <ele>213</ele>
        <time>2022-03-14T12:11:48Z</time>
      </trkpt>
      <trkpt lat="46.56588" lon="5.30602">
        <ele>213</ele>
        <time>2022-03-14T12:11:49Z</time>
      </trkpt>
      <trkpt lat="46.56634" lon="5.30609">
        <ele>213.4</ele>
        <time>2022-03-14T12:11:56Z</time>
      </trkpt>
      <trkpt lat="46.56678" lon="5.30631">
        <ele>213.4</ele>
        <time>2022-03-14T12:12:03Z</time>
      </trkpt>
      <trkpt lat="46.56718" lon="5.3067">
        <ele>212.8</ele>
        <time>2022-03-14T12:12:10Z</time>
      </trkpt>
      <trkpt lat="46.56723" lon="5.30678">
        <ele>212.8</ele>
        <time>2022-03-14T12:12:11Z</time>
      </trkpt>
      <trkpt lat="46.56751" lon="5.30728">
        <ele>212</ele>
        <time>2022-03-14T12:12:17Z</time>
      </trkpt>
      <trkpt lat="46.56764" lon="5.30755">
        <ele>211.8</ele>
        <time>2022-03-14T12:12:20Z</time>
      </trkpt>
      <trkpt lat="46.56786" lon="5.30801">
        <ele>210.4</ele>
        <time>2022-03-14T12:12:25Z</time>
      </trkpt>
      <trkpt lat="46.56789" lon="5.30812">
        <ele>210.4</ele>
        <time>2022-03-14T12:12:26Z</time>
      </trkpt>
      <trkpt lat="46.56793" lon="5.30822">
        <ele>210.2</ele>
        <time>2022-03-14T12:12:27Z</time>
      </trkpt>
      <trkpt lat="46.56803" lon="5.30878">
        <ele>209.2</ele>
        <time>2022-03-14T12:12:32Z</time>
      </trkpt>
      <trkpt lat="46.56805" lon="5.30889">
        <ele>209</ele>
        <time>2022-03-14T12:12:33Z</time>
      </trkpt>
      <trkpt lat="46.5681" lon="5.30955">
        <ele>208.4</ele>
        <time>2022-03-14T12:12:39Z</time>
      </trkpt>
      <trkpt lat="46.56809" lon="5.30987">
        <ele>208.2</ele>
        <time>2022-03-14T12:12:42Z</time>
      </trkpt>
      <trkpt lat="46.56806" lon="5.31035">
        <ele>207.8</ele>
        <time>2022-03-14T12:12:47Z</time>
      </trkpt>
      <trkpt lat="46.56806" lon="5.31044">
        <ele>207.8</ele>
        <time>2022-03-14T12:12:48Z</time>
      </trkpt>
      <trkpt lat="46.56811" lon="5.31072">
        <ele>207.8</ele>
        <time>2022-03-14T12:12:51Z</time>
      </trkpt>
      <trkpt lat="46.56826" lon="5.31111">
        <ele>208</ele>
        <time>2022-03-14T12:12:56Z</time>
      </trkpt>
      <trkpt lat="46.5684" lon="5.31131">
        <ele>208.4</ele>
        <time>2022-03-14T12:12:59Z</time>
      </trkpt>
      <trkpt lat="46.5685" lon="5.31142">
        <ele>208.4</ele>
        <time>2022-03-14T12:13:01Z</time>
      </trkpt>
      <trkpt lat="46.5688" lon="5.31158">
        <ele>208.6</ele>
        <time>2022-03-14T12:13:06Z</time>
      </trkpt>
      <trkpt lat="46.56922" lon="5.31164">
        <ele>209.2</ele>
        <time>2022-03-14T12:13:13Z</time>
      </trkpt>
      <trkpt lat="46.56933" lon="5.31168">
        <ele>209.4</ele>
        <time>2022-03-14T12:13:15Z</time>
      </trkpt>
      <trkpt lat="46.5695" lon="5.31179">
        <ele>209.8</ele>
        <time>2022-03-14T12:13:18Z</time>
      </trkpt>
      <trkpt lat="46.56975" lon="5.31202">
        <ele>210.4</ele>
        <time>2022-03-14T12:13:23Z</time>
      </trkpt>
      <trkpt lat="46.56996" lon="5.3122">
        <ele>210.4</ele>
        <time>2022-03-14T12:13:27Z</time>
      </trkpt>
      <trkpt lat="46.57045" lon="5.31265">
        <ele>210.8</ele>
        <time>2022-03-14T12:13:37Z</time>
      </trkpt>
      <trkpt lat="46.5705" lon="5.31269">
        <ele>210.8</ele>
        <time>2022-03-14T12:13:38Z</time>
      </trkpt>
      <trkpt lat="46.5708" lon="5.31292">
        <ele>211.4</ele>
        <time>2022-03-14T12:13:44Z</time>
      </trkpt>
      <trkpt lat="46.5709" lon="5.31297">
        <ele>211.6</ele>
        <time>2022-03-14T12:13:46Z</time>
      </trkpt>
      <trkpt lat="46.57127" lon="5.31302">
        <ele>212.4</ele>
        <time>2022-03-14T12:13:53Z</time>
      </trkpt>
      <trkpt lat="46.57136" lon="5.31302">
        <ele>212.6</ele>
        <time>2022-03-14T12:13:55Z</time>
      </trkpt>
      <trkpt lat="46.57165" lon="5.31307">
        <ele>213.4</ele>
        <time>2022-03-14T12:14:01Z</time>
      </trkpt>
      <trkpt lat="46.57173" lon="5.31312">
        <ele>213.6</ele>
        <time>2022-03-14T12:14:03Z</time>
      </trkpt>
      <trkpt lat="46.57181" lon="5.3132">
        <ele>213.6</ele>
        <time>2022-03-14T12:14:05Z</time>
      </trkpt>
      <trkpt lat="46.57185" lon="5.31324">
        <ele>214</ele>
        <time>2022-03-14T12:14:06Z</time>
      </trkpt>
      <trkpt lat="46.57203" lon="5.31347">
        <ele>214.8</ele>
        <time>2022-03-14T12:14:11Z</time>
      </trkpt>
      <trkpt lat="46.57216" lon="5.3137">
        <ele>215.2</ele>
        <time>2022-03-14T12:14:15Z</time>
      </trkpt>
      <trkpt lat="46.57223" lon="5.31389">
        <ele>215.8</ele>
        <time>2022-03-14T12:14:18Z</time>
      </trkpt>
      <trkpt lat="46.57229" lon="5.3141">
        <ele>216.2</ele>
        <time>2022-03-14T12:14:21Z</time>
      </trkpt>
      <trkpt lat="46.57239" lon="5.31451">
        <ele>217</ele>
        <time>2022-03-14T12:14:27Z</time>
      </trkpt>
      <trkpt lat="46.57244" lon="5.31464">
        <ele>217.2</ele>
        <time>2022-03-14T12:14:29Z</time>
      </trkpt>
      <trkpt lat="46.57272" lon="5.31509">
        <ele>217.8</ele>
        <time>2022-03-14T12:14:37Z</time>
      </trkpt>
      <trkpt lat="46.5728" lon="5.31521">
        <ele>218</ele>
        <time>2022-03-14T12:14:39Z</time>
      </trkpt>
      <trkpt lat="46.57312" lon="5.31569">
        <ele>218.6</ele>
        <time>2022-03-14T12:14:47Z</time>
      </trkpt>
      <trkpt lat="46.57346" lon="5.31608">
        <ele>218.4</ele>
        <time>2022-03-14T12:14:54Z</time>
      </trkpt>
      <trkpt lat="46.57365" lon="5.31617">
        <ele>218</ele>
        <time>2022-03-14T12:14:57Z</time>
      </trkpt>
      <trkpt lat="46.57377" lon="5.31619">
        <ele>218</ele>
        <time>2022-03-14T12:14:59Z</time>
      </trkpt>
      <trkpt lat="46.57436" lon="5.31618">
        <ele>217.8</ele>
        <time>2022-03-14T12:15:08Z</time>
      </trkpt>
      <trkpt lat="46.57488" lon="5.31615">
        <ele>218</ele>
        <time>2022-03-14T12:15:16Z</time>
      </trkpt>
      <trkpt lat="46.57545" lon="5.31607">
        <ele>218.2</ele>
        <time>2022-03-14T12:15:25Z</time>
      </trkpt>
      <trkpt lat="46.57551" lon="5.31606">
        <ele>218.2</ele>
        <time>2022-03-14T12:15:26Z</time>
      </trkpt>
      <trkpt lat="46.57609" lon="5.31599">
        <ele>218.2</ele>
        <time>2022-03-14T12:15:35Z</time>
      </trkpt>
      <trkpt lat="46.57667" lon="5.3159">
        <ele>218.2</ele>
        <time>2022-03-14T12:15:44Z</time>
      </trkpt>
      <trkpt lat="46.5768" lon="5.31587">
        <ele>218.2</ele>
        <time>2022-03-14T12:15:46Z</time>
      </trkpt>
      <trkpt lat="46.57718" lon="5.31572">
        <ele>218.2</ele>
        <time>2022-03-14T12:15:52Z</time>
      </trkpt>
      <trkpt lat="46.57762" lon="5.3154">
        <ele>217.6</ele>
        <time>2022-03-14T12:15:59Z</time>
      </trkpt>
      <trkpt lat="46.57801" lon="5.3151">
        <ele>217.2</ele>
        <time>2022-03-14T12:16:05Z</time>
      </trkpt>
      <trkpt lat="46.57823" lon="5.31497">
        <ele>216.6</ele>
        <time>2022-03-14T12:16:08Z</time>
      </trkpt>
      <trkpt lat="46.57859" lon="5.31483">
        <ele>216</ele>
        <time>2022-03-14T12:16:13Z</time>
      </trkpt>
      <trkpt lat="46.57874" lon="5.31479">
        <ele>216</ele>
        <time>2022-03-14T12:16:15Z</time>
      </trkpt>
      <trkpt lat="46.57931" lon="5.31461">
        <ele>215.2</ele>
        <time>2022-03-14T12:16:23Z</time>
      </trkpt>
      <trkpt lat="46.57938" lon="5.31459">
        <ele>215</ele>
        <time>2022-03-14T12:16:24Z</time>
      </trkpt>
      <trkpt lat="46.57946" lon="5.31457">
        <ele>215</ele>
        <time>2022-03-14T12:16:25Z</time>
      </trkpt>
      <trkpt lat="46.58002" lon="5.3144">
        <ele>214.2</ele>
        <time>2022-03-14T12:16:33Z</time>
      </trkpt>
      <trkpt lat="46.58016" lon="5.31436">
        <ele>214</ele>
        <time>2022-03-14T12:16:35Z</time>
      </trkpt>
      <trkpt lat="46.58029" lon="5.31432">
        <ele>214</ele>
        <time>2022-03-14T12:16:37Z</time>
      </trkpt>
      <trkpt lat="46.58044" lon="5.3143">
        <ele>213.8</ele>
        <time>2022-03-14T12:16:39Z</time>
      </trkpt>
      <trkpt lat="46.58063" lon="5.3143">
        <ele>213.8</ele>
        <time>2022-03-14T12:16:42Z</time>
      </trkpt>
      <trkpt lat="46.58114" lon="5.31436">
        <ele>213.8</ele>
        <time>2022-03-14T12:16:50Z</time>
      </trkpt>
      <trkpt lat="46.58132" lon="5.31433">
        <ele>213.8</ele>
        <time>2022-03-14T12:16:53Z</time>
      </trkpt>
      <trkpt lat="46.58144" lon="5.31427">
        <ele>213.8</ele>
        <time>2022-03-14T12:16:55Z</time>
      </trkpt>
      <trkpt lat="46.58184" lon="5.31396">
        <ele>213.6</ele>
        <time>2022-03-14T12:17:02Z</time>
      </trkpt>
      <trkpt lat="46.58222" lon="5.31366">
        <ele>212.8</ele>
        <time>2022-03-14T12:17:08Z</time>
      </trkpt>
      <trkpt lat="46.58241" lon="5.3135">
        <ele>212.4</ele>
        <time>2022-03-14T12:17:11Z</time>
      </trkpt>
      <trkpt lat="46.58267" lon="5.31329">
        <ele>211.8</ele>
        <time>2022-03-14T12:17:15Z</time>
      </trkpt>
      <trkpt lat="46.58298" lon="5.31304">
        <ele>211.4</ele>
        <time>2022-03-14T12:17:20Z</time>
      </trkpt>
      <trkpt lat="46.58329" lon="5.31281">
        <ele>211</ele>
        <time>2022-03-14T12:17:25Z</time>
      </trkpt>
      <trkpt lat="46.58348" lon="5.31269">
        <ele>210.8</ele>
        <time>2022-03-14T12:17:28Z</time>
      </trkpt>
      <trkpt lat="46.58401" lon="5.31246">
        <ele>210.2</ele>
        <time>2022-03-14T12:17:36Z</time>
      </trkpt>
      <trkpt lat="46.58414" lon="5.3124">
        <ele>210.2</ele>
        <time>2022-03-14T12:17:38Z</time>
      </trkpt>
      <trkpt lat="46.58463" lon="5.31219">
        <ele>210.2</ele>
        <time>2022-03-14T12:17:46Z</time>
      </trkpt>
      <trkpt lat="46.58512" lon="5.31198">
        <ele>210.4</ele>
        <time>2022-03-14T12:17:54Z</time>
      </trkpt>
      <trkpt lat="46.58559" lon="5.31168">
        <ele>210.2</ele>
        <time>2022-03-14T12:18:02Z</time>
      </trkpt>
      <trkpt lat="46.58582" lon="5.31147">
        <ele>210</ele>
        <time>2022-03-14T12:18:06Z</time>
      </trkpt>
      <trkpt lat="46.58605" lon="5.31123">
        <ele>209.6</ele>
        <time>2022-03-14T12:18:10Z</time>
      </trkpt>
      <trkpt lat="46.5865" lon="5.31076">
        <ele>209</ele>
        <time>2022-03-14T12:18:18Z</time>
      </trkpt>
      <trkpt lat="46.58655" lon="5.31071">
        <ele>208.8</ele>
        <time>2022-03-14T12:18:19Z</time>
      </trkpt>
      <trkpt lat="46.58703" lon="5.31022">
        <ele>208.2</ele>
        <time>2022-03-14T12:18:28Z</time>
      </trkpt>
      <trkpt lat="46.5875" lon="5.30971">
        <ele>208.6</ele>
        <time>2022-03-14T12:18:38Z</time>
      </trkpt>
      <trkpt lat="46.58781" lon="5.30938">
        <ele>209.8</ele>
        <time>2022-03-14T12:18:45Z</time>
      </trkpt>
      <trkpt lat="46.5879" lon="5.30929">
        <ele>210.2</ele>
        <time>2022-03-14T12:18:47Z</time>
      </trkpt>
      <trkpt lat="46.58821" lon="5.30906">
        <ele>211.2</ele>
        <time>2022-03-14T12:18:53Z</time>
      </trkpt>
      <trkpt lat="46.58825" lon="5.30905">
        <ele>211.4</ele>
        <time>2022-03-14T12:18:54Z</time>
      </trkpt>
      <trkpt lat="46.58868" lon="5.30899">
        <ele>212</ele>
        <time>2022-03-14T12:19:01Z</time>
      </trkpt>
      <trkpt lat="46.58886" lon="5.30896">
        <ele>212.4</ele>
        <time>2022-03-14T12:19:04Z</time>
      </trkpt>
      <trkpt lat="46.58936" lon="5.30891">
        <ele>212.8</ele>
        <time>2022-03-14T12:19:12Z</time>
      </trkpt>
      <trkpt lat="46.58995" lon="5.30883">
        <ele>212.2</ele>
        <time>2022-03-14T12:19:20Z</time>
      </trkpt>
      <trkpt lat="46.59019" lon="5.3088">
        <ele>211.4</ele>
        <time>2022-03-14T12:19:23Z</time>
      </trkpt>
      <trkpt lat="46.59054" lon="5.30875">
        <ele>210.4</ele>
        <time>2022-03-14T12:19:27Z</time>
      </trkpt>
      <trkpt lat="46.59081" lon="5.30871">
        <ele>209.2</ele>
        <time>2022-03-14T12:19:30Z</time>
      </trkpt>
      <trkpt lat="46.59109" lon="5.30868">
        <ele>207.6</ele>
        <time>2022-03-14T12:19:33Z</time>
      </trkpt>
      <trkpt lat="46.59128" lon="5.30866">
        <ele>206.6</ele>
        <time>2022-03-14T12:19:35Z</time>
      </trkpt>
      <trkpt lat="46.59156" lon="5.30862">
        <ele>205.6</ele>
        <time>2022-03-14T12:19:38Z</time>
      </trkpt>
      <trkpt lat="46.59193" lon="5.30857">
        <ele>204.2</ele>
        <time>2022-03-14T12:19:42Z</time>
      </trkpt>
      <trkpt lat="46.59212" lon="5.30855">
        <ele>203.4</ele>
        <time>2022-03-14T12:19:44Z</time>
      </trkpt>
      <trkpt lat="46.59221" lon="5.30854">
        <ele>203.2</ele>
        <time>2022-03-14T12:19:45Z</time>
      </trkpt>
      <trkpt lat="46.5926" lon="5.30848">
        <ele>202</ele>
        <time>2022-03-14T12:19:49Z</time>
      </trkpt>
      <trkpt lat="46.59297" lon="5.30844">
        <ele>201.2</ele>
        <time>2022-03-14T12:19:53Z</time>
      </trkpt>
      <trkpt lat="46.59316" lon="5.30842">
        <ele>200.2</ele>
        <time>2022-03-14T12:19:55Z</time>
      </trkpt>
      <trkpt lat="46.59344" lon="5.30838">
        <ele>198.8</ele>
        <time>2022-03-14T12:19:58Z</time>
      </trkpt>
      <trkpt lat="46.59372" lon="5.30835">
        <ele>197.6</ele>
        <time>2022-03-14T12:20:01Z</time>
      </trkpt>
      <trkpt lat="46.594" lon="5.30831">
        <ele>196.8</ele>
        <time>2022-03-14T12:20:04Z</time>
      </trkpt>
      <trkpt lat="46.59408" lon="5.3083">
        <ele>196.2</ele>
        <time>2022-03-14T12:20:05Z</time>
      </trkpt>
      <trkpt lat="46.59435" lon="5.30826">
        <ele>195.4</ele>
        <time>2022-03-14T12:20:08Z</time>
      </trkpt>
      <trkpt lat="46.59469" lon="5.30821">
        <ele>194.2</ele>
        <time>2022-03-14T12:20:12Z</time>
      </trkpt>
      <trkpt lat="46.59478" lon="5.3082">
        <ele>194.2</ele>
        <time>2022-03-14T12:20:13Z</time>
      </trkpt>
      <trkpt lat="46.59525" lon="5.30814">
        <ele>193.2</ele>
        <time>2022-03-14T12:20:19Z</time>
      </trkpt>
      <trkpt lat="46.5954" lon="5.30811">
        <ele>193.2</ele>
        <time>2022-03-14T12:20:21Z</time>
      </trkpt>
      <trkpt lat="46.59582" lon="5.30806">
        <ele>193.2</ele>
        <time>2022-03-14T12:20:27Z</time>
      </trkpt>
      <trkpt lat="46.59638" lon="5.30799">
        <ele>193</ele>
        <time>2022-03-14T12:20:35Z</time>
      </trkpt>
      <trkpt lat="46.59657" lon="5.30796">
        <ele>193</ele>
        <time>2022-03-14T12:20:38Z</time>
      </trkpt>
      <trkpt lat="46.59686" lon="5.30793">
        <ele>193.2</ele>
        <time>2022-03-14T12:20:43Z</time>
      </trkpt>
      <trkpt lat="46.59696" lon="5.30792">
        <ele>193.6</ele>
        <time>2022-03-14T12:20:45Z</time>
      </trkpt>
      <trkpt lat="46.59711" lon="5.30791">
        <ele>194.2</ele>
        <time>2022-03-14T12:20:48Z</time>
      </trkpt>
      <trkpt lat="46.5974" lon="5.30789">
        <ele>195.6</ele>
        <time>2022-03-14T12:20:54Z</time>
      </trkpt>
      <trkpt lat="46.59744" lon="5.30789">
        <ele>195.8</ele>
        <time>2022-03-14T12:20:55Z</time>
      </trkpt>
      <trkpt lat="46.59763" lon="5.30787">
        <ele>196.8</ele>
        <time>2022-03-14T12:20:59Z</time>
      </trkpt>
      <trkpt lat="46.59776" lon="5.30789">
        <ele>197.6</ele>
        <time>2022-03-14T12:21:02Z</time>
      </trkpt>
      <trkpt lat="46.59781" lon="5.3079">
        <ele>197.8</ele>
        <time>2022-03-14T12:21:03Z</time>
      </trkpt>
      <trkpt lat="46.59785" lon="5.30791">
        <ele>198.2</ele>
        <time>2022-03-14T12:21:04Z</time>
      </trkpt>
      <trkpt lat="46.59802" lon="5.30797">
        <ele>199</ele>
        <time>2022-03-14T12:21:08Z</time>
      </trkpt>
      <trkpt lat="46.5983" lon="5.30808">
        <ele>200</ele>
        <time>2022-03-14T12:21:14Z</time>
      </trkpt>
      <trkpt lat="46.59839" lon="5.30812">
        <ele>200.6</ele>
        <time>2022-03-14T12:21:16Z</time>
      </trkpt>
      <trkpt lat="46.59853" lon="5.30817">
        <ele>201</ele>
        <time>2022-03-14T12:21:19Z</time>
      </trkpt>
      <trkpt lat="46.59882" lon="5.30824">
        <ele>202</ele>
        <time>2022-03-14T12:21:25Z</time>
      </trkpt>
      <trkpt lat="46.59886" lon="5.30825">
        <ele>202.2</ele>
        <time>2022-03-14T12:21:26Z</time>
      </trkpt>
      <trkpt lat="46.59937" lon="5.30835">
        <ele>203.4</ele>
        <time>2022-03-14T12:21:37Z</time>
      </trkpt>
      <trkpt lat="46.59961" lon="5.30842">
        <ele>203.8</ele>
        <time>2022-03-14T12:21:42Z</time>
      </trkpt>
      <trkpt lat="46.5997" lon="5.30848">
        <ele>204.2</ele>
        <time>2022-03-14T12:21:44Z</time>
      </trkpt>
      <trkpt lat="46.59977" lon="5.30856">
        <ele>204.4</ele>
        <time>2022-03-14T12:21:46Z</time>
      </trkpt>
      <trkpt lat="46.59999" lon="5.30881">
        <ele>205</ele>
        <time>2022-03-14T12:21:52Z</time>
      </trkpt>
      <trkpt lat="46.60006" lon="5.30889">
        <ele>205.4</ele>
        <time>2022-03-14T12:21:54Z</time>
      </trkpt>
      <trkpt lat="46.60023" lon="5.30909">
        <ele>206.2</ele>
        <time>2022-03-14T12:21:59Z</time>
      </trkpt>
      <trkpt lat="46.60031" lon="5.30918">
        <ele>206.4</ele>
        <time>2022-03-14T12:22:01Z</time>
      </trkpt>
      <trkpt lat="46.60052" lon="5.30943">
        <ele>207.4</ele>
        <time>2022-03-14T12:22:07Z</time>
      </trkpt>
      <trkpt lat="46.6006" lon="5.30952">
        <ele>207.6</ele>
        <time>2022-03-14T12:22:09Z</time>
      </trkpt>
      <trkpt lat="46.60089" lon="5.30986">
        <ele>208.4</ele>
        <time>2022-03-14T12:22:17Z</time>
      </trkpt>
      <trkpt lat="46.60092" lon="5.30989">
        <ele>208.4</ele>
        <time>2022-03-14T12:22:18Z</time>
      </trkpt>
      <trkpt lat="46.60096" lon="5.30992">
        <ele>208.6</ele>
        <time>2022-03-14T12:22:19Z</time>
      </trkpt>
      <trkpt lat="46.60101" lon="5.30999">
        <ele>208.8</ele>
        <time>2022-03-14T12:22:21Z</time>
      </trkpt>
      <trkpt lat="46.60105" lon="5.31008">
        <ele>208.8</ele>
        <time>2022-03-14T12:22:24Z</time>
      </trkpt>
      <trkpt lat="46.60106" lon="5.31011">
        <ele>208.8</ele>
        <time>2022-03-14T12:22:25Z</time>
      </trkpt>
      <trkpt lat="46.60117" lon="5.31013">
        <ele>209</ele>
        <time>2022-03-14T12:22:28Z</time>
      </trkpt>
      <trkpt lat="46.60128" lon="5.31012">
        <ele>209</ele>
        <time>2022-03-14T12:22:30Z</time>
      </trkpt>
      <trkpt lat="46.6014" lon="5.31015">
        <ele>208.8</ele>
        <time>2022-03-14T12:22:32Z</time>
      </trkpt>
      <trkpt lat="46.60185" lon="5.31028">
        <ele>208.4</ele>
        <time>2022-03-14T12:22:39Z</time>
      </trkpt>
      <trkpt lat="46.60241" lon="5.31048">
        <ele>207.6</ele>
        <time>2022-03-14T12:22:47Z</time>
      </trkpt>
      <trkpt lat="46.60248" lon="5.31051">
        <ele>207.6</ele>
        <time>2022-03-14T12:22:48Z</time>
      </trkpt>
      <trkpt lat="46.60299" lon="5.31079">
        <ele>206.8</ele>
        <time>2022-03-14T12:22:55Z</time>
      </trkpt>
      <trkpt lat="46.60333" lon="5.31102">
        <ele>206.6</ele>
        <time>2022-03-14T12:23:00Z</time>
      </trkpt>
      <trkpt lat="46.60339" lon="5.31108">
        <ele>206.6</ele>
        <time>2022-03-14T12:23:01Z</time>
      </trkpt>
      <trkpt lat="46.6035" lon="5.31122">
        <ele>206.2</ele>
        <time>2022-03-14T12:23:03Z</time>
      </trkpt>
      <trkpt lat="46.60364" lon="5.31147">
        <ele>205.8</ele>
        <time>2022-03-14T12:23:06Z</time>
      </trkpt>
      <trkpt lat="46.60368" lon="5.31157">
        <ele>205.8</ele>
        <time>2022-03-14T12:23:07Z</time>
      </trkpt>
      <trkpt lat="46.60373" lon="5.31176">
        <ele>205.6</ele>
        <time>2022-03-14T12:23:09Z</time>
      </trkpt>
      <trkpt lat="46.60375" lon="5.31187">
        <ele>205.4</ele>
        <time>2022-03-14T12:23:10Z</time>
      </trkpt>
      <trkpt lat="46.60378" lon="5.31208">
        <ele>205.4</ele>
        <time>2022-03-14T12:23:12Z</time>
      </trkpt>
      <trkpt lat="46.60377" lon="5.31229">
        <ele>205.4</ele>
        <time>2022-03-14T12:23:14Z</time>
      </trkpt>
      <trkpt lat="46.60371" lon="5.31297">
        <ele>205.4</ele>
        <time>2022-03-14T12:23:21Z</time>
      </trkpt>
      <trkpt lat="46.60366" lon="5.3136">
        <ele>206</ele>
        <time>2022-03-14T12:23:28Z</time>
      </trkpt>
      <trkpt lat="46.60367" lon="5.31369">
        <ele>206</ele>
        <time>2022-03-14T12:23:29Z</time>
      </trkpt>
      <trkpt lat="46.6037" lon="5.31387">
        <ele>206.2</ele>
        <time>2022-03-14T12:23:31Z</time>
      </trkpt>
      <trkpt lat="46.60373" lon="5.31396">
        <ele>206.2</ele>
        <time>2022-03-14T12:23:32Z</time>
      </trkpt>
      <trkpt lat="46.60377" lon="5.31404">
        <ele>206.4</ele>
        <time>2022-03-14T12:23:33Z</time>
      </trkpt>
      <trkpt lat="46.60387" lon="5.31419">
        <ele>206.8</ele>
        <time>2022-03-14T12:23:35Z</time>
      </trkpt>
      <trkpt lat="46.60393" lon="5.31426">
        <ele>206.8</ele>
        <time>2022-03-14T12:23:36Z</time>
      </trkpt>
      <trkpt lat="46.60436" lon="5.31474">
        <ele>206.6</ele>
        <time>2022-03-14T12:23:43Z</time>
      </trkpt>
      <trkpt lat="46.60452" lon="5.31498">
        <ele>205.6</ele>
        <time>2022-03-14T12:23:46Z</time>
      </trkpt>
      <trkpt lat="46.60471" lon="5.31527">
        <ele>205.4</ele>
        <time>2022-03-14T12:23:50Z</time>
      </trkpt>
      <trkpt lat="46.60497" lon="5.31557">
        <ele>205.4</ele>
        <time>2022-03-14T12:23:55Z</time>
      </trkpt>
      <trkpt lat="46.60542" lon="5.31599">
        <ele>206.4</ele>
        <time>2022-03-14T12:24:04Z</time>
      </trkpt>
      <trkpt lat="46.60557" lon="5.31612">
        <ele>206.8</ele>
        <time>2022-03-14T12:24:07Z</time>
      </trkpt>
      <trkpt lat="46.60585" lon="5.31636">
        <ele>207.8</ele>
        <time>2022-03-14T12:24:13Z</time>
      </trkpt>
      <trkpt lat="46.60595" lon="5.31644">
        <ele>208</ele>
        <time>2022-03-14T12:24:15Z</time>
      </trkpt>
      <trkpt lat="46.60627" lon="5.31665">
        <ele>208.8</ele>
        <time>2022-03-14T12:24:21Z</time>
      </trkpt>
      <trkpt lat="46.60633" lon="5.31668">
        <ele>209</ele>
        <time>2022-03-14T12:24:22Z</time>
      </trkpt>
      <trkpt lat="46.60683" lon="5.31689">
        <ele>209.2</ele>
        <time>2022-03-14T12:24:30Z</time>
      </trkpt>
      <trkpt lat="46.60734" lon="5.31713">
        <ele>209.2</ele>
        <time>2022-03-14T12:24:38Z</time>
      </trkpt>
      <trkpt lat="46.6074" lon="5.31716">
        <ele>209</ele>
        <time>2022-03-14T12:24:39Z</time>
      </trkpt>
      <trkpt lat="46.60746" lon="5.31721">
        <ele>209</ele>
        <time>2022-03-14T12:24:40Z</time>
      </trkpt>
      <trkpt lat="46.6076" lon="5.3174">
        <ele>208.8</ele>
        <time>2022-03-14T12:24:43Z</time>
      </trkpt>
      <trkpt lat="46.60783" lon="5.31784">
        <ele>208.2</ele>
        <time>2022-03-14T12:24:48Z</time>
      </trkpt>
      <trkpt lat="46.60794" lon="5.31814">
        <ele>208</ele>
        <time>2022-03-14T12:24:51Z</time>
      </trkpt>
      <trkpt lat="46.608" lon="5.31834">
        <ele>207.8</ele>
        <time>2022-03-14T12:24:53Z</time>
      </trkpt>
      <trkpt lat="46.60817" lon="5.319">
        <ele>206.8</ele>
        <time>2022-03-14T12:25:00Z</time>
      </trkpt>
      <trkpt lat="46.60822" lon="5.31924">
        <ele>207.2</ele>
        <time>2022-03-14T12:25:03Z</time>
      </trkpt>
      <trkpt lat="46.60824" lon="5.31939">
        <ele>207.2</ele>
        <time>2022-03-14T12:25:05Z</time>
      </trkpt>
      <trkpt lat="46.6083" lon="5.31993">
        <ele>208.4</ele>
        <time>2022-03-14T12:25:11Z</time>
      </trkpt>
      <trkpt lat="46.60835" lon="5.32043">
        <ele>208.8</ele>
        <time>2022-03-14T12:25:16Z</time>
      </trkpt>
      <trkpt lat="46.6084" lon="5.32074">
        <ele>208.4</ele>
        <time>2022-03-14T12:25:19Z</time>
      </trkpt>
      <trkpt lat="46.60847" lon="5.32094">
        <ele>208.2</ele>
        <time>2022-03-14T12:25:21Z</time>
      </trkpt>
      <trkpt lat="46.60868" lon="5.32123">
        <ele>207.6</ele>
        <time>2022-03-14T12:25:25Z</time>
      </trkpt>
      <trkpt lat="46.60897" lon="5.32159">
        <ele>207.6</ele>
        <time>2022-03-14T12:25:31Z</time>
      </trkpt>
      <trkpt lat="46.60923" lon="5.3219">
        <ele>207.8</ele>
        <time>2022-03-14T12:25:37Z</time>
      </trkpt>
      <trkpt lat="46.60951" lon="5.32213">
        <ele>208.4</ele>
        <time>2022-03-14T12:25:43Z</time>
      </trkpt>
      <trkpt lat="46.60957" lon="5.32215">
        <ele>208.4</ele>
        <time>2022-03-14T12:25:44Z</time>
      </trkpt>
      <trkpt lat="46.60967" lon="5.32218">
        <ele>208.8</ele>
        <time>2022-03-14T12:25:46Z</time>
      </trkpt>
      <trkpt lat="46.60979" lon="5.32219">
        <ele>209</ele>
        <time>2022-03-14T12:25:48Z</time>
      </trkpt>
      <trkpt lat="46.61011" lon="5.3222">
        <ele>209.4</ele>
        <time>2022-03-14T12:25:53Z</time>
      </trkpt>
      <trkpt lat="46.61067" lon="5.32221">
        <ele>209.2</ele>
        <time>2022-03-14T12:26:01Z</time>
      </trkpt>
      <trkpt lat="46.61121" lon="5.32223">
        <ele>207.8</ele>
        <time>2022-03-14T12:26:08Z</time>
      </trkpt>
      <trkpt lat="46.61127" lon="5.32223">
        <ele>207.6</ele>
        <time>2022-03-14T12:26:09Z</time>
      </trkpt>
      <trkpt lat="46.6118" lon="5.32217">
        <ele>207</ele>
        <time>2022-03-14T12:26:16Z</time>
      </trkpt>
      <trkpt lat="46.61193" lon="5.32209">
        <ele>206.8</ele>
        <time>2022-03-14T12:26:18Z</time>
      </trkpt>
      <trkpt lat="46.61204" lon="5.32199">
        <ele>206.8</ele>
        <time>2022-03-14T12:26:20Z</time>
      </trkpt>
      <trkpt lat="46.61233" lon="5.32179">
        <ele>206.8</ele>
        <time>2022-03-14T12:26:25Z</time>
      </trkpt>
      <trkpt lat="46.61239" lon="5.32176">
        <ele>206.8</ele>
        <time>2022-03-14T12:26:26Z</time>
      </trkpt>
      <trkpt lat="46.61252" lon="5.32173">
        <ele>207</ele>
        <time>2022-03-14T12:26:28Z</time>
      </trkpt>
      <trkpt lat="46.61272" lon="5.32174">
        <ele>207</ele>
        <time>2022-03-14T12:26:31Z</time>
      </trkpt>
      <trkpt lat="46.61314" lon="5.32188">
        <ele>206.8</ele>
        <time>2022-03-14T12:26:37Z</time>
      </trkpt>
      <trkpt lat="46.61351" lon="5.32204">
        <ele>206.2</ele>
        <time>2022-03-14T12:26:42Z</time>
      </trkpt>
      <trkpt lat="46.61367" lon="5.32206">
        <ele>205.6</ele>
        <time>2022-03-14T12:26:44Z</time>
      </trkpt>
      <trkpt lat="46.61392" lon="5.32202">
        <ele>204.8</ele>
        <time>2022-03-14T12:26:47Z</time>
      </trkpt>
      <trkpt lat="46.61408" lon="5.32196">
        <ele>204.6</ele>
        <time>2022-03-14T12:26:49Z</time>
      </trkpt>
      <trkpt lat="46.61416" lon="5.32193">
        <ele>204.4</ele>
        <time>2022-03-14T12:26:50Z</time>
      </trkpt>
      <trkpt lat="46.61438" lon="5.32177">
        <ele>203.6</ele>
        <time>2022-03-14T12:26:53Z</time>
      </trkpt>
      <trkpt lat="46.6146" lon="5.3216">
        <ele>202.8</ele>
        <time>2022-03-14T12:26:56Z</time>
      </trkpt>
      <trkpt lat="46.61476" lon="5.32154">
        <ele>202.6</ele>
        <time>2022-03-14T12:26:58Z</time>
      </trkpt>
      <trkpt lat="46.61493" lon="5.32151">
        <ele>202.2</ele>
        <time>2022-03-14T12:27:00Z</time>
      </trkpt>
      <trkpt lat="46.6151" lon="5.32155">
        <ele>201.8</ele>
        <time>2022-03-14T12:27:02Z</time>
      </trkpt>
      <trkpt lat="46.61526" lon="5.32165">
        <ele>201.4</ele>
        <time>2022-03-14T12:27:04Z</time>
      </trkpt>
      <trkpt lat="46.61533" lon="5.32172">
        <ele>201.2</ele>
        <time>2022-03-14T12:27:05Z</time>
      </trkpt>
      <trkpt lat="46.61539" lon="5.3218">
        <ele>201</ele>
        <time>2022-03-14T12:27:06Z</time>
      </trkpt>
      <trkpt lat="46.61555" lon="5.32206">
        <ele>200.8</ele>
        <time>2022-03-14T12:27:09Z</time>
      </trkpt>
      <trkpt lat="46.6158" lon="5.32247">
        <ele>200.4</ele>
        <time>2022-03-14T12:27:14Z</time>
      </trkpt>
      <trkpt lat="46.61589" lon="5.32263">
        <ele>200.2</ele>
        <time>2022-03-14T12:27:16Z</time>
      </trkpt>
      <trkpt lat="46.61593" lon="5.32271">
        <ele>200.2</ele>
        <time>2022-03-14T12:27:17Z</time>
      </trkpt>
      <trkpt lat="46.61595" lon="5.3228">
        <ele>200.2</ele>
        <time>2022-03-14T12:27:18Z</time>
      </trkpt>
      <trkpt lat="46.61601" lon="5.32306">
        <ele>200.4</ele>
        <time>2022-03-14T12:27:21Z</time>
      </trkpt>
      <trkpt lat="46.61609" lon="5.32355">
        <ele>200.8</ele>
        <time>2022-03-14T12:27:27Z</time>
      </trkpt>
      <trkpt lat="46.61611" lon="5.32362">
        <ele>200.8</ele>
        <time>2022-03-14T12:27:28Z</time>
      </trkpt>
      <trkpt lat="46.61613" lon="5.3237">
        <ele>201</ele>
        <time>2022-03-14T12:27:29Z</time>
      </trkpt>
      <trkpt lat="46.61622" lon="5.3239">
        <ele>201.2</ele>
        <time>2022-03-14T12:27:32Z</time>
      </trkpt>
      <trkpt lat="46.61626" lon="5.32396">
        <ele>201.2</ele>
        <time>2022-03-14T12:27:33Z</time>
      </trkpt>
      <trkpt lat="46.61634" lon="5.32407">
        <ele>201.4</ele>
        <time>2022-03-14T12:27:35Z</time>
      </trkpt>
      <trkpt lat="46.61652" lon="5.32424">
        <ele>202</ele>
        <time>2022-03-14T12:27:39Z</time>
      </trkpt>
      <trkpt lat="46.61676" lon="5.32439">
        <ele>202.4</ele>
        <time>2022-03-14T12:27:44Z</time>
      </trkpt>
      <trkpt lat="46.6169" lon="5.32447">
        <ele>203</ele>
        <time>2022-03-14T12:27:47Z</time>
      </trkpt>
      <trkpt lat="46.61708" lon="5.32457">
        <ele>203.4</ele>
        <time>2022-03-14T12:27:51Z</time>
      </trkpt>
      <trkpt lat="46.6174" lon="5.32476">
        <ele>204.2</ele>
        <time>2022-03-14T12:27:58Z</time>
      </trkpt>
      <trkpt lat="46.61754" lon="5.32484">
        <ele>204.6</ele>
        <time>2022-03-14T12:28:01Z</time>
      </trkpt>
      <trkpt lat="46.61787" lon="5.32509">
        <ele>205.8</ele>
        <time>2022-03-14T12:28:09Z</time>
      </trkpt>
      <trkpt lat="46.61817" lon="5.32534">
        <ele>207</ele>
        <time>2022-03-14T12:28:16Z</time>
      </trkpt>
      <trkpt lat="46.61832" lon="5.32548">
        <ele>207.8</ele>
        <time>2022-03-14T12:28:20Z</time>
      </trkpt>
      <trkpt lat="46.61836" lon="5.32551">
        <ele>208.2</ele>
        <time>2022-03-14T12:28:21Z</time>
      </trkpt>
      <trkpt lat="46.61864" lon="5.32576">
        <ele>209.2</ele>
        <time>2022-03-14T12:28:28Z</time>
      </trkpt>
      <trkpt lat="46.6188" lon="5.32594">
        <ele>209.6</ele>
        <time>2022-03-14T12:28:32Z</time>
      </trkpt>
      <trkpt lat="46.61918" lon="5.32641">
        <ele>209.8</ele>
        <time>2022-03-14T12:28:41Z</time>
      </trkpt>
      <trkpt lat="46.61953" lon="5.3269">
        <ele>209.8</ele>
        <time>2022-03-14T12:28:49Z</time>
      </trkpt>
      <trkpt lat="46.61989" lon="5.32746">
        <ele>209.4</ele>
        <time>2022-03-14T12:28:57Z</time>
      </trkpt>
      <trkpt lat="46.62022" lon="5.32797">
        <ele>209.6</ele>
        <time>2022-03-14T12:29:05Z</time>
      </trkpt>
      <trkpt lat="46.6205" lon="5.3284">
        <ele>210.4</ele>
        <time>2022-03-14T12:29:12Z</time>
      </trkpt>
      <trkpt lat="46.62063" lon="5.3286">
        <ele>210.8</ele>
        <time>2022-03-14T12:29:15Z</time>
      </trkpt>
      <trkpt lat="46.62082" lon="5.32885">
        <ele>211.6</ele>
        <time>2022-03-14T12:29:19Z</time>
      </trkpt>
      <trkpt lat="46.62093" lon="5.32895">
        <ele>211.6</ele>
        <time>2022-03-14T12:29:21Z</time>
      </trkpt>
      <trkpt lat="46.6214" lon="5.32928">
        <ele>212</ele>
        <time>2022-03-14T12:29:29Z</time>
      </trkpt>
      <trkpt lat="46.62153" lon="5.32935">
        <ele>212</ele>
        <time>2022-03-14T12:29:31Z</time>
      </trkpt>
      <trkpt lat="46.62166" lon="5.32939">
        <ele>212</ele>
        <time>2022-03-14T12:29:33Z</time>
      </trkpt>
      <trkpt lat="46.62173" lon="5.32938">
        <ele>212</ele>
        <time>2022-03-14T12:29:34Z</time>
      </trkpt>
      <trkpt lat="46.62179" lon="5.32937">
        <ele>212</ele>
        <time>2022-03-14T12:29:35Z</time>
      </trkpt>
      <trkpt lat="46.62201" lon="5.32926">
        <ele>211.6</ele>
        <time>2022-03-14T12:29:38Z</time>
      </trkpt>
      <trkpt lat="46.62216" lon="5.32921">
        <ele>211.4</ele>
        <time>2022-03-14T12:29:40Z</time>
      </trkpt>
      <trkpt lat="46.62241" lon="5.32918">
        <ele>210.8</ele>
        <time>2022-03-14T12:29:43Z</time>
      </trkpt>
      <trkpt lat="46.62258" lon="5.32918">
        <ele>210.4</ele>
        <time>2022-03-14T12:29:45Z</time>
      </trkpt>
      <trkpt lat="46.62285" lon="5.32917">
        <ele>209</ele>
        <time>2022-03-14T12:29:48Z</time>
      </trkpt>
      <trkpt lat="46.62314" lon="5.32915">
        <ele>208</ele>
        <time>2022-03-14T12:29:51Z</time>
      </trkpt>
      <trkpt lat="46.62323" lon="5.32915">
        <ele>207.6</ele>
        <time>2022-03-14T12:29:52Z</time>
      </trkpt>
      <trkpt lat="46.62353" lon="5.32912">
        <ele>206.2</ele>
        <time>2022-03-14T12:29:55Z</time>
      </trkpt>
      <trkpt lat="46.62383" lon="5.32909">
        <ele>205</ele>
        <time>2022-03-14T12:29:58Z</time>
      </trkpt>
      <trkpt lat="46.62393" lon="5.32907">
        <ele>204.8</ele>
        <time>2022-03-14T12:29:59Z</time>
      </trkpt>
      <trkpt lat="46.62423" lon="5.32903">
        <ele>203.2</ele>
        <time>2022-03-14T12:30:02Z</time>
      </trkpt>
      <trkpt lat="46.62443" lon="5.329">
        <ele>202.2</ele>
        <time>2022-03-14T12:30:04Z</time>
      </trkpt>
      <trkpt lat="46.62462" lon="5.32897">
        <ele>201</ele>
        <time>2022-03-14T12:30:06Z</time>
      </trkpt>
      <trkpt lat="46.62489" lon="5.32893">
        <ele>199.8</ele>
        <time>2022-03-14T12:30:09Z</time>
      </trkpt>
      <trkpt lat="46.62498" lon="5.32891">
        <ele>199.6</ele>
        <time>2022-03-14T12:30:10Z</time>
      </trkpt>
      <trkpt lat="46.62525" lon="5.32886">
        <ele>198.8</ele>
        <time>2022-03-14T12:30:13Z</time>
      </trkpt>
      <trkpt lat="46.62558" lon="5.32879">
        <ele>197.8</ele>
        <time>2022-03-14T12:30:17Z</time>
      </trkpt>
      <trkpt lat="46.62566" lon="5.32878">
        <ele>197.6</ele>
        <time>2022-03-14T12:30:18Z</time>
      </trkpt>
      <trkpt lat="46.62597" lon="5.32876">
        <ele>197.4</ele>
        <time>2022-03-14T12:30:22Z</time>
      </trkpt>
      <trkpt lat="46.62604" lon="5.32878">
        <ele>197.4</ele>
        <time>2022-03-14T12:30:23Z</time>
      </trkpt>
      <trkpt lat="46.62611" lon="5.32884">
        <ele>197.2</ele>
        <time>2022-03-14T12:30:24Z</time>
      </trkpt>
      <trkpt lat="46.62616" lon="5.32891">
        <ele>197.2</ele>
        <time>2022-03-14T12:30:25Z</time>
      </trkpt>
      <trkpt lat="46.6262" lon="5.329">
        <ele>197.2</ele>
        <time>2022-03-14T12:30:26Z</time>
      </trkpt>
      <trkpt lat="46.62626" lon="5.32918">
        <ele>197.4</ele>
        <time>2022-03-14T12:30:28Z</time>
      </trkpt>
      <trkpt lat="46.62639" lon="5.32951">
        <ele>197.6</ele>
        <time>2022-03-14T12:30:32Z</time>
      </trkpt>
      <trkpt lat="46.62654" lon="5.3298">
        <ele>198.2</ele>
        <time>2022-03-14T12:30:37Z</time>
      </trkpt>
      <trkpt lat="46.62657" lon="5.32985">
        <ele>198.4</ele>
        <time>2022-03-14T12:30:38Z</time>
      </trkpt>
      <trkpt lat="46.62666" lon="5.32992">
        <ele>198.8</ele>
        <time>2022-03-14T12:30:40Z</time>
      </trkpt>
      <trkpt lat="46.6267" lon="5.32995">
        <ele>199</ele>
        <time>2022-03-14T12:30:41Z</time>
      </trkpt>
      <trkpt lat="46.6268" lon="5.32999">
        <ele>199.6</ele>
        <time>2022-03-14T12:30:43Z</time>
      </trkpt>
      <trkpt lat="46.62684" lon="5.33">
        <ele>200</ele>
        <time>2022-03-14T12:30:44Z</time>
      </trkpt>
      <trkpt lat="46.62693" lon="5.33001">
        <ele>200.6</ele>
        <time>2022-03-14T12:30:46Z</time>
      </trkpt>
      <trkpt lat="46.62697" lon="5.33">
        <ele>200.8</ele>
        <time>2022-03-14T12:30:47Z</time>
      </trkpt>
      <trkpt lat="46.62702" lon="5.32999">
        <ele>201.4</ele>
        <time>2022-03-14T12:30:48Z</time>
      </trkpt>
      <trkpt lat="46.62718" lon="5.32997">
        <ele>202.2</ele>
        <time>2022-03-14T12:30:52Z</time>
      </trkpt>
      <trkpt lat="46.62722" lon="5.32997">
        <ele>202.6</ele>
        <time>2022-03-14T12:30:53Z</time>
      </trkpt>
      <trkpt lat="46.62727" lon="5.32998">
        <ele>202.8</ele>
        <time>2022-03-14T12:30:54Z</time>
      </trkpt>
      <trkpt lat="46.6274" lon="5.33">
        <ele>203.8</ele>
        <time>2022-03-14T12:30:57Z</time>
      </trkpt>
      <trkpt lat="46.62772" lon="5.3301">
        <ele>205</ele>
        <time>2022-03-14T12:31:04Z</time>
      </trkpt>
      <trkpt lat="46.62795" lon="5.33019">
        <ele>206</ele>
        <time>2022-03-14T12:31:09Z</time>
      </trkpt>
      <trkpt lat="46.62822" lon="5.33027">
        <ele>206.8</ele>
        <time>2022-03-14T12:31:15Z</time>
      </trkpt>
      <trkpt lat="46.62846" lon="5.33035">
        <ele>207</ele>
        <time>2022-03-14T12:31:20Z</time>
      </trkpt>
      <trkpt lat="46.6286" lon="5.33039">
        <ele>207.2</ele>
        <time>2022-03-14T12:31:23Z</time>
      </trkpt>
      <trkpt lat="46.62892" lon="5.33056">
        <ele>207.4</ele>
        <time>2022-03-14T12:31:30Z</time>
      </trkpt>
      <trkpt lat="46.62897" lon="5.3306">
        <ele>207.4</ele>
        <time>2022-03-14T12:31:31Z</time>
      </trkpt>
      <trkpt lat="46.62905" lon="5.33069">
        <ele>207.8</ele>
        <time>2022-03-14T12:31:33Z</time>
      </trkpt>
      <trkpt lat="46.62912" lon="5.33079">
        <ele>208</ele>
        <time>2022-03-14T12:31:35Z</time>
      </trkpt>
      <trkpt lat="46.6292" lon="5.33089">
        <ele>208.2</ele>
        <time>2022-03-14T12:31:37Z</time>
      </trkpt>
      <trkpt lat="46.62932" lon="5.33101">
        <ele>208.2</ele>
        <time>2022-03-14T12:31:40Z</time>
      </trkpt>
      <trkpt lat="46.6294" lon="5.33106">
        <ele>208.4</ele>
        <time>2022-03-14T12:31:42Z</time>
      </trkpt>
      <trkpt lat="46.62971" lon="5.33118">
        <ele>209.2</ele>
        <time>2022-03-14T12:31:49Z</time>
      </trkpt>
      <trkpt lat="46.62976" lon="5.33119">
        <ele>209.2</ele>
        <time>2022-03-14T12:31:50Z</time>
      </trkpt>
      <trkpt lat="46.63" lon="5.33127">
        <ele>210.4</ele>
        <time>2022-03-14T12:31:56Z</time>
      </trkpt>
      <trkpt lat="46.63017" lon="5.33133">
        <ele>211.4</ele>
        <time>2022-03-14T12:32:00Z</time>
      </trkpt>
      <trkpt lat="46.63043" lon="5.33148">
        <ele>212.6</ele>
        <time>2022-03-14T12:32:06Z</time>
      </trkpt>
      <trkpt lat="46.63051" lon="5.33154">
        <ele>213</ele>
        <time>2022-03-14T12:32:08Z</time>
      </trkpt>
      <trkpt lat="46.63068" lon="5.33169">
        <ele>213.6</ele>
        <time>2022-03-14T12:32:12Z</time>
      </trkpt>
      <trkpt lat="46.63072" lon="5.33173">
        <ele>213.8</ele>
        <time>2022-03-14T12:32:13Z</time>
      </trkpt>
      <trkpt lat="46.63081" lon="5.3318">
        <ele>214</ele>
        <time>2022-03-14T12:32:15Z</time>
      </trkpt>
      <trkpt lat="46.63102" lon="5.33198">
        <ele>214.8</ele>
        <time>2022-03-14T12:32:20Z</time>
      </trkpt>
      <trkpt lat="46.63107" lon="5.332">
        <ele>215</ele>
        <time>2022-03-14T12:32:21Z</time>
      </trkpt>
      <trkpt lat="46.63112" lon="5.33199">
        <ele>215</ele>
        <time>2022-03-14T12:32:22Z</time>
      </trkpt>
      <trkpt lat="46.6312" lon="5.33189">
        <ele>215</ele>
        <time>2022-03-14T12:32:24Z</time>
      </trkpt>
      <trkpt lat="46.63158" lon="5.33126">
        <ele>215.2</ele>
        <time>2022-03-14T12:32:34Z</time>
      </trkpt>
      <trkpt lat="46.63188" lon="5.33078">
        <ele>215.4</ele>
        <time>2022-03-14T12:32:41Z</time>
      </trkpt>
      <trkpt lat="46.63196" lon="5.33065">
        <ele>215.2</ele>
        <time>2022-03-14T12:32:43Z</time>
      </trkpt>
      <trkpt lat="46.63212" lon="5.33038">
        <ele>214.8</ele>
        <time>2022-03-14T12:32:46Z</time>
      </trkpt>
      <trkpt lat="46.63234" lon="5.33003">
        <ele>213.8</ele>
        <time>2022-03-14T12:32:50Z</time>
      </trkpt>
      <trkpt lat="46.63253" lon="5.32967">
        <ele>212.6</ele>
        <time>2022-03-14T12:32:54Z</time>
      </trkpt>
      <trkpt lat="46.6326" lon="5.32955">
        <ele>212.2</ele>
        <time>2022-03-14T12:32:55Z</time>
      </trkpt>
      <trkpt lat="46.63283" lon="5.32919">
        <ele>211.6</ele>
        <time>2022-03-14T12:32:59Z</time>
      </trkpt>
      <trkpt lat="46.63303" lon="5.32887">
        <ele>211.2</ele>
        <time>2022-03-14T12:33:03Z</time>
      </trkpt>
      <trkpt lat="46.63316" lon="5.32871">
        <ele>211</ele>
        <time>2022-03-14T12:33:05Z</time>
      </trkpt>
      <trkpt lat="46.63329" lon="5.32862">
        <ele>211</ele>
        <time>2022-03-14T12:33:07Z</time>
      </trkpt>
      <trkpt lat="46.63346" lon="5.32857">
        <ele>211</ele>
        <time>2022-03-14T12:33:10Z</time>
      </trkpt>
      <trkpt lat="46.63351" lon="5.32856">
        <ele>211</ele>
        <time>2022-03-14T12:33:11Z</time>
      </trkpt>
      <trkpt lat="46.63374" lon="5.32857">
        <ele>211.6</ele>
        <time>2022-03-14T12:33:15Z</time>
      </trkpt>
      <trkpt lat="46.63396" lon="5.3286">
        <ele>212</ele>
        <time>2022-03-14T12:33:19Z</time>
      </trkpt>
      <trkpt lat="46.63408" lon="5.32861">
        <ele>212.2</ele>
        <time>2022-03-14T12:33:21Z</time>
      </trkpt>
      <trkpt lat="46.63433" lon="5.32864">
        <ele>212.6</ele>
        <time>2022-03-14T12:33:25Z</time>
      </trkpt>
      <trkpt lat="46.63446" lon="5.32865">
        <ele>212.8</ele>
        <time>2022-03-14T12:33:27Z</time>
      </trkpt>
      <trkpt lat="46.63498" lon="5.32867">
        <ele>213.2</ele>
        <time>2022-03-14T12:33:34Z</time>
      </trkpt>
      <trkpt lat="46.63538" lon="5.32857">
        <ele>212.8</ele>
        <time>2022-03-14T12:33:40Z</time>
      </trkpt>
      <trkpt lat="46.63556" lon="5.32851">
        <ele>212.4</ele>
        <time>2022-03-14T12:33:44Z</time>
      </trkpt>
      <trkpt lat="46.63558" lon="5.3285">
        <ele>212.2</ele>
        <time>2022-03-14T12:33:47Z</time>
      </trkpt>
      <trkpt lat="46.63558" lon="5.3285">
        <ele>212</ele>
        <time>2022-03-14T12:33:49Z</time>
      </trkpt>
      <trkpt lat="46.63563" lon="5.32849">
        <ele>211.4</ele>
        <time>2022-03-14T12:34:29Z</time>
      </trkpt>
      <trkpt lat="46.63571" lon="5.32847">
        <ele>211.4</ele>
        <time>2022-03-14T12:34:31Z</time>
      </trkpt>
      <trkpt lat="46.6359" lon="5.32839">
        <ele>211.4</ele>
        <time>2022-03-14T12:34:35Z</time>
      </trkpt>
      <trkpt lat="46.63596" lon="5.32837">
        <ele>211.4</ele>
        <time>2022-03-14T12:34:36Z</time>
      </trkpt>
      <trkpt lat="46.63626" lon="5.32831">
        <ele>211.4</ele>
        <time>2022-03-14T12:34:41Z</time>
      </trkpt>
      <trkpt lat="46.63672" lon="5.32826">
        <ele>211.8</ele>
        <time>2022-03-14T12:34:48Z</time>
      </trkpt>
      <trkpt lat="46.63713" lon="5.32829">
        <ele>211.4</ele>
        <time>2022-03-14T12:34:54Z</time>
      </trkpt>
      <trkpt lat="46.63767" lon="5.32847">
        <ele>211.4</ele>
        <time>2022-03-14T12:35:02Z</time>
      </trkpt>
      <trkpt lat="46.63773" lon="5.32848">
        <ele>211.4</ele>
        <time>2022-03-14T12:35:03Z</time>
      </trkpt>
      <trkpt lat="46.63823" lon="5.32852">
        <ele>211.2</ele>
        <time>2022-03-14T12:35:10Z</time>
      </trkpt>
      <trkpt lat="46.63881" lon="5.3285">
        <ele>210.6</ele>
        <time>2022-03-14T12:35:18Z</time>
      </trkpt>
      <trkpt lat="46.63904" lon="5.3285">
        <ele>210.2</ele>
        <time>2022-03-14T12:35:21Z</time>
      </trkpt>
      <trkpt lat="46.63944" lon="5.32849">
        <ele>209.4</ele>
        <time>2022-03-14T12:35:26Z</time>
      </trkpt>
      <trkpt lat="46.63952" lon="5.32849">
        <ele>209.2</ele>
        <time>2022-03-14T12:35:27Z</time>
      </trkpt>
      <trkpt lat="46.63977" lon="5.32852">
        <ele>208.6</ele>
        <time>2022-03-14T12:35:30Z</time>
      </trkpt>
      <trkpt lat="46.63984" lon="5.32855">
        <ele>208</ele>
        <time>2022-03-14T12:35:31Z</time>
      </trkpt>
      <trkpt lat="46.63993" lon="5.32857">
        <ele>207.8</ele>
        <time>2022-03-14T12:35:32Z</time>
      </trkpt>
      <trkpt lat="46.64011" lon="5.32851">
        <ele>207.2</ele>
        <time>2022-03-14T12:35:34Z</time>
      </trkpt>
      <trkpt lat="46.64018" lon="5.3284">
        <ele>206.6</ele>
        <time>2022-03-14T12:35:35Z</time>
      </trkpt>
      <trkpt lat="46.64021" lon="5.32831">
        <ele>206.4</ele>
        <time>2022-03-14T12:35:36Z</time>
      </trkpt>
      <trkpt lat="46.64031" lon="5.3281">
        <ele>205.4</ele>
        <time>2022-03-14T12:35:38Z</time>
      </trkpt>
      <trkpt lat="46.64037" lon="5.32802">
        <ele>205</ele>
        <time>2022-03-14T12:35:39Z</time>
      </trkpt>
      <trkpt lat="46.64047" lon="5.32797">
        <ele>204.6</ele>
        <time>2022-03-14T12:35:40Z</time>
      </trkpt>
      <trkpt lat="46.64064" lon="5.32791">
        <ele>204.2</ele>
        <time>2022-03-14T12:35:42Z</time>
      </trkpt>
      <trkpt lat="46.64109" lon="5.3278">
        <ele>202.8</ele>
        <time>2022-03-14T12:35:47Z</time>
      </trkpt>
      <trkpt lat="46.64117" lon="5.32776">
        <ele>202.6</ele>
        <time>2022-03-14T12:35:48Z</time>
      </trkpt>
      <trkpt lat="46.64126" lon="5.32771">
        <ele>202.2</ele>
        <time>2022-03-14T12:35:49Z</time>
      </trkpt>
      <trkpt lat="46.64141" lon="5.32757">
        <ele>201.6</ele>
        <time>2022-03-14T12:35:51Z</time>
      </trkpt>
      <trkpt lat="46.64166" lon="5.32722">
        <ele>200.6</ele>
        <time>2022-03-14T12:35:55Z</time>
      </trkpt>
      <trkpt lat="46.64173" lon="5.32711">
        <ele>200.4</ele>
        <time>2022-03-14T12:35:56Z</time>
      </trkpt>
      <trkpt lat="46.64205" lon="5.32675">
        <ele>199.6</ele>
        <time>2022-03-14T12:36:01Z</time>
      </trkpt>
      <trkpt lat="46.64212" lon="5.3267">
        <ele>199.6</ele>
        <time>2022-03-14T12:36:02Z</time>
      </trkpt>
      <trkpt lat="46.6422" lon="5.32665">
        <ele>199.4</ele>
        <time>2022-03-14T12:36:03Z</time>
      </trkpt>
      <trkpt lat="46.64237" lon="5.32658">
        <ele>199.4</ele>
        <time>2022-03-14T12:36:05Z</time>
      </trkpt>
      <trkpt lat="46.64262" lon="5.32648">
        <ele>199</ele>
        <time>2022-03-14T12:36:08Z</time>
      </trkpt>
      <trkpt lat="46.64269" lon="5.3264">
        <ele>198.8</ele>
        <time>2022-03-14T12:36:09Z</time>
      </trkpt>
      <trkpt lat="46.64274" lon="5.3263">
        <ele>198.4</ele>
        <time>2022-03-14T12:36:10Z</time>
      </trkpt>
      <trkpt lat="46.64277" lon="5.32619">
        <ele>198.2</ele>
        <time>2022-03-14T12:36:11Z</time>
      </trkpt>
      <trkpt lat="46.64278" lon="5.32607">
        <ele>198</ele>
        <time>2022-03-14T12:36:12Z</time>
      </trkpt>
      <trkpt lat="46.6428" lon="5.32582">
        <ele>197.4</ele>
        <time>2022-03-14T12:36:14Z</time>
      </trkpt>
      <trkpt lat="46.64281" lon="5.32558">
        <ele>197</ele>
        <time>2022-03-14T12:36:16Z</time>
      </trkpt>
      <trkpt lat="46.64284" lon="5.32499">
        <ele>196.4</ele>
        <time>2022-03-14T12:36:21Z</time>
      </trkpt>
      <trkpt lat="46.64285" lon="5.32465">
        <ele>196.2</ele>
        <time>2022-03-14T12:36:24Z</time>
      </trkpt>
      <trkpt lat="46.6429" lon="5.32377">
        <ele>196</ele>
        <time>2022-03-14T12:36:32Z</time>
      </trkpt>
      <trkpt lat="46.64291" lon="5.32367">
        <ele>195.8</ele>
        <time>2022-03-14T12:36:33Z</time>
      </trkpt>
      <trkpt lat="46.64296" lon="5.32348">
        <ele>195.8</ele>
        <time>2022-03-14T12:36:35Z</time>
      </trkpt>
      <trkpt lat="46.64299" lon="5.32338">
        <ele>195.8</ele>
        <time>2022-03-14T12:36:36Z</time>
      </trkpt>
      <trkpt lat="46.64315" lon="5.32296">
        <ele>195.8</ele>
        <time>2022-03-14T12:36:41Z</time>
      </trkpt>
      <trkpt lat="46.64317" lon="5.32287">
        <ele>195.8</ele>
        <time>2022-03-14T12:36:42Z</time>
      </trkpt>
      <trkpt lat="46.64318" lon="5.32278">
        <ele>195.8</ele>
        <time>2022-03-14T12:36:43Z</time>
      </trkpt>
      <trkpt lat="46.64322" lon="5.32241">
        <ele>196</ele>
        <time>2022-03-14T12:36:47Z</time>
      </trkpt>
      <trkpt lat="46.64325" lon="5.32225">
        <ele>196.2</ele>
        <time>2022-03-14T12:36:49Z</time>
      </trkpt>
      <trkpt lat="46.64331" lon="5.32212">
        <ele>196.2</ele>
        <time>2022-03-14T12:36:51Z</time>
      </trkpt>
      <trkpt lat="46.6434" lon="5.32205">
        <ele>196.4</ele>
        <time>2022-03-14T12:36:53Z</time>
      </trkpt>
      <trkpt lat="46.64346" lon="5.32203">
        <ele>196.6</ele>
        <time>2022-03-14T12:36:54Z</time>
      </trkpt>
      <trkpt lat="46.64351" lon="5.32203">
        <ele>196.6</ele>
        <time>2022-03-14T12:36:55Z</time>
      </trkpt>
      <trkpt lat="46.64365" lon="5.32207">
        <ele>197.6</ele>
        <time>2022-03-14T12:36:58Z</time>
      </trkpt>
      <trkpt lat="46.64389" lon="5.32213">
        <ele>198.8</ele>
        <time>2022-03-14T12:37:03Z</time>
      </trkpt>
      <trkpt lat="46.64398" lon="5.32214">
        <ele>199.6</ele>
        <time>2022-03-14T12:37:05Z</time>
      </trkpt>
      <trkpt lat="46.64405" lon="5.32216">
        <ele>199.8</ele>
        <time>2022-03-14T12:37:07Z</time>
      </trkpt>
      <trkpt lat="46.64413" lon="5.32216">
        <ele>200.2</ele>
        <time>2022-03-14T12:37:09Z</time>
      </trkpt>
      <trkpt lat="46.64422" lon="5.32218">
        <ele>200.8</ele>
        <time>2022-03-14T12:37:11Z</time>
      </trkpt>
      <trkpt lat="46.64426" lon="5.32219">
        <ele>201.2</ele>
        <time>2022-03-14T12:37:12Z</time>
      </trkpt>
      <trkpt lat="46.64439" lon="5.32222">
        <ele>202.2</ele>
        <time>2022-03-14T12:37:15Z</time>
      </trkpt>
      <trkpt lat="46.64457" lon="5.32226">
        <ele>203.2</ele>
        <time>2022-03-14T12:37:19Z</time>
      </trkpt>
      <trkpt lat="46.64461" lon="5.32226">
        <ele>203.2</ele>
        <time>2022-03-14T12:37:20Z</time>
      </trkpt>
      <trkpt lat="46.6447" lon="5.32225">
        <ele>203.6</ele>
        <time>2022-03-14T12:37:22Z</time>
      </trkpt>
      <trkpt lat="46.64473" lon="5.32223">
        <ele>204</ele>
        <time>2022-03-14T12:37:23Z</time>
      </trkpt>
      <trkpt lat="46.64477" lon="5.3222">
        <ele>204</ele>
        <time>2022-03-14T12:37:24Z</time>
      </trkpt>
      <trkpt lat="46.64483" lon="5.32211">
        <ele>204.4</ele>
        <time>2022-03-14T12:37:26Z</time>
      </trkpt>
      <trkpt lat="46.64486" lon="5.32204">
        <ele>204.4</ele>
        <time>2022-03-14T12:37:27Z</time>
      </trkpt>
      <trkpt lat="46.64487" lon="5.32198">
        <ele>204.4</ele>
        <time>2022-03-14T12:37:28Z</time>
      </trkpt>
      <trkpt lat="46.64488" lon="5.32173">
        <ele>204.4</ele>
        <time>2022-03-14T12:37:31Z</time>
      </trkpt>
      <trkpt lat="46.64489" lon="5.32111">
        <ele>204</ele>
        <time>2022-03-14T12:37:37Z</time>
      </trkpt>
      <trkpt lat="46.6449" lon="5.32078">
        <ele>203.6</ele>
        <time>2022-03-14T12:37:40Z</time>
      </trkpt>
      <trkpt lat="46.6449" lon="5.3205">
        <ele>203</ele>
        <time>2022-03-14T12:37:42Z</time>
      </trkpt>
      <trkpt lat="46.64491" lon="5.32028">
        <ele>202.4</ele>
        <time>2022-03-14T12:37:44Z</time>
      </trkpt>
      <trkpt lat="46.64491" lon="5.31986">
        <ele>201.4</ele>
        <time>2022-03-14T12:37:47Z</time>
      </trkpt>
      <trkpt lat="46.64492" lon="5.31961">
        <ele>200.6</ele>
        <time>2022-03-14T12:37:49Z</time>
      </trkpt>
      <trkpt lat="46.64493" lon="5.31934">
        <ele>200.2</ele>
        <time>2022-03-14T12:37:51Z</time>
      </trkpt>
      <trkpt lat="46.64494" lon="5.31882">
        <ele>198.6</ele>
        <time>2022-03-14T12:37:55Z</time>
      </trkpt>
      <trkpt lat="46.64493" lon="5.31853">
        <ele>197.8</ele>
        <time>2022-03-14T12:37:57Z</time>
      </trkpt>
      <trkpt lat="46.64492" lon="5.31843">
        <ele>197.4</ele>
        <time>2022-03-14T12:37:58Z</time>
      </trkpt>
      <trkpt lat="46.64488" lon="5.31783">
        <ele>197</ele>
        <time>2022-03-14T12:38:03Z</time>
      </trkpt>
      <trkpt lat="46.64488" lon="5.31758">
        <ele>196.8</ele>
        <time>2022-03-14T12:38:05Z</time>
      </trkpt>
      <trkpt lat="46.64494" lon="5.31737">
        <ele>196.6</ele>
        <time>2022-03-14T12:38:07Z</time>
      </trkpt>
      <trkpt lat="46.64504" lon="5.31725">
        <ele>196.6</ele>
        <time>2022-03-14T12:38:09Z</time>
      </trkpt>
      <trkpt lat="46.64512" lon="5.31722">
        <ele>196.6</ele>
        <time>2022-03-14T12:38:10Z</time>
      </trkpt>
      <trkpt lat="46.64569" lon="5.31718">
        <ele>197.2</ele>
        <time>2022-03-14T12:38:18Z</time>
      </trkpt>
      <trkpt lat="46.64623" lon="5.31714">
        <ele>196.6</ele>
        <time>2022-03-14T12:38:25Z</time>
      </trkpt>
      <trkpt lat="46.64637" lon="5.31714">
        <ele>196.6</ele>
        <time>2022-03-14T12:38:27Z</time>
      </trkpt>
      <trkpt lat="46.64673" lon="5.31722">
        <ele>197</ele>
        <time>2022-03-14T12:38:32Z</time>
      </trkpt>
      <trkpt lat="46.64719" lon="5.31742">
        <ele>197.4</ele>
        <time>2022-03-14T12:38:39Z</time>
      </trkpt>
      <trkpt lat="46.64749" lon="5.31752">
        <ele>197.6</ele>
        <time>2022-03-14T12:38:44Z</time>
      </trkpt>
      <trkpt lat="46.64755" lon="5.31753">
        <ele>197.6</ele>
        <time>2022-03-14T12:38:45Z</time>
      </trkpt>
      <trkpt lat="46.64804" lon="5.31751">
        <ele>198.6</ele>
        <time>2022-03-14T12:38:53Z</time>
      </trkpt>
      <trkpt lat="46.6486" lon="5.31748">
        <ele>199.4</ele>
        <time>2022-03-14T12:39:03Z</time>
      </trkpt>
      <trkpt lat="46.64865" lon="5.31748">
        <ele>199.6</ele>
        <time>2022-03-14T12:39:04Z</time>
      </trkpt>
      <trkpt lat="46.64899" lon="5.31746">
        <ele>200.6</ele>
        <time>2022-03-14T12:39:11Z</time>
      </trkpt>
      <trkpt lat="46.6491" lon="5.31744">
        <ele>200.8</ele>
        <time>2022-03-14T12:39:13Z</time>
      </trkpt>
      <trkpt lat="46.64918" lon="5.31741">
        <ele>201</ele>
        <time>2022-03-14T12:39:15Z</time>
      </trkpt>
      <trkpt lat="46.64928" lon="5.31738">
        <ele>201.2</ele>
        <time>2022-03-14T12:39:17Z</time>
      </trkpt>
      <trkpt lat="46.6494" lon="5.31733">
        <ele>201.8</ele>
        <time>2022-03-14T12:39:20Z</time>
      </trkpt>
      <trkpt lat="46.64958" lon="5.31729">
        <ele>202.8</ele>
        <time>2022-03-14T12:39:24Z</time>
      </trkpt>
      <trkpt lat="46.64962" lon="5.31729">
        <ele>203.2</ele>
        <time>2022-03-14T12:39:25Z</time>
      </trkpt>
      <trkpt lat="46.64987" lon="5.3173">
        <ele>204.4</ele>
        <time>2022-03-14T12:39:30Z</time>
      </trkpt>
      <trkpt lat="46.64997" lon="5.31731">
        <ele>204.6</ele>
        <time>2022-03-14T12:39:32Z</time>
      </trkpt>
      <trkpt lat="46.65026" lon="5.31741">
        <ele>205.4</ele>
        <time>2022-03-14T12:39:38Z</time>
      </trkpt>
      <trkpt lat="46.65065" lon="5.31771">
        <ele>206.4</ele>
        <time>2022-03-14T12:39:46Z</time>
      </trkpt>
      <trkpt lat="46.65074" lon="5.31778">
        <ele>206.6</ele>
        <time>2022-03-14T12:39:48Z</time>
      </trkpt>
      <trkpt lat="46.6508" lon="5.31782">
        <ele>206.6</ele>
        <time>2022-03-14T12:39:49Z</time>
      </trkpt>
      <trkpt lat="46.65089" lon="5.31787">
        <ele>206.8</ele>
        <time>2022-03-14T12:39:51Z</time>
      </trkpt>
      <trkpt lat="46.65094" lon="5.31788">
        <ele>206.8</ele>
        <time>2022-03-14T12:39:52Z</time>
      </trkpt>
      <trkpt lat="46.651" lon="5.31788">
        <ele>206.8</ele>
        <time>2022-03-14T12:39:53Z</time>
      </trkpt>
      <trkpt lat="46.65112" lon="5.31785">
        <ele>206.8</ele>
        <time>2022-03-14T12:39:55Z</time>
      </trkpt>
      <trkpt lat="46.65117" lon="5.31781">
        <ele>206.8</ele>
        <time>2022-03-14T12:39:56Z</time>
      </trkpt>
      <trkpt lat="46.65125" lon="5.31774">
        <ele>206.8</ele>
        <time>2022-03-14T12:39:58Z</time>
      </trkpt>
      <trkpt lat="46.65138" lon="5.31759">
        <ele>206.8</ele>
        <time>2022-03-14T12:40:01Z</time>
      </trkpt>
      <trkpt lat="46.65152" lon="5.31742">
        <ele>207.2</ele>
        <time>2022-03-14T12:40:05Z</time>
      </trkpt>
      <trkpt lat="46.65155" lon="5.31739">
        <ele>207.2</ele>
        <time>2022-03-14T12:40:06Z</time>
      </trkpt>
      <trkpt lat="46.65164" lon="5.31732">
        <ele>207.2</ele>
        <time>2022-03-14T12:40:10Z</time>
      </trkpt>
      <trkpt lat="46.65164" lon="5.31732">
        <ele>207.2</ele>
        <time>2022-03-14T12:40:11Z</time>
      </trkpt>
      <trkpt lat="46.65167" lon="5.31731">
        <ele>207</ele>
        <time>2022-03-14T12:40:14Z</time>
      </trkpt>
      <trkpt lat="46.6517" lon="5.31727">
        <ele>207</ele>
        <time>2022-03-14T12:40:16Z</time>
      </trkpt>
      <trkpt lat="46.65171" lon="5.31723">
        <ele>206.8</ele>
        <time>2022-03-14T12:40:17Z</time>
      </trkpt>
      <trkpt lat="46.65164" lon="5.31693">
        <ele>206.8</ele>
        <time>2022-03-14T12:40:23Z</time>
      </trkpt>
      <trkpt lat="46.65156" lon="5.31657">
        <ele>207.2</ele>
        <time>2022-03-14T12:40:28Z</time>
      </trkpt>
      <trkpt lat="46.65149" lon="5.31628">
        <ele>207.8</ele>
        <time>2022-03-14T12:40:32Z</time>
      </trkpt>
      <trkpt lat="46.65144" lon="5.31606">
        <ele>208.4</ele>
        <time>2022-03-14T12:40:35Z</time>
      </trkpt>
      <trkpt lat="46.65136" lon="5.31574">
        <ele>209</ele>
        <time>2022-03-14T12:40:39Z</time>
      </trkpt>
      <trkpt lat="46.65127" lon="5.31533">
        <ele>209.6</ele>
        <time>2022-03-14T12:40:44Z</time>
      </trkpt>
      <trkpt lat="46.6512" lon="5.31502">
        <ele>210.2</ele>
        <time>2022-03-14T12:40:48Z</time>
      </trkpt>
      <trkpt lat="46.65106" lon="5.31457">
        <ele>210.6</ele>
        <time>2022-03-14T12:40:54Z</time>
      </trkpt>
      <trkpt lat="46.65095" lon="5.31423">
        <ele>211</ele>
        <time>2022-03-14T12:40:59Z</time>
      </trkpt>
      <trkpt lat="46.65094" lon="5.31415">
        <ele>211.2</ele>
        <time>2022-03-14T12:41:00Z</time>
      </trkpt>
      <trkpt lat="46.65095" lon="5.31407">
        <ele>211.2</ele>
        <time>2022-03-14T12:41:01Z</time>
      </trkpt>
      <trkpt lat="46.65102" lon="5.31393">
        <ele>211.4</ele>
        <time>2022-03-14T12:41:03Z</time>
      </trkpt>
      <trkpt lat="46.65106" lon="5.31386">
        <ele>211.4</ele>
        <time>2022-03-14T12:41:04Z</time>
      </trkpt>
      <trkpt lat="46.65132" lon="5.31364">
        <ele>212</ele>
        <time>2022-03-14T12:41:09Z</time>
      </trkpt>
      <trkpt lat="46.65144" lon="5.31358">
        <ele>212</ele>
        <time>2022-03-14T12:41:11Z</time>
      </trkpt>
      <trkpt lat="46.65161" lon="5.31353">
        <ele>212</ele>
        <time>2022-03-14T12:41:14Z</time>
      </trkpt>
      <trkpt lat="46.65168" lon="5.31353">
        <ele>212</ele>
        <time>2022-03-14T12:41:15Z</time>
      </trkpt>
      <trkpt lat="46.65186" lon="5.31358">
        <ele>211.8</ele>
        <time>2022-03-14T12:41:18Z</time>
      </trkpt>
      <trkpt lat="46.6522" lon="5.31367">
        <ele>212.2</ele>
        <time>2022-03-14T12:41:24Z</time>
      </trkpt>
      <trkpt lat="46.65225" lon="5.31368">
        <ele>212.2</ele>
        <time>2022-03-14T12:41:25Z</time>
      </trkpt>
      <trkpt lat="46.65262" lon="5.31378">
        <ele>212.4</ele>
        <time>2022-03-14T12:41:31Z</time>
      </trkpt>
      <trkpt lat="46.65313" lon="5.31397">
        <ele>212.4</ele>
        <time>2022-03-14T12:41:39Z</time>
      </trkpt>
      <trkpt lat="46.65352" lon="5.31427">
        <ele>212.8</ele>
        <time>2022-03-14T12:41:46Z</time>
      </trkpt>
      <trkpt lat="46.65377" lon="5.31452">
        <ele>213.2</ele>
        <time>2022-03-14T12:41:51Z</time>
      </trkpt>
      <trkpt lat="46.65392" lon="5.31468">
        <ele>213.6</ele>
        <time>2022-03-14T12:41:54Z</time>
      </trkpt>
      <trkpt lat="46.6544" lon="5.31515">
        <ele>213.2</ele>
        <time>2022-03-14T12:42:03Z</time>
      </trkpt>
      <trkpt lat="46.65452" lon="5.31527">
        <ele>213.2</ele>
        <time>2022-03-14T12:42:05Z</time>
      </trkpt>
      <trkpt lat="46.65488" lon="5.31553">
        <ele>213</ele>
        <time>2022-03-14T12:42:11Z</time>
      </trkpt>
      <trkpt lat="46.65501" lon="5.31556">
        <ele>213</ele>
        <time>2022-03-14T12:42:13Z</time>
      </trkpt>
      <trkpt lat="46.65521" lon="5.31556">
        <ele>213</ele>
        <time>2022-03-14T12:42:16Z</time>
      </trkpt>
      <trkpt lat="46.65534" lon="5.31553">
        <ele>212.8</ele>
        <time>2022-03-14T12:42:18Z</time>
      </trkpt>
      <trkpt lat="46.65552" lon="5.31543">
        <ele>213.2</ele>
        <time>2022-03-14T12:42:21Z</time>
      </trkpt>
      <trkpt lat="46.65587" lon="5.31513">
        <ele>213.6</ele>
        <time>2022-03-14T12:42:28Z</time>
      </trkpt>
      <trkpt lat="46.65618" lon="5.3149">
        <ele>213.8</ele>
        <time>2022-03-14T12:42:34Z</time>
      </trkpt>
      <trkpt lat="46.65623" lon="5.31488">
        <ele>213.8</ele>
        <time>2022-03-14T12:42:35Z</time>
      </trkpt>
      <trkpt lat="46.65642" lon="5.31484">
        <ele>214</ele>
        <time>2022-03-14T12:42:38Z</time>
      </trkpt>
      <trkpt lat="46.65655" lon="5.31485">
        <ele>214.2</ele>
        <time>2022-03-14T12:42:40Z</time>
      </trkpt>
      <trkpt lat="46.65709" lon="5.31496">
        <ele>214.4</ele>
        <time>2022-03-14T12:42:49Z</time>
      </trkpt>
      <trkpt lat="46.65715" lon="5.31497">
        <ele>214.4</ele>
        <time>2022-03-14T12:42:50Z</time>
      </trkpt>
      <trkpt lat="46.65772" lon="5.31509">
        <ele>215</ele>
        <time>2022-03-14T12:42:59Z</time>
      </trkpt>
      <trkpt lat="46.65779" lon="5.3151">
        <ele>214.8</ele>
        <time>2022-03-14T12:43:00Z</time>
      </trkpt>
      <trkpt lat="46.65836" lon="5.31521">
        <ele>214.4</ele>
        <time>2022-03-14T12:43:09Z</time>
      </trkpt>
      <trkpt lat="46.65842" lon="5.31522">
        <ele>214.4</ele>
        <time>2022-03-14T12:43:10Z</time>
      </trkpt>
      <trkpt lat="46.65899" lon="5.31533">
        <ele>214.6</ele>
        <time>2022-03-14T12:43:19Z</time>
      </trkpt>
      <trkpt lat="46.65905" lon="5.31534">
        <ele>214.8</ele>
        <time>2022-03-14T12:43:20Z</time>
      </trkpt>
      <trkpt lat="46.65956" lon="5.31545">
        <ele>214.8</ele>
        <time>2022-03-14T12:43:28Z</time>
      </trkpt>
      <trkpt lat="46.65986" lon="5.31562">
        <ele>214.8</ele>
        <time>2022-03-14T12:43:33Z</time>
      </trkpt>
      <trkpt lat="46.6601" lon="5.31594">
        <ele>214.6</ele>
        <time>2022-03-14T12:43:38Z</time>
      </trkpt>
      <trkpt lat="46.66048" lon="5.31658">
        <ele>214.4</ele>
        <time>2022-03-14T12:43:47Z</time>
      </trkpt>
      <trkpt lat="46.66085" lon="5.31695">
        <ele>214.4</ele>
        <time>2022-03-14T12:43:54Z</time>
      </trkpt>
      <trkpt lat="46.66123" lon="5.31715">
        <ele>214.2</ele>
        <time>2022-03-14T12:44:00Z</time>
      </trkpt>
      <trkpt lat="46.66136" lon="5.31717">
        <ele>214.2</ele>
        <time>2022-03-14T12:44:02Z</time>
      </trkpt>
      <trkpt lat="46.66155" lon="5.31717">
        <ele>214.2</ele>
        <time>2022-03-14T12:44:05Z</time>
      </trkpt>
      <trkpt lat="46.66193" lon="5.31719">
        <ele>214.2</ele>
        <time>2022-03-14T12:44:11Z</time>
      </trkpt>
      <trkpt lat="46.66199" lon="5.31721">
        <ele>214.2</ele>
        <time>2022-03-14T12:44:12Z</time>
      </trkpt>
      <trkpt lat="46.6622" lon="5.31738">
        <ele>214.2</ele>
        <time>2022-03-14T12:44:16Z</time>
      </trkpt>
      <trkpt lat="46.6625" lon="5.31773">
        <ele>214.4</ele>
        <time>2022-03-14T12:44:22Z</time>
      </trkpt>
      <trkpt lat="46.66278" lon="5.31812">
        <ele>214.4</ele>
        <time>2022-03-14T12:44:28Z</time>
      </trkpt>
      <trkpt lat="46.66318" lon="5.3187">
        <ele>214</ele>
        <time>2022-03-14T12:44:37Z</time>
      </trkpt>
      <trkpt lat="46.66322" lon="5.31877">
        <ele>214</ele>
        <time>2022-03-14T12:44:38Z</time>
      </trkpt>
      <trkpt lat="46.66354" lon="5.31923">
        <ele>214.2</ele>
        <time>2022-03-14T12:44:45Z</time>
      </trkpt>
      <trkpt lat="46.66369" lon="5.3194">
        <ele>214.4</ele>
        <time>2022-03-14T12:44:48Z</time>
      </trkpt>
      <trkpt lat="46.66381" lon="5.31949">
        <ele>214.2</ele>
        <time>2022-03-14T12:44:50Z</time>
      </trkpt>
      <trkpt lat="46.66394" lon="5.31954">
        <ele>214.2</ele>
        <time>2022-03-14T12:44:52Z</time>
      </trkpt>
      <trkpt lat="46.66407" lon="5.31955">
        <ele>214.2</ele>
        <time>2022-03-14T12:44:54Z</time>
      </trkpt>
      <trkpt lat="46.66447" lon="5.3195">
        <ele>214.4</ele>
        <time>2022-03-14T12:45:00Z</time>
      </trkpt>
      <trkpt lat="46.66454" lon="5.31949">
        <ele>214.4</ele>
        <time>2022-03-14T12:45:01Z</time>
      </trkpt>
      <trkpt lat="46.66508" lon="5.31943">
        <ele>214.2</ele>
        <time>2022-03-14T12:45:09Z</time>
      </trkpt>
      <trkpt lat="46.66515" lon="5.31943">
        <ele>214.2</ele>
        <time>2022-03-14T12:45:10Z</time>
      </trkpt>
      <trkpt lat="46.66549" lon="5.3195">
        <ele>213.8</ele>
        <time>2022-03-14T12:45:15Z</time>
      </trkpt>
      <trkpt lat="46.66561" lon="5.31958">
        <ele>213.6</ele>
        <time>2022-03-14T12:45:17Z</time>
      </trkpt>
      <trkpt lat="46.66581" lon="5.31974">
        <ele>213.2</ele>
        <time>2022-03-14T12:45:20Z</time>
      </trkpt>
      <trkpt lat="46.66617" lon="5.32012">
        <ele>212.6</ele>
        <time>2022-03-14T12:45:26Z</time>
      </trkpt>
      <trkpt lat="46.66637" lon="5.32034">
        <ele>212.2</ele>
        <time>2022-03-14T12:45:29Z</time>
      </trkpt>
      <trkpt lat="46.66685" lon="5.32089">
        <ele>211.6</ele>
        <time>2022-03-14T12:45:37Z</time>
      </trkpt>
      <trkpt lat="46.66693" lon="5.32096">
        <ele>211.6</ele>
        <time>2022-03-14T12:45:38Z</time>
      </trkpt>
      <trkpt lat="46.66713" lon="5.32111">
        <ele>211.4</ele>
        <time>2022-03-14T12:45:41Z</time>
      </trkpt>
      <trkpt lat="46.66729" lon="5.32118">
        <ele>211</ele>
        <time>2022-03-14T12:45:43Z</time>
      </trkpt>
      <trkpt lat="46.66776" lon="5.32134">
        <ele>210.2</ele>
        <time>2022-03-14T12:45:49Z</time>
      </trkpt>
      <trkpt lat="46.66784" lon="5.32139">
        <ele>209.8</ele>
        <time>2022-03-14T12:45:50Z</time>
      </trkpt>
      <trkpt lat="46.66793" lon="5.32146">
        <ele>209.6</ele>
        <time>2022-03-14T12:45:51Z</time>
      </trkpt>
      <trkpt lat="46.668" lon="5.32154">
        <ele>209</ele>
        <time>2022-03-14T12:45:52Z</time>
      </trkpt>
      <trkpt lat="46.66811" lon="5.32171">
        <ele>208.4</ele>
        <time>2022-03-14T12:45:54Z</time>
      </trkpt>
      <trkpt lat="46.66819" lon="5.32193">
        <ele>207.6</ele>
        <time>2022-03-14T12:45:56Z</time>
      </trkpt>
      <trkpt lat="46.66831" lon="5.32227">
        <ele>206.4</ele>
        <time>2022-03-14T12:45:59Z</time>
      </trkpt>
      <trkpt lat="46.66844" lon="5.32249">
        <ele>206.2</ele>
        <time>2022-03-14T12:46:01Z</time>
      </trkpt>
      <trkpt lat="46.66851" lon="5.32258">
        <ele>206</ele>
        <time>2022-03-14T12:46:02Z</time>
      </trkpt>
      <trkpt lat="46.66864" lon="5.32274">
        <ele>205.6</ele>
        <time>2022-03-14T12:46:04Z</time>
      </trkpt>
      <trkpt lat="46.66894" lon="5.3231">
        <ele>204.2</ele>
        <time>2022-03-14T12:46:08Z</time>
      </trkpt>
      <trkpt lat="46.66906" lon="5.32326">
        <ele>203.4</ele>
        <time>2022-03-14T12:46:10Z</time>
      </trkpt>
      <trkpt lat="46.66911" lon="5.32335">
        <ele>203.2</ele>
        <time>2022-03-14T12:46:11Z</time>
      </trkpt>
      <trkpt lat="46.66926" lon="5.32361">
        <ele>202.8</ele>
        <time>2022-03-14T12:46:14Z</time>
      </trkpt>
      <trkpt lat="46.6693" lon="5.3237">
        <ele>202.8</ele>
        <time>2022-03-14T12:46:15Z</time>
      </trkpt>
      <trkpt lat="46.66934" lon="5.32379">
        <ele>202.6</ele>
        <time>2022-03-14T12:46:16Z</time>
      </trkpt>
      <trkpt lat="46.66939" lon="5.32397">
        <ele>202.4</ele>
        <time>2022-03-14T12:46:18Z</time>
      </trkpt>
      <trkpt lat="46.66942" lon="5.32406">
        <ele>202.4</ele>
        <time>2022-03-14T12:46:19Z</time>
      </trkpt>
      <trkpt lat="46.66946" lon="5.32414">
        <ele>202.4</ele>
        <time>2022-03-14T12:46:20Z</time>
      </trkpt>
      <trkpt lat="46.66954" lon="5.32427">
        <ele>202.4</ele>
        <time>2022-03-14T12:46:22Z</time>
      </trkpt>
      <trkpt lat="46.66959" lon="5.32432">
        <ele>202.4</ele>
        <time>2022-03-14T12:46:23Z</time>
      </trkpt>
      <trkpt lat="46.66984" lon="5.32451">
        <ele>202.8</ele>
        <time>2022-03-14T12:46:28Z</time>
      </trkpt>
      <trkpt lat="46.66996" lon="5.32462">
        <ele>203.2</ele>
        <time>2022-03-14T12:46:31Z</time>
      </trkpt>
      <trkpt lat="46.67012" lon="5.32479">
        <ele>204</ele>
        <time>2022-03-14T12:46:35Z</time>
      </trkpt>
      <trkpt lat="46.67016" lon="5.32483">
        <ele>204.6</ele>
        <time>2022-03-14T12:46:36Z</time>
      </trkpt>
      <trkpt lat="46.67035" lon="5.32503">
        <ele>205.2</ele>
        <time>2022-03-14T12:46:41Z</time>
      </trkpt>
      <trkpt lat="46.67039" lon="5.32506">
        <ele>205.4</ele>
        <time>2022-03-14T12:46:42Z</time>
      </trkpt>
      <trkpt lat="46.67051" lon="5.32517">
        <ele>205.8</ele>
        <time>2022-03-14T12:46:45Z</time>
      </trkpt>
      <trkpt lat="46.6706" lon="5.32525">
        <ele>206.2</ele>
        <time>2022-03-14T12:46:47Z</time>
      </trkpt>
      <trkpt lat="46.6708" lon="5.32536">
        <ele>206.8</ele>
        <time>2022-03-14T12:46:51Z</time>
      </trkpt>
      <trkpt lat="46.67084" lon="5.32538">
        <ele>207</ele>
        <time>2022-03-14T12:46:52Z</time>
      </trkpt>
      <trkpt lat="46.67094" lon="5.3254">
        <ele>207.2</ele>
        <time>2022-03-14T12:46:54Z</time>
      </trkpt>
      <trkpt lat="46.67111" lon="5.32546">
        <ele>208.2</ele>
        <time>2022-03-14T12:46:58Z</time>
      </trkpt>
      <trkpt lat="46.67128" lon="5.32553">
        <ele>209.2</ele>
        <time>2022-03-14T12:47:02Z</time>
      </trkpt>
      <trkpt lat="46.67136" lon="5.32556">
        <ele>209.6</ele>
        <time>2022-03-14T12:47:04Z</time>
      </trkpt>
      <trkpt lat="46.67147" lon="5.32563">
        <ele>210.4</ele>
        <time>2022-03-14T12:47:07Z</time>
      </trkpt>
      <trkpt lat="46.6715" lon="5.32567">
        <ele>210.6</ele>
        <time>2022-03-14T12:47:08Z</time>
      </trkpt>
      <trkpt lat="46.67153" lon="5.3257">
        <ele>210.8</ele>
        <time>2022-03-14T12:47:09Z</time>
      </trkpt>
      <trkpt lat="46.67156" lon="5.32575">
        <ele>210.8</ele>
        <time>2022-03-14T12:47:10Z</time>
      </trkpt>
      <trkpt lat="46.67162" lon="5.32585">
        <ele>211</ele>
        <time>2022-03-14T12:47:12Z</time>
      </trkpt>
      <trkpt lat="46.67166" lon="5.32596">
        <ele>211.4</ele>
        <time>2022-03-14T12:47:14Z</time>
      </trkpt>
      <trkpt lat="46.67173" lon="5.32613">
        <ele>211.8</ele>
        <time>2022-03-14T12:47:17Z</time>
      </trkpt>
      <trkpt lat="46.6718" lon="5.32622">
        <ele>212</ele>
        <time>2022-03-14T12:47:19Z</time>
      </trkpt>
      <trkpt lat="46.67189" lon="5.32628">
        <ele>212.2</ele>
        <time>2022-03-14T12:47:21Z</time>
      </trkpt>
      <trkpt lat="46.67194" lon="5.3263">
        <ele>212.6</ele>
        <time>2022-03-14T12:47:22Z</time>
      </trkpt>
      <trkpt lat="46.67198" lon="5.32631">
        <ele>212.6</ele>
        <time>2022-03-14T12:47:23Z</time>
      </trkpt>
      <trkpt lat="46.67227" lon="5.32626">
        <ele>213.2</ele>
        <time>2022-03-14T12:47:29Z</time>
      </trkpt>
      <trkpt lat="46.67237" lon="5.32623">
        <ele>213.6</ele>
        <time>2022-03-14T12:47:31Z</time>
      </trkpt>
      <trkpt lat="46.67271" lon="5.32607">
        <ele>214.2</ele>
        <time>2022-03-14T12:47:38Z</time>
      </trkpt>
      <trkpt lat="46.6731" lon="5.3258">
        <ele>214.2</ele>
        <time>2022-03-14T12:47:45Z</time>
      </trkpt>
      <trkpt lat="46.67353" lon="5.3255">
        <ele>213.6</ele>
        <time>2022-03-14T12:47:53Z</time>
      </trkpt>
      <trkpt lat="46.67366" lon="5.32544">
        <ele>213.2</ele>
        <time>2022-03-14T12:47:55Z</time>
      </trkpt>
      <trkpt lat="46.67386" lon="5.32541">
        <ele>213</ele>
        <time>2022-03-14T12:47:58Z</time>
      </trkpt>
      <trkpt lat="46.67393" lon="5.32542">
        <ele>212.8</ele>
        <time>2022-03-14T12:47:59Z</time>
      </trkpt>
      <trkpt lat="46.67406" lon="5.32548">
        <ele>213</ele>
        <time>2022-03-14T12:48:01Z</time>
      </trkpt>
      <trkpt lat="46.67458" lon="5.32586">
        <ele>213.6</ele>
        <time>2022-03-14T12:48:10Z</time>
      </trkpt>
      <trkpt lat="46.67509" lon="5.32619">
        <ele>214</ele>
        <time>2022-03-14T12:48:19Z</time>
      </trkpt>
      <trkpt lat="46.67561" lon="5.32649">
        <ele>214.8</ele>
        <time>2022-03-14T12:48:28Z</time>
      </trkpt>
      <trkpt lat="46.67566" lon="5.32652">
        <ele>215</ele>
        <time>2022-03-14T12:48:29Z</time>
      </trkpt>
      <trkpt lat="46.67617" lon="5.32682">
        <ele>215.8</ele>
        <time>2022-03-14T12:48:38Z</time>
      </trkpt>
      <trkpt lat="46.67646" lon="5.32696">
        <ele>216</ele>
        <time>2022-03-14T12:48:43Z</time>
      </trkpt>
      <trkpt lat="46.67658" lon="5.327">
        <ele>216.2</ele>
        <time>2022-03-14T12:48:45Z</time>
      </trkpt>
      <trkpt lat="46.67693" lon="5.32718">
        <ele>216.4</ele>
        <time>2022-03-14T12:48:51Z</time>
      </trkpt>
      <trkpt lat="46.67724" lon="5.32749">
        <ele>216.8</ele>
        <time>2022-03-14T12:48:57Z</time>
      </trkpt>
      <trkpt lat="46.6774" lon="5.32764">
        <ele>216.8</ele>
        <time>2022-03-14T12:49:00Z</time>
      </trkpt>
      <trkpt lat="46.67752" lon="5.32771">
        <ele>216.8</ele>
        <time>2022-03-14T12:49:02Z</time>
      </trkpt>
      <trkpt lat="46.67764" lon="5.32775">
        <ele>217</ele>
        <time>2022-03-14T12:49:04Z</time>
      </trkpt>
      <trkpt lat="46.67795" lon="5.3278">
        <ele>217</ele>
        <time>2022-03-14T12:49:09Z</time>
      </trkpt>
      <trkpt lat="46.67853" lon="5.32784">
        <ele>217</ele>
        <time>2022-03-14T12:49:18Z</time>
      </trkpt>
      <trkpt lat="46.67907" lon="5.32788">
        <ele>216.8</ele>
        <time>2022-03-14T12:49:26Z</time>
      </trkpt>
      <trkpt lat="46.67935" lon="5.32791">
        <ele>216.6</ele>
        <time>2022-03-14T12:49:30Z</time>
      </trkpt>
      <trkpt lat="46.67985" lon="5.32795">
        <ele>216</ele>
        <time>2022-03-14T12:49:37Z</time>
      </trkpt>
      <trkpt lat="46.68019" lon="5.32797">
        <ele>215.8</ele>
        <time>2022-03-14T12:49:42Z</time>
      </trkpt>
      <trkpt lat="46.68068" lon="5.32804">
        <ele>216</ele>
        <time>2022-03-14T12:49:50Z</time>
      </trkpt>
      <trkpt lat="46.68101" lon="5.32818">
        <ele>216.4</ele>
        <time>2022-03-14T12:49:56Z</time>
      </trkpt>
      <trkpt lat="46.68143" lon="5.32819">
        <ele>216.6</ele>
        <time>2022-03-14T12:50:03Z</time>
      </trkpt>
      <trkpt lat="46.68167" lon="5.32816">
        <ele>217.2</ele>
        <time>2022-03-14T12:50:07Z</time>
      </trkpt>
      <trkpt lat="46.68209" lon="5.32808">
        <ele>217.4</ele>
        <time>2022-03-14T12:50:14Z</time>
      </trkpt>
      <trkpt lat="46.68263" lon="5.32799">
        <ele>217.6</ele>
        <time>2022-03-14T12:50:23Z</time>
      </trkpt>
      <trkpt lat="46.68319" lon="5.32794">
        <ele>217.6</ele>
        <time>2022-03-14T12:50:32Z</time>
      </trkpt>
      <trkpt lat="46.68325" lon="5.32794">
        <ele>217.6</ele>
        <time>2022-03-14T12:50:33Z</time>
      </trkpt>
      <trkpt lat="46.68368" lon="5.32802">
        <ele>217.8</ele>
        <time>2022-03-14T12:50:40Z</time>
      </trkpt>
      <trkpt lat="46.68401" lon="5.32822">
        <ele>217.8</ele>
        <time>2022-03-14T12:50:46Z</time>
      </trkpt>
      <trkpt lat="46.68406" lon="5.32828">
        <ele>217.8</ele>
        <time>2022-03-14T12:50:47Z</time>
      </trkpt>
      <trkpt lat="46.68409" lon="5.32836">
        <ele>217.8</ele>
        <time>2022-03-14T12:50:48Z</time>
      </trkpt>
      <trkpt lat="46.68411" lon="5.32854">
        <ele>217.8</ele>
        <time>2022-03-14T12:50:50Z</time>
      </trkpt>
      <trkpt lat="46.68414" lon="5.32939">
        <ele>217.8</ele>
        <time>2022-03-14T12:50:59Z</time>
      </trkpt>
      <trkpt lat="46.68419" lon="5.33019">
        <ele>217.2</ele>
        <time>2022-03-14T12:51:07Z</time>
      </trkpt>
      <trkpt lat="46.6842" lon="5.3303">
        <ele>217.2</ele>
        <time>2022-03-14T12:51:08Z</time>
      </trkpt>
      <trkpt lat="46.68424" lon="5.3305">
        <ele>217</ele>
        <time>2022-03-14T12:51:10Z</time>
      </trkpt>
      <trkpt lat="46.68431" lon="5.33067">
        <ele>217</ele>
        <time>2022-03-14T12:51:12Z</time>
      </trkpt>
      <trkpt lat="46.68449" lon="5.33083">
        <ele>216.8</ele>
        <time>2022-03-14T12:51:15Z</time>
      </trkpt>
      <trkpt lat="46.68495" lon="5.33106">
        <ele>216.6</ele>
        <time>2022-03-14T12:51:22Z</time>
      </trkpt>
      <trkpt lat="46.6855" lon="5.33115">
        <ele>216.4</ele>
        <time>2022-03-14T12:51:30Z</time>
      </trkpt>
      <trkpt lat="46.68577" lon="5.33116">
        <ele>216.2</ele>
        <time>2022-03-14T12:51:34Z</time>
      </trkpt>
      <trkpt lat="46.68616" lon="5.33118">
        <ele>216.2</ele>
        <time>2022-03-14T12:51:40Z</time>
      </trkpt>
      <trkpt lat="46.6867" lon="5.33117">
        <ele>216.6</ele>
        <time>2022-03-14T12:51:48Z</time>
      </trkpt>
      <trkpt lat="46.68726" lon="5.33115">
        <ele>216.2</ele>
        <time>2022-03-14T12:51:56Z</time>
      </trkpt>
      <trkpt lat="46.6874" lon="5.33113">
        <ele>215.8</ele>
        <time>2022-03-14T12:51:58Z</time>
      </trkpt>
      <trkpt lat="46.6877" lon="5.33106">
        <ele>215.4</ele>
        <time>2022-03-14T12:52:02Z</time>
      </trkpt>
      <trkpt lat="46.68795" lon="5.33102">
        <ele>215</ele>
        <time>2022-03-14T12:52:05Z</time>
      </trkpt>
      <trkpt lat="46.68812" lon="5.33103">
        <ele>214</ele>
        <time>2022-03-14T12:52:07Z</time>
      </trkpt>
      <trkpt lat="46.68837" lon="5.33111">
        <ele>213</ele>
        <time>2022-03-14T12:52:10Z</time>
      </trkpt>
      <trkpt lat="46.68846" lon="5.33115">
        <ele>212.2</ele>
        <time>2022-03-14T12:52:11Z</time>
      </trkpt>
      <trkpt lat="46.68854" lon="5.3312">
        <ele>212</ele>
        <time>2022-03-14T12:52:12Z</time>
      </trkpt>
      <trkpt lat="46.68868" lon="5.33134">
        <ele>211.4</ele>
        <time>2022-03-14T12:52:14Z</time>
      </trkpt>
      <trkpt lat="46.68874" lon="5.33141">
        <ele>211.2</ele>
        <time>2022-03-14T12:52:15Z</time>
      </trkpt>
      <trkpt lat="46.68917" lon="5.33192">
        <ele>210.4</ele>
        <time>2022-03-14T12:52:22Z</time>
      </trkpt>
      <trkpt lat="46.6893" lon="5.33204">
        <ele>210.2</ele>
        <time>2022-03-14T12:52:24Z</time>
      </trkpt>
      <trkpt lat="46.68954" lon="5.33226">
        <ele>209.8</ele>
        <time>2022-03-14T12:52:28Z</time>
      </trkpt>
      <trkpt lat="46.68996" lon="5.33262">
        <ele>209.8</ele>
        <time>2022-03-14T12:52:35Z</time>
      </trkpt>
      <trkpt lat="46.69044" lon="5.33301">
        <ele>209.4</ele>
        <time>2022-03-14T12:52:43Z</time>
      </trkpt>
      <trkpt lat="46.69055" lon="5.3331">
        <ele>209.2</ele>
        <time>2022-03-14T12:52:45Z</time>
      </trkpt>
      <trkpt lat="46.69094" lon="5.33341">
        <ele>208.6</ele>
        <time>2022-03-14T12:52:51Z</time>
      </trkpt>
      <trkpt lat="46.69101" lon="5.33346">
        <ele>208.6</ele>
        <time>2022-03-14T12:52:52Z</time>
      </trkpt>
      <trkpt lat="46.69152" lon="5.33388">
        <ele>208.2</ele>
        <time>2022-03-14T12:53:00Z</time>
      </trkpt>
      <trkpt lat="46.69165" lon="5.33399">
        <ele>208</ele>
        <time>2022-03-14T12:53:02Z</time>
      </trkpt>
      <trkpt lat="46.69191" lon="5.33419">
        <ele>208</ele>
        <time>2022-03-14T12:53:06Z</time>
      </trkpt>
      <trkpt lat="46.69225" lon="5.33437">
        <ele>208</ele>
        <time>2022-03-14T12:53:11Z</time>
      </trkpt>
      <trkpt lat="46.69259" lon="5.33443">
        <ele>208</ele>
        <time>2022-03-14T12:53:16Z</time>
      </trkpt>
      <trkpt lat="46.69265" lon="5.33445">
        <ele>208</ele>
        <time>2022-03-14T12:53:17Z</time>
      </trkpt>
      <trkpt lat="46.69273" lon="5.33445">
        <ele>208</ele>
        <time>2022-03-14T12:53:18Z</time>
      </trkpt>
      <trkpt lat="46.69286" lon="5.33445">
        <ele>208</ele>
        <time>2022-03-14T12:53:20Z</time>
      </trkpt>
      <trkpt lat="46.69292" lon="5.33446">
        <ele>208</ele>
        <time>2022-03-14T12:53:21Z</time>
      </trkpt>
      <trkpt lat="46.69343" lon="5.33453">
        <ele>208</ele>
        <time>2022-03-14T12:53:29Z</time>
      </trkpt>
      <trkpt lat="46.69386" lon="5.33457">
        <ele>208.6</ele>
        <time>2022-03-14T12:53:36Z</time>
      </trkpt>
      <trkpt lat="46.69427" lon="5.33462">
        <ele>209.2</ele>
        <time>2022-03-14T12:53:44Z</time>
      </trkpt>
      <trkpt lat="46.6947" lon="5.33468">
        <ele>210.2</ele>
        <time>2022-03-14T12:53:53Z</time>
      </trkpt>
      <trkpt lat="46.69496" lon="5.33478">
        <ele>211.2</ele>
        <time>2022-03-14T12:53:59Z</time>
      </trkpt>
      <trkpt lat="46.69509" lon="5.33484">
        <ele>211.8</ele>
        <time>2022-03-14T12:54:02Z</time>
      </trkpt>
      <trkpt lat="46.69526" lon="5.33491">
        <ele>212.4</ele>
        <time>2022-03-14T12:54:06Z</time>
      </trkpt>
      <trkpt lat="46.69547" lon="5.33502">
        <ele>213.4</ele>
        <time>2022-03-14T12:54:11Z</time>
      </trkpt>
      <trkpt lat="46.69551" lon="5.33504">
        <ele>213.6</ele>
        <time>2022-03-14T12:54:12Z</time>
      </trkpt>
      <trkpt lat="46.69572" lon="5.33514">
        <ele>214.6</ele>
        <time>2022-03-14T12:54:17Z</time>
      </trkpt>
      <trkpt lat="46.69595" lon="5.33526">
        <ele>215.2</ele>
        <time>2022-03-14T12:54:22Z</time>
      </trkpt>
      <trkpt lat="46.6961" lon="5.33534">
        <ele>215.6</ele>
        <time>2022-03-14T12:54:25Z</time>
      </trkpt>
      <trkpt lat="46.69641" lon="5.3355">
        <ele>216</ele>
        <time>2022-03-14T12:54:31Z</time>
      </trkpt>
      <trkpt lat="46.6969" lon="5.33576">
        <ele>216</ele>
        <time>2022-03-14T12:54:40Z</time>
      </trkpt>
      <trkpt lat="46.69737" lon="5.33596">
        <ele>215.6</ele>
        <time>2022-03-14T12:54:48Z</time>
      </trkpt>
      <trkpt lat="46.69779" lon="5.33602">
        <ele>215.2</ele>
        <time>2022-03-14T12:54:54Z</time>
      </trkpt>
      <trkpt lat="46.69814" lon="5.33605">
        <ele>214.4</ele>
        <time>2022-03-14T12:54:59Z</time>
      </trkpt>
      <trkpt lat="46.69836" lon="5.33607">
        <ele>213.8</ele>
        <time>2022-03-14T12:55:02Z</time>
      </trkpt>
      <trkpt lat="46.69864" lon="5.33611">
        <ele>213.4</ele>
        <time>2022-03-14T12:55:06Z</time>
      </trkpt>
      <trkpt lat="46.69893" lon="5.33615">
        <ele>213</ele>
        <time>2022-03-14T12:55:10Z</time>
      </trkpt>
      <trkpt lat="46.69914" lon="5.3362">
        <ele>212</ele>
        <time>2022-03-14T12:55:13Z</time>
      </trkpt>
      <trkpt lat="46.6996" lon="5.33632">
        <ele>211.2</ele>
        <time>2022-03-14T12:55:20Z</time>
      </trkpt>
      <trkpt lat="46.69979" lon="5.33637">
        <ele>211</ele>
        <time>2022-03-14T12:55:23Z</time>
      </trkpt>
      <trkpt lat="46.70027" lon="5.33649">
        <ele>211.2</ele>
        <time>2022-03-14T12:55:30Z</time>
      </trkpt>
      <trkpt lat="46.7006" lon="5.33652">
        <ele>210.8</ele>
        <time>2022-03-14T12:55:35Z</time>
      </trkpt>
      <trkpt lat="46.70067" lon="5.3365">
        <ele>210.6</ele>
        <time>2022-03-14T12:55:36Z</time>
      </trkpt>
      <trkpt lat="46.7008" lon="5.33645">
        <ele>209.8</ele>
        <time>2022-03-14T12:55:38Z</time>
      </trkpt>
      <trkpt lat="46.70099" lon="5.33633">
        <ele>209.4</ele>
        <time>2022-03-14T12:55:41Z</time>
      </trkpt>
      <trkpt lat="46.7012" lon="5.33612">
        <ele>208.8</ele>
        <time>2022-03-14T12:55:45Z</time>
      </trkpt>
      <trkpt lat="46.70125" lon="5.33607">
        <ele>208.8</ele>
        <time>2022-03-14T12:55:46Z</time>
      </trkpt>
      <trkpt lat="46.70131" lon="5.33604">
        <ele>208.6</ele>
        <time>2022-03-14T12:55:47Z</time>
      </trkpt>
      <trkpt lat="46.70137" lon="5.33603">
        <ele>208.6</ele>
        <time>2022-03-14T12:55:48Z</time>
      </trkpt>
      <trkpt lat="46.70149" lon="5.33605">
        <ele>208.6</ele>
        <time>2022-03-14T12:55:50Z</time>
      </trkpt>
      <trkpt lat="46.70194" lon="5.33613">
        <ele>209.2</ele>
        <time>2022-03-14T12:55:57Z</time>
      </trkpt>
      <trkpt lat="46.70233" lon="5.33605">
        <ele>209.6</ele>
        <time>2022-03-14T12:56:03Z</time>
      </trkpt>
      <trkpt lat="46.70287" lon="5.33591">
        <ele>209.2</ele>
        <time>2022-03-14T12:56:10Z</time>
      </trkpt>
      <trkpt lat="46.70327" lon="5.3358">
        <ele>208</ele>
        <time>2022-03-14T12:56:15Z</time>
      </trkpt>
      <trkpt lat="46.70342" lon="5.33573">
        <ele>207.6</ele>
        <time>2022-03-14T12:56:17Z</time>
      </trkpt>
      <trkpt lat="46.70368" lon="5.33561">
        <ele>206.6</ele>
        <time>2022-03-14T12:56:20Z</time>
      </trkpt>
      <trkpt lat="46.704" lon="5.33545">
        <ele>205.4</ele>
        <time>2022-03-14T12:56:24Z</time>
      </trkpt>
      <trkpt lat="46.70442" lon="5.33523">
        <ele>204.2</ele>
        <time>2022-03-14T12:56:29Z</time>
      </trkpt>
      <trkpt lat="46.7049" lon="5.33498">
        <ele>203.4</ele>
        <time>2022-03-14T12:56:35Z</time>
      </trkpt>
      <trkpt lat="46.70522" lon="5.33482">
        <ele>202.2</ele>
        <time>2022-03-14T12:56:39Z</time>
      </trkpt>
      <trkpt lat="46.70547" lon="5.33477">
        <ele>201.8</ele>
        <time>2022-03-14T12:56:42Z</time>
      </trkpt>
      <trkpt lat="46.70556" lon="5.33477">
        <ele>201.4</ele>
        <time>2022-03-14T12:56:43Z</time>
      </trkpt>
      <trkpt lat="46.7057" lon="5.33481">
        <ele>200.8</ele>
        <time>2022-03-14T12:56:45Z</time>
      </trkpt>
      <trkpt lat="46.70604" lon="5.3349">
        <ele>200.4</ele>
        <time>2022-03-14T12:56:49Z</time>
      </trkpt>
      <trkpt lat="46.70645" lon="5.33504">
        <ele>199.8</ele>
        <time>2022-03-14T12:56:55Z</time>
      </trkpt>
      <trkpt lat="46.70695" lon="5.33519">
        <ele>200</ele>
        <time>2022-03-14T12:57:03Z</time>
      </trkpt>
      <trkpt lat="46.70742" lon="5.33533">
        <ele>200.6</ele>
        <time>2022-03-14T12:57:12Z</time>
      </trkpt>
      <trkpt lat="46.70746" lon="5.33536">
        <ele>200.8</ele>
        <time>2022-03-14T12:57:14Z</time>
      </trkpt>
      <trkpt lat="46.70746" lon="5.33536">
        <ele>200.8</ele>
        <time>2022-03-14T12:57:15Z</time>
      </trkpt>
      <trkpt lat="46.70747" lon="5.33544">
        <ele>200.8</ele>
        <time>2022-03-14T12:57:16Z</time>
      </trkpt>
      <trkpt lat="46.70746" lon="5.33553">
        <ele>200.8</ele>
        <time>2022-03-14T12:57:18Z</time>
      </trkpt>
      <trkpt lat="46.70734" lon="5.33592">
        <ele>200.8</ele>
        <time>2022-03-14T12:57:23Z</time>
      </trkpt>
      <trkpt lat="46.70711" lon="5.33666">
        <ele>200.6</ele>
        <time>2022-03-14T12:57:31Z</time>
      </trkpt>
      <trkpt lat="46.70687" lon="5.33744">
        <ele>200.4</ele>
        <time>2022-03-14T12:57:39Z</time>
      </trkpt>
      <trkpt lat="46.70684" lon="5.33754">
        <ele>200.6</ele>
        <time>2022-03-14T12:57:40Z</time>
      </trkpt>
      <trkpt lat="46.70658" lon="5.33835">
        <ele>200.6</ele>
        <time>2022-03-14T12:57:48Z</time>
      </trkpt>
      <trkpt lat="46.70655" lon="5.33846">
        <ele>200.6</ele>
        <time>2022-03-14T12:57:49Z</time>
      </trkpt>
      <trkpt lat="46.70629" lon="5.33926">
        <ele>200.2</ele>
        <time>2022-03-14T12:57:57Z</time>
      </trkpt>
      <trkpt lat="46.7062" lon="5.33955">
        <ele>200.2</ele>
        <time>2022-03-14T12:58:00Z</time>
      </trkpt>
      <trkpt lat="46.70597" lon="5.34029">
        <ele>200.2</ele>
        <time>2022-03-14T12:58:08Z</time>
      </trkpt>
      <trkpt lat="46.70592" lon="5.34046">
        <ele>200.4</ele>
        <time>2022-03-14T12:58:10Z</time>
      </trkpt>
      <trkpt lat="46.7058" lon="5.34086">
        <ele>201.2</ele>
        <time>2022-03-14T12:58:15Z</time>
      </trkpt>
      <trkpt lat="46.70571" lon="5.34109">
        <ele>201.8</ele>
        <time>2022-03-14T12:58:18Z</time>
      </trkpt>
      <trkpt lat="46.70566" lon="5.34124">
        <ele>202.2</ele>
        <time>2022-03-14T12:58:20Z</time>
      </trkpt>
      <trkpt lat="46.70563" lon="5.34132">
        <ele>202.2</ele>
        <time>2022-03-14T12:58:21Z</time>
      </trkpt>
      <trkpt lat="46.70551" lon="5.34169">
        <ele>203</ele>
        <time>2022-03-14T12:58:26Z</time>
      </trkpt>
      <trkpt lat="46.70541" lon="5.34197">
        <ele>204</ele>
        <time>2022-03-14T12:58:30Z</time>
      </trkpt>
      <trkpt lat="46.70539" lon="5.34204">
        <ele>204.4</ele>
        <time>2022-03-14T12:58:31Z</time>
      </trkpt>
      <trkpt lat="46.70529" lon="5.34236">
        <ele>205.4</ele>
        <time>2022-03-14T12:58:36Z</time>
      </trkpt>
      <trkpt lat="46.70526" lon="5.34248">
        <ele>206.2</ele>
        <time>2022-03-14T12:58:38Z</time>
      </trkpt>
      <trkpt lat="46.70523" lon="5.3426">
        <ele>206.8</ele>
        <time>2022-03-14T12:58:40Z</time>
      </trkpt>
      <trkpt lat="46.70518" lon="5.34278">
        <ele>207.6</ele>
        <time>2022-03-14T12:58:43Z</time>
      </trkpt>
      <trkpt lat="46.70516" lon="5.34284">
        <ele>207.8</ele>
        <time>2022-03-14T12:58:44Z</time>
      </trkpt>
      <trkpt lat="46.70514" lon="5.3429">
        <ele>208</ele>
        <time>2022-03-14T12:58:45Z</time>
      </trkpt>
      <trkpt lat="46.70512" lon="5.34296">
        <ele>208.2</ele>
        <time>2022-03-14T12:58:46Z</time>
      </trkpt>
      <trkpt lat="46.70508" lon="5.34308">
        <ele>208.8</ele>
        <time>2022-03-14T12:58:48Z</time>
      </trkpt>
      <trkpt lat="46.70505" lon="5.34313">
        <ele>209</ele>
        <time>2022-03-14T12:58:49Z</time>
      </trkpt>
      <trkpt lat="46.70503" lon="5.34318">
        <ele>209</ele>
        <time>2022-03-14T12:58:50Z</time>
      </trkpt>
      <trkpt lat="46.70493" lon="5.34332">
        <ele>210</ele>
        <time>2022-03-14T12:58:53Z</time>
      </trkpt>
      <trkpt lat="46.70486" lon="5.34341">
        <ele>210.4</ele>
        <time>2022-03-14T12:58:55Z</time>
      </trkpt>
      <trkpt lat="46.70482" lon="5.34344">
        <ele>210.8</ele>
        <time>2022-03-14T12:58:56Z</time>
      </trkpt>
      <trkpt lat="46.70473" lon="5.34349">
        <ele>211</ele>
        <time>2022-03-14T12:58:58Z</time>
      </trkpt>
      <trkpt lat="46.70448" lon="5.34365">
        <ele>212.2</ele>
        <time>2022-03-14T12:59:04Z</time>
      </trkpt>
      <trkpt lat="46.70444" lon="5.34368">
        <ele>212.4</ele>
        <time>2022-03-14T12:59:05Z</time>
      </trkpt>
      <trkpt lat="46.7043" lon="5.34374">
        <ele>212.8</ele>
        <time>2022-03-14T12:59:08Z</time>
      </trkpt>
      <trkpt lat="46.70425" lon="5.34377">
        <ele>213</ele>
        <time>2022-03-14T12:59:09Z</time>
      </trkpt>
      <trkpt lat="46.70421" lon="5.3438">
        <ele>213.4</ele>
        <time>2022-03-14T12:59:10Z</time>
      </trkpt>
      <trkpt lat="46.70383" lon="5.34404">
        <ele>214.4</ele>
        <time>2022-03-14T12:59:18Z</time>
      </trkpt>
      <trkpt lat="46.70378" lon="5.34407">
        <ele>214.6</ele>
        <time>2022-03-14T12:59:19Z</time>
      </trkpt>
      <trkpt lat="46.70338" lon="5.34433">
        <ele>215.2</ele>
        <time>2022-03-14T12:59:27Z</time>
      </trkpt>
      <trkpt lat="46.70323" lon="5.34442">
        <ele>215.4</ele>
        <time>2022-03-14T12:59:30Z</time>
      </trkpt>
      <trkpt lat="46.70315" lon="5.3445">
        <ele>215.6</ele>
        <time>2022-03-14T12:59:32Z</time>
      </trkpt>
      <trkpt lat="46.70311" lon="5.34455">
        <ele>215.6</ele>
        <time>2022-03-14T12:59:33Z</time>
      </trkpt>
      <trkpt lat="46.70304" lon="5.34466">
        <ele>215.8</ele>
        <time>2022-03-14T12:59:35Z</time>
      </trkpt>
      <trkpt lat="46.70298" lon="5.34479">
        <ele>216</ele>
        <time>2022-03-14T12:59:37Z</time>
      </trkpt>
      <trkpt lat="46.70296" lon="5.34486">
        <ele>216.2</ele>
        <time>2022-03-14T12:59:38Z</time>
      </trkpt>
      <trkpt lat="46.70294" lon="5.34493">
        <ele>216.6</ele>
        <time>2022-03-14T12:59:39Z</time>
      </trkpt>
      <trkpt lat="46.70283" lon="5.34546">
        <ele>217.4</ele>
        <time>2022-03-14T12:59:46Z</time>
      </trkpt>
      <trkpt lat="46.70281" lon="5.34563">
        <ele>217.6</ele>
        <time>2022-03-14T12:59:48Z</time>
      </trkpt>
      <trkpt lat="46.70273" lon="5.34597">
        <ele>217.8</ele>
        <time>2022-03-14T12:59:52Z</time>
      </trkpt>
      <trkpt lat="46.70258" lon="5.3467">
        <ele>218</ele>
        <time>2022-03-14T13:00:00Z</time>
      </trkpt>
      <trkpt lat="46.70239" lon="5.3475">
        <ele>217.6</ele>
        <time>2022-03-14T13:00:08Z</time>
      </trkpt>
      <trkpt lat="46.70237" lon="5.34761">
        <ele>217.6</ele>
        <time>2022-03-14T13:00:09Z</time>
      </trkpt>
      <trkpt lat="46.70214" lon="5.3483">
        <ele>217.4</ele>
        <time>2022-03-14T13:00:16Z</time>
      </trkpt>
      <trkpt lat="46.70207" lon="5.3485">
        <ele>217.4</ele>
        <time>2022-03-14T13:00:18Z</time>
      </trkpt>
      <trkpt lat="46.70187" lon="5.34908">
        <ele>217.8</ele>
        <time>2022-03-14T13:00:24Z</time>
      </trkpt>
      <trkpt lat="46.70159" lon="5.34983">
        <ele>218.2</ele>
        <time>2022-03-14T13:00:32Z</time>
      </trkpt>
      <trkpt lat="46.70134" lon="5.35056">
        <ele>218.6</ele>
        <time>2022-03-14T13:00:40Z</time>
      </trkpt>
      <trkpt lat="46.70131" lon="5.35065">
        <ele>218.6</ele>
        <time>2022-03-14T13:00:41Z</time>
      </trkpt>
      <trkpt lat="46.70127" lon="5.35074">
        <ele>218.6</ele>
        <time>2022-03-14T13:00:42Z</time>
      </trkpt>
      <trkpt lat="46.70099" lon="5.35146">
        <ele>219</ele>
        <time>2022-03-14T13:00:50Z</time>
      </trkpt>
      <trkpt lat="46.70072" lon="5.35221">
        <ele>219.2</ele>
        <time>2022-03-14T13:00:58Z</time>
      </trkpt>
      <trkpt lat="46.70062" lon="5.35247">
        <ele>219.4</ele>
        <time>2022-03-14T13:01:01Z</time>
      </trkpt>
      <trkpt lat="46.70037" lon="5.35316">
        <ele>219.8</ele>
        <time>2022-03-14T13:01:09Z</time>
      </trkpt>
      <trkpt lat="46.70017" lon="5.35372">
        <ele>220.4</ele>
        <time>2022-03-14T13:01:16Z</time>
      </trkpt>
      <trkpt lat="46.69991" lon="5.35448">
        <ele>220.8</ele>
        <time>2022-03-14T13:01:25Z</time>
      </trkpt>
      <trkpt lat="46.69985" lon="5.35465">
        <ele>220.8</ele>
        <time>2022-03-14T13:01:27Z</time>
      </trkpt>
      <trkpt lat="46.69968" lon="5.35517">
        <ele>220.6</ele>
        <time>2022-03-14T13:01:33Z</time>
      </trkpt>
      <trkpt lat="46.69964" lon="5.35525">
        <ele>220.6</ele>
        <time>2022-03-14T13:01:34Z</time>
      </trkpt>
      <trkpt lat="46.69943" lon="5.35582">
        <ele>220.6</ele>
        <time>2022-03-14T13:01:41Z</time>
      </trkpt>
      <trkpt lat="46.69936" lon="5.35602">
        <ele>220.6</ele>
        <time>2022-03-14T13:01:44Z</time>
      </trkpt>
      <trkpt lat="46.69936" lon="5.35608">
        <ele>220.6</ele>
        <time>2022-03-14T13:01:45Z</time>
      </trkpt>
      <trkpt lat="46.69941" lon="5.35617">
        <ele>220.6</ele>
        <time>2022-03-14T13:01:47Z</time>
      </trkpt>
      <trkpt lat="46.69946" lon="5.35618">
        <ele>220.6</ele>
        <time>2022-03-14T13:01:48Z</time>
      </trkpt>
      <trkpt lat="46.69982" lon="5.35624">
        <ele>220.4</ele>
        <time>2022-03-14T13:01:54Z</time>
      </trkpt>
      <trkpt lat="46.70027" lon="5.35632">
        <ele>220.4</ele>
        <time>2022-03-14T13:02:01Z</time>
      </trkpt>
      <trkpt lat="46.70039" lon="5.35639">
        <ele>220.2</ele>
        <time>2022-03-14T13:02:03Z</time>
      </trkpt>
      <trkpt lat="46.70055" lon="5.35653">
        <ele>220</ele>
        <time>2022-03-14T13:02:06Z</time>
      </trkpt>
      <trkpt lat="46.70097" lon="5.3569">
        <ele>219.6</ele>
        <time>2022-03-14T13:02:14Z</time>
      </trkpt>
      <trkpt lat="46.70132" lon="5.35728">
        <ele>219.2</ele>
        <time>2022-03-14T13:02:21Z</time>
      </trkpt>
      <trkpt lat="46.70152" lon="5.35752">
        <ele>218.8</ele>
        <time>2022-03-14T13:02:25Z</time>
      </trkpt>
      <trkpt lat="46.70168" lon="5.3577">
        <ele>218.8</ele>
        <time>2022-03-14T13:02:28Z</time>
      </trkpt>
      <trkpt lat="46.70192" lon="5.35803">
        <ele>217.8</ele>
        <time>2022-03-14T13:02:33Z</time>
      </trkpt>
      <trkpt lat="46.70201" lon="5.35818">
        <ele>217.4</ele>
        <time>2022-03-14T13:02:35Z</time>
      </trkpt>
      <trkpt lat="46.70216" lon="5.35841">
        <ele>217.2</ele>
        <time>2022-03-14T13:02:38Z</time>
      </trkpt>
      <trkpt lat="46.70228" lon="5.35855">
        <ele>217</ele>
        <time>2022-03-14T13:02:40Z</time>
      </trkpt>
      <trkpt lat="46.70234" lon="5.35863">
        <ele>217</ele>
        <time>2022-03-14T13:02:41Z</time>
      </trkpt>
      <trkpt lat="46.70247" lon="5.35875">
        <ele>216.4</ele>
        <time>2022-03-14T13:02:43Z</time>
      </trkpt>
      <trkpt lat="46.7026" lon="5.35887">
        <ele>216</ele>
        <time>2022-03-14T13:02:45Z</time>
      </trkpt>
      <trkpt lat="46.70296" lon="5.35927">
        <ele>215.4</ele>
        <time>2022-03-14T13:02:51Z</time>
      </trkpt>
      <trkpt lat="46.70302" lon="5.35933">
        <ele>215.2</ele>
        <time>2022-03-14T13:02:52Z</time>
      </trkpt>
      <trkpt lat="46.70322" lon="5.35949">
        <ele>214.8</ele>
        <time>2022-03-14T13:02:55Z</time>
      </trkpt>
      <trkpt lat="46.70336" lon="5.35957">
        <ele>214.6</ele>
        <time>2022-03-14T13:02:57Z</time>
      </trkpt>
      <trkpt lat="46.70375" lon="5.35983">
        <ele>214.6</ele>
        <time>2022-03-14T13:03:03Z</time>
      </trkpt>
      <trkpt lat="46.70387" lon="5.35994">
        <ele>214.4</ele>
        <time>2022-03-14T13:03:05Z</time>
      </trkpt>
      <trkpt lat="46.70406" lon="5.36015">
        <ele>213.8</ele>
        <time>2022-03-14T13:03:09Z</time>
      </trkpt>
      <trkpt lat="46.70436" lon="5.36046">
        <ele>213.4</ele>
        <time>2022-03-14T13:03:16Z</time>
      </trkpt>
      <trkpt lat="46.70441" lon="5.36053">
        <ele>213.4</ele>
        <time>2022-03-14T13:03:17Z</time>
      </trkpt>
      <trkpt lat="46.70445" lon="5.3606">
        <ele>213.2</ele>
        <time>2022-03-14T13:03:18Z</time>
      </trkpt>
      <trkpt lat="46.70459" lon="5.36084">
        <ele>213</ele>
        <time>2022-03-14T13:03:21Z</time>
      </trkpt>
      <trkpt lat="46.70491" lon="5.36138">
        <ele>212.8</ele>
        <time>2022-03-14T13:03:28Z</time>
      </trkpt>
      <trkpt lat="46.70496" lon="5.36145">
        <ele>212.6</ele>
        <time>2022-03-14T13:03:29Z</time>
      </trkpt>
      <trkpt lat="46.70524" lon="5.36172">
        <ele>212.6</ele>
        <time>2022-03-14T13:03:34Z</time>
      </trkpt>
      <trkpt lat="46.70541" lon="5.36187">
        <ele>212.4</ele>
        <time>2022-03-14T13:03:37Z</time>
      </trkpt>
      <trkpt lat="46.7055" lon="5.36201">
        <ele>212.2</ele>
        <time>2022-03-14T13:03:39Z</time>
      </trkpt>
      <trkpt lat="46.70564" lon="5.36241">
        <ele>212.2</ele>
        <time>2022-03-14T13:03:44Z</time>
      </trkpt>
      <trkpt lat="46.70569" lon="5.36289">
        <ele>212.2</ele>
        <time>2022-03-14T13:03:49Z</time>
      </trkpt>
      <trkpt lat="46.70572" lon="5.36298">
        <ele>212</ele>
        <time>2022-03-14T13:03:50Z</time>
      </trkpt>
      <trkpt lat="46.70576" lon="5.36305">
        <ele>212</ele>
        <time>2022-03-14T13:03:51Z</time>
      </trkpt>
      <trkpt lat="46.70588" lon="5.36317">
        <ele>211.8</ele>
        <time>2022-03-14T13:03:53Z</time>
      </trkpt>
      <trkpt lat="46.70633" lon="5.36339">
        <ele>211.6</ele>
        <time>2022-03-14T13:04:00Z</time>
      </trkpt>
      <trkpt lat="46.70647" lon="5.36342">
        <ele>211.4</ele>
        <time>2022-03-14T13:04:02Z</time>
      </trkpt>
      <trkpt lat="46.70667" lon="5.36344">
        <ele>211.4</ele>
        <time>2022-03-14T13:04:05Z</time>
      </trkpt>
      <trkpt lat="46.7068" lon="5.36348">
        <ele>211.4</ele>
        <time>2022-03-14T13:04:07Z</time>
      </trkpt>
      <trkpt lat="46.70698" lon="5.36357">
        <ele>211.6</ele>
        <time>2022-03-14T13:04:10Z</time>
      </trkpt>
      <trkpt lat="46.7071" lon="5.36363">
        <ele>211.6</ele>
        <time>2022-03-14T13:04:12Z</time>
      </trkpt>
      <trkpt lat="46.70729" lon="5.36365">
        <ele>211.8</ele>
        <time>2022-03-14T13:04:15Z</time>
      </trkpt>
      <trkpt lat="46.70785" lon="5.36369">
        <ele>212.8</ele>
        <time>2022-03-14T13:04:24Z</time>
      </trkpt>
      <trkpt lat="46.70792" lon="5.36371">
        <ele>212.8</ele>
        <time>2022-03-14T13:04:25Z</time>
      </trkpt>
      <trkpt lat="46.70839" lon="5.36388">
        <ele>212.2</ele>
        <time>2022-03-14T13:04:32Z</time>
      </trkpt>
      <trkpt lat="46.70898" lon="5.36397">
        <ele>211.8</ele>
        <time>2022-03-14T13:04:40Z</time>
      </trkpt>
      <trkpt lat="46.7092" lon="5.36397">
        <ele>211.4</ele>
        <time>2022-03-14T13:04:43Z</time>
      </trkpt>
      <trkpt lat="46.7095" lon="5.36396">
        <ele>211.2</ele>
        <time>2022-03-14T13:04:47Z</time>
      </trkpt>
      <trkpt lat="46.70989" lon="5.36399">
        <ele>210.4</ele>
        <time>2022-03-14T13:04:52Z</time>
      </trkpt>
      <trkpt lat="46.71006" lon="5.36398">
        <ele>209.8</ele>
        <time>2022-03-14T13:04:54Z</time>
      </trkpt>
      <trkpt lat="46.71013" lon="5.36396">
        <ele>209.4</ele>
        <time>2022-03-14T13:04:55Z</time>
      </trkpt>
      <trkpt lat="46.7102" lon="5.3639">
        <ele>209.2</ele>
        <time>2022-03-14T13:04:56Z</time>
      </trkpt>
      <trkpt lat="46.71033" lon="5.36377">
        <ele>208.6</ele>
        <time>2022-03-14T13:04:58Z</time>
      </trkpt>
      <trkpt lat="46.71044" lon="5.36361">
        <ele>208.4</ele>
        <time>2022-03-14T13:05:00Z</time>
      </trkpt>
      <trkpt lat="46.71058" lon="5.36337">
        <ele>208.2</ele>
        <time>2022-03-14T13:05:03Z</time>
      </trkpt>
      <trkpt lat="46.71075" lon="5.36302">
        <ele>208</ele>
        <time>2022-03-14T13:05:07Z</time>
      </trkpt>
      <trkpt lat="46.7108" lon="5.36294">
        <ele>208</ele>
        <time>2022-03-14T13:05:08Z</time>
      </trkpt>
      <trkpt lat="46.71087" lon="5.36287">
        <ele>207.8</ele>
        <time>2022-03-14T13:05:09Z</time>
      </trkpt>
      <trkpt lat="46.71101" lon="5.36276">
        <ele>207.8</ele>
        <time>2022-03-14T13:05:11Z</time>
      </trkpt>
      <trkpt lat="46.71109" lon="5.36272">
        <ele>207.6</ele>
        <time>2022-03-14T13:05:12Z</time>
      </trkpt>
      <trkpt lat="46.71117" lon="5.36268">
        <ele>207</ele>
        <time>2022-03-14T13:05:13Z</time>
      </trkpt>
      <trkpt lat="46.71134" lon="5.36261">
        <ele>206.6</ele>
        <time>2022-03-14T13:05:15Z</time>
      </trkpt>
      <trkpt lat="46.71151" lon="5.36256">
        <ele>206</ele>
        <time>2022-03-14T13:05:17Z</time>
      </trkpt>
      <trkpt lat="46.71178" lon="5.36251">
        <ele>204.6</ele>
        <time>2022-03-14T13:05:20Z</time>
      </trkpt>
      <trkpt lat="46.71188" lon="5.36251">
        <ele>204</ele>
        <time>2022-03-14T13:05:21Z</time>
      </trkpt>
      <trkpt lat="46.71205" lon="5.36251">
        <ele>203.2</ele>
        <time>2022-03-14T13:05:23Z</time>
      </trkpt>
      <trkpt lat="46.71248" lon="5.36254">
        <ele>201.8</ele>
        <time>2022-03-14T13:05:28Z</time>
      </trkpt>
      <trkpt lat="46.71256" lon="5.36255">
        <ele>201.6</ele>
        <time>2022-03-14T13:05:29Z</time>
      </trkpt>
      <trkpt lat="46.71264" lon="5.36257">
        <ele>201.4</ele>
        <time>2022-03-14T13:05:30Z</time>
      </trkpt>
      <trkpt lat="46.71285" lon="5.36269">
        <ele>201.2</ele>
        <time>2022-03-14T13:05:33Z</time>
      </trkpt>
      <trkpt lat="46.71331" lon="5.36299">
        <ele>201</ele>
        <time>2022-03-14T13:05:40Z</time>
      </trkpt>
      <trkpt lat="46.71381" lon="5.36329">
        <ele>201</ele>
        <time>2022-03-14T13:05:48Z</time>
      </trkpt>
      <trkpt lat="46.71399" lon="5.36341">
        <ele>201</ele>
        <time>2022-03-14T13:05:51Z</time>
      </trkpt>
      <trkpt lat="46.71451" lon="5.36372">
        <ele>201.2</ele>
        <time>2022-03-14T13:06:00Z</time>
      </trkpt>
      <trkpt lat="46.71457" lon="5.36375">
        <ele>201.2</ele>
        <time>2022-03-14T13:06:01Z</time>
      </trkpt>
      <trkpt lat="46.71488" lon="5.36398">
        <ele>201.6</ele>
        <time>2022-03-14T13:06:07Z</time>
      </trkpt>
      <trkpt lat="46.71527" lon="5.36447">
        <ele>202</ele>
        <time>2022-03-14T13:06:16Z</time>
      </trkpt>
      <trkpt lat="46.71572" lon="5.36502">
        <ele>202.8</ele>
        <time>2022-03-14T13:06:26Z</time>
      </trkpt>
      <trkpt lat="46.71591" lon="5.36523">
        <ele>203</ele>
        <time>2022-03-14T13:06:30Z</time>
      </trkpt>
      <trkpt lat="46.71596" lon="5.36528">
        <ele>202.8</ele>
        <time>2022-03-14T13:06:31Z</time>
      </trkpt>
      <trkpt lat="46.71627" lon="5.36565">
        <ele>202.8</ele>
        <time>2022-03-14T13:06:37Z</time>
      </trkpt>
      <trkpt lat="46.71649" lon="5.36592">
        <ele>202.6</ele>
        <time>2022-03-14T13:06:41Z</time>
      </trkpt>
      <trkpt lat="46.7166" lon="5.36605">
        <ele>202.4</ele>
        <time>2022-03-14T13:06:43Z</time>
      </trkpt>
      <trkpt lat="46.7169" lon="5.36644">
        <ele>202</ele>
        <time>2022-03-14T13:06:49Z</time>
      </trkpt>
      <trkpt lat="46.71698" lon="5.36652">
        <ele>201.6</ele>
        <time>2022-03-14T13:06:51Z</time>
      </trkpt>
      <trkpt lat="46.717" lon="5.36658">
        <ele>201.4</ele>
        <time>2022-03-14T13:06:52Z</time>
      </trkpt>
      <trkpt lat="46.71701" lon="5.36663">
        <ele>201.2</ele>
        <time>2022-03-14T13:06:53Z</time>
      </trkpt>
      <trkpt lat="46.71698" lon="5.36673">
        <ele>201</ele>
        <time>2022-03-14T13:06:55Z</time>
      </trkpt>
      <trkpt lat="46.71693" lon="5.3668">
        <ele>200.8</ele>
        <time>2022-03-14T13:06:57Z</time>
      </trkpt>
      <trkpt lat="46.71684" lon="5.36694">
        <ele>201</ele>
        <time>2022-03-14T13:07:01Z</time>
      </trkpt>
      <trkpt lat="46.71674" lon="5.36709">
        <ele>201.2</ele>
        <time>2022-03-14T13:07:04Z</time>
      </trkpt>
      <trkpt lat="46.71671" lon="5.36714">
        <ele>201.2</ele>
        <time>2022-03-14T13:07:05Z</time>
      </trkpt>
      <trkpt lat="46.71668" lon="5.36719">
        <ele>201.4</ele>
        <time>2022-03-14T13:07:06Z</time>
      </trkpt>
      <trkpt lat="46.71656" lon="5.36738">
        <ele>201.8</ele>
        <time>2022-03-14T13:07:09Z</time>
      </trkpt>
      <trkpt lat="46.71652" lon="5.36745">
        <ele>202</ele>
        <time>2022-03-14T13:07:10Z</time>
      </trkpt>
      <trkpt lat="46.71648" lon="5.36751">
        <ele>202.2</ele>
        <time>2022-03-14T13:07:11Z</time>
      </trkpt>
      <trkpt lat="46.71632" lon="5.36779">
        <ele>202.6</ele>
        <time>2022-03-14T13:07:15Z</time>
      </trkpt>
      <trkpt lat="46.71618" lon="5.36798">
        <ele>203</ele>
        <time>2022-03-14T13:07:18Z</time>
      </trkpt>
      <trkpt lat="46.71605" lon="5.36817">
        <ele>203.2</ele>
        <time>2022-03-14T13:07:21Z</time>
      </trkpt>
      <trkpt lat="46.71596" lon="5.3683">
        <ele>203.2</ele>
        <time>2022-03-14T13:07:23Z</time>
      </trkpt>
      <trkpt lat="46.71591" lon="5.36839">
        <ele>203.2</ele>
        <time>2022-03-14T13:07:24Z</time>
      </trkpt>
      <trkpt lat="46.71559" lon="5.36883">
        <ele>203.4</ele>
        <time>2022-03-14T13:07:31Z</time>
      </trkpt>
      <trkpt lat="46.71545" lon="5.36902">
        <ele>203.4</ele>
        <time>2022-03-14T13:07:34Z</time>
      </trkpt>
      <trkpt lat="46.71529" lon="5.3693">
        <ele>203.8</ele>
        <time>2022-03-14T13:07:38Z</time>
      </trkpt>
      <trkpt lat="46.71522" lon="5.36943">
        <ele>203.8</ele>
        <time>2022-03-14T13:07:40Z</time>
      </trkpt>
      <trkpt lat="46.71513" lon="5.36955">
        <ele>204.2</ele>
        <time>2022-03-14T13:07:42Z</time>
      </trkpt>
      <trkpt lat="46.71508" lon="5.36962">
        <ele>204.4</ele>
        <time>2022-03-14T13:07:43Z</time>
      </trkpt>
      <trkpt lat="46.71482" lon="5.37002">
        <ele>205.2</ele>
        <time>2022-03-14T13:07:50Z</time>
      </trkpt>
      <trkpt lat="46.71478" lon="5.37008">
        <ele>205.4</ele>
        <time>2022-03-14T13:07:51Z</time>
      </trkpt>
      <trkpt lat="46.7145" lon="5.37057">
        <ele>206</ele>
        <time>2022-03-14T13:07:59Z</time>
      </trkpt>
      <trkpt lat="46.71446" lon="5.37063">
        <ele>206</ele>
        <time>2022-03-14T13:08:00Z</time>
      </trkpt>
      <trkpt lat="46.71434" lon="5.37078">
        <ele>206.4</ele>
        <time>2022-03-14T13:08:03Z</time>
      </trkpt>
      <trkpt lat="46.71424" lon="5.37095">
        <ele>206.8</ele>
        <time>2022-03-14T13:08:07Z</time>
      </trkpt>
      <trkpt lat="46.7142" lon="5.37101">
        <ele>206.8</ele>
        <time>2022-03-14T13:08:08Z</time>
      </trkpt>
      <trkpt lat="46.71414" lon="5.37111">
        <ele>207</ele>
        <time>2022-03-14T13:08:10Z</time>
      </trkpt>
      <trkpt lat="46.71407" lon="5.37119">
        <ele>207.4</ele>
        <time>2022-03-14T13:08:12Z</time>
      </trkpt>
      <trkpt lat="46.71397" lon="5.37135">
        <ele>208.2</ele>
        <time>2022-03-14T13:08:15Z</time>
      </trkpt>
      <trkpt lat="46.71394" lon="5.37141">
        <ele>208.6</ele>
        <time>2022-03-14T13:08:16Z</time>
      </trkpt>
      <trkpt lat="46.7139" lon="5.3715">
        <ele>209.2</ele>
        <time>2022-03-14T13:08:18Z</time>
      </trkpt>
      <trkpt lat="46.71382" lon="5.37165">
        <ele>209.6</ele>
        <time>2022-03-14T13:08:21Z</time>
      </trkpt>
      <trkpt lat="46.71366" lon="5.37179">
        <ele>210</ele>
        <time>2022-03-14T13:08:24Z</time>
      </trkpt>
      <trkpt lat="46.7135" lon="5.37195">
        <ele>210.8</ele>
        <time>2022-03-14T13:08:28Z</time>
      </trkpt>
      <trkpt lat="46.71339" lon="5.37203">
        <ele>211.4</ele>
        <time>2022-03-14T13:08:30Z</time>
      </trkpt>
      <trkpt lat="46.71306" lon="5.37229">
        <ele>211.6</ele>
        <time>2022-03-14T13:08:36Z</time>
      </trkpt>
      <trkpt lat="46.71267" lon="5.3726">
        <ele>211.4</ele>
        <time>2022-03-14T13:08:43Z</time>
      </trkpt>
      <trkpt lat="46.71228" lon="5.37293">
        <ele>211.2</ele>
        <time>2022-03-14T13:08:50Z</time>
      </trkpt>
      <trkpt lat="46.71213" lon="5.37326">
        <ele>210.8</ele>
        <time>2022-03-14T13:08:54Z</time>
      </trkpt>
      <trkpt lat="46.71192" lon="5.37399">
        <ele>210.2</ele>
        <time>2022-03-14T13:09:02Z</time>
      </trkpt>
      <trkpt lat="46.71189" lon="5.37408">
        <ele>210.2</ele>
        <time>2022-03-14T13:09:03Z</time>
      </trkpt>
      <trkpt lat="46.71181" lon="5.37431">
        <ele>210</ele>
        <time>2022-03-14T13:09:06Z</time>
      </trkpt>
      <trkpt lat="46.71172" lon="5.37443">
        <ele>210</ele>
        <time>2022-03-14T13:09:08Z</time>
      </trkpt>
      <trkpt lat="46.7116" lon="5.37446">
        <ele>210.2</ele>
        <time>2022-03-14T13:09:10Z</time>
      </trkpt>
      <trkpt lat="46.71153" lon="5.37445">
        <ele>210.4</ele>
        <time>2022-03-14T13:09:11Z</time>
      </trkpt>
      <trkpt lat="46.71116" lon="5.3743">
        <ele>211.4</ele>
        <time>2022-03-14T13:09:18Z</time>
      </trkpt>
      <trkpt lat="46.71104" lon="5.37427">
        <ele>211.8</ele>
        <time>2022-03-14T13:09:20Z</time>
      </trkpt>
      <trkpt lat="46.71086" lon="5.37426">
        <ele>212.2</ele>
        <time>2022-03-14T13:09:23Z</time>
      </trkpt>
      <trkpt lat="46.71054" lon="5.37424">
        <ele>213</ele>
        <time>2022-03-14T13:09:28Z</time>
      </trkpt>
      <trkpt lat="46.71049" lon="5.37424">
        <ele>213</ele>
        <time>2022-03-14T13:09:29Z</time>
      </trkpt>
      <trkpt lat="46.71036" lon="5.37425">
        <ele>213.2</ele>
        <time>2022-03-14T13:09:31Z</time>
      </trkpt>
      <trkpt lat="46.71018" lon="5.37433">
        <ele>213.4</ele>
        <time>2022-03-14T13:09:34Z</time>
      </trkpt>
      <trkpt lat="46.70976" lon="5.37457">
        <ele>213.2</ele>
        <time>2022-03-14T13:09:41Z</time>
      </trkpt>
      <trkpt lat="46.70944" lon="5.37469">
        <ele>213.2</ele>
        <time>2022-03-14T13:09:46Z</time>
      </trkpt>
      <trkpt lat="46.70939" lon="5.37474">
        <ele>213.4</ele>
        <time>2022-03-14T13:09:47Z</time>
      </trkpt>
      <trkpt lat="46.70934" lon="5.3748">
        <ele>213.4</ele>
        <time>2022-03-14T13:09:48Z</time>
      </trkpt>
      <trkpt lat="46.70923" lon="5.375">
        <ele>213.6</ele>
        <time>2022-03-14T13:09:51Z</time>
      </trkpt>
      <trkpt lat="46.70916" lon="5.37514">
        <ele>213.6</ele>
        <time>2022-03-14T13:09:54Z</time>
      </trkpt>
      <trkpt lat="46.70901" lon="5.37518">
        <ele>213.6</ele>
        <time>2022-03-14T13:09:58Z</time>
      </trkpt>
      <trkpt lat="46.70896" lon="5.37518">
        <ele>213.6</ele>
        <time>2022-03-14T13:09:59Z</time>
      </trkpt>
      <trkpt lat="46.7087" lon="5.37513">
        <ele>213.6</ele>
        <time>2022-03-14T13:10:04Z</time>
      </trkpt>
      <trkpt lat="46.70864" lon="5.37513">
        <ele>213.6</ele>
        <time>2022-03-14T13:10:05Z</time>
      </trkpt>
      <trkpt lat="46.70853" lon="5.37516">
        <ele>214</ele>
        <time>2022-03-14T13:10:07Z</time>
      </trkpt>
      <trkpt lat="46.70847" lon="5.37519">
        <ele>214</ele>
        <time>2022-03-14T13:10:08Z</time>
      </trkpt>
      <trkpt lat="46.70842" lon="5.37522">
        <ele>214</ele>
        <time>2022-03-14T13:10:09Z</time>
      </trkpt>
      <trkpt lat="46.70814" lon="5.37535">
        <ele>214.6</ele>
        <time>2022-03-14T13:10:14Z</time>
      </trkpt>
      <trkpt lat="46.70767" lon="5.37543">
        <ele>215</ele>
        <time>2022-03-14T13:10:22Z</time>
      </trkpt>
      <trkpt lat="46.70762" lon="5.37543">
        <ele>215.2</ele>
        <time>2022-03-14T13:10:23Z</time>
      </trkpt>
      <trkpt lat="46.70756" lon="5.37543">
        <ele>215.2</ele>
        <time>2022-03-14T13:10:24Z</time>
      </trkpt>
      <trkpt lat="46.70723" lon="5.37543">
        <ele>216.4</ele>
        <time>2022-03-14T13:10:30Z</time>
      </trkpt>
      <trkpt lat="46.70717" lon="5.37543">
        <ele>216.6</ele>
        <time>2022-03-14T13:10:31Z</time>
      </trkpt>
      <trkpt lat="46.70684" lon="5.37537">
        <ele>217.6</ele>
        <time>2022-03-14T13:10:37Z</time>
      </trkpt>
      <trkpt lat="46.70678" lon="5.37535">
        <ele>217.8</ele>
        <time>2022-03-14T13:10:38Z</time>
      </trkpt>
      <trkpt lat="46.70625" lon="5.37518">
        <ele>218.4</ele>
        <time>2022-03-14T13:10:48Z</time>
      </trkpt>
      <trkpt lat="46.7062" lon="5.37516">
        <ele>218.4</ele>
        <time>2022-03-14T13:10:49Z</time>
      </trkpt>
      <trkpt lat="46.70598" lon="5.37509">
        <ele>218.6</ele>
        <time>2022-03-14T13:10:53Z</time>
      </trkpt>
      <trkpt lat="46.70565" lon="5.37496">
        <ele>219.2</ele>
        <time>2022-03-14T13:10:59Z</time>
      </trkpt>
      <trkpt lat="46.70522" lon="5.37481">
        <ele>219.8</ele>
        <time>2022-03-14T13:11:07Z</time>
      </trkpt>
      <trkpt lat="46.70507" lon="5.37477">
        <ele>220.4</ele>
        <time>2022-03-14T13:11:10Z</time>
      </trkpt>
      <trkpt lat="46.70491" lon="5.37471">
        <ele>221</ele>
        <time>2022-03-14T13:11:14Z</time>
      </trkpt>
      <trkpt lat="46.70487" lon="5.3747">
        <ele>221</ele>
        <time>2022-03-14T13:11:15Z</time>
      </trkpt>
      <trkpt lat="46.70483" lon="5.37468">
        <ele>221.2</ele>
        <time>2022-03-14T13:11:16Z</time>
      </trkpt>
      <trkpt lat="46.70461" lon="5.37462">
        <ele>221.4</ele>
        <time>2022-03-14T13:11:20Z</time>
      </trkpt>
      <trkpt lat="46.70442" lon="5.37458">
        <ele>221.8</ele>
        <time>2022-03-14T13:11:24Z</time>
      </trkpt>
      <trkpt lat="46.70439" lon="5.37459">
        <ele>222</ele>
        <time>2022-03-14T13:11:25Z</time>
      </trkpt>
      <trkpt lat="46.70436" lon="5.37461">
        <ele>222</ele>
        <time>2022-03-14T13:11:26Z</time>
      </trkpt>
      <trkpt lat="46.70432" lon="5.37477">
        <ele>222.2</ele>
        <time>2022-03-14T13:11:29Z</time>
      </trkpt>
      <trkpt lat="46.70437" lon="5.3751">
        <ele>222.2</ele>
        <time>2022-03-14T13:11:33Z</time>
      </trkpt>
      <trkpt lat="46.70448" lon="5.37584">
        <ele>222.6</ele>
        <time>2022-03-14T13:11:41Z</time>
      </trkpt>
      <trkpt lat="46.70458" lon="5.37662">
        <ele>222.8</ele>
        <time>2022-03-14T13:11:49Z</time>
      </trkpt>
      <trkpt lat="46.70459" lon="5.3769">
        <ele>223.2</ele>
        <time>2022-03-14T13:11:52Z</time>
      </trkpt>
      <trkpt lat="46.70459" lon="5.37728">
        <ele>223.4</ele>
        <time>2022-03-14T13:11:56Z</time>
      </trkpt>
      <trkpt lat="46.70454" lon="5.37792">
        <ele>223.8</ele>
        <time>2022-03-14T13:12:03Z</time>
      </trkpt>
      <trkpt lat="46.7045" lon="5.37877">
        <ele>224</ele>
        <time>2022-03-14T13:12:12Z</time>
      </trkpt>
      <trkpt lat="46.70447" lon="5.37916">
        <ele>223.4</ele>
        <time>2022-03-14T13:12:16Z</time>
      </trkpt>
      <trkpt lat="46.70444" lon="5.37923">
        <ele>223.4</ele>
        <time>2022-03-14T13:12:17Z</time>
      </trkpt>
      <trkpt lat="46.7044" lon="5.37928">
        <ele>223.2</ele>
        <time>2022-03-14T13:12:18Z</time>
      </trkpt>
      <trkpt lat="46.70434" lon="5.37933">
        <ele>223</ele>
        <time>2022-03-14T13:12:20Z</time>
      </trkpt>
      <trkpt lat="46.7042" lon="5.37937">
        <ele>222.4</ele>
        <time>2022-03-14T13:12:25Z</time>
      </trkpt>
      <trkpt lat="46.70407" lon="5.3794">
        <ele>222</ele>
        <time>2022-03-14T13:12:30Z</time>
      </trkpt>
      <trkpt lat="46.704" lon="5.37941">
        <ele>221.6</ele>
        <time>2022-03-14T13:12:35Z</time>
      </trkpt>
      <trkpt lat="46.70399" lon="5.37941">
        <ele>221.4</ele>
        <time>2022-03-14T13:12:38Z</time>
      </trkpt>
      <trkpt lat="46.70406" lon="5.3794">
        <ele>221.8</ele>
        <time>2022-03-14T13:14:10Z</time>
      </trkpt>
      <trkpt lat="46.7042" lon="5.37936">
        <ele>221.8</ele>
        <time>2022-03-14T13:14:15Z</time>
      </trkpt>
      <trkpt lat="46.70437" lon="5.3793">
        <ele>222</ele>
        <time>2022-03-14T13:14:19Z</time>
      </trkpt>
      <trkpt lat="46.7044" lon="5.37929">
        <ele>222.2</ele>
        <time>2022-03-14T13:14:20Z</time>
      </trkpt>
      <trkpt lat="46.70444" lon="5.3793">
        <ele>222.2</ele>
        <time>2022-03-14T13:14:21Z</time>
      </trkpt>
      <trkpt lat="46.70445" lon="5.37938">
        <ele>222.4</ele>
        <time>2022-03-14T13:14:23Z</time>
      </trkpt>
      <trkpt lat="46.70439" lon="5.37954">
        <ele>222.6</ele>
        <time>2022-03-14T13:14:26Z</time>
      </trkpt>
      <trkpt lat="46.70421" lon="5.37985">
        <ele>222.8</ele>
        <time>2022-03-14T13:14:31Z</time>
      </trkpt>
      <trkpt lat="46.7039" lon="5.38037">
        <ele>223.2</ele>
        <time>2022-03-14T13:14:39Z</time>
      </trkpt>
      <trkpt lat="46.70386" lon="5.38043">
        <ele>223.4</ele>
        <time>2022-03-14T13:14:40Z</time>
      </trkpt>
      <trkpt lat="46.70361" lon="5.38086">
        <ele>223.8</ele>
        <time>2022-03-14T13:14:46Z</time>
      </trkpt>
      <trkpt lat="46.70336" lon="5.38127">
        <ele>224.2</ele>
        <time>2022-03-14T13:14:52Z</time>
      </trkpt>
      <trkpt lat="46.70327" lon="5.38142">
        <ele>224.4</ele>
        <time>2022-03-14T13:14:54Z</time>
      </trkpt>
      <trkpt lat="46.70308" lon="5.38169">
        <ele>224.2</ele>
        <time>2022-03-14T13:14:58Z</time>
      </trkpt>
      <trkpt lat="46.70291" lon="5.38203">
        <ele>224.2</ele>
        <time>2022-03-14T13:15:03Z</time>
      </trkpt>
      <trkpt lat="46.70283" lon="5.38218">
        <ele>224.2</ele>
        <time>2022-03-14T13:15:05Z</time>
      </trkpt>
      <trkpt lat="46.70252" lon="5.38272">
        <ele>224</ele>
        <time>2022-03-14T13:15:13Z</time>
      </trkpt>
      <trkpt lat="46.70231" lon="5.38307">
        <ele>223.6</ele>
        <time>2022-03-14T13:15:20Z</time>
      </trkpt>
      <trkpt lat="46.70231" lon="5.38307">
        <ele>223.4</ele>
        <time>2022-03-14T13:15:23Z</time>
      </trkpt>
      <trkpt lat="46.70228" lon="5.38311">
        <ele>223</ele>
        <time>2022-03-14T13:15:32Z</time>
      </trkpt>
      <trkpt lat="46.70224" lon="5.38317">
        <ele>223</ele>
        <time>2022-03-14T13:15:34Z</time>
      </trkpt>
      <trkpt lat="46.70224" lon="5.38322">
        <ele>223.2</ele>
        <time>2022-03-14T13:15:36Z</time>
      </trkpt>
      <trkpt lat="46.70223" lon="5.38327">
        <ele>223.2</ele>
        <time>2022-03-14T13:15:38Z</time>
      </trkpt>
      <trkpt lat="46.70223" lon="5.38328">
        <ele>223.4</ele>
        <time>2022-03-14T13:15:41Z</time>
      </trkpt>
      <trkpt lat="46.70223" lon="5.38328">
        <ele>223.4</ele>
        <time>2022-03-14T13:15:43Z</time>
      </trkpt>
      <trkpt lat="46.70224" lon="5.38326">
        <ele>223.6</ele>
        <time>2022-03-14T13:16:17Z</time>
      </trkpt>
      <trkpt lat="46.70227" lon="5.38321">
        <ele>223.6</ele>
        <time>2022-03-14T13:16:19Z</time>
      </trkpt>
      <trkpt lat="46.70233" lon="5.38316">
        <ele>223.6</ele>
        <time>2022-03-14T13:16:21Z</time>
      </trkpt>
      <trkpt lat="46.7024" lon="5.38319">
        <ele>223.6</ele>
        <time>2022-03-14T13:16:23Z</time>
      </trkpt>
      <trkpt lat="46.70253" lon="5.38343">
        <ele>223.8</ele>
        <time>2022-03-14T13:16:28Z</time>
      </trkpt>
      <trkpt lat="46.70272" lon="5.38372">
        <ele>224.4</ele>
        <time>2022-03-14T13:16:33Z</time>
      </trkpt>
      <trkpt lat="46.7028" lon="5.38384">
        <ele>224.6</ele>
        <time>2022-03-14T13:16:35Z</time>
      </trkpt>
      <trkpt lat="46.70305" lon="5.38428">
        <ele>225.2</ele>
        <time>2022-03-14T13:16:43Z</time>
      </trkpt>
      <trkpt lat="46.70314" lon="5.38443">
        <ele>225.4</ele>
        <time>2022-03-14T13:16:46Z</time>
      </trkpt>
      <trkpt lat="46.70327" lon="5.38462">
        <ele>225.4</ele>
        <time>2022-03-14T13:16:50Z</time>
      </trkpt>
      <trkpt lat="46.70351" lon="5.38495">
        <ele>225.2</ele>
        <time>2022-03-14T13:16:56Z</time>
      </trkpt>
      <trkpt lat="46.70383" lon="5.38551">
        <ele>224.2</ele>
        <time>2022-03-14T13:17:03Z</time>
      </trkpt>
      <trkpt lat="46.7041" lon="5.38595">
        <ele>222.8</ele>
        <time>2022-03-14T13:17:08Z</time>
      </trkpt>
      <trkpt lat="46.70426" lon="5.38623">
        <ele>221.8</ele>
        <time>2022-03-14T13:17:11Z</time>
      </trkpt>
      <trkpt lat="46.70444" lon="5.3865">
        <ele>220.8</ele>
        <time>2022-03-14T13:17:14Z</time>
      </trkpt>
      <trkpt lat="46.70467" lon="5.38687">
        <ele>219.6</ele>
        <time>2022-03-14T13:17:18Z</time>
      </trkpt>
      <trkpt lat="46.70478" lon="5.38704">
        <ele>219.4</ele>
        <time>2022-03-14T13:17:20Z</time>
      </trkpt>
      <trkpt lat="46.70502" lon="5.38743">
        <ele>218.2</ele>
        <time>2022-03-14T13:17:24Z</time>
      </trkpt>
      <trkpt lat="46.70525" lon="5.3878">
        <ele>217.2</ele>
        <time>2022-03-14T13:17:28Z</time>
      </trkpt>
      <trkpt lat="46.70531" lon="5.38789">
        <ele>217</ele>
        <time>2022-03-14T13:17:29Z</time>
      </trkpt>
      <trkpt lat="46.70537" lon="5.38798">
        <ele>216.8</ele>
        <time>2022-03-14T13:17:30Z</time>
      </trkpt>
      <trkpt lat="46.70554" lon="5.38824">
        <ele>216.2</ele>
        <time>2022-03-14T13:17:33Z</time>
      </trkpt>
      <trkpt lat="46.70582" lon="5.38868">
        <ele>215</ele>
        <time>2022-03-14T13:17:38Z</time>
      </trkpt>
      <trkpt lat="46.70619" lon="5.38927">
        <ele>214.4</ele>
        <time>2022-03-14T13:17:45Z</time>
      </trkpt>
      <trkpt lat="46.70634" lon="5.3895">
        <ele>214.2</ele>
        <time>2022-03-14T13:17:48Z</time>
      </trkpt>
      <trkpt lat="46.7064" lon="5.3896">
        <ele>214</ele>
        <time>2022-03-14T13:17:49Z</time>
      </trkpt>
      <trkpt lat="46.70672" lon="5.3901">
        <ele>213.8</ele>
        <time>2022-03-14T13:17:55Z</time>
      </trkpt>
      <trkpt lat="46.70709" lon="5.39069">
        <ele>213.2</ele>
        <time>2022-03-14T13:18:02Z</time>
      </trkpt>
      <trkpt lat="46.70714" lon="5.39077">
        <ele>213.2</ele>
        <time>2022-03-14T13:18:03Z</time>
      </trkpt>
      <trkpt lat="46.70752" lon="5.39137">
        <ele>212.2</ele>
        <time>2022-03-14T13:18:10Z</time>
      </trkpt>
      <trkpt lat="46.70757" lon="5.39146">
        <ele>211.8</ele>
        <time>2022-03-14T13:18:11Z</time>
      </trkpt>
      <trkpt lat="46.7078" lon="5.39181">
        <ele>211.2</ele>
        <time>2022-03-14T13:18:15Z</time>
      </trkpt>
      <trkpt lat="46.70797" lon="5.39207">
        <ele>210.6</ele>
        <time>2022-03-14T13:18:18Z</time>
      </trkpt>
      <trkpt lat="46.70819" lon="5.39242">
        <ele>209.4</ele>
        <time>2022-03-14T13:18:22Z</time>
      </trkpt>
      <trkpt lat="46.70824" lon="5.3925">
        <ele>209.2</ele>
        <time>2022-03-14T13:18:23Z</time>
      </trkpt>
      <trkpt lat="46.70851" lon="5.39291">
        <ele>208.4</ele>
        <time>2022-03-14T13:18:28Z</time>
      </trkpt>
      <trkpt lat="46.70866" lon="5.39314">
        <ele>208</ele>
        <time>2022-03-14T13:18:31Z</time>
      </trkpt>
      <trkpt lat="46.70872" lon="5.39324">
        <ele>207.8</ele>
        <time>2022-03-14T13:18:32Z</time>
      </trkpt>
      <trkpt lat="46.70909" lon="5.39383">
        <ele>207.4</ele>
        <time>2022-03-14T13:18:39Z</time>
      </trkpt>
      <trkpt lat="46.7093" lon="5.39414">
        <ele>207.4</ele>
        <time>2022-03-14T13:18:43Z</time>
      </trkpt>
      <trkpt lat="46.70935" lon="5.39422">
        <ele>207.4</ele>
        <time>2022-03-14T13:18:44Z</time>
      </trkpt>
      <trkpt lat="46.70969" lon="5.39487">
        <ele>207.4</ele>
        <time>2022-03-14T13:18:52Z</time>
      </trkpt>
      <trkpt lat="46.70997" lon="5.39557">
        <ele>207.4</ele>
        <time>2022-03-14T13:19:00Z</time>
      </trkpt>
      <trkpt lat="46.71" lon="5.39565">
        <ele>207.4</ele>
        <time>2022-03-14T13:19:01Z</time>
      </trkpt>
      <trkpt lat="46.71026" lon="5.39631">
        <ele>207.8</ele>
        <time>2022-03-14T13:19:09Z</time>
      </trkpt>
      <trkpt lat="46.71054" lon="5.39701">
        <ele>208</ele>
        <time>2022-03-14T13:19:18Z</time>
      </trkpt>
      <trkpt lat="46.71058" lon="5.39709">
        <ele>208.2</ele>
        <time>2022-03-14T13:19:19Z</time>
      </trkpt>
      <trkpt lat="46.71087" lon="5.39782">
        <ele>207.8</ele>
        <time>2022-03-14T13:19:28Z</time>
      </trkpt>
      <trkpt lat="46.71094" lon="5.39798">
        <ele>207.8</ele>
        <time>2022-03-14T13:19:30Z</time>
      </trkpt>
      <trkpt lat="46.71123" lon="5.39864">
        <ele>208</ele>
        <time>2022-03-14T13:19:38Z</time>
      </trkpt>
      <trkpt lat="46.71149" lon="5.39923">
        <ele>208.2</ele>
        <time>2022-03-14T13:19:45Z</time>
      </trkpt>
      <trkpt lat="46.71178" lon="5.39993">
        <ele>208.2</ele>
        <time>2022-03-14T13:19:53Z</time>
      </trkpt>
      <trkpt lat="46.71182" lon="5.40002">
        <ele>208.2</ele>
        <time>2022-03-14T13:19:54Z</time>
      </trkpt>
      <trkpt lat="46.71207" lon="5.40073">
        <ele>208.2</ele>
        <time>2022-03-14T13:20:02Z</time>
      </trkpt>
      <trkpt lat="46.7121" lon="5.40081">
        <ele>208.2</ele>
        <time>2022-03-14T13:20:03Z</time>
      </trkpt>
      <trkpt lat="46.71237" lon="5.40151">
        <ele>207.8</ele>
        <time>2022-03-14T13:20:11Z</time>
      </trkpt>
      <trkpt lat="46.71241" lon="5.40159">
        <ele>207.8</ele>
        <time>2022-03-14T13:20:12Z</time>
      </trkpt>
      <trkpt lat="46.71268" lon="5.40226">
        <ele>208.2</ele>
        <time>2022-03-14T13:20:20Z</time>
      </trkpt>
      <trkpt lat="46.71275" lon="5.40243">
        <ele>208.2</ele>
        <time>2022-03-14T13:20:22Z</time>
      </trkpt>
      <trkpt lat="46.71298" lon="5.40299">
        <ele>208.4</ele>
        <time>2022-03-14T13:20:29Z</time>
      </trkpt>
      <trkpt lat="46.71318" lon="5.40347">
        <ele>208.6</ele>
        <time>2022-03-14T13:20:35Z</time>
      </trkpt>
      <trkpt lat="46.71347" lon="5.40418">
        <ele>209</ele>
        <time>2022-03-14T13:20:44Z</time>
      </trkpt>
      <trkpt lat="46.71357" lon="5.4044">
        <ele>209.2</ele>
        <time>2022-03-14T13:20:47Z</time>
      </trkpt>
      <trkpt lat="46.71375" lon="5.40484">
        <ele>209.8</ele>
        <time>2022-03-14T13:20:53Z</time>
      </trkpt>
      <trkpt lat="46.71393" lon="5.40529">
        <ele>210.2</ele>
        <time>2022-03-14T13:20:59Z</time>
      </trkpt>
      <trkpt lat="46.71405" lon="5.4056">
        <ele>210.4</ele>
        <time>2022-03-14T13:21:03Z</time>
      </trkpt>
      <trkpt lat="46.71408" lon="5.40567">
        <ele>210.4</ele>
        <time>2022-03-14T13:21:04Z</time>
      </trkpt>
      <trkpt lat="46.71429" lon="5.40619">
        <ele>210.8</ele>
        <time>2022-03-14T13:21:11Z</time>
      </trkpt>
      <trkpt lat="46.7144" lon="5.40647">
        <ele>211.2</ele>
        <time>2022-03-14T13:21:15Z</time>
      </trkpt>
      <trkpt lat="46.71447" lon="5.40666">
        <ele>211.8</ele>
        <time>2022-03-14T13:21:18Z</time>
      </trkpt>
      <trkpt lat="46.71449" lon="5.40672">
        <ele>212</ele>
        <time>2022-03-14T13:21:19Z</time>
      </trkpt>
      <trkpt lat="46.71451" lon="5.40678">
        <ele>212</ele>
        <time>2022-03-14T13:21:20Z</time>
      </trkpt>
      <trkpt lat="46.71452" lon="5.40684">
        <ele>212.6</ele>
        <time>2022-03-14T13:21:21Z</time>
      </trkpt>
      <trkpt lat="46.71452" lon="5.4069">
        <ele>213</ele>
        <time>2022-03-14T13:21:22Z</time>
      </trkpt>
      <trkpt lat="46.71446" lon="5.40699">
        <ele>213.4</ele>
        <time>2022-03-14T13:21:24Z</time>
      </trkpt>
      <trkpt lat="46.7144" lon="5.40701">
        <ele>213.4</ele>
        <time>2022-03-14T13:21:25Z</time>
      </trkpt>
      <trkpt lat="46.71417" lon="5.40706">
        <ele>213.6</ele>
        <time>2022-03-14T13:21:28Z</time>
      </trkpt>
      <trkpt lat="46.71373" lon="5.40716">
        <ele>212.8</ele>
        <time>2022-03-14T13:21:33Z</time>
      </trkpt>
      <trkpt lat="46.71337" lon="5.40726">
        <ele>211.4</ele>
        <time>2022-03-14T13:21:37Z</time>
      </trkpt>
      <trkpt lat="46.71317" lon="5.4073">
        <ele>210.8</ele>
        <time>2022-03-14T13:21:39Z</time>
      </trkpt>
      <trkpt lat="46.71298" lon="5.40735">
        <ele>210.4</ele>
        <time>2022-03-14T13:21:41Z</time>
      </trkpt>
      <trkpt lat="46.71253" lon="5.40747">
        <ele>209.2</ele>
        <time>2022-03-14T13:21:46Z</time>
      </trkpt>
      <trkpt lat="46.71235" lon="5.40755">
        <ele>209</ele>
        <time>2022-03-14T13:21:48Z</time>
      </trkpt>
      <trkpt lat="46.71199" lon="5.40786">
        <ele>208.4</ele>
        <time>2022-03-14T13:21:53Z</time>
      </trkpt>
      <trkpt lat="46.71172" lon="5.40812">
        <ele>208.2</ele>
        <time>2022-03-14T13:21:57Z</time>
      </trkpt>
      <trkpt lat="46.71145" lon="5.40836">
        <ele>208</ele>
        <time>2022-03-14T13:22:01Z</time>
      </trkpt>
      <trkpt lat="46.71094" lon="5.40885">
        <ele>208.2</ele>
        <time>2022-03-14T13:22:09Z</time>
      </trkpt>
      <trkpt lat="46.71087" lon="5.40891">
        <ele>208.2</ele>
        <time>2022-03-14T13:22:10Z</time>
      </trkpt>
      <trkpt lat="46.71067" lon="5.40909">
        <ele>208.2</ele>
        <time>2022-03-14T13:22:13Z</time>
      </trkpt>
      <trkpt lat="46.71052" lon="5.40915">
        <ele>208.2</ele>
        <time>2022-03-14T13:22:15Z</time>
      </trkpt>
      <trkpt lat="46.71024" lon="5.40916">
        <ele>208.2</ele>
        <time>2022-03-14T13:22:19Z</time>
      </trkpt>
      <trkpt lat="46.71017" lon="5.40916">
        <ele>208.4</ele>
        <time>2022-03-14T13:22:20Z</time>
      </trkpt>
      <trkpt lat="46.71005" lon="5.40916">
        <ele>208.4</ele>
        <time>2022-03-14T13:22:22Z</time>
      </trkpt>
      <trkpt lat="46.70993" lon="5.40916">
        <ele>208.6</ele>
        <time>2022-03-14T13:22:24Z</time>
      </trkpt>
      <trkpt lat="46.7098" lon="5.40916">
        <ele>209.2</ele>
        <time>2022-03-14T13:22:26Z</time>
      </trkpt>
      <trkpt lat="46.70956" lon="5.40915">
        <ele>209.8</ele>
        <time>2022-03-14T13:22:30Z</time>
      </trkpt>
      <trkpt lat="46.7095" lon="5.40915">
        <ele>209.8</ele>
        <time>2022-03-14T13:22:31Z</time>
      </trkpt>
      <trkpt lat="46.70939" lon="5.40917">
        <ele>210.2</ele>
        <time>2022-03-14T13:22:33Z</time>
      </trkpt>
      <trkpt lat="46.70911" lon="5.40927">
        <ele>211</ele>
        <time>2022-03-14T13:22:38Z</time>
      </trkpt>
      <trkpt lat="46.70901" lon="5.4093">
        <ele>211.6</ele>
        <time>2022-03-14T13:22:40Z</time>
      </trkpt>
      <trkpt lat="46.70884" lon="5.40936">
        <ele>212.8</ele>
        <time>2022-03-14T13:22:43Z</time>
      </trkpt>
      <trkpt lat="46.70862" lon="5.40943">
        <ele>213.8</ele>
        <time>2022-03-14T13:22:47Z</time>
      </trkpt>
      <trkpt lat="46.70856" lon="5.40946">
        <ele>214</ele>
        <time>2022-03-14T13:22:48Z</time>
      </trkpt>
      <trkpt lat="46.70839" lon="5.40954">
        <ele>214.8</ele>
        <time>2022-03-14T13:22:51Z</time>
      </trkpt>
      <trkpt lat="46.70833" lon="5.40958">
        <ele>215</ele>
        <time>2022-03-14T13:22:52Z</time>
      </trkpt>
      <trkpt lat="46.70821" lon="5.40968">
        <ele>215.4</ele>
        <time>2022-03-14T13:22:54Z</time>
      </trkpt>
      <trkpt lat="46.70782" lon="5.41009">
        <ele>215.2</ele>
        <time>2022-03-14T13:23:01Z</time>
      </trkpt>
      <trkpt lat="46.70732" lon="5.41054">
        <ele>215.4</ele>
        <time>2022-03-14T13:23:10Z</time>
      </trkpt>
      <trkpt lat="46.70727" lon="5.41058">
        <ele>215.4</ele>
        <time>2022-03-14T13:23:11Z</time>
      </trkpt>
      <trkpt lat="46.70716" lon="5.41067">
        <ele>215.6</ele>
        <time>2022-03-14T13:23:13Z</time>
      </trkpt>
      <trkpt lat="46.70699" lon="5.41079">
        <ele>216</ele>
        <time>2022-03-14T13:23:16Z</time>
      </trkpt>
      <trkpt lat="46.70692" lon="5.41092">
        <ele>216.2</ele>
        <time>2022-03-14T13:23:18Z</time>
      </trkpt>
      <trkpt lat="46.7069" lon="5.411">
        <ele>216.6</ele>
        <time>2022-03-14T13:23:19Z</time>
      </trkpt>
      <trkpt lat="46.70689" lon="5.41109">
        <ele>216.6</ele>
        <time>2022-03-14T13:23:20Z</time>
      </trkpt>
      <trkpt lat="46.70691" lon="5.41127">
        <ele>216.8</ele>
        <time>2022-03-14T13:23:22Z</time>
      </trkpt>
      <trkpt lat="46.70693" lon="5.41135">
        <ele>217</ele>
        <time>2022-03-14T13:23:23Z</time>
      </trkpt>
      <trkpt lat="46.70705" lon="5.4117">
        <ele>218</ele>
        <time>2022-03-14T13:23:27Z</time>
      </trkpt>
      <trkpt lat="46.70708" lon="5.41179">
        <ele>218.2</ele>
        <time>2022-03-14T13:23:28Z</time>
      </trkpt>
      <trkpt lat="46.70722" lon="5.41214">
        <ele>218.4</ele>
        <time>2022-03-14T13:23:32Z</time>
      </trkpt>
      <trkpt lat="46.70728" lon="5.41233">
        <ele>218.4</ele>
        <time>2022-03-14T13:23:34Z</time>
      </trkpt>
      <trkpt lat="46.70759" lon="5.41309">
        <ele>218</ele>
        <time>2022-03-14T13:23:42Z</time>
      </trkpt>
      <trkpt lat="46.70781" lon="5.41362">
        <ele>217</ele>
        <time>2022-03-14T13:23:47Z</time>
      </trkpt>
      <trkpt lat="46.70786" lon="5.41373">
        <ele>216.6</ele>
        <time>2022-03-14T13:23:48Z</time>
      </trkpt>
      <trkpt lat="46.70796" lon="5.41397">
        <ele>215.8</ele>
        <time>2022-03-14T13:23:50Z</time>
      </trkpt>
      <trkpt lat="46.70811" lon="5.41434">
        <ele>214.6</ele>
        <time>2022-03-14T13:23:53Z</time>
      </trkpt>
      <trkpt lat="46.70823" lon="5.41457">
        <ele>213.6</ele>
        <time>2022-03-14T13:23:55Z</time>
      </trkpt>
      <trkpt lat="46.70842" lon="5.4149">
        <ele>212</ele>
        <time>2022-03-14T13:23:58Z</time>
      </trkpt>
      <trkpt lat="46.70848" lon="5.415">
        <ele>211.8</ele>
        <time>2022-03-14T13:23:59Z</time>
      </trkpt>
      <trkpt lat="46.70867" lon="5.41529">
        <ele>210.8</ele>
        <time>2022-03-14T13:24:02Z</time>
      </trkpt>
      <trkpt lat="46.70884" lon="5.41559">
        <ele>209.8</ele>
        <time>2022-03-14T13:24:05Z</time>
      </trkpt>
      <trkpt lat="46.70887" lon="5.41571">
        <ele>209.6</ele>
        <time>2022-03-14T13:24:06Z</time>
      </trkpt>
      <trkpt lat="46.7089" lon="5.41582">
        <ele>209</ele>
        <time>2022-03-14T13:24:07Z</time>
      </trkpt>
      <trkpt lat="46.70893" lon="5.41606">
        <ele>208.8</ele>
        <time>2022-03-14T13:24:09Z</time>
      </trkpt>
      <trkpt lat="46.70893" lon="5.4163">
        <ele>208.8</ele>
        <time>2022-03-14T13:24:11Z</time>
      </trkpt>
      <trkpt lat="46.70892" lon="5.41665">
        <ele>208.6</ele>
        <time>2022-03-14T13:24:14Z</time>
      </trkpt>
      <trkpt lat="46.7089" lon="5.41745">
        <ele>207.8</ele>
        <time>2022-03-14T13:24:21Z</time>
      </trkpt>
      <trkpt lat="46.70889" lon="5.41756">
        <ele>207.6</ele>
        <time>2022-03-14T13:24:22Z</time>
      </trkpt>
      <trkpt lat="46.70887" lon="5.41767">
        <ele>207.4</ele>
        <time>2022-03-14T13:24:23Z</time>
      </trkpt>
      <trkpt lat="46.70872" lon="5.41854">
        <ele>207.6</ele>
        <time>2022-03-14T13:24:31Z</time>
      </trkpt>
      <trkpt lat="46.7087" lon="5.41865">
        <ele>207.6</ele>
        <time>2022-03-14T13:24:32Z</time>
      </trkpt>
      <trkpt lat="46.70858" lon="5.4195">
        <ele>208</ele>
        <time>2022-03-14T13:24:40Z</time>
      </trkpt>
      <trkpt lat="46.70846" lon="5.42028">
        <ele>208.4</ele>
        <time>2022-03-14T13:24:48Z</time>
      </trkpt>
      <trkpt lat="46.70843" lon="5.42038">
        <ele>208.6</ele>
        <time>2022-03-14T13:24:49Z</time>
      </trkpt>
      <trkpt lat="46.70838" lon="5.42057">
        <ele>208.8</ele>
        <time>2022-03-14T13:24:51Z</time>
      </trkpt>
      <trkpt lat="46.70823" lon="5.42101">
        <ele>209</ele>
        <time>2022-03-14T13:24:56Z</time>
      </trkpt>
      <trkpt lat="46.70798" lon="5.42158">
        <ele>209.8</ele>
        <time>2022-03-14T13:25:03Z</time>
      </trkpt>
      <trkpt lat="46.70791" lon="5.42175">
        <ele>210</ele>
        <time>2022-03-14T13:25:05Z</time>
      </trkpt>
      <trkpt lat="46.70767" lon="5.42228">
        <ele>211.2</ele>
        <time>2022-03-14T13:25:12Z</time>
      </trkpt>
      <trkpt lat="46.7075" lon="5.42269">
        <ele>212.2</ele>
        <time>2022-03-14T13:25:18Z</time>
      </trkpt>
      <trkpt lat="46.70737" lon="5.42301">
        <ele>213.4</ele>
        <time>2022-03-14T13:25:23Z</time>
      </trkpt>
      <trkpt lat="46.70725" lon="5.42327">
        <ele>214.4</ele>
        <time>2022-03-14T13:25:27Z</time>
      </trkpt>
      <trkpt lat="46.70722" lon="5.42334">
        <ele>214.8</ele>
        <time>2022-03-14T13:25:28Z</time>
      </trkpt>
      <trkpt lat="46.70705" lon="5.42372">
        <ele>215.4</ele>
        <time>2022-03-14T13:25:33Z</time>
      </trkpt>
      <trkpt lat="46.70702" lon="5.42381">
        <ele>215.4</ele>
        <time>2022-03-14T13:25:34Z</time>
      </trkpt>
      <trkpt lat="46.70675" lon="5.4244">
        <ele>215</ele>
        <time>2022-03-14T13:25:41Z</time>
      </trkpt>
      <trkpt lat="46.70652" lon="5.42493">
        <ele>214.2</ele>
        <time>2022-03-14T13:25:47Z</time>
      </trkpt>
      <trkpt lat="46.70638" lon="5.42526">
        <ele>214</ele>
        <time>2022-03-14T13:25:51Z</time>
      </trkpt>
      <trkpt lat="46.70624" lon="5.42559">
        <ele>213.8</ele>
        <time>2022-03-14T13:25:56Z</time>
      </trkpt>
      <trkpt lat="46.70622" lon="5.42566">
        <ele>213.6</ele>
        <time>2022-03-14T13:25:58Z</time>
      </trkpt>
      <trkpt lat="46.70622" lon="5.42571">
        <ele>213.6</ele>
        <time>2022-03-14T13:25:59Z</time>
      </trkpt>
      <trkpt lat="46.70633" lon="5.42591">
        <ele>213.4</ele>
        <time>2022-03-14T13:26:03Z</time>
      </trkpt>
      <trkpt lat="46.70651" lon="5.42617">
        <ele>213.4</ele>
        <time>2022-03-14T13:26:07Z</time>
      </trkpt>
      <trkpt lat="46.70655" lon="5.42625">
        <ele>213.4</ele>
        <time>2022-03-14T13:26:08Z</time>
      </trkpt>
      <trkpt lat="46.70691" lon="5.42676">
        <ele>214</ele>
        <time>2022-03-14T13:26:15Z</time>
      </trkpt>
      <trkpt lat="46.70732" lon="5.42738">
        <ele>214</ele>
        <time>2022-03-14T13:26:23Z</time>
      </trkpt>
      <trkpt lat="46.70738" lon="5.42746">
        <ele>214</ele>
        <time>2022-03-14T13:26:24Z</time>
      </trkpt>
      <trkpt lat="46.70776" lon="5.42804">
        <ele>213.6</ele>
        <time>2022-03-14T13:26:31Z</time>
      </trkpt>
      <trkpt lat="46.70792" lon="5.42829">
        <ele>213.2</ele>
        <time>2022-03-14T13:26:34Z</time>
      </trkpt>
      <trkpt lat="46.70808" lon="5.42854">
        <ele>212.4</ele>
        <time>2022-03-14T13:26:37Z</time>
      </trkpt>
      <trkpt lat="46.70841" lon="5.42903">
        <ele>211.6</ele>
        <time>2022-03-14T13:26:43Z</time>
      </trkpt>
      <trkpt lat="46.70852" lon="5.42919">
        <ele>211.4</ele>
        <time>2022-03-14T13:26:45Z</time>
      </trkpt>
      <trkpt lat="46.70891" lon="5.42975">
        <ele>211</ele>
        <time>2022-03-14T13:26:52Z</time>
      </trkpt>
      <trkpt lat="46.70896" lon="5.42983">
        <ele>210.8</ele>
        <time>2022-03-14T13:26:53Z</time>
      </trkpt>
      <trkpt lat="46.70917" lon="5.43014">
        <ele>210.4</ele>
        <time>2022-03-14T13:26:57Z</time>
      </trkpt>
      <trkpt lat="46.70937" lon="5.43043">
        <ele>210.2</ele>
        <time>2022-03-14T13:27:01Z</time>
      </trkpt>
      <trkpt lat="46.70976" lon="5.43102">
        <ele>210.4</ele>
        <time>2022-03-14T13:27:09Z</time>
      </trkpt>
      <trkpt lat="46.71009" lon="5.43151">
        <ele>210.8</ele>
        <time>2022-03-14T13:27:16Z</time>
      </trkpt>
      <trkpt lat="46.7104" lon="5.43199">
        <ele>211.4</ele>
        <time>2022-03-14T13:27:23Z</time>
      </trkpt>
      <trkpt lat="46.71053" lon="5.43219">
        <ele>211.8</ele>
        <time>2022-03-14T13:27:26Z</time>
      </trkpt>
      <trkpt lat="46.71087" lon="5.43271">
        <ele>212.4</ele>
        <time>2022-03-14T13:27:34Z</time>
      </trkpt>
      <trkpt lat="46.71125" lon="5.43323">
        <ele>212.6</ele>
        <time>2022-03-14T13:27:41Z</time>
      </trkpt>
      <trkpt lat="46.71129" lon="5.4333">
        <ele>212.6</ele>
        <time>2022-03-14T13:27:42Z</time>
      </trkpt>
      <trkpt lat="46.71165" lon="5.43386">
        <ele>212.8</ele>
        <time>2022-03-14T13:27:50Z</time>
      </trkpt>
      <trkpt lat="46.71191" lon="5.43425">
        <ele>213.2</ele>
        <time>2022-03-14T13:27:56Z</time>
      </trkpt>
      <trkpt lat="46.71199" lon="5.43438">
        <ele>213.4</ele>
        <time>2022-03-14T13:27:58Z</time>
      </trkpt>
      <trkpt lat="46.71209" lon="5.43451">
        <ele>213.6</ele>
        <time>2022-03-14T13:28:00Z</time>
      </trkpt>
      <trkpt lat="46.71222" lon="5.43471">
        <ele>213.8</ele>
        <time>2022-03-14T13:28:03Z</time>
      </trkpt>
      <trkpt lat="46.71239" lon="5.43498">
        <ele>214.2</ele>
        <time>2022-03-14T13:28:07Z</time>
      </trkpt>
      <trkpt lat="46.71271" lon="5.43544">
        <ele>214.8</ele>
        <time>2022-03-14T13:28:14Z</time>
      </trkpt>
      <trkpt lat="46.71279" lon="5.43557">
        <ele>214.8</ele>
        <time>2022-03-14T13:28:16Z</time>
      </trkpt>
      <trkpt lat="46.71313" lon="5.43605">
        <ele>215</ele>
        <time>2022-03-14T13:28:23Z</time>
      </trkpt>
      <trkpt lat="46.71345" lon="5.43652">
        <ele>214.6</ele>
        <time>2022-03-14T13:28:29Z</time>
      </trkpt>
      <trkpt lat="46.71385" lon="5.43709">
        <ele>213.8</ele>
        <time>2022-03-14T13:28:36Z</time>
      </trkpt>
      <trkpt lat="46.71396" lon="5.43725">
        <ele>213.6</ele>
        <time>2022-03-14T13:28:38Z</time>
      </trkpt>
      <trkpt lat="46.71416" lon="5.43755">
        <ele>213.4</ele>
        <time>2022-03-14T13:28:42Z</time>
      </trkpt>
      <trkpt lat="46.71444" lon="5.43799">
        <ele>213.4</ele>
        <time>2022-03-14T13:28:48Z</time>
      </trkpt>
      <trkpt lat="46.71476" lon="5.43849">
        <ele>213.4</ele>
        <time>2022-03-14T13:28:55Z</time>
      </trkpt>
      <trkpt lat="46.71507" lon="5.43898">
        <ele>214</ele>
        <time>2022-03-14T13:29:02Z</time>
      </trkpt>
      <trkpt lat="46.71536" lon="5.43946">
        <ele>214.6</ele>
        <time>2022-03-14T13:29:09Z</time>
      </trkpt>
      <trkpt lat="46.71546" lon="5.4396">
        <ele>215</ele>
        <time>2022-03-14T13:29:11Z</time>
      </trkpt>
      <trkpt lat="46.71558" lon="5.4398">
        <ele>215.8</ele>
        <time>2022-03-14T13:29:14Z</time>
      </trkpt>
      <trkpt lat="46.71579" lon="5.44012">
        <ele>216.4</ele>
        <time>2022-03-14T13:29:19Z</time>
      </trkpt>
      <trkpt lat="46.71603" lon="5.44047">
        <ele>217</ele>
        <time>2022-03-14T13:29:25Z</time>
      </trkpt>
      <trkpt lat="46.71633" lon="5.44092">
        <ele>217.6</ele>
        <time>2022-03-14T13:29:32Z</time>
      </trkpt>
      <trkpt lat="46.7167" lon="5.44149">
        <ele>217.4</ele>
        <time>2022-03-14T13:29:40Z</time>
      </trkpt>
      <trkpt lat="46.71676" lon="5.44157">
        <ele>217.2</ele>
        <time>2022-03-14T13:29:41Z</time>
      </trkpt>
      <trkpt lat="46.71681" lon="5.44165">
        <ele>217</ele>
        <time>2022-03-14T13:29:42Z</time>
      </trkpt>
      <trkpt lat="46.71712" lon="5.44213">
        <ele>215.8</ele>
        <time>2022-03-14T13:29:48Z</time>
      </trkpt>
      <trkpt lat="46.71739" lon="5.44253">
        <ele>214.8</ele>
        <time>2022-03-14T13:29:53Z</time>
      </trkpt>
      <trkpt lat="46.71765" lon="5.44291">
        <ele>214.4</ele>
        <time>2022-03-14T13:29:58Z</time>
      </trkpt>
      <trkpt lat="46.71781" lon="5.44311">
        <ele>214</ele>
        <time>2022-03-14T13:30:01Z</time>
      </trkpt>
      <trkpt lat="46.71793" lon="5.44322">
        <ele>213.6</ele>
        <time>2022-03-14T13:30:03Z</time>
      </trkpt>
      <trkpt lat="46.71799" lon="5.44327">
        <ele>213.4</ele>
        <time>2022-03-14T13:30:04Z</time>
      </trkpt>
      <trkpt lat="46.7182" lon="5.44336">
        <ele>212.8</ele>
        <time>2022-03-14T13:30:07Z</time>
      </trkpt>
      <trkpt lat="46.71827" lon="5.44339">
        <ele>212.6</ele>
        <time>2022-03-14T13:30:08Z</time>
      </trkpt>
      <trkpt lat="46.71885" lon="5.44359">
        <ele>211.6</ele>
        <time>2022-03-14T13:30:16Z</time>
      </trkpt>
      <trkpt lat="46.719" lon="5.44364">
        <ele>211.4</ele>
        <time>2022-03-14T13:30:18Z</time>
      </trkpt>
      <trkpt lat="46.71958" lon="5.44384">
        <ele>211.6</ele>
        <time>2022-03-14T13:30:26Z</time>
      </trkpt>
      <trkpt lat="46.71973" lon="5.4439">
        <ele>211.6</ele>
        <time>2022-03-14T13:30:28Z</time>
      </trkpt>
      <trkpt lat="46.72031" lon="5.4441">
        <ele>211.8</ele>
        <time>2022-03-14T13:30:36Z</time>
      </trkpt>
      <trkpt lat="46.72046" lon="5.44415">
        <ele>211.8</ele>
        <time>2022-03-14T13:30:38Z</time>
      </trkpt>
      <trkpt lat="46.72105" lon="5.44435">
        <ele>211.6</ele>
        <time>2022-03-14T13:30:46Z</time>
      </trkpt>
      <trkpt lat="46.72127" lon="5.44443">
        <ele>211.6</ele>
        <time>2022-03-14T13:30:49Z</time>
      </trkpt>
      <trkpt lat="46.72186" lon="5.44464">
        <ele>211.4</ele>
        <time>2022-03-14T13:30:57Z</time>
      </trkpt>
      <trkpt lat="46.72215" lon="5.44474">
        <ele>211.4</ele>
        <time>2022-03-14T13:31:01Z</time>
      </trkpt>
      <trkpt lat="46.72266" lon="5.44486">
        <ele>211.2</ele>
        <time>2022-03-14T13:31:08Z</time>
      </trkpt>
      <trkpt lat="46.72324" lon="5.44485">
        <ele>211.6</ele>
        <time>2022-03-14T13:31:16Z</time>
      </trkpt>
      <trkpt lat="46.72331" lon="5.44485">
        <ele>211.6</ele>
        <time>2022-03-14T13:31:17Z</time>
      </trkpt>
      <trkpt lat="46.72389" lon="5.44481">
        <ele>211.8</ele>
        <time>2022-03-14T13:31:25Z</time>
      </trkpt>
      <trkpt lat="46.72396" lon="5.4448">
        <ele>211.8</ele>
        <time>2022-03-14T13:31:26Z</time>
      </trkpt>
      <trkpt lat="46.72447" lon="5.44476">
        <ele>211.2</ele>
        <time>2022-03-14T13:31:33Z</time>
      </trkpt>
      <trkpt lat="46.72461" lon="5.44471">
        <ele>211.2</ele>
        <time>2022-03-14T13:31:35Z</time>
      </trkpt>
      <trkpt lat="46.72475" lon="5.44462">
        <ele>211.2</ele>
        <time>2022-03-14T13:31:37Z</time>
      </trkpt>
      <trkpt lat="46.72524" lon="5.44417">
        <ele>211.2</ele>
        <time>2022-03-14T13:31:45Z</time>
      </trkpt>
      <trkpt lat="46.7253" lon="5.44411">
        <ele>211.2</ele>
        <time>2022-03-14T13:31:46Z</time>
      </trkpt>
      <trkpt lat="46.72554" lon="5.44389">
        <ele>211.2</ele>
        <time>2022-03-14T13:31:50Z</time>
      </trkpt>
      <trkpt lat="46.72561" lon="5.44386">
        <ele>211.2</ele>
        <time>2022-03-14T13:31:51Z</time>
      </trkpt>
      <trkpt lat="46.72568" lon="5.44385">
        <ele>211.2</ele>
        <time>2022-03-14T13:31:52Z</time>
      </trkpt>
      <trkpt lat="46.72582" lon="5.44387">
        <ele>211.2</ele>
        <time>2022-03-14T13:31:54Z</time>
      </trkpt>
      <trkpt lat="46.72589" lon="5.44389">
        <ele>211.2</ele>
        <time>2022-03-14T13:31:55Z</time>
      </trkpt>
      <trkpt lat="46.72596" lon="5.44394">
        <ele>211.2</ele>
        <time>2022-03-14T13:31:56Z</time>
      </trkpt>
      <trkpt lat="46.72615" lon="5.44411">
        <ele>211.2</ele>
        <time>2022-03-14T13:31:59Z</time>
      </trkpt>
      <trkpt lat="46.72648" lon="5.44454">
        <ele>211.2</ele>
        <time>2022-03-14T13:32:05Z</time>
      </trkpt>
      <trkpt lat="46.72675" lon="5.44504">
        <ele>211.2</ele>
        <time>2022-03-14T13:32:11Z</time>
      </trkpt>
      <trkpt lat="46.72707" lon="5.44571">
        <ele>211.6</ele>
        <time>2022-03-14T13:32:19Z</time>
      </trkpt>
      <trkpt lat="46.72711" lon="5.44579">
        <ele>211.6</ele>
        <time>2022-03-14T13:32:20Z</time>
      </trkpt>
      <trkpt lat="46.72742" lon="5.44644">
        <ele>211.4</ele>
        <time>2022-03-14T13:32:28Z</time>
      </trkpt>
      <trkpt lat="46.72773" lon="5.44695">
        <ele>211.2</ele>
        <time>2022-03-14T13:32:35Z</time>
      </trkpt>
      <trkpt lat="46.72799" lon="5.44736">
        <ele>211.8</ele>
        <time>2022-03-14T13:32:41Z</time>
      </trkpt>
      <trkpt lat="46.7284" lon="5.44794">
        <ele>211.6</ele>
        <time>2022-03-14T13:32:50Z</time>
      </trkpt>
      <trkpt lat="46.72881" lon="5.44853">
        <ele>211.8</ele>
        <time>2022-03-14T13:32:59Z</time>
      </trkpt>
      <trkpt lat="46.72894" lon="5.44872">
        <ele>211.8</ele>
        <time>2022-03-14T13:33:02Z</time>
      </trkpt>
      <trkpt lat="46.72924" lon="5.44916">
        <ele>211.6</ele>
        <time>2022-03-14T13:33:09Z</time>
      </trkpt>
      <trkpt lat="46.72951" lon="5.44941">
        <ele>211.8</ele>
        <time>2022-03-14T13:33:14Z</time>
      </trkpt>
      <trkpt lat="46.72988" lon="5.44958">
        <ele>211.8</ele>
        <time>2022-03-14T13:33:20Z</time>
      </trkpt>
      <trkpt lat="46.73038" lon="5.44981">
        <ele>212.2</ele>
        <time>2022-03-14T13:33:28Z</time>
      </trkpt>
      <trkpt lat="46.73055" lon="5.44995">
        <ele>212.2</ele>
        <time>2022-03-14T13:33:31Z</time>
      </trkpt>
      <trkpt lat="46.73065" lon="5.45008">
        <ele>212</ele>
        <time>2022-03-14T13:33:33Z</time>
      </trkpt>
      <trkpt lat="46.73073" lon="5.45023">
        <ele>211.8</ele>
        <time>2022-03-14T13:33:35Z</time>
      </trkpt>
      <trkpt lat="46.73083" lon="5.45048">
        <ele>211.4</ele>
        <time>2022-03-14T13:33:38Z</time>
      </trkpt>
      <trkpt lat="46.73105" lon="5.45107">
        <ele>211.4</ele>
        <time>2022-03-14T13:33:45Z</time>
      </trkpt>
      <trkpt lat="46.73127" lon="5.45177">
        <ele>212</ele>
        <time>2022-03-14T13:33:53Z</time>
      </trkpt>
      <trkpt lat="46.7315" lon="5.45254">
        <ele>212.4</ele>
        <time>2022-03-14T13:34:02Z</time>
      </trkpt>
      <trkpt lat="46.73153" lon="5.45263">
        <ele>212.4</ele>
        <time>2022-03-14T13:34:03Z</time>
      </trkpt>
      <trkpt lat="46.73184" lon="5.45335">
        <ele>212.6</ele>
        <time>2022-03-14T13:34:12Z</time>
      </trkpt>
      <trkpt lat="46.73217" lon="5.45407">
        <ele>212.4</ele>
        <time>2022-03-14T13:34:21Z</time>
      </trkpt>
      <trkpt lat="46.73225" lon="5.45423">
        <ele>212.4</ele>
        <time>2022-03-14T13:34:23Z</time>
      </trkpt>
      <trkpt lat="46.73253" lon="5.45477">
        <ele>212.8</ele>
        <time>2022-03-14T13:34:30Z</time>
      </trkpt>
      <trkpt lat="46.73256" lon="5.45485">
        <ele>212.6</ele>
        <time>2022-03-14T13:34:31Z</time>
      </trkpt>
      <trkpt lat="46.73272" lon="5.4556">
        <ele>211.6</ele>
        <time>2022-03-14T13:34:39Z</time>
      </trkpt>
      <trkpt lat="46.73281" lon="5.45645">
        <ele>212</ele>
        <time>2022-03-14T13:34:48Z</time>
      </trkpt>
      <trkpt lat="46.73286" lon="5.45682">
        <ele>212.2</ele>
        <time>2022-03-14T13:34:52Z</time>
      </trkpt>
      <trkpt lat="46.73292" lon="5.45699">
        <ele>212.2</ele>
        <time>2022-03-14T13:34:54Z</time>
      </trkpt>
      <trkpt lat="46.73309" lon="5.45729">
        <ele>212.2</ele>
        <time>2022-03-14T13:34:58Z</time>
      </trkpt>
      <trkpt lat="46.73348" lon="5.45771">
        <ele>212.2</ele>
        <time>2022-03-14T13:35:05Z</time>
      </trkpt>
      <trkpt lat="46.73396" lon="5.45819">
        <ele>212.6</ele>
        <time>2022-03-14T13:35:14Z</time>
      </trkpt>
      <trkpt lat="46.73431" lon="5.45858">
        <ele>212.2</ele>
        <time>2022-03-14T13:35:21Z</time>
      </trkpt>
      <trkpt lat="46.73459" lon="5.45894">
        <ele>212.6</ele>
        <time>2022-03-14T13:35:27Z</time>
      </trkpt>
      <trkpt lat="46.73466" lon="5.45909">
        <ele>212.6</ele>
        <time>2022-03-14T13:35:29Z</time>
      </trkpt>
      <trkpt lat="46.73479" lon="5.45958">
        <ele>212.8</ele>
        <time>2022-03-14T13:35:35Z</time>
      </trkpt>
      <trkpt lat="46.73481" lon="5.45967">
        <ele>212.8</ele>
        <time>2022-03-14T13:35:36Z</time>
      </trkpt>
      <trkpt lat="46.73494" lon="5.45989">
        <ele>213.2</ele>
        <time>2022-03-14T13:35:39Z</time>
      </trkpt>
      <trkpt lat="46.73504" lon="5.46003">
        <ele>213.2</ele>
        <time>2022-03-14T13:35:41Z</time>
      </trkpt>
      <trkpt lat="46.73512" lon="5.46019">
        <ele>213.2</ele>
        <time>2022-03-14T13:35:43Z</time>
      </trkpt>
      <trkpt lat="46.73541" lon="5.46075">
        <ele>213.4</ele>
        <time>2022-03-14T13:35:50Z</time>
      </trkpt>
      <trkpt lat="46.73571" lon="5.46126">
        <ele>213.8</ele>
        <time>2022-03-14T13:35:57Z</time>
      </trkpt>
      <trkpt lat="46.73611" lon="5.4617">
        <ele>214</ele>
        <time>2022-03-14T13:36:05Z</time>
      </trkpt>
      <trkpt lat="46.73645" lon="5.4621">
        <ele>213.8</ele>
        <time>2022-03-14T13:36:12Z</time>
      </trkpt>
      <trkpt lat="46.73649" lon="5.46217">
        <ele>213.8</ele>
        <time>2022-03-14T13:36:13Z</time>
      </trkpt>
      <trkpt lat="46.73666" lon="5.46256">
        <ele>213.6</ele>
        <time>2022-03-14T13:36:18Z</time>
      </trkpt>
      <trkpt lat="46.73677" lon="5.46288">
        <ele>213.6</ele>
        <time>2022-03-14T13:36:22Z</time>
      </trkpt>
      <trkpt lat="46.73683" lon="5.46314">
        <ele>213.6</ele>
        <time>2022-03-14T13:36:25Z</time>
      </trkpt>
      <trkpt lat="46.73689" lon="5.46365">
        <ele>213.8</ele>
        <time>2022-03-14T13:36:31Z</time>
      </trkpt>
      <trkpt lat="46.73691" lon="5.46402">
        <ele>214.2</ele>
        <time>2022-03-14T13:36:36Z</time>
      </trkpt>
      <trkpt lat="46.73692" lon="5.4642">
        <ele>214.2</ele>
        <time>2022-03-14T13:36:40Z</time>
      </trkpt>
      <trkpt lat="46.73686" lon="5.46439">
        <ele>214</ele>
        <time>2022-03-14T13:36:44Z</time>
      </trkpt>
      <trkpt lat="46.73681" lon="5.46452">
        <ele>214</ele>
        <time>2022-03-14T13:36:46Z</time>
      </trkpt>
      <trkpt lat="46.73676" lon="5.46468">
        <ele>214</ele>
        <time>2022-03-14T13:36:48Z</time>
      </trkpt>
      <trkpt lat="46.73673" lon="5.46483">
        <ele>214</ele>
        <time>2022-03-14T13:36:50Z</time>
      </trkpt>
      <trkpt lat="46.73671" lon="5.465">
        <ele>214</ele>
        <time>2022-03-14T13:36:52Z</time>
      </trkpt>
      <trkpt lat="46.73671" lon="5.4651">
        <ele>214</ele>
        <time>2022-03-14T13:36:53Z</time>
      </trkpt>
      <trkpt lat="46.73678" lon="5.46559">
        <ele>214</ele>
        <time>2022-03-14T13:36:58Z</time>
      </trkpt>
      <trkpt lat="46.73683" lon="5.46598">
        <ele>214.4</ele>
        <time>2022-03-14T13:37:03Z</time>
      </trkpt>
      <trkpt lat="46.73685" lon="5.46612">
        <ele>214.4</ele>
        <time>2022-03-14T13:37:07Z</time>
      </trkpt>
      <trkpt lat="46.73686" lon="5.46638">
        <ele>214.4</ele>
        <time>2022-03-14T13:37:11Z</time>
      </trkpt>
      <trkpt lat="46.73687" lon="5.46682">
        <ele>214.4</ele>
        <time>2022-03-14T13:37:16Z</time>
      </trkpt>
      <trkpt lat="46.73688" lon="5.46729">
        <ele>214.8</ele>
        <time>2022-03-14T13:37:21Z</time>
      </trkpt>
      <trkpt lat="46.73688" lon="5.46749">
        <ele>214.8</ele>
        <time>2022-03-14T13:37:23Z</time>
      </trkpt>
      <trkpt lat="46.73688" lon="5.46778">
        <ele>214.8</ele>
        <time>2022-03-14T13:37:26Z</time>
      </trkpt>
      <trkpt lat="46.73688" lon="5.46808">
        <ele>214.8</ele>
        <time>2022-03-14T13:37:29Z</time>
      </trkpt>
      <trkpt lat="46.73689" lon="5.46893">
        <ele>215.2</ele>
        <time>2022-03-14T13:37:38Z</time>
      </trkpt>
      <trkpt lat="46.7369" lon="5.46902">
        <ele>215.4</ele>
        <time>2022-03-14T13:37:39Z</time>
      </trkpt>
      <trkpt lat="46.73689" lon="5.46919">
        <ele>215.8</ele>
        <time>2022-03-14T13:37:41Z</time>
      </trkpt>
      <trkpt lat="46.73687" lon="5.4693">
        <ele>216</ele>
        <time>2022-03-14T13:37:43Z</time>
      </trkpt>
      <trkpt lat="46.7368" lon="5.46945">
        <ele>216</ele>
        <time>2022-03-14T13:37:47Z</time>
      </trkpt>
      <trkpt lat="46.73679" lon="5.4695">
        <ele>216</ele>
        <time>2022-03-14T13:37:48Z</time>
      </trkpt>
      <trkpt lat="46.73684" lon="5.46959">
        <ele>216.2</ele>
        <time>2022-03-14T13:37:50Z</time>
      </trkpt>
      <trkpt lat="46.73688" lon="5.46963">
        <ele>216.2</ele>
        <time>2022-03-14T13:37:51Z</time>
      </trkpt>
      <trkpt lat="46.73693" lon="5.46974">
        <ele>216</ele>
        <time>2022-03-14T13:37:53Z</time>
      </trkpt>
      <trkpt lat="46.73697" lon="5.47015">
        <ele>216</ele>
        <time>2022-03-14T13:37:58Z</time>
      </trkpt>
      <trkpt lat="46.73713" lon="5.47082">
        <ele>216.4</ele>
        <time>2022-03-14T13:38:06Z</time>
      </trkpt>
      <trkpt lat="46.73727" lon="5.47163">
        <ele>216.4</ele>
        <time>2022-03-14T13:38:15Z</time>
      </trkpt>
      <trkpt lat="46.73728" lon="5.47172">
        <ele>216.4</ele>
        <time>2022-03-14T13:38:16Z</time>
      </trkpt>
      <trkpt lat="46.73733" lon="5.47207">
        <ele>216.8</ele>
        <time>2022-03-14T13:38:20Z</time>
      </trkpt>
      <trkpt lat="46.73737" lon="5.47234">
        <ele>216.8</ele>
        <time>2022-03-14T13:38:23Z</time>
      </trkpt>
      <trkpt lat="46.73748" lon="5.47321">
        <ele>217.2</ele>
        <time>2022-03-14T13:38:32Z</time>
      </trkpt>
      <trkpt lat="46.73759" lon="5.47401">
        <ele>218</ele>
        <time>2022-03-14T13:38:40Z</time>
      </trkpt>
      <trkpt lat="46.73761" lon="5.47412">
        <ele>218</ele>
        <time>2022-03-14T13:38:41Z</time>
      </trkpt>
      <trkpt lat="46.73762" lon="5.47422">
        <ele>218</ele>
        <time>2022-03-14T13:38:42Z</time>
      </trkpt>
      <trkpt lat="46.73772" lon="5.47507">
        <ele>218.2</ele>
        <time>2022-03-14T13:38:50Z</time>
      </trkpt>
      <trkpt lat="46.73775" lon="5.47528">
        <ele>218.2</ele>
        <time>2022-03-14T13:38:52Z</time>
      </trkpt>
      <trkpt lat="46.73784" lon="5.47614">
        <ele>218.2</ele>
        <time>2022-03-14T13:39:00Z</time>
      </trkpt>
      <trkpt lat="46.73787" lon="5.47636">
        <ele>218.4</ele>
        <time>2022-03-14T13:39:02Z</time>
      </trkpt>
      <trkpt lat="46.73795" lon="5.47723">
        <ele>218.6</ele>
        <time>2022-03-14T13:39:10Z</time>
      </trkpt>
      <trkpt lat="46.73797" lon="5.47745">
        <ele>218.4</ele>
        <time>2022-03-14T13:39:12Z</time>
      </trkpt>
      <trkpt lat="46.73806" lon="5.47833">
        <ele>219.2</ele>
        <time>2022-03-14T13:39:20Z</time>
      </trkpt>
      <trkpt lat="46.7381" lon="5.47855">
        <ele>219.4</ele>
        <time>2022-03-14T13:39:22Z</time>
      </trkpt>
      <trkpt lat="46.73826" lon="5.4794">
        <ele>219.4</ele>
        <time>2022-03-14T13:39:30Z</time>
      </trkpt>
      <trkpt lat="46.73828" lon="5.47951">
        <ele>219.4</ele>
        <time>2022-03-14T13:39:31Z</time>
      </trkpt>
      <trkpt lat="46.73845" lon="5.48">
        <ele>219</ele>
        <time>2022-03-14T13:39:36Z</time>
      </trkpt>
      <trkpt lat="46.73882" lon="5.48071">
        <ele>219.2</ele>
        <time>2022-03-14T13:39:44Z</time>
      </trkpt>
      <trkpt lat="46.7389" lon="5.48089">
        <ele>219.2</ele>
        <time>2022-03-14T13:39:46Z</time>
      </trkpt>
      <trkpt lat="46.73922" lon="5.48163">
        <ele>219.8</ele>
        <time>2022-03-14T13:39:54Z</time>
      </trkpt>
      <trkpt lat="46.73926" lon="5.48173">
        <ele>219.8</ele>
        <time>2022-03-14T13:39:55Z</time>
      </trkpt>
      <trkpt lat="46.73949" lon="5.48244">
        <ele>219.8</ele>
        <time>2022-03-14T13:40:02Z</time>
      </trkpt>
      <trkpt lat="46.73975" lon="5.48284">
        <ele>219.8</ele>
        <time>2022-03-14T13:40:07Z</time>
      </trkpt>
      <trkpt lat="46.7402" lon="5.48328">
        <ele>220</ele>
        <time>2022-03-14T13:40:14Z</time>
      </trkpt>
      <trkpt lat="46.74066" lon="5.48387">
        <ele>220.2</ele>
        <time>2022-03-14T13:40:22Z</time>
      </trkpt>
      <trkpt lat="46.74076" lon="5.48403">
        <ele>220.4</ele>
        <time>2022-03-14T13:40:24Z</time>
      </trkpt>
      <trkpt lat="46.74105" lon="5.48448">
        <ele>220.2</ele>
        <time>2022-03-14T13:40:30Z</time>
      </trkpt>
      <trkpt lat="46.74128" lon="5.48482">
        <ele>219.6</ele>
        <time>2022-03-14T13:40:36Z</time>
      </trkpt>
      <trkpt lat="46.74137" lon="5.48486">
        <ele>219.6</ele>
        <time>2022-03-14T13:40:38Z</time>
      </trkpt>
      <trkpt lat="46.74143" lon="5.48485">
        <ele>219.4</ele>
        <time>2022-03-14T13:40:39Z</time>
      </trkpt>
      <trkpt lat="46.74149" lon="5.48485">
        <ele>219.4</ele>
        <time>2022-03-14T13:40:40Z</time>
      </trkpt>
      <trkpt lat="46.74156" lon="5.48486">
        <ele>219.4</ele>
        <time>2022-03-14T13:40:41Z</time>
      </trkpt>
      <trkpt lat="46.74162" lon="5.48488">
        <ele>219.2</ele>
        <time>2022-03-14T13:40:42Z</time>
      </trkpt>
      <trkpt lat="46.74168" lon="5.48491">
        <ele>219.2</ele>
        <time>2022-03-14T13:40:43Z</time>
      </trkpt>
      <trkpt lat="46.74174" lon="5.48496">
        <ele>219.2</ele>
        <time>2022-03-14T13:40:44Z</time>
      </trkpt>
      <trkpt lat="46.74184" lon="5.4851">
        <ele>219.2</ele>
        <time>2022-03-14T13:40:46Z</time>
      </trkpt>
      <trkpt lat="46.74188" lon="5.4852">
        <ele>219.4</ele>
        <time>2022-03-14T13:40:47Z</time>
      </trkpt>
      <trkpt lat="46.74203" lon="5.48579">
        <ele>220</ele>
        <time>2022-03-14T13:40:53Z</time>
      </trkpt>
      <trkpt lat="46.7421" lon="5.48618">
        <ele>220</ele>
        <time>2022-03-14T13:40:57Z</time>
      </trkpt>
      <trkpt lat="46.74211" lon="5.48638">
        <ele>220</ele>
        <time>2022-03-14T13:40:59Z</time>
      </trkpt>
      <trkpt lat="46.74213" lon="5.48721">
        <ele>219.8</ele>
        <time>2022-03-14T13:41:07Z</time>
      </trkpt>
      <trkpt lat="46.74215" lon="5.48742">
        <ele>219.6</ele>
        <time>2022-03-14T13:41:09Z</time>
      </trkpt>
      <trkpt lat="46.74219" lon="5.48762">
        <ele>219.6</ele>
        <time>2022-03-14T13:41:11Z</time>
      </trkpt>
      <trkpt lat="46.74228" lon="5.48802">
        <ele>220</ele>
        <time>2022-03-14T13:41:15Z</time>
      </trkpt>
      <trkpt lat="46.74254" lon="5.48877">
        <ele>220.2</ele>
        <time>2022-03-14T13:41:23Z</time>
      </trkpt>
      <trkpt lat="46.74281" lon="5.48947">
        <ele>220.4</ele>
        <time>2022-03-14T13:41:31Z</time>
      </trkpt>
      <trkpt lat="46.7429" lon="5.48963">
        <ele>220.6</ele>
        <time>2022-03-14T13:41:33Z</time>
      </trkpt>
      <trkpt lat="46.74318" lon="5.49008">
        <ele>220.8</ele>
        <time>2022-03-14T13:41:39Z</time>
      </trkpt>
      <trkpt lat="46.74341" lon="5.49059">
        <ele>220.8</ele>
        <time>2022-03-14T13:41:45Z</time>
      </trkpt>
      <trkpt lat="46.74368" lon="5.49135">
        <ele>220.6</ele>
        <time>2022-03-14T13:41:53Z</time>
      </trkpt>
      <trkpt lat="46.74376" lon="5.49154">
        <ele>220.8</ele>
        <time>2022-03-14T13:41:55Z</time>
      </trkpt>
      <trkpt lat="46.74392" lon="5.49199">
        <ele>220.8</ele>
        <time>2022-03-14T13:42:00Z</time>
      </trkpt>
      <trkpt lat="46.74395" lon="5.49208">
        <ele>220.8</ele>
        <time>2022-03-14T13:42:01Z</time>
      </trkpt>
      <trkpt lat="46.74409" lon="5.49237">
        <ele>220.8</ele>
        <time>2022-03-14T13:42:05Z</time>
      </trkpt>
      <trkpt lat="46.74412" lon="5.49242">
        <ele>220.8</ele>
        <time>2022-03-14T13:42:06Z</time>
      </trkpt>
      <trkpt lat="46.74416" lon="5.49247">
        <ele>220.8</ele>
        <time>2022-03-14T13:42:08Z</time>
      </trkpt>
      <trkpt lat="46.74418" lon="5.49246">
        <ele>220.8</ele>
        <time>2022-03-14T13:42:09Z</time>
      </trkpt>
      <trkpt lat="46.7442" lon="5.49244">
        <ele>220.8</ele>
        <time>2022-03-14T13:42:10Z</time>
      </trkpt>
      <trkpt lat="46.7442" lon="5.49239">
        <ele>220.8</ele>
        <time>2022-03-14T13:42:12Z</time>
      </trkpt>
      <trkpt lat="46.7442" lon="5.49236">
        <ele>220.8</ele>
        <time>2022-03-14T13:42:16Z</time>
      </trkpt>
      <trkpt lat="46.7442" lon="5.49238">
        <ele>220.2</ele>
        <time>2022-03-14T13:44:16Z</time>
      </trkpt>
      <trkpt lat="46.74419" lon="5.49244">
        <ele>220.4</ele>
        <time>2022-03-14T13:44:19Z</time>
      </trkpt>
      <trkpt lat="46.74415" lon="5.49254">
        <ele>220.6</ele>
        <time>2022-03-14T13:44:22Z</time>
      </trkpt>
      <trkpt lat="46.74416" lon="5.49262">
        <ele>220.6</ele>
        <time>2022-03-14T13:44:24Z</time>
      </trkpt>
      <trkpt lat="46.74421" lon="5.49291">
        <ele>220.8</ele>
        <time>2022-03-14T13:44:29Z</time>
      </trkpt>
      <trkpt lat="46.74421" lon="5.49304">
        <ele>221</ele>
        <time>2022-03-14T13:44:31Z</time>
      </trkpt>
      <trkpt lat="46.74419" lon="5.4932">
        <ele>221.2</ele>
        <time>2022-03-14T13:44:33Z</time>
      </trkpt>
      <trkpt lat="46.74412" lon="5.49371">
        <ele>221.8</ele>
        <time>2022-03-14T13:44:39Z</time>
      </trkpt>
      <trkpt lat="46.74412" lon="5.49388">
        <ele>222</ele>
        <time>2022-03-14T13:44:41Z</time>
      </trkpt>
      <trkpt lat="46.74413" lon="5.49404">
        <ele>222.2</ele>
        <time>2022-03-14T13:44:43Z</time>
      </trkpt>
      <trkpt lat="46.74417" lon="5.4942">
        <ele>222.4</ele>
        <time>2022-03-14T13:44:45Z</time>
      </trkpt>
      <trkpt lat="46.74419" lon="5.49428">
        <ele>222.4</ele>
        <time>2022-03-14T13:44:46Z</time>
      </trkpt>
      <trkpt lat="46.74427" lon="5.49449">
        <ele>222.6</ele>
        <time>2022-03-14T13:44:49Z</time>
      </trkpt>
      <trkpt lat="46.74435" lon="5.49462">
        <ele>222.6</ele>
        <time>2022-03-14T13:44:51Z</time>
      </trkpt>
      <trkpt lat="46.74443" lon="5.49475">
        <ele>222.8</ele>
        <time>2022-03-14T13:44:53Z</time>
      </trkpt>
      <trkpt lat="46.74467" lon="5.49511">
        <ele>223</ele>
        <time>2022-03-14T13:44:59Z</time>
      </trkpt>
      <trkpt lat="46.74475" lon="5.49522">
        <ele>223</ele>
        <time>2022-03-14T13:45:01Z</time>
      </trkpt>
      <trkpt lat="46.74478" lon="5.49535">
        <ele>223.2</ele>
        <time>2022-03-14T13:45:03Z</time>
      </trkpt>
      <trkpt lat="46.74474" lon="5.49558">
        <ele>223.2</ele>
        <time>2022-03-14T13:45:06Z</time>
      </trkpt>
      <trkpt lat="46.74472" lon="5.49566">
        <ele>223.2</ele>
        <time>2022-03-14T13:45:07Z</time>
      </trkpt>
      <trkpt lat="46.74467" lon="5.49582">
        <ele>223.2</ele>
        <time>2022-03-14T13:45:09Z</time>
      </trkpt>
      <trkpt lat="46.74464" lon="5.49591">
        <ele>223.2</ele>
        <time>2022-03-14T13:45:10Z</time>
      </trkpt>
      <trkpt lat="46.74451" lon="5.4963">
        <ele>223.8</ele>
        <time>2022-03-14T13:45:15Z</time>
      </trkpt>
      <trkpt lat="46.74448" lon="5.49637">
        <ele>223.8</ele>
        <time>2022-03-14T13:45:16Z</time>
      </trkpt>
      <trkpt lat="46.74444" lon="5.49644">
        <ele>224</ele>
        <time>2022-03-14T13:45:17Z</time>
      </trkpt>
      <trkpt lat="46.74419" lon="5.4967">
        <ele>224</ele>
        <time>2022-03-14T13:45:22Z</time>
      </trkpt>
      <trkpt lat="46.74408" lon="5.49677">
        <ele>224</ele>
        <time>2022-03-14T13:45:24Z</time>
      </trkpt>
      <trkpt lat="46.74389" lon="5.49685">
        <ele>224</ele>
        <time>2022-03-14T13:45:27Z</time>
      </trkpt>
      <trkpt lat="46.74343" lon="5.49697">
        <ele>224</ele>
        <time>2022-03-14T13:45:34Z</time>
      </trkpt>
      <trkpt lat="46.74321" lon="5.497">
        <ele>224</ele>
        <time>2022-03-14T13:45:37Z</time>
      </trkpt>
      <trkpt lat="46.74306" lon="5.49701">
        <ele>224</ele>
        <time>2022-03-14T13:45:39Z</time>
      </trkpt>
      <trkpt lat="46.74246" lon="5.49703">
        <ele>223.4</ele>
        <time>2022-03-14T13:45:47Z</time>
      </trkpt>
      <trkpt lat="46.74239" lon="5.49703">
        <ele>223.4</ele>
        <time>2022-03-14T13:45:48Z</time>
      </trkpt>
      <trkpt lat="46.74202" lon="5.49712">
        <ele>223.4</ele>
        <time>2022-03-14T13:45:53Z</time>
      </trkpt>
      <trkpt lat="46.74195" lon="5.49715">
        <ele>223.4</ele>
        <time>2022-03-14T13:45:54Z</time>
      </trkpt>
      <trkpt lat="46.74164" lon="5.49741">
        <ele>223.2</ele>
        <time>2022-03-14T13:45:59Z</time>
      </trkpt>
      <trkpt lat="46.74127" lon="5.49793">
        <ele>223</ele>
        <time>2022-03-14T13:46:06Z</time>
      </trkpt>
      <trkpt lat="46.74094" lon="5.4985">
        <ele>223</ele>
        <time>2022-03-14T13:46:13Z</time>
      </trkpt>
      <trkpt lat="46.74058" lon="5.49905">
        <ele>223</ele>
        <time>2022-03-14T13:46:20Z</time>
      </trkpt>
      <trkpt lat="46.74052" lon="5.49911">
        <ele>222.8</ele>
        <time>2022-03-14T13:46:21Z</time>
      </trkpt>
      <trkpt lat="46.74032" lon="5.49922">
        <ele>222.8</ele>
        <time>2022-03-14T13:46:24Z</time>
      </trkpt>
      <trkpt lat="46.73985" lon="5.49953">
        <ele>223</ele>
        <time>2022-03-14T13:46:31Z</time>
      </trkpt>
      <trkpt lat="46.73934" lon="5.49996">
        <ele>223.2</ele>
        <time>2022-03-14T13:46:39Z</time>
      </trkpt>
      <trkpt lat="46.73914" lon="5.50012">
        <ele>223.2</ele>
        <time>2022-03-14T13:46:42Z</time>
      </trkpt>
      <trkpt lat="46.73862" lon="5.50053">
        <ele>223.6</ele>
        <time>2022-03-14T13:46:50Z</time>
      </trkpt>
      <trkpt lat="46.73831" lon="5.5008">
        <ele>224</ele>
        <time>2022-03-14T13:46:55Z</time>
      </trkpt>
      <trkpt lat="46.73819" lon="5.50091">
        <ele>224</ele>
        <time>2022-03-14T13:46:57Z</time>
      </trkpt>
      <trkpt lat="46.73776" lon="5.50126">
        <ele>224.4</ele>
        <time>2022-03-14T13:47:04Z</time>
      </trkpt>
      <trkpt lat="46.73729" lon="5.5016">
        <ele>224.4</ele>
        <time>2022-03-14T13:47:11Z</time>
      </trkpt>
      <trkpt lat="46.7367" lon="5.50187">
        <ele>224.4</ele>
        <time>2022-03-14T13:47:19Z</time>
      </trkpt>
      <trkpt lat="46.73618" lon="5.50212">
        <ele>224.2</ele>
        <time>2022-03-14T13:47:26Z</time>
      </trkpt>
      <trkpt lat="46.73611" lon="5.50216">
        <ele>224.2</ele>
        <time>2022-03-14T13:47:27Z</time>
      </trkpt>
      <trkpt lat="46.73553" lon="5.50241">
        <ele>224.6</ele>
        <time>2022-03-14T13:47:35Z</time>
      </trkpt>
      <trkpt lat="46.73499" lon="5.50266">
        <ele>225</ele>
        <time>2022-03-14T13:47:43Z</time>
      </trkpt>
      <trkpt lat="46.73481" lon="5.50276">
        <ele>225.2</ele>
        <time>2022-03-14T13:47:46Z</time>
      </trkpt>
      <trkpt lat="46.73459" lon="5.50286">
        <ele>226</ele>
        <time>2022-03-14T13:47:50Z</time>
      </trkpt>
      <trkpt lat="46.73443" lon="5.50293">
        <ele>226.8</ele>
        <time>2022-03-14T13:47:53Z</time>
      </trkpt>
      <trkpt lat="46.73434" lon="5.50296">
        <ele>227.2</ele>
        <time>2022-03-14T13:47:55Z</time>
      </trkpt>
      <trkpt lat="46.73419" lon="5.50301">
        <ele>228</ele>
        <time>2022-03-14T13:47:58Z</time>
      </trkpt>
      <trkpt lat="46.73401" lon="5.50304">
        <ele>229.2</ele>
        <time>2022-03-14T13:48:02Z</time>
      </trkpt>
      <trkpt lat="46.73383" lon="5.50306">
        <ele>230.2</ele>
        <time>2022-03-14T13:48:06Z</time>
      </trkpt>
      <trkpt lat="46.7337" lon="5.50307">
        <ele>231.4</ele>
        <time>2022-03-14T13:48:09Z</time>
      </trkpt>
      <trkpt lat="46.73352" lon="5.50308">
        <ele>232.4</ele>
        <time>2022-03-14T13:48:13Z</time>
      </trkpt>
      <trkpt lat="46.7333" lon="5.5031">
        <ele>233.6</ele>
        <time>2022-03-14T13:48:18Z</time>
      </trkpt>
      <trkpt lat="46.73309" lon="5.50315">
        <ele>234.8</ele>
        <time>2022-03-14T13:48:23Z</time>
      </trkpt>
      <trkpt lat="46.73287" lon="5.50323">
        <ele>236</ele>
        <time>2022-03-14T13:48:28Z</time>
      </trkpt>
      <trkpt lat="46.73283" lon="5.50324">
        <ele>236.2</ele>
        <time>2022-03-14T13:48:29Z</time>
      </trkpt>
      <trkpt lat="46.73265" lon="5.50332">
        <ele>237.6</ele>
        <time>2022-03-14T13:48:33Z</time>
      </trkpt>
      <trkpt lat="46.7324" lon="5.50348">
        <ele>239</ele>
        <time>2022-03-14T13:48:39Z</time>
      </trkpt>
      <trkpt lat="46.73209" lon="5.50368">
        <ele>240.2</ele>
        <time>2022-03-14T13:48:46Z</time>
      </trkpt>
      <trkpt lat="46.73196" lon="5.50377">
        <ele>240.6</ele>
        <time>2022-03-14T13:48:49Z</time>
      </trkpt>
      <trkpt lat="46.73178" lon="5.50392">
        <ele>241.2</ele>
        <time>2022-03-14T13:48:53Z</time>
      </trkpt>
      <trkpt lat="46.73151" lon="5.50408">
        <ele>241.4</ele>
        <time>2022-03-14T13:48:58Z</time>
      </trkpt>
      <trkpt lat="46.73112" lon="5.50436">
        <ele>241.8</ele>
        <time>2022-03-14T13:49:05Z</time>
      </trkpt>
      <trkpt lat="46.73072" lon="5.50468">
        <ele>241.8</ele>
        <time>2022-03-14T13:49:12Z</time>
      </trkpt>
      <trkpt lat="46.73023" lon="5.50503">
        <ele>241.8</ele>
        <time>2022-03-14T13:49:20Z</time>
      </trkpt>
      <trkpt lat="46.72992" lon="5.50525">
        <ele>242</ele>
        <time>2022-03-14T13:49:26Z</time>
      </trkpt>
      <trkpt lat="46.72989" lon="5.50528">
        <ele>242</ele>
        <time>2022-03-14T13:49:27Z</time>
      </trkpt>
      <trkpt lat="46.72985" lon="5.50539">
        <ele>242</ele>
        <time>2022-03-14T13:49:29Z</time>
      </trkpt>
      <trkpt lat="46.72986" lon="5.50553">
        <ele>242</ele>
        <time>2022-03-14T13:49:31Z</time>
      </trkpt>
      <trkpt lat="46.72989" lon="5.50561">
        <ele>242</ele>
        <time>2022-03-14T13:49:32Z</time>
      </trkpt>
      <trkpt lat="46.73008" lon="5.50608">
        <ele>241.4</ele>
        <time>2022-03-14T13:49:37Z</time>
      </trkpt>
      <trkpt lat="46.73031" lon="5.50663">
        <ele>239.8</ele>
        <time>2022-03-14T13:49:42Z</time>
      </trkpt>
      <trkpt lat="46.73043" lon="5.50704">
        <ele>238.8</ele>
        <time>2022-03-14T13:49:45Z</time>
      </trkpt>
      <trkpt lat="46.73046" lon="5.50714">
        <ele>238.4</ele>
        <time>2022-03-14T13:49:46Z</time>
      </trkpt>
      <trkpt lat="46.73048" lon="5.50728">
        <ele>238.2</ele>
        <time>2022-03-14T13:49:47Z</time>
      </trkpt>
      <trkpt lat="46.73048" lon="5.50741">
        <ele>237.4</ele>
        <time>2022-03-14T13:49:48Z</time>
      </trkpt>
      <trkpt lat="46.7305" lon="5.50768">
        <ele>236.8</ele>
        <time>2022-03-14T13:49:50Z</time>
      </trkpt>
      <trkpt lat="46.73056" lon="5.50823">
        <ele>236.4</ele>
        <time>2022-03-14T13:49:55Z</time>
      </trkpt>
      <trkpt lat="46.73055" lon="5.50835">
        <ele>236.4</ele>
        <time>2022-03-14T13:49:56Z</time>
      </trkpt>
      <trkpt lat="46.73055" lon="5.50845">
        <ele>236.6</ele>
        <time>2022-03-14T13:49:57Z</time>
      </trkpt>
      <trkpt lat="46.73066" lon="5.50873">
        <ele>236.8</ele>
        <time>2022-03-14T13:50:00Z</time>
      </trkpt>
      <trkpt lat="46.73074" lon="5.5089">
        <ele>237.4</ele>
        <time>2022-03-14T13:50:02Z</time>
      </trkpt>
      <trkpt lat="46.73078" lon="5.50906">
        <ele>237.8</ele>
        <time>2022-03-14T13:50:04Z</time>
      </trkpt>
      <trkpt lat="46.73079" lon="5.50917">
        <ele>238</ele>
        <time>2022-03-14T13:50:05Z</time>
      </trkpt>
      <trkpt lat="46.73079" lon="5.50944">
        <ele>238.4</ele>
        <time>2022-03-14T13:50:08Z</time>
      </trkpt>
      <trkpt lat="46.73081" lon="5.5097">
        <ele>239.2</ele>
        <time>2022-03-14T13:50:11Z</time>
      </trkpt>
      <trkpt lat="46.73082" lon="5.50989">
        <ele>239.6</ele>
        <time>2022-03-14T13:50:13Z</time>
      </trkpt>
      <trkpt lat="46.73087" lon="5.51031">
        <ele>240.8</ele>
        <time>2022-03-14T13:50:18Z</time>
      </trkpt>
      <trkpt lat="46.7309" lon="5.51046">
        <ele>241.2</ele>
        <time>2022-03-14T13:50:20Z</time>
      </trkpt>
      <trkpt lat="46.73093" lon="5.51068">
        <ele>241.8</ele>
        <time>2022-03-14T13:50:23Z</time>
      </trkpt>
      <trkpt lat="46.73096" lon="5.51089">
        <ele>242.6</ele>
        <time>2022-03-14T13:50:26Z</time>
      </trkpt>
      <trkpt lat="46.73097" lon="5.51096">
        <ele>243</ele>
        <time>2022-03-14T13:50:27Z</time>
      </trkpt>
      <trkpt lat="46.73102" lon="5.5113">
        <ele>244.2</ele>
        <time>2022-03-14T13:50:32Z</time>
      </trkpt>
      <trkpt lat="46.73105" lon="5.51144">
        <ele>244.6</ele>
        <time>2022-03-14T13:50:34Z</time>
      </trkpt>
      <trkpt lat="46.73109" lon="5.51165">
        <ele>245.2</ele>
        <time>2022-03-14T13:50:37Z</time>
      </trkpt>
      <trkpt lat="46.73119" lon="5.51201">
        <ele>246</ele>
        <time>2022-03-14T13:50:42Z</time>
      </trkpt>
      <trkpt lat="46.73121" lon="5.51208">
        <ele>246</ele>
        <time>2022-03-14T13:50:43Z</time>
      </trkpt>
      <trkpt lat="46.73132" lon="5.51243">
        <ele>246.4</ele>
        <time>2022-03-14T13:50:48Z</time>
      </trkpt>
      <trkpt lat="46.73135" lon="5.51258">
        <ele>246.8</ele>
        <time>2022-03-14T13:50:50Z</time>
      </trkpt>
      <trkpt lat="46.73147" lon="5.51309">
        <ele>247.6</ele>
        <time>2022-03-14T13:50:57Z</time>
      </trkpt>
      <trkpt lat="46.73148" lon="5.51316">
        <ele>247.8</ele>
        <time>2022-03-14T13:50:58Z</time>
      </trkpt>
      <trkpt lat="46.73161" lon="5.51367">
        <ele>248.8</ele>
        <time>2022-03-14T13:51:05Z</time>
      </trkpt>
      <trkpt lat="46.73184" lon="5.51434">
        <ele>249.4</ele>
        <time>2022-03-14T13:51:14Z</time>
      </trkpt>
      <trkpt lat="46.73191" lon="5.51455">
        <ele>249.8</ele>
        <time>2022-03-14T13:51:17Z</time>
      </trkpt>
      <trkpt lat="46.73202" lon="5.51486">
        <ele>250</ele>
        <time>2022-03-14T13:51:21Z</time>
      </trkpt>
      <trkpt lat="46.73219" lon="5.51556">
        <ele>250.2</ele>
        <time>2022-03-14T13:51:29Z</time>
      </trkpt>
      <trkpt lat="46.73229" lon="5.51635">
        <ele>250</ele>
        <time>2022-03-14T13:51:37Z</time>
      </trkpt>
      <trkpt lat="46.73241" lon="5.51717">
        <ele>250</ele>
        <time>2022-03-14T13:51:45Z</time>
      </trkpt>
      <trkpt lat="46.7325" lon="5.51788">
        <ele>249.2</ele>
        <time>2022-03-14T13:51:51Z</time>
      </trkpt>
      <trkpt lat="46.7326" lon="5.51832">
        <ele>248.6</ele>
        <time>2022-03-14T13:51:55Z</time>
      </trkpt>
      <trkpt lat="46.73264" lon="5.51841">
        <ele>248.4</ele>
        <time>2022-03-14T13:51:56Z</time>
      </trkpt>
      <trkpt lat="46.73269" lon="5.51851">
        <ele>248.2</ele>
        <time>2022-03-14T13:51:57Z</time>
      </trkpt>
      <trkpt lat="46.73288" lon="5.51888">
        <ele>248</ele>
        <time>2022-03-14T13:52:01Z</time>
      </trkpt>
      <trkpt lat="46.73292" lon="5.51898">
        <ele>247.8</ele>
        <time>2022-03-14T13:52:02Z</time>
      </trkpt>
      <trkpt lat="46.733" lon="5.5193">
        <ele>247.6</ele>
        <time>2022-03-14T13:52:05Z</time>
      </trkpt>
      <trkpt lat="46.73305" lon="5.51951">
        <ele>247.4</ele>
        <time>2022-03-14T13:52:07Z</time>
      </trkpt>
      <trkpt lat="46.73316" lon="5.52002">
        <ele>247.4</ele>
        <time>2022-03-14T13:52:12Z</time>
      </trkpt>
      <trkpt lat="46.73328" lon="5.52057">
        <ele>248</ele>
        <time>2022-03-14T13:52:18Z</time>
      </trkpt>
      <trkpt lat="46.73329" lon="5.52066">
        <ele>248</ele>
        <time>2022-03-14T13:52:19Z</time>
      </trkpt>
      <trkpt lat="46.7333" lon="5.52075">
        <ele>248.2</ele>
        <time>2022-03-14T13:52:20Z</time>
      </trkpt>
      <trkpt lat="46.7333" lon="5.52084">
        <ele>248.2</ele>
        <time>2022-03-14T13:52:21Z</time>
      </trkpt>
      <trkpt lat="46.73331" lon="5.52111">
        <ele>248.4</ele>
        <time>2022-03-14T13:52:24Z</time>
      </trkpt>
      <trkpt lat="46.7333" lon="5.52127">
        <ele>248.8</ele>
        <time>2022-03-14T13:52:26Z</time>
      </trkpt>
      <trkpt lat="46.73327" lon="5.52144">
        <ele>249.4</ele>
        <time>2022-03-14T13:52:28Z</time>
      </trkpt>
      <trkpt lat="46.73326" lon="5.52154">
        <ele>249.6</ele>
        <time>2022-03-14T13:52:29Z</time>
      </trkpt>
      <trkpt lat="46.73326" lon="5.52171">
        <ele>250</ele>
        <time>2022-03-14T13:52:31Z</time>
      </trkpt>
      <trkpt lat="46.73327" lon="5.52179">
        <ele>250.2</ele>
        <time>2022-03-14T13:52:32Z</time>
      </trkpt>
      <trkpt lat="46.73328" lon="5.52195">
        <ele>250.4</ele>
        <time>2022-03-14T13:52:34Z</time>
      </trkpt>
      <trkpt lat="46.73335" lon="5.5221">
        <ele>250.4</ele>
        <time>2022-03-14T13:52:36Z</time>
      </trkpt>
      <trkpt lat="46.73367" lon="5.52257">
        <ele>250.8</ele>
        <time>2022-03-14T13:52:43Z</time>
      </trkpt>
      <trkpt lat="46.73402" lon="5.52314">
        <ele>250.8</ele>
        <time>2022-03-14T13:52:51Z</time>
      </trkpt>
      <trkpt lat="46.73432" lon="5.52369">
        <ele>251.2</ele>
        <time>2022-03-14T13:52:59Z</time>
      </trkpt>
      <trkpt lat="46.73453" lon="5.5243">
        <ele>251</ele>
        <time>2022-03-14T13:53:06Z</time>
      </trkpt>
      <trkpt lat="46.73458" lon="5.52458">
        <ele>250.8</ele>
        <time>2022-03-14T13:53:09Z</time>
      </trkpt>
      <trkpt lat="46.73459" lon="5.52477">
        <ele>250.6</ele>
        <time>2022-03-14T13:53:11Z</time>
      </trkpt>
      <trkpt lat="46.73458" lon="5.52497">
        <ele>250.2</ele>
        <time>2022-03-14T13:53:13Z</time>
      </trkpt>
      <trkpt lat="46.73453" lon="5.52515">
        <ele>250.2</ele>
        <time>2022-03-14T13:53:15Z</time>
      </trkpt>
      <trkpt lat="46.73443" lon="5.52526">
        <ele>250.2</ele>
        <time>2022-03-14T13:53:17Z</time>
      </trkpt>
      <trkpt lat="46.73437" lon="5.52528">
        <ele>250.2</ele>
        <time>2022-03-14T13:53:18Z</time>
      </trkpt>
      <trkpt lat="46.7343" lon="5.52528">
        <ele>250.2</ele>
        <time>2022-03-14T13:53:19Z</time>
      </trkpt>
      <trkpt lat="46.7342" lon="5.52521">
        <ele>250.2</ele>
        <time>2022-03-14T13:53:21Z</time>
      </trkpt>
      <trkpt lat="46.73396" lon="5.5249">
        <ele>250.4</ele>
        <time>2022-03-14T13:53:26Z</time>
      </trkpt>
      <trkpt lat="46.7336" lon="5.52443">
        <ele>251</ele>
        <time>2022-03-14T13:53:34Z</time>
      </trkpt>
      <trkpt lat="46.73342" lon="5.52421">
        <ele>252</ele>
        <time>2022-03-14T13:53:38Z</time>
      </trkpt>
      <trkpt lat="46.73328" lon="5.52405">
        <ele>253</ele>
        <time>2022-03-14T13:53:41Z</time>
      </trkpt>
      <trkpt lat="46.73324" lon="5.524">
        <ele>253.2</ele>
        <time>2022-03-14T13:53:42Z</time>
      </trkpt>
      <trkpt lat="46.733" lon="5.52382">
        <ele>253.4</ele>
        <time>2022-03-14T13:53:47Z</time>
      </trkpt>
      <trkpt lat="46.73267" lon="5.5237">
        <ele>254.4</ele>
        <time>2022-03-14T13:53:53Z</time>
      </trkpt>
      <trkpt lat="46.7326" lon="5.52368">
        <ele>254.4</ele>
        <time>2022-03-14T13:53:54Z</time>
      </trkpt>
      <trkpt lat="46.73228" lon="5.52354">
        <ele>255</ele>
        <time>2022-03-14T13:54:00Z</time>
      </trkpt>
      <trkpt lat="46.73206" lon="5.5234">
        <ele>255.4</ele>
        <time>2022-03-14T13:54:04Z</time>
      </trkpt>
      <trkpt lat="46.73182" lon="5.52324">
        <ele>256.2</ele>
        <time>2022-03-14T13:54:09Z</time>
      </trkpt>
      <trkpt lat="46.73171" lon="5.5232">
        <ele>256.6</ele>
        <time>2022-03-14T13:54:11Z</time>
      </trkpt>
      <trkpt lat="46.73145" lon="5.52315">
        <ele>257.6</ele>
        <time>2022-03-14T13:54:16Z</time>
      </trkpt>
      <trkpt lat="46.73109" lon="5.5232">
        <ele>258.4</ele>
        <time>2022-03-14T13:54:23Z</time>
      </trkpt>
      <trkpt lat="46.731" lon="5.52324">
        <ele>258.8</ele>
        <time>2022-03-14T13:54:25Z</time>
      </trkpt>
      <trkpt lat="46.73076" lon="5.52331">
        <ele>260</ele>
        <time>2022-03-14T13:54:30Z</time>
      </trkpt>
      <trkpt lat="46.73052" lon="5.52339">
        <ele>261</ele>
        <time>2022-03-14T13:54:35Z</time>
      </trkpt>
      <trkpt lat="46.73021" lon="5.52348">
        <ele>262.2</ele>
        <time>2022-03-14T13:54:41Z</time>
      </trkpt>
      <trkpt lat="46.73016" lon="5.5235">
        <ele>262.6</ele>
        <time>2022-03-14T13:54:42Z</time>
      </trkpt>
      <trkpt lat="46.72991" lon="5.52357">
        <ele>263</ele>
        <time>2022-03-14T13:54:47Z</time>
      </trkpt>
      <trkpt lat="46.72987" lon="5.52359">
        <ele>263.4</ele>
        <time>2022-03-14T13:54:48Z</time>
      </trkpt>
      <trkpt lat="46.72962" lon="5.52367">
        <ele>264.4</ele>
        <time>2022-03-14T13:54:53Z</time>
      </trkpt>
      <trkpt lat="46.72941" lon="5.52373">
        <ele>264.8</ele>
        <time>2022-03-14T13:54:57Z</time>
      </trkpt>
      <trkpt lat="46.72926" lon="5.52379">
        <ele>265.4</ele>
        <time>2022-03-14T13:55:00Z</time>
      </trkpt>
      <trkpt lat="46.72892" lon="5.5239">
        <ele>266.6</ele>
        <time>2022-03-14T13:55:07Z</time>
      </trkpt>
      <trkpt lat="46.72877" lon="5.52394">
        <ele>266.8</ele>
        <time>2022-03-14T13:55:10Z</time>
      </trkpt>
      <trkpt lat="46.72853" lon="5.52403">
        <ele>267.6</ele>
        <time>2022-03-14T13:55:15Z</time>
      </trkpt>
      <trkpt lat="46.72828" lon="5.52411">
        <ele>268.4</ele>
        <time>2022-03-14T13:55:20Z</time>
      </trkpt>
      <trkpt lat="46.72823" lon="5.52412">
        <ele>268.8</ele>
        <time>2022-03-14T13:55:21Z</time>
      </trkpt>
      <trkpt lat="46.72795" lon="5.52422">
        <ele>269.8</ele>
        <time>2022-03-14T13:55:27Z</time>
      </trkpt>
      <trkpt lat="46.72785" lon="5.52426">
        <ele>270.2</ele>
        <time>2022-03-14T13:55:29Z</time>
      </trkpt>
      <trkpt lat="46.7276" lon="5.52431">
        <ele>271</ele>
        <time>2022-03-14T13:55:34Z</time>
      </trkpt>
      <trkpt lat="46.72749" lon="5.52432">
        <ele>271.2</ele>
        <time>2022-03-14T13:55:36Z</time>
      </trkpt>
      <trkpt lat="46.72722" lon="5.52428">
        <ele>272.2</ele>
        <time>2022-03-14T13:55:41Z</time>
      </trkpt>
      <trkpt lat="46.72706" lon="5.52423">
        <ele>272.8</ele>
        <time>2022-03-14T13:55:44Z</time>
      </trkpt>
      <trkpt lat="46.72688" lon="5.52413">
        <ele>273.4</ele>
        <time>2022-03-14T13:55:48Z</time>
      </trkpt>
      <trkpt lat="46.72679" lon="5.52406">
        <ele>273.8</ele>
        <time>2022-03-14T13:55:50Z</time>
      </trkpt>
      <trkpt lat="46.72665" lon="5.52395">
        <ele>274.4</ele>
        <time>2022-03-14T13:55:53Z</time>
      </trkpt>
      <trkpt lat="46.72652" lon="5.52384">
        <ele>275</ele>
        <time>2022-03-14T13:55:56Z</time>
      </trkpt>
      <trkpt lat="46.72644" lon="5.52377">
        <ele>275.4</ele>
        <time>2022-03-14T13:55:58Z</time>
      </trkpt>
      <trkpt lat="46.72631" lon="5.52368">
        <ele>276</ele>
        <time>2022-03-14T13:56:01Z</time>
      </trkpt>
      <trkpt lat="46.72616" lon="5.5236">
        <ele>276.6</ele>
        <time>2022-03-14T13:56:04Z</time>
      </trkpt>
      <trkpt lat="46.72596" lon="5.52355">
        <ele>277.4</ele>
        <time>2022-03-14T13:56:08Z</time>
      </trkpt>
      <trkpt lat="46.7259" lon="5.52354">
        <ele>277.8</ele>
        <time>2022-03-14T13:56:09Z</time>
      </trkpt>
      <trkpt lat="46.7256" lon="5.52354">
        <ele>278.8</ele>
        <time>2022-03-14T13:56:15Z</time>
      </trkpt>
      <trkpt lat="46.72513" lon="5.52359">
        <ele>279.6</ele>
        <time>2022-03-14T13:56:23Z</time>
      </trkpt>
      <trkpt lat="46.72484" lon="5.52361">
        <ele>280</ele>
        <time>2022-03-14T13:56:28Z</time>
      </trkpt>
      <trkpt lat="46.72462" lon="5.52364">
        <ele>280.2</ele>
        <time>2022-03-14T13:56:32Z</time>
      </trkpt>
      <trkpt lat="46.72434" lon="5.52369">
        <ele>281</ele>
        <time>2022-03-14T13:56:37Z</time>
      </trkpt>
      <trkpt lat="46.72417" lon="5.52374">
        <ele>281.6</ele>
        <time>2022-03-14T13:56:40Z</time>
      </trkpt>
      <trkpt lat="46.72405" lon="5.52377">
        <ele>282.2</ele>
        <time>2022-03-14T13:56:42Z</time>
      </trkpt>
      <trkpt lat="46.72349" lon="5.52392">
        <ele>283.2</ele>
        <time>2022-03-14T13:56:52Z</time>
      </trkpt>
      <trkpt lat="46.72343" lon="5.52393">
        <ele>283.6</ele>
        <time>2022-03-14T13:56:53Z</time>
      </trkpt>
      <trkpt lat="46.72327" lon="5.52399">
        <ele>283.8</ele>
        <time>2022-03-14T13:56:56Z</time>
      </trkpt>
      <trkpt lat="46.72305" lon="5.52403">
        <ele>284.6</ele>
        <time>2022-03-14T13:57:00Z</time>
      </trkpt>
      <trkpt lat="46.72297" lon="5.52405">
        <ele>284.6</ele>
        <time>2022-03-14T13:57:01Z</time>
      </trkpt>
      <trkpt lat="46.72285" lon="5.52406">
        <ele>284.8</ele>
        <time>2022-03-14T13:57:03Z</time>
      </trkpt>
      <trkpt lat="46.72264" lon="5.52406">
        <ele>284.8</ele>
        <time>2022-03-14T13:57:06Z</time>
      </trkpt>
      <trkpt lat="46.72215" lon="5.52403">
        <ele>285</ele>
        <time>2022-03-14T13:57:14Z</time>
      </trkpt>
      <trkpt lat="46.72174" lon="5.52401">
        <ele>285.2</ele>
        <time>2022-03-14T13:57:20Z</time>
      </trkpt>
      <trkpt lat="46.72126" lon="5.52406">
        <ele>285</ele>
        <time>2022-03-14T13:57:26Z</time>
      </trkpt>
      <trkpt lat="46.72089" lon="5.52414">
        <ele>283.6</ele>
        <time>2022-03-14T13:57:30Z</time>
      </trkpt>
      <trkpt lat="46.7208" lon="5.52415">
        <ele>283.4</ele>
        <time>2022-03-14T13:57:31Z</time>
      </trkpt>
      <trkpt lat="46.72029" lon="5.52421">
        <ele>282</ele>
        <time>2022-03-14T13:57:36Z</time>
      </trkpt>
      <trkpt lat="46.72018" lon="5.52423">
        <ele>280.8</ele>
        <time>2022-03-14T13:57:37Z</time>
      </trkpt>
      <trkpt lat="46.72008" lon="5.52427">
        <ele>280.4</ele>
        <time>2022-03-14T13:57:38Z</time>
      </trkpt>
      <trkpt lat="46.71993" lon="5.52437">
        <ele>279.4</ele>
        <time>2022-03-14T13:57:40Z</time>
      </trkpt>
      <trkpt lat="46.71985" lon="5.52445">
        <ele>278.4</ele>
        <time>2022-03-14T13:57:41Z</time>
      </trkpt>
      <trkpt lat="46.71975" lon="5.52455">
        <ele>277</ele>
        <time>2022-03-14T13:57:43Z</time>
      </trkpt>
      <trkpt lat="46.7197" lon="5.52459">
        <ele>275.6</ele>
        <time>2022-03-14T13:57:45Z</time>
      </trkpt>
      <trkpt lat="46.71966" lon="5.52462">
        <ele>274.8</ele>
        <time>2022-03-14T13:57:46Z</time>
      </trkpt>
      <trkpt lat="46.71962" lon="5.52467">
        <ele>274</ele>
        <time>2022-03-14T13:57:47Z</time>
      </trkpt>
      <trkpt lat="46.71957" lon="5.5248">
        <ele>272.6</ele>
        <time>2022-03-14T13:57:49Z</time>
      </trkpt>
      <trkpt lat="46.7195" lon="5.52499">
        <ele>272</ele>
        <time>2022-03-14T13:57:51Z</time>
      </trkpt>
      <trkpt lat="46.71946" lon="5.52509">
        <ele>271.4</ele>
        <time>2022-03-14T13:57:52Z</time>
      </trkpt>
      <trkpt lat="46.71941" lon="5.52518">
        <ele>270.8</ele>
        <time>2022-03-14T13:57:53Z</time>
      </trkpt>
      <trkpt lat="46.71919" lon="5.52553">
        <ele>270.2</ele>
        <time>2022-03-14T13:57:57Z</time>
      </trkpt>
      <trkpt lat="46.71898" lon="5.52586">
        <ele>269.6</ele>
        <time>2022-03-14T13:58:01Z</time>
      </trkpt>
      <trkpt lat="46.71874" lon="5.52631">
        <ele>269.4</ele>
        <time>2022-03-14T13:58:06Z</time>
      </trkpt>
      <trkpt lat="46.7185" lon="5.52696">
        <ele>270</ele>
        <time>2022-03-14T13:58:13Z</time>
      </trkpt>
      <trkpt lat="46.71836" lon="5.52752">
        <ele>270.8</ele>
        <time>2022-03-14T13:58:19Z</time>
      </trkpt>
      <trkpt lat="46.71829" lon="5.52791">
        <ele>271.2</ele>
        <time>2022-03-14T13:58:23Z</time>
      </trkpt>
      <trkpt lat="46.71827" lon="5.5281">
        <ele>271.2</ele>
        <time>2022-03-14T13:58:25Z</time>
      </trkpt>
      <trkpt lat="46.71826" lon="5.52821">
        <ele>271.2</ele>
        <time>2022-03-14T13:58:26Z</time>
      </trkpt>
      <trkpt lat="46.7182" lon="5.52852">
        <ele>271.6</ele>
        <time>2022-03-14T13:58:30Z</time>
      </trkpt>
      <trkpt lat="46.7181" lon="5.52902">
        <ele>272.4</ele>
        <time>2022-03-14T13:58:36Z</time>
      </trkpt>
      <trkpt lat="46.71807" lon="5.52918">
        <ele>272.6</ele>
        <time>2022-03-14T13:58:38Z</time>
      </trkpt>
      <trkpt lat="46.71797" lon="5.5297">
        <ele>273.6</ele>
        <time>2022-03-14T13:58:45Z</time>
      </trkpt>
      <trkpt lat="46.71792" lon="5.52992">
        <ele>273.8</ele>
        <time>2022-03-14T13:58:48Z</time>
      </trkpt>
      <trkpt lat="46.71788" lon="5.53015">
        <ele>274.4</ele>
        <time>2022-03-14T13:58:51Z</time>
      </trkpt>
      <trkpt lat="46.71784" lon="5.53037">
        <ele>275</ele>
        <time>2022-03-14T13:58:54Z</time>
      </trkpt>
      <trkpt lat="46.71777" lon="5.53076">
        <ele>275.8</ele>
        <time>2022-03-14T13:58:59Z</time>
      </trkpt>
      <trkpt lat="46.7177" lon="5.5311">
        <ele>276.2</ele>
        <time>2022-03-14T13:59:03Z</time>
      </trkpt>
      <trkpt lat="46.71754" lon="5.53173">
        <ele>276.6</ele>
        <time>2022-03-14T13:59:11Z</time>
      </trkpt>
      <trkpt lat="46.71742" lon="5.53211">
        <ele>276.8</ele>
        <time>2022-03-14T13:59:16Z</time>
      </trkpt>
      <trkpt lat="46.71739" lon="5.53221">
        <ele>276.8</ele>
        <time>2022-03-14T13:59:17Z</time>
      </trkpt>
      <trkpt lat="46.71718" lon="5.53276">
        <ele>277.2</ele>
        <time>2022-03-14T13:59:25Z</time>
      </trkpt>
      <trkpt lat="46.71713" lon="5.53293">
        <ele>277.6</ele>
        <time>2022-03-14T13:59:27Z</time>
      </trkpt>
      <trkpt lat="46.717" lon="5.53336">
        <ele>278.4</ele>
        <time>2022-03-14T13:59:33Z</time>
      </trkpt>
      <trkpt lat="46.71694" lon="5.53356">
        <ele>278.8</ele>
        <time>2022-03-14T13:59:36Z</time>
      </trkpt>
      <trkpt lat="46.71682" lon="5.534">
        <ele>279.8</ele>
        <time>2022-03-14T13:59:42Z</time>
      </trkpt>
      <trkpt lat="46.7168" lon="5.53407">
        <ele>279.8</ele>
        <time>2022-03-14T13:59:43Z</time>
      </trkpt>
      <trkpt lat="46.71665" lon="5.5344">
        <ele>280.6</ele>
        <time>2022-03-14T13:59:48Z</time>
      </trkpt>
      <trkpt lat="46.71661" lon="5.53446">
        <ele>280.6</ele>
        <time>2022-03-14T13:59:49Z</time>
      </trkpt>
      <trkpt lat="46.71653" lon="5.53455">
        <ele>280.8</ele>
        <time>2022-03-14T13:59:51Z</time>
      </trkpt>
      <trkpt lat="46.71644" lon="5.53465">
        <ele>281.2</ele>
        <time>2022-03-14T13:59:53Z</time>
      </trkpt>
      <trkpt lat="46.7162" lon="5.53484">
        <ele>282</ele>
        <time>2022-03-14T13:59:58Z</time>
      </trkpt>
      <trkpt lat="46.71609" lon="5.53492">
        <ele>282.4</ele>
        <time>2022-03-14T14:00:00Z</time>
      </trkpt>
      <trkpt lat="46.71579" lon="5.53511">
        <ele>283</ele>
        <time>2022-03-14T14:00:06Z</time>
      </trkpt>
      <trkpt lat="46.71552" lon="5.53527">
        <ele>283.8</ele>
        <time>2022-03-14T14:00:11Z</time>
      </trkpt>
      <trkpt lat="46.71542" lon="5.53535">
        <ele>284.2</ele>
        <time>2022-03-14T14:00:13Z</time>
      </trkpt>
      <trkpt lat="46.71519" lon="5.53558">
        <ele>284.8</ele>
        <time>2022-03-14T14:00:18Z</time>
      </trkpt>
      <trkpt lat="46.71496" lon="5.53583">
        <ele>285.2</ele>
        <time>2022-03-14T14:00:23Z</time>
      </trkpt>
      <trkpt lat="46.71473" lon="5.53607">
        <ele>285.8</ele>
        <time>2022-03-14T14:00:28Z</time>
      </trkpt>
      <trkpt lat="46.71461" lon="5.53619">
        <ele>286.2</ele>
        <time>2022-03-14T14:00:31Z</time>
      </trkpt>
      <trkpt lat="46.71439" lon="5.53646">
        <ele>287.2</ele>
        <time>2022-03-14T14:00:36Z</time>
      </trkpt>
      <trkpt lat="46.71435" lon="5.5365">
        <ele>287.4</ele>
        <time>2022-03-14T14:00:37Z</time>
      </trkpt>
      <trkpt lat="46.71406" lon="5.53673">
        <ele>288.2</ele>
        <time>2022-03-14T14:00:43Z</time>
      </trkpt>
      <trkpt lat="46.71401" lon="5.53676">
        <ele>288.4</ele>
        <time>2022-03-14T14:00:44Z</time>
      </trkpt>
      <trkpt lat="46.71378" lon="5.53682">
        <ele>289</ele>
        <time>2022-03-14T14:00:49Z</time>
      </trkpt>
      <trkpt lat="46.71367" lon="5.53684">
        <ele>289.4</ele>
        <time>2022-03-14T14:00:51Z</time>
      </trkpt>
      <trkpt lat="46.71352" lon="5.53687">
        <ele>290.6</ele>
        <time>2022-03-14T14:00:54Z</time>
      </trkpt>
      <trkpt lat="46.71331" lon="5.5369">
        <ele>291.2</ele>
        <time>2022-03-14T14:00:58Z</time>
      </trkpt>
      <trkpt lat="46.71321" lon="5.53691">
        <ele>291.8</ele>
        <time>2022-03-14T14:01:00Z</time>
      </trkpt>
      <trkpt lat="46.71284" lon="5.53701">
        <ele>292.8</ele>
        <time>2022-03-14T14:01:08Z</time>
      </trkpt>
      <trkpt lat="46.71279" lon="5.53702">
        <ele>293</ele>
        <time>2022-03-14T14:01:09Z</time>
      </trkpt>
      <trkpt lat="46.71261" lon="5.53711">
        <ele>294</ele>
        <time>2022-03-14T14:01:13Z</time>
      </trkpt>
      <trkpt lat="46.71257" lon="5.53713">
        <ele>294</ele>
        <time>2022-03-14T14:01:14Z</time>
      </trkpt>
      <trkpt lat="46.71248" lon="5.5372">
        <ele>294.4</ele>
        <time>2022-03-14T14:01:16Z</time>
      </trkpt>
      <trkpt lat="46.71241" lon="5.53723">
        <ele>294.6</ele>
        <time>2022-03-14T14:01:18Z</time>
      </trkpt>
      <trkpt lat="46.71233" lon="5.53721">
        <ele>295</ele>
        <time>2022-03-14T14:01:20Z</time>
      </trkpt>
      <trkpt lat="46.71223" lon="5.53704">
        <ele>295.8</ele>
        <time>2022-03-14T14:01:24Z</time>
      </trkpt>
      <trkpt lat="46.71218" lon="5.53694">
        <ele>296</ele>
        <time>2022-03-14T14:01:26Z</time>
      </trkpt>
      <trkpt lat="46.71206" lon="5.53673">
        <ele>297.4</ele>
        <time>2022-03-14T14:01:31Z</time>
      </trkpt>
      <trkpt lat="46.71202" lon="5.53668">
        <ele>297.6</ele>
        <time>2022-03-14T14:01:32Z</time>
      </trkpt>
      <trkpt lat="46.71195" lon="5.53655">
        <ele>298.6</ele>
        <time>2022-03-14T14:01:35Z</time>
      </trkpt>
      <trkpt lat="46.71182" lon="5.53639">
        <ele>299.4</ele>
        <time>2022-03-14T14:01:39Z</time>
      </trkpt>
      <trkpt lat="46.71179" lon="5.53637">
        <ele>299.8</ele>
        <time>2022-03-14T14:01:40Z</time>
      </trkpt>
      <trkpt lat="46.71165" lon="5.53621">
        <ele>301</ele>
        <time>2022-03-14T14:01:44Z</time>
      </trkpt>
      <trkpt lat="46.71157" lon="5.53614">
        <ele>301.2</ele>
        <time>2022-03-14T14:01:46Z</time>
      </trkpt>
      <trkpt lat="46.71131" lon="5.53588">
        <ele>301.4</ele>
        <time>2022-03-14T14:01:51Z</time>
      </trkpt>
      <trkpt lat="46.71101" lon="5.53549">
        <ele>299.8</ele>
        <time>2022-03-14T14:01:56Z</time>
      </trkpt>
      <trkpt lat="46.71089" lon="5.5353">
        <ele>298.8</ele>
        <time>2022-03-14T14:01:58Z</time>
      </trkpt>
      <trkpt lat="46.71069" lon="5.53492">
        <ele>297.4</ele>
        <time>2022-03-14T14:02:02Z</time>
      </trkpt>
      <trkpt lat="46.71047" lon="5.53451">
        <ele>296.2</ele>
        <time>2022-03-14T14:02:06Z</time>
      </trkpt>
      <trkpt lat="46.7104" lon="5.53437">
        <ele>295.8</ele>
        <time>2022-03-14T14:02:07Z</time>
      </trkpt>
      <trkpt lat="46.71035" lon="5.53428">
        <ele>295.2</ele>
        <time>2022-03-14T14:02:08Z</time>
      </trkpt>
      <trkpt lat="46.71014" lon="5.5339">
        <ele>293.4</ele>
        <time>2022-03-14T14:02:11Z</time>
      </trkpt>
      <trkpt lat="46.70999" lon="5.53366">
        <ele>292.2</ele>
        <time>2022-03-14T14:02:13Z</time>
      </trkpt>
      <trkpt lat="46.70983" lon="5.53342">
        <ele>290.8</ele>
        <time>2022-03-14T14:02:15Z</time>
      </trkpt>
      <trkpt lat="46.70968" lon="5.53316">
        <ele>289.8</ele>
        <time>2022-03-14T14:02:17Z</time>
      </trkpt>
      <trkpt lat="46.70961" lon="5.53301">
        <ele>288.8</ele>
        <time>2022-03-14T14:02:18Z</time>
      </trkpt>
      <trkpt lat="46.70956" lon="5.53286">
        <ele>288.4</ele>
        <time>2022-03-14T14:02:19Z</time>
      </trkpt>
      <trkpt lat="46.70945" lon="5.53254">
        <ele>287</ele>
        <time>2022-03-14T14:02:21Z</time>
      </trkpt>
      <trkpt lat="46.70939" lon="5.53238">
        <ele>286.2</ele>
        <time>2022-03-14T14:02:22Z</time>
      </trkpt>
      <trkpt lat="46.70933" lon="5.53223">
        <ele>285.6</ele>
        <time>2022-03-14T14:02:23Z</time>
      </trkpt>
      <trkpt lat="46.70921" lon="5.53193">
        <ele>284.4</ele>
        <time>2022-03-14T14:02:25Z</time>
      </trkpt>
      <trkpt lat="46.7091" lon="5.53163">
        <ele>283</ele>
        <time>2022-03-14T14:02:27Z</time>
      </trkpt>
      <trkpt lat="46.70899" lon="5.53133">
        <ele>282</ele>
        <time>2022-03-14T14:02:29Z</time>
      </trkpt>
      <trkpt lat="46.70894" lon="5.53118">
        <ele>281.6</ele>
        <time>2022-03-14T14:02:30Z</time>
      </trkpt>
      <trkpt lat="46.7089" lon="5.53103">
        <ele>280.4</ele>
        <time>2022-03-14T14:02:31Z</time>
      </trkpt>
      <trkpt lat="46.70881" lon="5.53074">
        <ele>279</ele>
        <time>2022-03-14T14:02:33Z</time>
      </trkpt>
      <trkpt lat="46.70876" lon="5.5306">
        <ele>278.6</ele>
        <time>2022-03-14T14:02:34Z</time>
      </trkpt>
      <trkpt lat="46.70866" lon="5.53033">
        <ele>277.8</ele>
        <time>2022-03-14T14:02:36Z</time>
      </trkpt>
      <trkpt lat="46.70851" lon="5.52993">
        <ele>276.6</ele>
        <time>2022-03-14T14:02:39Z</time>
      </trkpt>
      <trkpt lat="46.70847" lon="5.5298">
        <ele>276.2</ele>
        <time>2022-03-14T14:02:40Z</time>
      </trkpt>
      <trkpt lat="46.70843" lon="5.52967">
        <ele>275.4</ele>
        <time>2022-03-14T14:02:41Z</time>
      </trkpt>
      <trkpt lat="46.70836" lon="5.52941">
        <ele>273.8</ele>
        <time>2022-03-14T14:02:43Z</time>
      </trkpt>
      <trkpt lat="46.70833" lon="5.52928">
        <ele>273.6</ele>
        <time>2022-03-14T14:02:44Z</time>
      </trkpt>
      <trkpt lat="46.70827" lon="5.52892">
        <ele>272.6</ele>
        <time>2022-03-14T14:02:47Z</time>
      </trkpt>
      <trkpt lat="46.70824" lon="5.52877">
        <ele>272.4</ele>
        <time>2022-03-14T14:02:48Z</time>
      </trkpt>
      <trkpt lat="46.70818" lon="5.52855">
        <ele>272.2</ele>
        <time>2022-03-14T14:02:50Z</time>
      </trkpt>
      <trkpt lat="46.70793" lon="5.52797">
        <ele>271.8</ele>
        <time>2022-03-14T14:02:56Z</time>
      </trkpt>
      <trkpt lat="46.70788" lon="5.52788">
        <ele>271.6</ele>
        <time>2022-03-14T14:02:57Z</time>
      </trkpt>
      <trkpt lat="46.70782" lon="5.5278">
        <ele>271.6</ele>
        <time>2022-03-14T14:02:58Z</time>
      </trkpt>
      <trkpt lat="46.70776" lon="5.52772">
        <ele>271.6</ele>
        <time>2022-03-14T14:02:59Z</time>
      </trkpt>
      <trkpt lat="46.70769" lon="5.52766">
        <ele>271.4</ele>
        <time>2022-03-14T14:03:00Z</time>
      </trkpt>
      <trkpt lat="46.70741" lon="5.52745">
        <ele>270.4</ele>
        <time>2022-03-14T14:03:04Z</time>
      </trkpt>
      <trkpt lat="46.70729" lon="5.52732">
        <ele>270</ele>
        <time>2022-03-14T14:03:06Z</time>
      </trkpt>
      <trkpt lat="46.70721" lon="5.5272">
        <ele>269.8</ele>
        <time>2022-03-14T14:03:08Z</time>
      </trkpt>
      <trkpt lat="46.70719" lon="5.52711">
        <ele>269.8</ele>
        <time>2022-03-14T14:03:09Z</time>
      </trkpt>
      <trkpt lat="46.70719" lon="5.52705">
        <ele>269.6</ele>
        <time>2022-03-14T14:03:10Z</time>
      </trkpt>
      <trkpt lat="46.70725" lon="5.52694">
        <ele>269.6</ele>
        <time>2022-03-14T14:03:12Z</time>
      </trkpt>
      <trkpt lat="46.70755" lon="5.52658">
        <ele>269.6</ele>
        <time>2022-03-14T14:03:20Z</time>
      </trkpt>
      <trkpt lat="46.70774" lon="5.52634">
        <ele>271.4</ele>
        <time>2022-03-14T14:03:26Z</time>
      </trkpt>
      <trkpt lat="46.70785" lon="5.5262">
        <ele>272.6</ele>
        <time>2022-03-14T14:03:30Z</time>
      </trkpt>
      <trkpt lat="46.70797" lon="5.52606">
        <ele>273.6</ele>
        <time>2022-03-14T14:03:34Z</time>
      </trkpt>
      <trkpt lat="46.70806" lon="5.52594">
        <ele>274.6</ele>
        <time>2022-03-14T14:03:38Z</time>
      </trkpt>
      <trkpt lat="46.70809" lon="5.52591">
        <ele>274.8</ele>
        <time>2022-03-14T14:03:39Z</time>
      </trkpt>
      <trkpt lat="46.70819" lon="5.5258">
        <ele>276.2</ele>
        <time>2022-03-14T14:03:43Z</time>
      </trkpt>
      <trkpt lat="46.70825" lon="5.52576">
        <ele>277.2</ele>
        <time>2022-03-14T14:03:45Z</time>
      </trkpt>
      <trkpt lat="46.70828" lon="5.52573">
        <ele>277.4</ele>
        <time>2022-03-14T14:03:46Z</time>
      </trkpt>
      <trkpt lat="46.70837" lon="5.52566">
        <ele>278.2</ele>
        <time>2022-03-14T14:03:49Z</time>
      </trkpt>
      <trkpt lat="46.70846" lon="5.52561">
        <ele>279</ele>
        <time>2022-03-14T14:03:52Z</time>
      </trkpt>
      <trkpt lat="46.70849" lon="5.52559">
        <ele>279.2</ele>
        <time>2022-03-14T14:03:53Z</time>
      </trkpt>
      <trkpt lat="46.70858" lon="5.52554">
        <ele>280.4</ele>
        <time>2022-03-14T14:03:56Z</time>
      </trkpt>
      <trkpt lat="46.70868" lon="5.5255">
        <ele>281.4</ele>
        <time>2022-03-14T14:03:59Z</time>
      </trkpt>
      <trkpt lat="46.70888" lon="5.52543">
        <ele>282.4</ele>
        <time>2022-03-14T14:04:05Z</time>
      </trkpt>
      <trkpt lat="46.70899" lon="5.5254">
        <ele>283.2</ele>
        <time>2022-03-14T14:04:08Z</time>
      </trkpt>
      <trkpt lat="46.70907" lon="5.52537">
        <ele>283.6</ele>
        <time>2022-03-14T14:04:10Z</time>
      </trkpt>
      <trkpt lat="46.70931" lon="5.52525">
        <ele>284</ele>
        <time>2022-03-14T14:04:16Z</time>
      </trkpt>
      <trkpt lat="46.70946" lon="5.52513">
        <ele>284.6</ele>
        <time>2022-03-14T14:04:20Z</time>
      </trkpt>
      <trkpt lat="46.70949" lon="5.52509">
        <ele>284.8</ele>
        <time>2022-03-14T14:04:21Z</time>
      </trkpt>
      <trkpt lat="46.70952" lon="5.52505">
        <ele>285</ele>
        <time>2022-03-14T14:04:22Z</time>
      </trkpt>
      <trkpt lat="46.70966" lon="5.5249">
        <ele>285.4</ele>
        <time>2022-03-14T14:04:26Z</time>
      </trkpt>
      <trkpt lat="46.70971" lon="5.52482">
        <ele>285.6</ele>
        <time>2022-03-14T14:04:28Z</time>
      </trkpt>
      <trkpt lat="46.70973" lon="5.52477">
        <ele>286</ele>
        <time>2022-03-14T14:04:29Z</time>
      </trkpt>
      <trkpt lat="46.70982" lon="5.52448">
        <ele>287.4</ele>
        <time>2022-03-14T14:04:35Z</time>
      </trkpt>
      <trkpt lat="46.70987" lon="5.52425">
        <ele>288.6</ele>
        <time>2022-03-14T14:04:40Z</time>
      </trkpt>
      <trkpt lat="46.70989" lon="5.52416">
        <ele>289</ele>
        <time>2022-03-14T14:04:42Z</time>
      </trkpt>
      <trkpt lat="46.70992" lon="5.52402">
        <ele>289.8</ele>
        <time>2022-03-14T14:04:45Z</time>
      </trkpt>
      <trkpt lat="46.70997" lon="5.52386">
        <ele>290.2</ele>
        <time>2022-03-14T14:04:48Z</time>
      </trkpt>
      <trkpt lat="46.71004" lon="5.5237">
        <ele>290.8</ele>
        <time>2022-03-14T14:04:51Z</time>
      </trkpt>
      <trkpt lat="46.71013" lon="5.52354">
        <ele>291</ele>
        <time>2022-03-14T14:04:54Z</time>
      </trkpt>
      <trkpt lat="46.71025" lon="5.52334">
        <ele>291</ele>
        <time>2022-03-14T14:04:58Z</time>
      </trkpt>
      <trkpt lat="46.71032" lon="5.52325">
        <ele>291</ele>
        <time>2022-03-14T14:05:00Z</time>
      </trkpt>
      <trkpt lat="46.71044" lon="5.52314">
        <ele>291.2</ele>
        <time>2022-03-14T14:05:03Z</time>
      </trkpt>
      <trkpt lat="46.71059" lon="5.52304">
        <ele>291.4</ele>
        <time>2022-03-14T14:05:06Z</time>
      </trkpt>
      <trkpt lat="46.71089" lon="5.52279">
        <ele>291.2</ele>
        <time>2022-03-14T14:05:11Z</time>
      </trkpt>
      <trkpt lat="46.71106" lon="5.52255">
        <ele>291</ele>
        <time>2022-03-14T14:05:14Z</time>
      </trkpt>
      <trkpt lat="46.71112" lon="5.52246">
        <ele>290.4</ele>
        <time>2022-03-14T14:05:15Z</time>
      </trkpt>
      <trkpt lat="46.71116" lon="5.52235">
        <ele>290.2</ele>
        <time>2022-03-14T14:05:16Z</time>
      </trkpt>
      <trkpt lat="46.7112" lon="5.52224">
        <ele>289.6</ele>
        <time>2022-03-14T14:05:17Z</time>
      </trkpt>
      <trkpt lat="46.71123" lon="5.52211">
        <ele>289</ele>
        <time>2022-03-14T14:05:18Z</time>
      </trkpt>
      <trkpt lat="46.71125" lon="5.52198">
        <ele>288.4</ele>
        <time>2022-03-14T14:05:19Z</time>
      </trkpt>
      <trkpt lat="46.71126" lon="5.52184">
        <ele>288</ele>
        <time>2022-03-14T14:05:20Z</time>
      </trkpt>
      <trkpt lat="46.71126" lon="5.52169">
        <ele>287.4</ele>
        <time>2022-03-14T14:05:21Z</time>
      </trkpt>
      <trkpt lat="46.71125" lon="5.52154">
        <ele>286.8</ele>
        <time>2022-03-14T14:05:22Z</time>
      </trkpt>
      <trkpt lat="46.71119" lon="5.52125">
        <ele>286.2</ele>
        <time>2022-03-14T14:05:24Z</time>
      </trkpt>
      <trkpt lat="46.71115" lon="5.52111">
        <ele>285.8</ele>
        <time>2022-03-14T14:05:25Z</time>
      </trkpt>
      <trkpt lat="46.7111" lon="5.52098">
        <ele>284.6</ele>
        <time>2022-03-14T14:05:26Z</time>
      </trkpt>
      <trkpt lat="46.71098" lon="5.52073">
        <ele>283.2</ele>
        <time>2022-03-14T14:05:28Z</time>
      </trkpt>
      <trkpt lat="46.71085" lon="5.52048">
        <ele>282</ele>
        <time>2022-03-14T14:05:30Z</time>
      </trkpt>
      <trkpt lat="46.71079" lon="5.52036">
        <ele>281</ele>
        <time>2022-03-14T14:05:31Z</time>
      </trkpt>
      <trkpt lat="46.71059" lon="5.51999">
        <ele>280</ele>
        <time>2022-03-14T14:05:34Z</time>
      </trkpt>
      <trkpt lat="46.71046" lon="5.51971">
        <ele>279.2</ele>
        <time>2022-03-14T14:05:36Z</time>
      </trkpt>
      <trkpt lat="46.71041" lon="5.51957">
        <ele>279</ele>
        <time>2022-03-14T14:05:37Z</time>
      </trkpt>
      <trkpt lat="46.71035" lon="5.51931">
        <ele>278</ele>
        <time>2022-03-14T14:05:39Z</time>
      </trkpt>
      <trkpt lat="46.71033" lon="5.51915">
        <ele>277.4</ele>
        <time>2022-03-14T14:05:40Z</time>
      </trkpt>
      <trkpt lat="46.71025" lon="5.51866">
        <ele>277</ele>
        <time>2022-03-14T14:05:44Z</time>
      </trkpt>
      <trkpt lat="46.71023" lon="5.51853">
        <ele>277</ele>
        <time>2022-03-14T14:05:45Z</time>
      </trkpt>
      <trkpt lat="46.71007" lon="5.51809">
        <ele>277.8</ele>
        <time>2022-03-14T14:05:50Z</time>
      </trkpt>
      <trkpt lat="46.71003" lon="5.51801">
        <ele>278</ele>
        <time>2022-03-14T14:05:51Z</time>
      </trkpt>
      <trkpt lat="46.7099" lon="5.51781">
        <ele>278.8</ele>
        <time>2022-03-14T14:05:54Z</time>
      </trkpt>
      <trkpt lat="46.70985" lon="5.51776">
        <ele>279</ele>
        <time>2022-03-14T14:05:55Z</time>
      </trkpt>
      <trkpt lat="46.70968" lon="5.51754">
        <ele>280</ele>
        <time>2022-03-14T14:05:59Z</time>
      </trkpt>
      <trkpt lat="46.70955" lon="5.5174">
        <ele>281</ele>
        <time>2022-03-14T14:06:02Z</time>
      </trkpt>
      <trkpt lat="46.7095" lon="5.51736">
        <ele>281.6</ele>
        <time>2022-03-14T14:06:03Z</time>
      </trkpt>
      <trkpt lat="46.70933" lon="5.51718">
        <ele>282.6</ele>
        <time>2022-03-14T14:06:07Z</time>
      </trkpt>
      <trkpt lat="46.70922" lon="5.51707">
        <ele>283.4</ele>
        <time>2022-03-14T14:06:10Z</time>
      </trkpt>
      <trkpt lat="46.70918" lon="5.51703">
        <ele>283.6</ele>
        <time>2022-03-14T14:06:11Z</time>
      </trkpt>
      <trkpt lat="46.70901" lon="5.51686">
        <ele>284.8</ele>
        <time>2022-03-14T14:06:15Z</time>
      </trkpt>
      <trkpt lat="46.7089" lon="5.51671">
        <ele>285.6</ele>
        <time>2022-03-14T14:06:18Z</time>
      </trkpt>
      <trkpt lat="46.70887" lon="5.51667">
        <ele>285.8</ele>
        <time>2022-03-14T14:06:19Z</time>
      </trkpt>
      <trkpt lat="46.70878" lon="5.51655">
        <ele>287</ele>
        <time>2022-03-14T14:06:22Z</time>
      </trkpt>
      <trkpt lat="46.70868" lon="5.51641">
        <ele>287.6</ele>
        <time>2022-03-14T14:06:25Z</time>
      </trkpt>
      <trkpt lat="46.70859" lon="5.51629">
        <ele>288.2</ele>
        <time>2022-03-14T14:06:28Z</time>
      </trkpt>
      <trkpt lat="46.7085" lon="5.51619">
        <ele>289.4</ele>
        <time>2022-03-14T14:06:31Z</time>
      </trkpt>
      <trkpt lat="46.7084" lon="5.51608">
        <ele>290</ele>
        <time>2022-03-14T14:06:34Z</time>
      </trkpt>
      <trkpt lat="46.7083" lon="5.51595">
        <ele>290.6</ele>
        <time>2022-03-14T14:06:37Z</time>
      </trkpt>
      <trkpt lat="46.70812" lon="5.51576">
        <ele>291.6</ele>
        <time>2022-03-14T14:06:42Z</time>
      </trkpt>
      <trkpt lat="46.70805" lon="5.51568">
        <ele>291.8</ele>
        <time>2022-03-14T14:06:44Z</time>
      </trkpt>
      <trkpt lat="46.70789" lon="5.51542">
        <ele>292.4</ele>
        <time>2022-03-14T14:06:49Z</time>
      </trkpt>
      <trkpt lat="46.70784" lon="5.51529">
        <ele>292.6</ele>
        <time>2022-03-14T14:06:51Z</time>
      </trkpt>
      <trkpt lat="46.70781" lon="5.51508">
        <ele>293</ele>
        <time>2022-03-14T14:06:54Z</time>
      </trkpt>
      <trkpt lat="46.70778" lon="5.51476">
        <ele>293.8</ele>
        <time>2022-03-14T14:06:59Z</time>
      </trkpt>
      <trkpt lat="46.70777" lon="5.51463">
        <ele>294.2</ele>
        <time>2022-03-14T14:07:01Z</time>
      </trkpt>
      <trkpt lat="46.70772" lon="5.51428">
        <ele>295</ele>
        <time>2022-03-14T14:07:06Z</time>
      </trkpt>
      <trkpt lat="46.70768" lon="5.51374">
        <ele>294.4</ele>
        <time>2022-03-14T14:07:12Z</time>
      </trkpt>
      <trkpt lat="46.70768" lon="5.51353">
        <ele>294</ele>
        <time>2022-03-14T14:07:14Z</time>
      </trkpt>
      <trkpt lat="46.70774" lon="5.51333">
        <ele>293.4</ele>
        <time>2022-03-14T14:07:16Z</time>
      </trkpt>
      <trkpt lat="46.70779" lon="5.51324">
        <ele>292.8</ele>
        <time>2022-03-14T14:07:17Z</time>
      </trkpt>
      <trkpt lat="46.70797" lon="5.51299">
        <ele>291.4</ele>
        <time>2022-03-14T14:07:20Z</time>
      </trkpt>
      <trkpt lat="46.7081" lon="5.51282">
        <ele>290.2</ele>
        <time>2022-03-14T14:07:22Z</time>
      </trkpt>
      <trkpt lat="46.70832" lon="5.51257">
        <ele>289.4</ele>
        <time>2022-03-14T14:07:25Z</time>
      </trkpt>
      <trkpt lat="46.70839" lon="5.51247">
        <ele>288.8</ele>
        <time>2022-03-14T14:07:26Z</time>
      </trkpt>
      <trkpt lat="46.70845" lon="5.51237">
        <ele>288.4</ele>
        <time>2022-03-14T14:07:27Z</time>
      </trkpt>
      <trkpt lat="46.70855" lon="5.51211">
        <ele>287.6</ele>
        <time>2022-03-14T14:07:29Z</time>
      </trkpt>
      <trkpt lat="46.70862" lon="5.51185">
        <ele>285.8</ele>
        <time>2022-03-14T14:07:31Z</time>
      </trkpt>
      <trkpt lat="46.70864" lon="5.51158">
        <ele>285</ele>
        <time>2022-03-14T14:07:33Z</time>
      </trkpt>
      <trkpt lat="46.70864" lon="5.51132">
        <ele>284.6</ele>
        <time>2022-03-14T14:07:35Z</time>
      </trkpt>
      <trkpt lat="46.70861" lon="5.51094">
        <ele>284.2</ele>
        <time>2022-03-14T14:07:38Z</time>
      </trkpt>
      <trkpt lat="46.70856" lon="5.51048">
        <ele>283.8</ele>
        <time>2022-03-14T14:07:42Z</time>
      </trkpt>
      <trkpt lat="46.70853" lon="5.51037">
        <ele>283.8</ele>
        <time>2022-03-14T14:07:43Z</time>
      </trkpt>
      <trkpt lat="46.7085" lon="5.51027">
        <ele>283.8</ele>
        <time>2022-03-14T14:07:44Z</time>
      </trkpt>
      <trkpt lat="46.70839" lon="5.51006">
        <ele>283.6</ele>
        <time>2022-03-14T14:07:46Z</time>
      </trkpt>
      <trkpt lat="46.70833" lon="5.50997">
        <ele>283.6</ele>
        <time>2022-03-14T14:07:47Z</time>
      </trkpt>
      <trkpt lat="46.70808" lon="5.50951">
        <ele>282.4</ele>
        <time>2022-03-14T14:07:51Z</time>
      </trkpt>
      <trkpt lat="46.70802" lon="5.50938">
        <ele>281.8</ele>
        <time>2022-03-14T14:07:52Z</time>
      </trkpt>
      <trkpt lat="46.7079" lon="5.50912">
        <ele>280.8</ele>
        <time>2022-03-14T14:07:54Z</time>
      </trkpt>
      <trkpt lat="46.70785" lon="5.50898">
        <ele>279.8</ele>
        <time>2022-03-14T14:07:55Z</time>
      </trkpt>
      <trkpt lat="46.70782" lon="5.50882">
        <ele>278.8</ele>
        <time>2022-03-14T14:07:56Z</time>
      </trkpt>
      <trkpt lat="46.7078" lon="5.50865">
        <ele>278.6</ele>
        <time>2022-03-14T14:07:57Z</time>
      </trkpt>
      <trkpt lat="46.7078" lon="5.50848">
        <ele>277.6</ele>
        <time>2022-03-14T14:07:58Z</time>
      </trkpt>
      <trkpt lat="46.70779" lon="5.50815">
        <ele>276</ele>
        <time>2022-03-14T14:08:00Z</time>
      </trkpt>
      <trkpt lat="46.70778" lon="5.50798">
        <ele>275</ele>
        <time>2022-03-14T14:08:01Z</time>
      </trkpt>
      <trkpt lat="46.70778" lon="5.50763">
        <ele>273.2</ele>
        <time>2022-03-14T14:08:03Z</time>
      </trkpt>
      <trkpt lat="46.70778" lon="5.50731">
        <ele>271.4</ele>
        <time>2022-03-14T14:08:05Z</time>
      </trkpt>
      <trkpt lat="46.70781" lon="5.50716">
        <ele>270.6</ele>
        <time>2022-03-14T14:08:06Z</time>
      </trkpt>
      <trkpt lat="46.70785" lon="5.507">
        <ele>269.4</ele>
        <time>2022-03-14T14:08:07Z</time>
      </trkpt>
      <trkpt lat="46.70791" lon="5.50686">
        <ele>268</ele>
        <time>2022-03-14T14:08:08Z</time>
      </trkpt>
      <trkpt lat="46.70797" lon="5.50672">
        <ele>267.4</ele>
        <time>2022-03-14T14:08:09Z</time>
      </trkpt>
      <trkpt lat="46.70804" lon="5.50658">
        <ele>266</ele>
        <time>2022-03-14T14:08:10Z</time>
      </trkpt>
      <trkpt lat="46.70816" lon="5.50628">
        <ele>264.6</ele>
        <time>2022-03-14T14:08:12Z</time>
      </trkpt>
      <trkpt lat="46.70819" lon="5.50611">
        <ele>264.2</ele>
        <time>2022-03-14T14:08:13Z</time>
      </trkpt>
      <trkpt lat="46.70819" lon="5.50594">
        <ele>263.2</ele>
        <time>2022-03-14T14:08:14Z</time>
      </trkpt>
      <trkpt lat="46.70816" lon="5.50577">
        <ele>261.6</ele>
        <time>2022-03-14T14:08:15Z</time>
      </trkpt>
      <trkpt lat="46.70811" lon="5.5056">
        <ele>260.8</ele>
        <time>2022-03-14T14:08:16Z</time>
      </trkpt>
      <trkpt lat="46.70806" lon="5.50542">
        <ele>259.2</ele>
        <time>2022-03-14T14:08:17Z</time>
      </trkpt>
      <trkpt lat="46.70803" lon="5.50524">
        <ele>258.6</ele>
        <time>2022-03-14T14:08:18Z</time>
      </trkpt>
      <trkpt lat="46.70803" lon="5.50506">
        <ele>257.4</ele>
        <time>2022-03-14T14:08:19Z</time>
      </trkpt>
      <trkpt lat="46.70806" lon="5.50469">
        <ele>255.6</ele>
        <time>2022-03-14T14:08:21Z</time>
      </trkpt>
      <trkpt lat="46.70809" lon="5.5045">
        <ele>253.6</ele>
        <time>2022-03-14T14:08:22Z</time>
      </trkpt>
      <trkpt lat="46.70811" lon="5.50431">
        <ele>253</ele>
        <time>2022-03-14T14:08:23Z</time>
      </trkpt>
      <trkpt lat="46.70812" lon="5.50412">
        <ele>251.8</ele>
        <time>2022-03-14T14:08:24Z</time>
      </trkpt>
      <trkpt lat="46.70812" lon="5.50393">
        <ele>250.8</ele>
        <time>2022-03-14T14:08:25Z</time>
      </trkpt>
      <trkpt lat="46.70809" lon="5.50374">
        <ele>248.8</ele>
        <time>2022-03-14T14:08:26Z</time>
      </trkpt>
      <trkpt lat="46.70804" lon="5.50356">
        <ele>248</ele>
        <time>2022-03-14T14:08:27Z</time>
      </trkpt>
      <trkpt lat="46.70798" lon="5.5034">
        <ele>246.6</ele>
        <time>2022-03-14T14:08:28Z</time>
      </trkpt>
      <trkpt lat="46.7079" lon="5.50325">
        <ele>245.6</ele>
        <time>2022-03-14T14:08:29Z</time>
      </trkpt>
      <trkpt lat="46.70781" lon="5.50311">
        <ele>244.8</ele>
        <time>2022-03-14T14:08:30Z</time>
      </trkpt>
      <trkpt lat="46.70772" lon="5.50298">
        <ele>243.6</ele>
        <time>2022-03-14T14:08:31Z</time>
      </trkpt>
      <trkpt lat="46.70755" lon="5.50272">
        <ele>241.8</ele>
        <time>2022-03-14T14:08:33Z</time>
      </trkpt>
      <trkpt lat="46.70738" lon="5.50247">
        <ele>240.2</ele>
        <time>2022-03-14T14:08:35Z</time>
      </trkpt>
      <trkpt lat="46.70717" lon="5.50206">
        <ele>239</ele>
        <time>2022-03-14T14:08:38Z</time>
      </trkpt>
      <trkpt lat="46.70712" lon="5.50191">
        <ele>238.8</ele>
        <time>2022-03-14T14:08:39Z</time>
      </trkpt>
      <trkpt lat="46.70708" lon="5.50176">
        <ele>238.8</ele>
        <time>2022-03-14T14:08:40Z</time>
      </trkpt>
      <trkpt lat="46.70705" lon="5.50146">
        <ele>238</ele>
        <time>2022-03-14T14:08:42Z</time>
      </trkpt>
      <trkpt lat="46.70704" lon="5.50131">
        <ele>237.8</ele>
        <time>2022-03-14T14:08:43Z</time>
      </trkpt>
      <trkpt lat="46.70699" lon="5.5006">
        <ele>237</ele>
        <time>2022-03-14T14:08:48Z</time>
      </trkpt>
      <trkpt lat="46.70692" lon="5.49998">
        <ele>237.6</ele>
        <time>2022-03-14T14:08:53Z</time>
      </trkpt>
      <trkpt lat="46.70684" lon="5.49954">
        <ele>238.6</ele>
        <time>2022-03-14T14:08:57Z</time>
      </trkpt>
      <trkpt lat="46.70682" lon="5.49943">
        <ele>238.8</ele>
        <time>2022-03-14T14:08:58Z</time>
      </trkpt>
      <trkpt lat="46.7067" lon="5.49893">
        <ele>239.6</ele>
        <time>2022-03-14T14:09:03Z</time>
      </trkpt>
      <trkpt lat="46.70666" lon="5.49873">
        <ele>240</ele>
        <time>2022-03-14T14:09:05Z</time>
      </trkpt>
      <trkpt lat="46.70658" lon="5.49836">
        <ele>240.2</ele>
        <time>2022-03-14T14:09:09Z</time>
      </trkpt>
      <trkpt lat="46.70646" lon="5.49782">
        <ele>240.4</ele>
        <time>2022-03-14T14:09:15Z</time>
      </trkpt>
      <trkpt lat="46.70631" lon="5.49712">
        <ele>240</ele>
        <time>2022-03-14T14:09:22Z</time>
      </trkpt>
      <trkpt lat="46.70614" lon="5.49627">
        <ele>239.2</ele>
        <time>2022-03-14T14:09:30Z</time>
      </trkpt>
      <trkpt lat="46.70601" lon="5.49566">
        <ele>239</ele>
        <time>2022-03-14T14:09:36Z</time>
      </trkpt>
      <trkpt lat="46.70588" lon="5.49496">
        <ele>239</ele>
        <time>2022-03-14T14:09:43Z</time>
      </trkpt>
      <trkpt lat="46.70575" lon="5.49443">
        <ele>238.8</ele>
        <time>2022-03-14T14:09:49Z</time>
      </trkpt>
      <trkpt lat="46.70564" lon="5.49391">
        <ele>240.2</ele>
        <time>2022-03-14T14:09:56Z</time>
      </trkpt>
      <trkpt lat="46.70561" lon="5.49374">
        <ele>241.2</ele>
        <time>2022-03-14T14:09:58Z</time>
      </trkpt>
      <trkpt lat="46.70555" lon="5.49348">
        <ele>241.6</ele>
        <time>2022-03-14T14:10:01Z</time>
      </trkpt>
      <trkpt lat="46.70553" lon="5.49339">
        <ele>241.6</ele>
        <time>2022-03-14T14:10:02Z</time>
      </trkpt>
      <trkpt lat="46.70543" lon="5.49288">
        <ele>241.6</ele>
        <time>2022-03-14T14:10:07Z</time>
      </trkpt>
      <trkpt lat="46.70538" lon="5.49266">
        <ele>241.6</ele>
        <time>2022-03-14T14:10:09Z</time>
      </trkpt>
      <trkpt lat="46.70532" lon="5.49234">
        <ele>241.2</ele>
        <time>2022-03-14T14:10:12Z</time>
      </trkpt>
      <trkpt lat="46.70519" lon="5.49164">
        <ele>240.2</ele>
        <time>2022-03-14T14:10:18Z</time>
      </trkpt>
      <trkpt lat="46.70516" lon="5.49152">
        <ele>239.8</ele>
        <time>2022-03-14T14:10:19Z</time>
      </trkpt>
      <trkpt lat="46.70506" lon="5.49108">
        <ele>239.4</ele>
        <time>2022-03-14T14:10:23Z</time>
      </trkpt>
      <trkpt lat="46.70494" lon="5.49059">
        <ele>239.2</ele>
        <time>2022-03-14T14:10:28Z</time>
      </trkpt>
      <trkpt lat="46.70479" lon="5.48994">
        <ele>239.6</ele>
        <time>2022-03-14T14:10:35Z</time>
      </trkpt>
      <trkpt lat="46.70464" lon="5.48918">
        <ele>239.8</ele>
        <time>2022-03-14T14:10:43Z</time>
      </trkpt>
      <trkpt lat="46.7046" lon="5.48901">
        <ele>239.8</ele>
        <time>2022-03-14T14:10:45Z</time>
      </trkpt>
      <trkpt lat="46.70447" lon="5.48834">
        <ele>240.4</ele>
        <time>2022-03-14T14:10:53Z</time>
      </trkpt>
      <trkpt lat="46.70436" lon="5.48782">
        <ele>241</ele>
        <time>2022-03-14T14:10:59Z</time>
      </trkpt>
      <trkpt lat="46.70435" lon="5.48773">
        <ele>241.2</ele>
        <time>2022-03-14T14:11:00Z</time>
      </trkpt>
      <trkpt lat="46.70419" lon="5.48705">
        <ele>242.2</ele>
        <time>2022-03-14T14:11:08Z</time>
      </trkpt>
      <trkpt lat="46.70417" lon="5.48696">
        <ele>242.2</ele>
        <time>2022-03-14T14:11:09Z</time>
      </trkpt>
      <trkpt lat="46.70407" lon="5.48652">
        <ele>243.2</ele>
        <time>2022-03-14T14:11:14Z</time>
      </trkpt>
      <trkpt lat="46.70405" lon="5.48643">
        <ele>243.4</ele>
        <time>2022-03-14T14:11:15Z</time>
      </trkpt>
      <trkpt lat="46.70403" lon="5.48634">
        <ele>243.6</ele>
        <time>2022-03-14T14:11:16Z</time>
      </trkpt>
      <trkpt lat="46.70398" lon="5.48609">
        <ele>244.2</ele>
        <time>2022-03-14T14:11:19Z</time>
      </trkpt>
      <trkpt lat="46.70385" lon="5.48547">
        <ele>244.4</ele>
        <time>2022-03-14T14:11:26Z</time>
      </trkpt>
      <trkpt lat="46.70373" lon="5.48483">
        <ele>244.6</ele>
        <time>2022-03-14T14:11:33Z</time>
      </trkpt>
      <trkpt lat="46.70362" lon="5.48413">
        <ele>244</ele>
        <time>2022-03-14T14:11:41Z</time>
      </trkpt>
      <trkpt lat="46.70362" lon="5.48407">
        <ele>243.8</ele>
        <time>2022-03-14T14:11:42Z</time>
      </trkpt>
      <trkpt lat="46.70361" lon="5.48393">
        <ele>243.8</ele>
        <time>2022-03-14T14:11:45Z</time>
      </trkpt>
      <trkpt lat="46.70358" lon="5.48384">
        <ele>243.8</ele>
        <time>2022-03-14T14:11:47Z</time>
      </trkpt>
      <trkpt lat="46.70354" lon="5.48381">
        <ele>243.8</ele>
        <time>2022-03-14T14:11:48Z</time>
      </trkpt>
      <trkpt lat="46.7035" lon="5.48382">
        <ele>243.8</ele>
        <time>2022-03-14T14:11:49Z</time>
      </trkpt>
      <trkpt lat="46.70339" lon="5.48387">
        <ele>243.8</ele>
        <time>2022-03-14T14:11:51Z</time>
      </trkpt>
      <trkpt lat="46.70306" lon="5.48406">
        <ele>243.8</ele>
        <time>2022-03-14T14:11:56Z</time>
      </trkpt>
      <trkpt lat="46.70292" lon="5.48415">
        <ele>244</ele>
        <time>2022-03-14T14:11:58Z</time>
      </trkpt>
      <trkpt lat="46.7025" lon="5.48439">
        <ele>244.2</ele>
        <time>2022-03-14T14:12:04Z</time>
      </trkpt>
      <trkpt lat="46.70196" lon="5.48468">
        <ele>244.8</ele>
        <time>2022-03-14T14:12:12Z</time>
      </trkpt>
      <trkpt lat="46.70182" lon="5.48476">
        <ele>245.2</ele>
        <time>2022-03-14T14:12:14Z</time>
      </trkpt>
      <trkpt lat="46.70147" lon="5.48498">
        <ele>245.2</ele>
        <time>2022-03-14T14:12:19Z</time>
      </trkpt>
      <trkpt lat="46.70099" lon="5.48538">
        <ele>245</ele>
        <time>2022-03-14T14:12:26Z</time>
      </trkpt>
      <trkpt lat="46.70055" lon="5.48584">
        <ele>245</ele>
        <time>2022-03-14T14:12:33Z</time>
      </trkpt>
      <trkpt lat="46.70049" lon="5.48592">
        <ele>245.2</ele>
        <time>2022-03-14T14:12:34Z</time>
      </trkpt>
      <trkpt lat="46.70043" lon="5.48598">
        <ele>245.2</ele>
        <time>2022-03-14T14:12:35Z</time>
      </trkpt>
      <trkpt lat="46.70029" lon="5.48606">
        <ele>245.2</ele>
        <time>2022-03-14T14:12:37Z</time>
      </trkpt>
      <trkpt lat="46.70014" lon="5.48601">
        <ele>245.4</ele>
        <time>2022-03-14T14:12:39Z</time>
      </trkpt>
      <trkpt lat="46.70002" lon="5.48588">
        <ele>245.6</ele>
        <time>2022-03-14T14:12:41Z</time>
      </trkpt>
      <trkpt lat="46.69996" lon="5.4858">
        <ele>245.6</ele>
        <time>2022-03-14T14:12:42Z</time>
      </trkpt>
      <trkpt lat="46.69959" lon="5.48522">
        <ele>245.8</ele>
        <time>2022-03-14T14:12:49Z</time>
      </trkpt>
      <trkpt lat="46.69948" lon="5.48505">
        <ele>245.8</ele>
        <time>2022-03-14T14:12:51Z</time>
      </trkpt>
      <trkpt lat="46.69944" lon="5.48497">
        <ele>245.8</ele>
        <time>2022-03-14T14:12:52Z</time>
      </trkpt>
      <trkpt lat="46.69925" lon="5.48465">
        <ele>245</ele>
        <time>2022-03-14T14:12:56Z</time>
      </trkpt>
      <trkpt lat="46.69898" lon="5.48421">
        <ele>244</ele>
        <time>2022-03-14T14:13:01Z</time>
      </trkpt>
      <trkpt lat="46.69882" lon="5.48395">
        <ele>243.8</ele>
        <time>2022-03-14T14:13:04Z</time>
      </trkpt>
      <trkpt lat="46.69843" lon="5.48335">
        <ele>243.6</ele>
        <time>2022-03-14T14:13:11Z</time>
      </trkpt>
      <trkpt lat="46.69838" lon="5.48328">
        <ele>243.6</ele>
        <time>2022-03-14T14:13:12Z</time>
      </trkpt>
      <trkpt lat="46.69813" lon="5.4829">
        <ele>243.8</ele>
        <time>2022-03-14T14:13:17Z</time>
      </trkpt>
      <trkpt lat="46.69792" lon="5.48256">
        <ele>243.6</ele>
        <time>2022-03-14T14:13:21Z</time>
      </trkpt>
      <trkpt lat="46.69781" lon="5.48241">
        <ele>243.6</ele>
        <time>2022-03-14T14:13:23Z</time>
      </trkpt>
      <trkpt lat="46.6974" lon="5.48183">
        <ele>243.4</ele>
        <time>2022-03-14T14:13:30Z</time>
      </trkpt>
      <trkpt lat="46.69734" lon="5.48174">
        <ele>243.4</ele>
        <time>2022-03-14T14:13:31Z</time>
      </trkpt>
      <trkpt lat="46.69704" lon="5.4813">
        <ele>242.8</ele>
        <time>2022-03-14T14:13:36Z</time>
      </trkpt>
      <trkpt lat="46.69678" lon="5.48087">
        <ele>242.6</ele>
        <time>2022-03-14T14:13:41Z</time>
      </trkpt>
      <trkpt lat="46.69638" lon="5.48026">
        <ele>242.4</ele>
        <time>2022-03-14T14:13:48Z</time>
      </trkpt>
      <trkpt lat="46.69623" lon="5.48">
        <ele>242</ele>
        <time>2022-03-14T14:13:51Z</time>
      </trkpt>
      <trkpt lat="46.69612" lon="5.47983">
        <ele>241.8</ele>
        <time>2022-03-14T14:13:53Z</time>
      </trkpt>
      <trkpt lat="46.69589" lon="5.47949">
        <ele>241.6</ele>
        <time>2022-03-14T14:13:57Z</time>
      </trkpt>
      <trkpt lat="46.69562" lon="5.47909">
        <ele>241</ele>
        <time>2022-03-14T14:14:02Z</time>
      </trkpt>
      <trkpt lat="46.69548" lon="5.47896">
        <ele>240.8</ele>
        <time>2022-03-14T14:14:04Z</time>
      </trkpt>
      <trkpt lat="46.6954" lon="5.47892">
        <ele>240.8</ele>
        <time>2022-03-14T14:14:05Z</time>
      </trkpt>
      <trkpt lat="46.69514" lon="5.47882">
        <ele>240.4</ele>
        <time>2022-03-14T14:14:08Z</time>
      </trkpt>
      <trkpt lat="46.69477" lon="5.47873">
        <ele>239.6</ele>
        <time>2022-03-14T14:14:12Z</time>
      </trkpt>
      <trkpt lat="46.69468" lon="5.47872">
        <ele>239.4</ele>
        <time>2022-03-14T14:14:13Z</time>
      </trkpt>
      <trkpt lat="46.69441" lon="5.47876">
        <ele>238.4</ele>
        <time>2022-03-14T14:14:16Z</time>
      </trkpt>
      <trkpt lat="46.69414" lon="5.47881">
        <ele>238</ele>
        <time>2022-03-14T14:14:19Z</time>
      </trkpt>
      <trkpt lat="46.69355" lon="5.47889">
        <ele>237.6</ele>
        <time>2022-03-14T14:14:26Z</time>
      </trkpt>
      <trkpt lat="46.69347" lon="5.47889">
        <ele>237.6</ele>
        <time>2022-03-14T14:14:27Z</time>
      </trkpt>
      <trkpt lat="46.69339" lon="5.4789">
        <ele>237.4</ele>
        <time>2022-03-14T14:14:28Z</time>
      </trkpt>
      <trkpt lat="46.69315" lon="5.47893">
        <ele>237.4</ele>
        <time>2022-03-14T14:14:31Z</time>
      </trkpt>
      <trkpt lat="46.69307" lon="5.47896">
        <ele>237.2</ele>
        <time>2022-03-14T14:14:32Z</time>
      </trkpt>
      <trkpt lat="46.693" lon="5.479">
        <ele>237.2</ele>
        <time>2022-03-14T14:14:33Z</time>
      </trkpt>
      <trkpt lat="46.69281" lon="5.47916">
        <ele>237.4</ele>
        <time>2022-03-14T14:14:36Z</time>
      </trkpt>
      <trkpt lat="46.69252" lon="5.47944">
        <ele>237.8</ele>
        <time>2022-03-14T14:14:41Z</time>
      </trkpt>
      <trkpt lat="46.69246" lon="5.47948">
        <ele>238</ele>
        <time>2022-03-14T14:14:42Z</time>
      </trkpt>
      <trkpt lat="46.6924" lon="5.4795">
        <ele>238</ele>
        <time>2022-03-14T14:14:43Z</time>
      </trkpt>
      <trkpt lat="46.69227" lon="5.47946">
        <ele>238.4</ele>
        <time>2022-03-14T14:14:45Z</time>
      </trkpt>
      <trkpt lat="46.69217" lon="5.47935">
        <ele>238.6</ele>
        <time>2022-03-14T14:14:47Z</time>
      </trkpt>
      <trkpt lat="46.69212" lon="5.47928">
        <ele>238.8</ele>
        <time>2022-03-14T14:14:48Z</time>
      </trkpt>
      <trkpt lat="46.69187" lon="5.47885">
        <ele>239.6</ele>
        <time>2022-03-14T14:14:54Z</time>
      </trkpt>
      <trkpt lat="46.69174" lon="5.47864">
        <ele>241</ele>
        <time>2022-03-14T14:14:57Z</time>
      </trkpt>
      <trkpt lat="46.69142" lon="5.47811">
        <ele>242</ele>
        <time>2022-03-14T14:15:05Z</time>
      </trkpt>
      <trkpt lat="46.69129" lon="5.4779">
        <ele>242.2</ele>
        <time>2022-03-14T14:15:08Z</time>
      </trkpt>
      <trkpt lat="46.69089" lon="5.47726">
        <ele>242.6</ele>
        <time>2022-03-14T14:15:17Z</time>
      </trkpt>
      <trkpt lat="46.69084" lon="5.47718">
        <ele>242.6</ele>
        <time>2022-03-14T14:15:18Z</time>
      </trkpt>
      <trkpt lat="46.69044" lon="5.47655">
        <ele>242.8</ele>
        <time>2022-03-14T14:15:26Z</time>
      </trkpt>
      <trkpt lat="46.69005" lon="5.47593">
        <ele>242.4</ele>
        <time>2022-03-14T14:15:34Z</time>
      </trkpt>
      <trkpt lat="46.69" lon="5.47585">
        <ele>242.4</ele>
        <time>2022-03-14T14:15:35Z</time>
      </trkpt>
      <trkpt lat="46.68963" lon="5.47524">
        <ele>242.6</ele>
        <time>2022-03-14T14:15:43Z</time>
      </trkpt>
      <trkpt lat="46.68958" lon="5.47517">
        <ele>242.6</ele>
        <time>2022-03-14T14:15:44Z</time>
      </trkpt>
      <trkpt lat="46.68921" lon="5.47457">
        <ele>242.6</ele>
        <time>2022-03-14T14:15:52Z</time>
      </trkpt>
      <trkpt lat="46.68906" lon="5.47432">
        <ele>242.6</ele>
        <time>2022-03-14T14:15:55Z</time>
      </trkpt>
      <trkpt lat="46.68876" lon="5.47394">
        <ele>242.2</ele>
        <time>2022-03-14T14:16:00Z</time>
      </trkpt>
      <trkpt lat="46.68847" lon="5.47367">
        <ele>241.2</ele>
        <time>2022-03-14T14:16:04Z</time>
      </trkpt>
      <trkpt lat="46.68839" lon="5.47361">
        <ele>240.8</ele>
        <time>2022-03-14T14:16:05Z</time>
      </trkpt>
      <trkpt lat="46.68803" lon="5.47349">
        <ele>239.6</ele>
        <time>2022-03-14T14:16:09Z</time>
      </trkpt>
      <trkpt lat="46.68794" lon="5.47346">
        <ele>239.4</ele>
        <time>2022-03-14T14:16:10Z</time>
      </trkpt>
      <trkpt lat="46.68777" lon="5.47344">
        <ele>238.4</ele>
        <time>2022-03-14T14:16:12Z</time>
      </trkpt>
      <trkpt lat="46.68748" lon="5.47341">
        <ele>237.4</ele>
        <time>2022-03-14T14:16:15Z</time>
      </trkpt>
      <trkpt lat="46.6874" lon="5.47338">
        <ele>237.2</ele>
        <time>2022-03-14T14:16:16Z</time>
      </trkpt>
      <trkpt lat="46.68732" lon="5.47334">
        <ele>237.4</ele>
        <time>2022-03-14T14:16:17Z</time>
      </trkpt>
      <trkpt lat="46.68725" lon="5.47327">
        <ele>237.2</ele>
        <time>2022-03-14T14:16:18Z</time>
      </trkpt>
      <trkpt lat="46.68719" lon="5.47319">
        <ele>237.2</ele>
        <time>2022-03-14T14:16:19Z</time>
      </trkpt>
      <trkpt lat="46.68705" lon="5.47294">
        <ele>237.4</ele>
        <time>2022-03-14T14:16:22Z</time>
      </trkpt>
      <trkpt lat="46.68672" lon="5.4723">
        <ele>238.6</ele>
        <time>2022-03-14T14:16:29Z</time>
      </trkpt>
      <trkpt lat="46.6864" lon="5.47169">
        <ele>239.6</ele>
        <time>2022-03-14T14:16:36Z</time>
      </trkpt>
      <trkpt lat="46.68616" lon="5.47127">
        <ele>240.6</ele>
        <time>2022-03-14T14:16:41Z</time>
      </trkpt>
      <trkpt lat="46.68602" lon="5.47102">
        <ele>240.8</ele>
        <time>2022-03-14T14:16:44Z</time>
      </trkpt>
      <trkpt lat="46.68561" lon="5.47028">
        <ele>240.6</ele>
        <time>2022-03-14T14:16:52Z</time>
      </trkpt>
      <trkpt lat="46.68556" lon="5.4702">
        <ele>240.6</ele>
        <time>2022-03-14T14:16:54Z</time>
      </trkpt>
      <trkpt lat="46.68518" lon="5.46952">
        <ele>240.4</ele>
        <time>2022-03-14T14:17:01Z</time>
      </trkpt>
      <trkpt lat="46.68492" lon="5.46906">
        <ele>239.8</ele>
        <time>2022-03-14T14:17:06Z</time>
      </trkpt>
      <trkpt lat="46.68486" lon="5.46897">
        <ele>239.6</ele>
        <time>2022-03-14T14:17:07Z</time>
      </trkpt>
      <trkpt lat="46.68455" lon="5.46841">
        <ele>238.8</ele>
        <time>2022-03-14T14:17:13Z</time>
      </trkpt>
      <trkpt lat="46.68439" lon="5.46814">
        <ele>238.6</ele>
        <time>2022-03-14T14:17:16Z</time>
      </trkpt>
      <trkpt lat="46.68399" lon="5.46748">
        <ele>237.6</ele>
        <time>2022-03-14T14:17:23Z</time>
      </trkpt>
      <trkpt lat="46.68392" lon="5.46739">
        <ele>237.4</ele>
        <time>2022-03-14T14:17:24Z</time>
      </trkpt>
      <trkpt lat="46.68372" lon="5.46709">
        <ele>236.2</ele>
        <time>2022-03-14T14:17:27Z</time>
      </trkpt>
      <trkpt lat="46.68352" lon="5.4668">
        <ele>235</ele>
        <time>2022-03-14T14:17:30Z</time>
      </trkpt>
      <trkpt lat="46.68352" lon="5.4668">
        <ele>234.8</ele>
        <time>2022-03-14T14:17:31Z</time>
      </trkpt>
      <trkpt lat="46.68338" lon="5.46664">
        <ele>234.6</ele>
        <time>2022-03-14T14:17:32Z</time>
      </trkpt>
      <trkpt lat="46.68319" lon="5.46643">
        <ele>234</ele>
        <time>2022-03-14T14:17:35Z</time>
      </trkpt>
      <trkpt lat="46.68312" lon="5.46638">
        <ele>234</ele>
        <time>2022-03-14T14:17:37Z</time>
      </trkpt>
      <trkpt lat="46.68281" lon="5.4661">
        <ele>234.4</ele>
        <time>2022-03-14T14:17:41Z</time>
      </trkpt>
      <trkpt lat="46.68269" lon="5.466">
        <ele>235</ele>
        <time>2022-03-14T14:17:43Z</time>
      </trkpt>
      <trkpt lat="46.68239" lon="5.46577">
        <ele>236.4</ele>
        <time>2022-03-14T14:17:49Z</time>
      </trkpt>
      <trkpt lat="46.68227" lon="5.46568">
        <ele>237</ele>
        <time>2022-03-14T14:17:50Z</time>
      </trkpt>
      <trkpt lat="46.68221" lon="5.46564">
        <ele>237.4</ele>
        <time>2022-03-14T14:17:51Z</time>
      </trkpt>
      <trkpt lat="46.68199" lon="5.46546">
        <ele>238.6</ele>
        <time>2022-03-14T14:17:55Z</time>
      </trkpt>
      <trkpt lat="46.68176" lon="5.46529">
        <ele>239.4</ele>
        <time>2022-03-14T14:17:59Z</time>
      </trkpt>
      <trkpt lat="46.68159" lon="5.46517">
        <ele>239.6</ele>
        <time>2022-03-14T14:18:02Z</time>
      </trkpt>
      <trkpt lat="46.68134" lon="5.46505">
        <ele>239.8</ele>
        <time>2022-03-14T14:18:06Z</time>
      </trkpt>
      <trkpt lat="46.68077" lon="5.46477">
        <ele>240.2</ele>
        <time>2022-03-14T14:18:15Z</time>
      </trkpt>
      <trkpt lat="46.6807" lon="5.46474">
        <ele>240.4</ele>
        <time>2022-03-14T14:18:16Z</time>
      </trkpt>
      <trkpt lat="46.6802" lon="5.46449">
        <ele>240.6</ele>
        <time>2022-03-14T14:18:24Z</time>
      </trkpt>
      <trkpt lat="46.68013" lon="5.46446">
        <ele>240.8</ele>
        <time>2022-03-14T14:18:25Z</time>
      </trkpt>
      <trkpt lat="46.67957" lon="5.46418">
        <ele>240.8</ele>
        <time>2022-03-14T14:18:33Z</time>
      </trkpt>
      <trkpt lat="46.6795" lon="5.46414">
        <ele>240.8</ele>
        <time>2022-03-14T14:18:34Z</time>
      </trkpt>
      <trkpt lat="46.67893" lon="5.46387">
        <ele>240.6</ele>
        <time>2022-03-14T14:18:42Z</time>
      </trkpt>
      <trkpt lat="46.67872" lon="5.46376">
        <ele>240.6</ele>
        <time>2022-03-14T14:18:45Z</time>
      </trkpt>
      <trkpt lat="46.67816" lon="5.46348">
        <ele>241</ele>
        <time>2022-03-14T14:18:53Z</time>
      </trkpt>
      <trkpt lat="46.67809" lon="5.46345">
        <ele>241</ele>
        <time>2022-03-14T14:18:54Z</time>
      </trkpt>
      <trkpt lat="46.67745" lon="5.46312">
        <ele>241</ele>
        <time>2022-03-14T14:19:03Z</time>
      </trkpt>
      <trkpt lat="46.67745" lon="5.46312">
        <ele>240.8</ele>
        <time>2022-03-14T14:19:04Z</time>
      </trkpt>
      <trkpt lat="46.67686" lon="5.46284">
        <ele>240.8</ele>
        <time>2022-03-14T14:19:11Z</time>
      </trkpt>
      <trkpt lat="46.67655" lon="5.46269">
        <ele>240.8</ele>
        <time>2022-03-14T14:19:15Z</time>
      </trkpt>
      <trkpt lat="46.67601" lon="5.46244">
        <ele>240.4</ele>
        <time>2022-03-14T14:19:22Z</time>
      </trkpt>
      <trkpt lat="46.6757" lon="5.46228">
        <ele>240.2</ele>
        <time>2022-03-14T14:19:26Z</time>
      </trkpt>
      <trkpt lat="46.6751" lon="5.46199">
        <ele>240.2</ele>
        <time>2022-03-14T14:19:34Z</time>
      </trkpt>
      <trkpt lat="46.67457" lon="5.46173">
        <ele>240.2</ele>
        <time>2022-03-14T14:19:41Z</time>
      </trkpt>
      <trkpt lat="46.67405" lon="5.46147">
        <ele>240</ele>
        <time>2022-03-14T14:19:48Z</time>
      </trkpt>
      <trkpt lat="46.67397" lon="5.46144">
        <ele>240</ele>
        <time>2022-03-14T14:19:49Z</time>
      </trkpt>
      <trkpt lat="46.67346" lon="5.46118">
        <ele>240</ele>
        <time>2022-03-14T14:19:56Z</time>
      </trkpt>
      <trkpt lat="46.67324" lon="5.46108">
        <ele>240</ele>
        <time>2022-03-14T14:19:59Z</time>
      </trkpt>
      <trkpt lat="46.67274" lon="5.46084">
        <ele>239.6</ele>
        <time>2022-03-14T14:20:06Z</time>
      </trkpt>
      <trkpt lat="46.67268" lon="5.46081">
        <ele>239.6</ele>
        <time>2022-03-14T14:20:07Z</time>
      </trkpt>
      <trkpt lat="46.67237" lon="5.46065">
        <ele>239.2</ele>
        <time>2022-03-14T14:20:12Z</time>
      </trkpt>
      <trkpt lat="46.67202" lon="5.46048">
        <ele>239</ele>
        <time>2022-03-14T14:20:18Z</time>
      </trkpt>
      <trkpt lat="46.67176" lon="5.46034">
        <ele>239</ele>
        <time>2022-03-14T14:20:24Z</time>
      </trkpt>
      <trkpt lat="46.67168" lon="5.46029">
        <ele>238.8</ele>
        <time>2022-03-14T14:20:28Z</time>
      </trkpt>
      <trkpt lat="46.67163" lon="5.4603">
        <ele>238.6</ele>
        <time>2022-03-14T14:20:29Z</time>
      </trkpt>
      <trkpt lat="46.67153" lon="5.46034">
        <ele>238.6</ele>
        <time>2022-03-14T14:20:31Z</time>
      </trkpt>
      <trkpt lat="46.67148" lon="5.46035">
        <ele>238.6</ele>
        <time>2022-03-14T14:20:32Z</time>
      </trkpt>
      <trkpt lat="46.67115" lon="5.4604">
        <ele>238.6</ele>
        <time>2022-03-14T14:20:37Z</time>
      </trkpt>
      <trkpt lat="46.67055" lon="5.46043">
        <ele>238.6</ele>
        <time>2022-03-14T14:20:46Z</time>
      </trkpt>
      <trkpt lat="46.67048" lon="5.46043">
        <ele>238.6</ele>
        <time>2022-03-14T14:20:47Z</time>
      </trkpt>
      <trkpt lat="46.67034" lon="5.46039">
        <ele>238.2</ele>
        <time>2022-03-14T14:20:49Z</time>
      </trkpt>
      <trkpt lat="46.67021" lon="5.46031">
        <ele>238</ele>
        <time>2022-03-14T14:20:51Z</time>
      </trkpt>
      <trkpt lat="46.66972" lon="5.45998">
        <ele>238</ele>
        <time>2022-03-14T14:20:59Z</time>
      </trkpt>
      <trkpt lat="46.66965" lon="5.45995">
        <ele>238.2</ele>
        <time>2022-03-14T14:21:00Z</time>
      </trkpt>
      <trkpt lat="46.66915" lon="5.45967">
        <ele>238.6</ele>
        <time>2022-03-14T14:21:08Z</time>
      </trkpt>
      <trkpt lat="46.66898" lon="5.45951">
        <ele>238.4</ele>
        <time>2022-03-14T14:21:11Z</time>
      </trkpt>
      <trkpt lat="46.66887" lon="5.45936">
        <ele>238.6</ele>
        <time>2022-03-14T14:21:13Z</time>
      </trkpt>
      <trkpt lat="46.66879" lon="5.45919">
        <ele>238.6</ele>
        <time>2022-03-14T14:21:15Z</time>
      </trkpt>
      <trkpt lat="46.66863" lon="5.45882">
        <ele>238.6</ele>
        <time>2022-03-14T14:21:19Z</time>
      </trkpt>
      <trkpt lat="46.66831" lon="5.45824">
        <ele>238.2</ele>
        <time>2022-03-14T14:21:26Z</time>
      </trkpt>
      <trkpt lat="46.6682" lon="5.45808">
        <ele>238.2</ele>
        <time>2022-03-14T14:21:28Z</time>
      </trkpt>
      <trkpt lat="46.66807" lon="5.45796">
        <ele>237.8</ele>
        <time>2022-03-14T14:21:30Z</time>
      </trkpt>
      <trkpt lat="46.66784" lon="5.45791">
        <ele>237.8</ele>
        <time>2022-03-14T14:21:33Z</time>
      </trkpt>
      <trkpt lat="46.66777" lon="5.45792">
        <ele>237.8</ele>
        <time>2022-03-14T14:21:34Z</time>
      </trkpt>
      <trkpt lat="46.66762" lon="5.45795">
        <ele>237.8</ele>
        <time>2022-03-14T14:21:36Z</time>
      </trkpt>
      <trkpt lat="46.66732" lon="5.45803">
        <ele>237.8</ele>
        <time>2022-03-14T14:21:40Z</time>
      </trkpt>
      <trkpt lat="46.66673" lon="5.45822">
        <ele>237.8</ele>
        <time>2022-03-14T14:21:48Z</time>
      </trkpt>
      <trkpt lat="46.66665" lon="5.45825">
        <ele>237.6</ele>
        <time>2022-03-14T14:21:49Z</time>
      </trkpt>
      <trkpt lat="46.66643" lon="5.45835">
        <ele>237.4</ele>
        <time>2022-03-14T14:21:52Z</time>
      </trkpt>
      <trkpt lat="46.66628" lon="5.45845">
        <ele>237</ele>
        <time>2022-03-14T14:21:54Z</time>
      </trkpt>
      <trkpt lat="46.66613" lon="5.45855">
        <ele>236.8</ele>
        <time>2022-03-14T14:21:56Z</time>
      </trkpt>
      <trkpt lat="46.66577" lon="5.45879">
        <ele>235.8</ele>
        <time>2022-03-14T14:22:01Z</time>
      </trkpt>
      <trkpt lat="46.66569" lon="5.45884">
        <ele>235.6</ele>
        <time>2022-03-14T14:22:02Z</time>
      </trkpt>
      <trkpt lat="46.6654" lon="5.45905">
        <ele>234.4</ele>
        <time>2022-03-14T14:22:06Z</time>
      </trkpt>
      <trkpt lat="46.66503" lon="5.4593">
        <ele>233.4</ele>
        <time>2022-03-14T14:22:11Z</time>
      </trkpt>
      <trkpt lat="46.66487" lon="5.4593">
        <ele>233.2</ele>
        <time>2022-03-14T14:22:13Z</time>
      </trkpt>
      <trkpt lat="46.66482" lon="5.45923">
        <ele>233</ele>
        <time>2022-03-14T14:22:14Z</time>
      </trkpt>
      <trkpt lat="46.66477" lon="5.45913">
        <ele>232.8</ele>
        <time>2022-03-14T14:22:15Z</time>
      </trkpt>
      <trkpt lat="46.66463" lon="5.45883">
        <ele>232.4</ele>
        <time>2022-03-14T14:22:18Z</time>
      </trkpt>
      <trkpt lat="46.66444" lon="5.45842">
        <ele>231.8</ele>
        <time>2022-03-14T14:22:22Z</time>
      </trkpt>
      <trkpt lat="46.6644" lon="5.45831">
        <ele>231.6</ele>
        <time>2022-03-14T14:22:23Z</time>
      </trkpt>
      <trkpt lat="46.66406" lon="5.4576">
        <ele>231.4</ele>
        <time>2022-03-14T14:22:30Z</time>
      </trkpt>
      <trkpt lat="46.66391" lon="5.45731">
        <ele>231.4</ele>
        <time>2022-03-14T14:22:33Z</time>
      </trkpt>
      <trkpt lat="46.66362" lon="5.4567">
        <ele>231.4</ele>
        <time>2022-03-14T14:22:40Z</time>
      </trkpt>
      <trkpt lat="46.66335" lon="5.45619">
        <ele>232</ele>
        <time>2022-03-14T14:22:47Z</time>
      </trkpt>
      <trkpt lat="46.66319" lon="5.45595">
        <ele>232.6</ele>
        <time>2022-03-14T14:22:52Z</time>
      </trkpt>
      <trkpt lat="46.66317" lon="5.45591">
        <ele>232.8</ele>
        <time>2022-03-14T14:22:55Z</time>
      </trkpt>
      <trkpt lat="46.66317" lon="5.45591">
        <ele>232.8</ele>
        <time>2022-03-14T14:22:56Z</time>
      </trkpt>
      <trkpt lat="46.66315" lon="5.45589">
        <ele>233</ele>
        <time>2022-03-14T14:24:23Z</time>
      </trkpt>
      <trkpt lat="46.66311" lon="5.45586">
        <ele>233</ele>
        <time>2022-03-14T14:24:25Z</time>
      </trkpt>
      <trkpt lat="46.66296" lon="5.45571">
        <ele>232.8</ele>
        <time>2022-03-14T14:24:29Z</time>
      </trkpt>
      <trkpt lat="46.66268" lon="5.45547">
        <ele>232.6</ele>
        <time>2022-03-14T14:24:34Z</time>
      </trkpt>
      <trkpt lat="46.66231" lon="5.4552">
        <ele>232.6</ele>
        <time>2022-03-14T14:24:40Z</time>
      </trkpt>
      <trkpt lat="46.66185" lon="5.455">
        <ele>233</ele>
        <time>2022-03-14T14:24:47Z</time>
      </trkpt>
      <trkpt lat="46.66153" lon="5.45487">
        <ele>233.4</ele>
        <time>2022-03-14T14:24:52Z</time>
      </trkpt>
      <trkpt lat="46.66148" lon="5.45485">
        <ele>233.6</ele>
        <time>2022-03-14T14:24:53Z</time>
      </trkpt>
      <trkpt lat="46.66134" lon="5.45479">
        <ele>233.8</ele>
        <time>2022-03-14T14:24:55Z</time>
      </trkpt>
      <trkpt lat="46.66111" lon="5.45466">
        <ele>234.2</ele>
        <time>2022-03-14T14:24:59Z</time>
      </trkpt>
      <trkpt lat="46.66099" lon="5.45455">
        <ele>234.4</ele>
        <time>2022-03-14T14:25:01Z</time>
      </trkpt>
      <trkpt lat="46.66085" lon="5.45439">
        <ele>234.6</ele>
        <time>2022-03-14T14:25:04Z</time>
      </trkpt>
      <trkpt lat="46.66048" lon="5.45387">
        <ele>235.4</ele>
        <time>2022-03-14T14:25:12Z</time>
      </trkpt>
      <trkpt lat="46.6604" lon="5.45375">
        <ele>235.6</ele>
        <time>2022-03-14T14:25:14Z</time>
      </trkpt>
      <trkpt lat="46.66022" lon="5.45346">
        <ele>236.6</ele>
        <time>2022-03-14T14:25:18Z</time>
      </trkpt>
      <trkpt lat="46.66019" lon="5.4534">
        <ele>236.6</ele>
        <time>2022-03-14T14:25:19Z</time>
      </trkpt>
      <trkpt lat="46.66006" lon="5.45317">
        <ele>237</ele>
        <time>2022-03-14T14:25:22Z</time>
      </trkpt>
      <trkpt lat="46.66" lon="5.45303">
        <ele>237.2</ele>
        <time>2022-03-14T14:25:24Z</time>
      </trkpt>
      <trkpt lat="46.65987" lon="5.45266">
        <ele>237.2</ele>
        <time>2022-03-14T14:25:28Z</time>
      </trkpt>
      <trkpt lat="46.6598" lon="5.45251">
        <ele>237.2</ele>
        <time>2022-03-14T14:25:30Z</time>
      </trkpt>
      <trkpt lat="46.6597" lon="5.45234">
        <ele>237</ele>
        <time>2022-03-14T14:25:32Z</time>
      </trkpt>
      <trkpt lat="46.65961" lon="5.45224">
        <ele>237</ele>
        <time>2022-03-14T14:25:34Z</time>
      </trkpt>
      <trkpt lat="46.65915" lon="5.4518">
        <ele>237.4</ele>
        <time>2022-03-14T14:25:42Z</time>
      </trkpt>
      <trkpt lat="46.65887" lon="5.4514">
        <ele>237.4</ele>
        <time>2022-03-14T14:25:48Z</time>
      </trkpt>
      <trkpt lat="46.6586" lon="5.45107">
        <ele>237.4</ele>
        <time>2022-03-14T14:25:53Z</time>
      </trkpt>
      <trkpt lat="46.65811" lon="5.45056">
        <ele>236.6</ele>
        <time>2022-03-14T14:26:00Z</time>
      </trkpt>
      <trkpt lat="46.65786" lon="5.45026">
        <ele>235.6</ele>
        <time>2022-03-14T14:26:04Z</time>
      </trkpt>
      <trkpt lat="46.65779" lon="5.45016">
        <ele>235.4</ele>
        <time>2022-03-14T14:26:05Z</time>
      </trkpt>
      <trkpt lat="46.65772" lon="5.44997">
        <ele>235.4</ele>
        <time>2022-03-14T14:26:07Z</time>
      </trkpt>
      <trkpt lat="46.65771" lon="5.44989">
        <ele>235.4</ele>
        <time>2022-03-14T14:26:08Z</time>
      </trkpt>
      <trkpt lat="46.65766" lon="5.44941">
        <ele>235.8</ele>
        <time>2022-03-14T14:26:14Z</time>
      </trkpt>
      <trkpt lat="46.65762" lon="5.4487">
        <ele>236.8</ele>
        <time>2022-03-14T14:26:20Z</time>
      </trkpt>
      <trkpt lat="46.6576" lon="5.4486">
        <ele>236.8</ele>
        <time>2022-03-14T14:26:21Z</time>
      </trkpt>
      <trkpt lat="46.65747" lon="5.44813">
        <ele>237.8</ele>
        <time>2022-03-14T14:26:26Z</time>
      </trkpt>
      <trkpt lat="46.65738" lon="5.44773">
        <ele>238</ele>
        <time>2022-03-14T14:26:30Z</time>
      </trkpt>
      <trkpt lat="46.65727" lon="5.44703">
        <ele>238</ele>
        <time>2022-03-14T14:26:37Z</time>
      </trkpt>
      <trkpt lat="46.65714" lon="5.44677">
        <ele>238</ele>
        <time>2022-03-14T14:26:40Z</time>
      </trkpt>
      <trkpt lat="46.65709" lon="5.44669">
        <ele>238</ele>
        <time>2022-03-14T14:26:41Z</time>
      </trkpt>
      <trkpt lat="46.65671" lon="5.44617">
        <ele>237.8</ele>
        <time>2022-03-14T14:26:48Z</time>
      </trkpt>
      <trkpt lat="46.65625" lon="5.44559">
        <ele>237.2</ele>
        <time>2022-03-14T14:26:56Z</time>
      </trkpt>
      <trkpt lat="46.6562" lon="5.44553">
        <ele>237</ele>
        <time>2022-03-14T14:26:57Z</time>
      </trkpt>
      <trkpt lat="46.65575" lon="5.44506">
        <ele>237</ele>
        <time>2022-03-14T14:27:04Z</time>
      </trkpt>
      <trkpt lat="46.6556" lon="5.44498">
        <ele>236.8</ele>
        <time>2022-03-14T14:27:06Z</time>
      </trkpt>
      <trkpt lat="46.65546" lon="5.44496">
        <ele>236.8</ele>
        <time>2022-03-14T14:27:08Z</time>
      </trkpt>
      <trkpt lat="46.65506" lon="5.44482">
        <ele>236.2</ele>
        <time>2022-03-14T14:27:13Z</time>
      </trkpt>
      <trkpt lat="46.65481" lon="5.44468">
        <ele>236</ele>
        <time>2022-03-14T14:27:16Z</time>
      </trkpt>
      <trkpt lat="46.65459" lon="5.44452">
        <ele>235.6</ele>
        <time>2022-03-14T14:27:19Z</time>
      </trkpt>
      <trkpt lat="46.65453" lon="5.44445">
        <ele>235.4</ele>
        <time>2022-03-14T14:27:20Z</time>
      </trkpt>
      <trkpt lat="46.65447" lon="5.44438">
        <ele>235.4</ele>
        <time>2022-03-14T14:27:21Z</time>
      </trkpt>
      <trkpt lat="46.65432" lon="5.44413">
        <ele>235.2</ele>
        <time>2022-03-14T14:27:24Z</time>
      </trkpt>
      <trkpt lat="46.65398" lon="5.44364">
        <ele>235.6</ele>
        <time>2022-03-14T14:27:31Z</time>
      </trkpt>
      <trkpt lat="46.65369" lon="5.44329">
        <ele>236</ele>
        <time>2022-03-14T14:27:37Z</time>
      </trkpt>
      <trkpt lat="46.65331" lon="5.44293">
        <ele>236.2</ele>
        <time>2022-03-14T14:27:44Z</time>
      </trkpt>
      <trkpt lat="46.65281" lon="5.44259">
        <ele>236.4</ele>
        <time>2022-03-14T14:27:53Z</time>
      </trkpt>
      <trkpt lat="46.65244" lon="5.44226">
        <ele>236.2</ele>
        <time>2022-03-14T14:28:00Z</time>
      </trkpt>
      <trkpt lat="46.65223" lon="5.44194">
        <ele>236.2</ele>
        <time>2022-03-14T14:28:05Z</time>
      </trkpt>
      <trkpt lat="46.6522" lon="5.44189">
        <ele>236.2</ele>
        <time>2022-03-14T14:28:06Z</time>
      </trkpt>
      <trkpt lat="46.6522" lon="5.44184">
        <ele>236.2</ele>
        <time>2022-03-14T14:28:07Z</time>
      </trkpt>
      <trkpt lat="46.65224" lon="5.44171">
        <ele>236.2</ele>
        <time>2022-03-14T14:28:09Z</time>
      </trkpt>
      <trkpt lat="46.65246" lon="5.4414">
        <ele>236</ele>
        <time>2022-03-14T14:28:14Z</time>
      </trkpt>
      <trkpt lat="46.65277" lon="5.44088">
        <ele>236</ele>
        <time>2022-03-14T14:28:21Z</time>
      </trkpt>
      <trkpt lat="46.65299" lon="5.44043">
        <ele>236.2</ele>
        <time>2022-03-14T14:28:27Z</time>
      </trkpt>
      <trkpt lat="46.65301" lon="5.44038">
        <ele>236</ele>
        <time>2022-03-14T14:28:28Z</time>
      </trkpt>
      <trkpt lat="46.6531" lon="5.44032">
        <ele>235.6</ele>
        <time>2022-03-14T14:28:30Z</time>
      </trkpt>
      <trkpt lat="46.65336" lon="5.44038">
        <ele>234.8</ele>
        <time>2022-03-14T14:28:34Z</time>
      </trkpt>
      <trkpt lat="46.65342" lon="5.44041">
        <ele>234.4</ele>
        <time>2022-03-14T14:28:35Z</time>
      </trkpt>
      <trkpt lat="46.65392" lon="5.44053">
        <ele>234</ele>
        <time>2022-03-14T14:28:43Z</time>
      </trkpt>
      <trkpt lat="46.65427" lon="5.44055">
        <ele>234.2</ele>
        <time>2022-03-14T14:28:50Z</time>
      </trkpt>
      <trkpt lat="46.65451" lon="5.44056">
        <ele>234.8</ele>
        <time>2022-03-14T14:28:55Z</time>
      </trkpt>
      <trkpt lat="46.65469" lon="5.44057">
        <ele>235.2</ele>
        <time>2022-03-14T14:29:00Z</time>
      </trkpt>
      <trkpt lat="46.65471" lon="5.44057">
        <ele>235.2</ele>
        <time>2022-03-14T14:29:01Z</time>
      </trkpt>
      <trkpt lat="46.65471" lon="5.44055">
        <ele>235.2</ele>
        <time>2022-03-14T14:29:02Z</time>
      </trkpt>
      <trkpt lat="46.65462" lon="5.44056">
        <ele>235.4</ele>
        <time>2022-03-14T14:29:06Z</time>
      </trkpt>
      <trkpt lat="46.65454" lon="5.44057">
        <ele>235.2</ele>
        <time>2022-03-14T14:29:09Z</time>
      </trkpt>
      <trkpt lat="46.65452" lon="5.44063">
        <ele>235.2</ele>
        <time>2022-03-14T14:29:11Z</time>
      </trkpt>
      <trkpt lat="46.65453" lon="5.44081">
        <ele>235</ele>
        <time>2022-03-14T14:29:17Z</time>
      </trkpt>
      <trkpt lat="46.65452" lon="5.44089">
        <ele>235.6</ele>
        <time>2022-03-14T14:29:23Z</time>
      </trkpt>
      <trkpt lat="46.65449" lon="5.44085">
        <ele>236</ele>
        <time>2022-03-14T14:30:02Z</time>
      </trkpt>
      <trkpt lat="46.65452" lon="5.4408">
        <ele>236</ele>
        <time>2022-03-14T14:30:04Z</time>
      </trkpt>
      <trkpt lat="46.65453" lon="5.44074">
        <ele>236</ele>
        <time>2022-03-14T14:30:06Z</time>
      </trkpt>
      <trkpt lat="46.65452" lon="5.44064">
        <ele>235.8</ele>
        <time>2022-03-14T14:30:10Z</time>
      </trkpt>
      <trkpt lat="46.65448" lon="5.44054">
        <ele>235.6</ele>
        <time>2022-03-14T14:30:14Z</time>
      </trkpt>
      <trkpt lat="46.65442" lon="5.44054">
        <ele>235.2</ele>
        <time>2022-03-14T14:30:16Z</time>
      </trkpt>
      <trkpt lat="46.65433" lon="5.44053">
        <ele>235</ele>
        <time>2022-03-14T14:30:18Z</time>
      </trkpt>
      <trkpt lat="46.65423" lon="5.44052">
        <ele>234.8</ele>
        <time>2022-03-14T14:30:20Z</time>
      </trkpt>
      <trkpt lat="46.65389" lon="5.4405">
        <ele>234.4</ele>
        <time>2022-03-14T14:30:26Z</time>
      </trkpt>
      <trkpt lat="46.65348" lon="5.44042">
        <ele>234.2</ele>
        <time>2022-03-14T14:30:32Z</time>
      </trkpt>
      <trkpt lat="46.65306" lon="5.44031">
        <ele>234</ele>
        <time>2022-03-14T14:30:38Z</time>
      </trkpt>
      <trkpt lat="46.65301" lon="5.44031">
        <ele>234</ele>
        <time>2022-03-14T14:30:39Z</time>
      </trkpt>
      <trkpt lat="46.65281" lon="5.44035">
        <ele>234</ele>
        <time>2022-03-14T14:30:42Z</time>
      </trkpt>
      <trkpt lat="46.65244" lon="5.44045">
        <ele>234.8</ele>
        <time>2022-03-14T14:30:48Z</time>
      </trkpt>
      <trkpt lat="46.65202" lon="5.44056">
        <ele>235.6</ele>
        <time>2022-03-14T14:30:55Z</time>
      </trkpt>
      <trkpt lat="46.65173" lon="5.44072">
        <ele>236</ele>
        <time>2022-03-14T14:31:00Z</time>
      </trkpt>
      <trkpt lat="46.65168" lon="5.44075">
        <ele>236</ele>
        <time>2022-03-14T14:31:01Z</time>
      </trkpt>
      <trkpt lat="46.65158" lon="5.44079">
        <ele>236.2</ele>
        <time>2022-03-14T14:31:03Z</time>
      </trkpt>
      <trkpt lat="46.65149" lon="5.44078">
        <ele>236.4</ele>
        <time>2022-03-14T14:31:05Z</time>
      </trkpt>
      <trkpt lat="46.65134" lon="5.44061">
        <ele>236.4</ele>
        <time>2022-03-14T14:31:09Z</time>
      </trkpt>
      <trkpt lat="46.65117" lon="5.44035">
        <ele>236.4</ele>
        <time>2022-03-14T14:31:13Z</time>
      </trkpt>
      <trkpt lat="46.65106" lon="5.44022">
        <ele>236.4</ele>
        <time>2022-03-14T14:31:15Z</time>
      </trkpt>
      <trkpt lat="46.65093" lon="5.44015">
        <ele>236.6</ele>
        <time>2022-03-14T14:31:17Z</time>
      </trkpt>
      <trkpt lat="46.6508" lon="5.44011">
        <ele>236.6</ele>
        <time>2022-03-14T14:31:19Z</time>
      </trkpt>
      <trkpt lat="46.65067" lon="5.44011">
        <ele>236.6</ele>
        <time>2022-03-14T14:31:21Z</time>
      </trkpt>
      <trkpt lat="46.65042" lon="5.44008">
        <ele>236.6</ele>
        <time>2022-03-14T14:31:25Z</time>
      </trkpt>
      <trkpt lat="46.65036" lon="5.44005">
        <ele>236.6</ele>
        <time>2022-03-14T14:31:26Z</time>
      </trkpt>
      <trkpt lat="46.65026" lon="5.43999">
        <ele>236.4</ele>
        <time>2022-03-14T14:31:28Z</time>
      </trkpt>
      <trkpt lat="46.65009" lon="5.43982">
        <ele>236.2</ele>
        <time>2022-03-14T14:31:31Z</time>
      </trkpt>
      <trkpt lat="46.64968" lon="5.43939">
        <ele>235.6</ele>
        <time>2022-03-14T14:31:38Z</time>
      </trkpt>
      <trkpt lat="46.64942" lon="5.43914">
        <ele>234.8</ele>
        <time>2022-03-14T14:31:42Z</time>
      </trkpt>
      <trkpt lat="46.64928" lon="5.439">
        <ele>234.4</ele>
        <time>2022-03-14T14:31:44Z</time>
      </trkpt>
      <trkpt lat="46.64922" lon="5.43894">
        <ele>234.2</ele>
        <time>2022-03-14T14:31:45Z</time>
      </trkpt>
      <trkpt lat="46.64901" lon="5.43878">
        <ele>233.8</ele>
        <time>2022-03-14T14:31:49Z</time>
      </trkpt>
      <trkpt lat="46.64896" lon="5.43873">
        <ele>233.6</ele>
        <time>2022-03-14T14:31:50Z</time>
      </trkpt>
      <trkpt lat="46.64874" lon="5.43851">
        <ele>232.6</ele>
        <time>2022-03-14T14:31:54Z</time>
      </trkpt>
      <trkpt lat="46.6483" lon="5.43811">
        <ele>232.8</ele>
        <time>2022-03-14T14:32:02Z</time>
      </trkpt>
      <trkpt lat="46.64817" lon="5.4379">
        <ele>233.4</ele>
        <time>2022-03-14T14:32:05Z</time>
      </trkpt>
      <trkpt lat="46.64815" lon="5.43783">
        <ele>233.4</ele>
        <time>2022-03-14T14:32:06Z</time>
      </trkpt>
      <trkpt lat="46.64811" lon="5.43773">
        <ele>233.6</ele>
        <time>2022-03-14T14:32:07Z</time>
      </trkpt>
      <trkpt lat="46.64809" lon="5.43763">
        <ele>233.8</ele>
        <time>2022-03-14T14:32:08Z</time>
      </trkpt>
      <trkpt lat="46.64803" lon="5.43735">
        <ele>234.2</ele>
        <time>2022-03-14T14:32:11Z</time>
      </trkpt>
      <trkpt lat="46.64787" lon="5.43697">
        <ele>235</ele>
        <time>2022-03-14T14:32:16Z</time>
      </trkpt>
      <trkpt lat="46.64777" lon="5.43685">
        <ele>235.6</ele>
        <time>2022-03-14T14:32:18Z</time>
      </trkpt>
      <trkpt lat="46.64766" lon="5.43677">
        <ele>236</ele>
        <time>2022-03-14T14:32:20Z</time>
      </trkpt>
      <trkpt lat="46.64759" lon="5.43672">
        <ele>236.2</ele>
        <time>2022-03-14T14:32:21Z</time>
      </trkpt>
      <trkpt lat="46.64719" lon="5.43651">
        <ele>236.6</ele>
        <time>2022-03-14T14:32:27Z</time>
      </trkpt>
      <trkpt lat="46.64674" lon="5.43624">
        <ele>236</ele>
        <time>2022-03-14T14:32:33Z</time>
      </trkpt>
      <trkpt lat="46.64642" lon="5.43599">
        <ele>234.8</ele>
        <time>2022-03-14T14:32:37Z</time>
      </trkpt>
      <trkpt lat="46.64618" lon="5.43581">
        <ele>234.2</ele>
        <time>2022-03-14T14:32:40Z</time>
      </trkpt>
      <trkpt lat="46.64601" lon="5.43575">
        <ele>233.6</ele>
        <time>2022-03-14T14:32:42Z</time>
      </trkpt>
      <trkpt lat="46.64574" lon="5.43565">
        <ele>233</ele>
        <time>2022-03-14T14:32:45Z</time>
      </trkpt>
      <trkpt lat="46.6455" lon="5.43547">
        <ele>232.6</ele>
        <time>2022-03-14T14:32:48Z</time>
      </trkpt>
      <trkpt lat="46.64542" lon="5.43539">
        <ele>232.2</ele>
        <time>2022-03-14T14:32:49Z</time>
      </trkpt>
      <trkpt lat="46.64503" lon="5.43498">
        <ele>231.4</ele>
        <time>2022-03-14T14:32:54Z</time>
      </trkpt>
      <trkpt lat="46.64457" lon="5.43455">
        <ele>230.4</ele>
        <time>2022-03-14T14:33:00Z</time>
      </trkpt>
      <trkpt lat="46.64449" lon="5.43449">
        <ele>230.2</ele>
        <time>2022-03-14T14:33:01Z</time>
      </trkpt>
      <trkpt lat="46.64441" lon="5.43444">
        <ele>230.2</ele>
        <time>2022-03-14T14:33:02Z</time>
      </trkpt>
      <trkpt lat="46.64396" lon="5.43428">
        <ele>229.8</ele>
        <time>2022-03-14T14:33:07Z</time>
      </trkpt>
      <trkpt lat="46.64343" lon="5.43404">
        <ele>229.2</ele>
        <time>2022-03-14T14:33:13Z</time>
      </trkpt>
      <trkpt lat="46.64335" lon="5.43397">
        <ele>229</ele>
        <time>2022-03-14T14:33:14Z</time>
      </trkpt>
      <trkpt lat="46.64313" lon="5.43374">
        <ele>228.6</ele>
        <time>2022-03-14T14:33:17Z</time>
      </trkpt>
      <trkpt lat="46.64284" lon="5.43331">
        <ele>228.6</ele>
        <time>2022-03-14T14:33:22Z</time>
      </trkpt>
      <trkpt lat="46.64253" lon="5.43282">
        <ele>229.4</ele>
        <time>2022-03-14T14:33:28Z</time>
      </trkpt>
      <trkpt lat="46.6423" lon="5.43242">
        <ele>230.4</ele>
        <time>2022-03-14T14:33:33Z</time>
      </trkpt>
      <trkpt lat="46.64209" lon="5.43197">
        <ele>231.4</ele>
        <time>2022-03-14T14:33:39Z</time>
      </trkpt>
      <trkpt lat="46.64194" lon="5.43159">
        <ele>232.6</ele>
        <time>2022-03-14T14:33:44Z</time>
      </trkpt>
      <trkpt lat="46.64189" lon="5.43142">
        <ele>232.8</ele>
        <time>2022-03-14T14:33:46Z</time>
      </trkpt>
      <trkpt lat="46.64188" lon="5.43133">
        <ele>233.2</ele>
        <time>2022-03-14T14:33:47Z</time>
      </trkpt>
      <trkpt lat="46.64186" lon="5.43114">
        <ele>233.4</ele>
        <time>2022-03-14T14:33:49Z</time>
      </trkpt>
      <trkpt lat="46.64187" lon="5.43094">
        <ele>233.6</ele>
        <time>2022-03-14T14:33:51Z</time>
      </trkpt>
      <trkpt lat="46.64199" lon="5.43045">
        <ele>233.2</ele>
        <time>2022-03-14T14:33:56Z</time>
      </trkpt>
      <trkpt lat="46.64211" lon="5.42993">
        <ele>232.8</ele>
        <time>2022-03-14T14:34:01Z</time>
      </trkpt>
      <trkpt lat="46.64209" lon="5.42971">
        <ele>232.8</ele>
        <time>2022-03-14T14:34:03Z</time>
      </trkpt>
      <trkpt lat="46.64206" lon="5.42961">
        <ele>232.8</ele>
        <time>2022-03-14T14:34:04Z</time>
      </trkpt>
      <trkpt lat="46.64203" lon="5.4295">
        <ele>232.4</ele>
        <time>2022-03-14T14:34:05Z</time>
      </trkpt>
      <trkpt lat="46.64178" lon="5.42877">
        <ele>231.4</ele>
        <time>2022-03-14T14:34:12Z</time>
      </trkpt>
      <trkpt lat="46.64147" lon="5.42813">
        <ele>231</ele>
        <time>2022-03-14T14:34:19Z</time>
      </trkpt>
      <trkpt lat="46.64141" lon="5.42806">
        <ele>231</ele>
        <time>2022-03-14T14:34:20Z</time>
      </trkpt>
      <trkpt lat="46.6412" lon="5.42791">
        <ele>231</ele>
        <time>2022-03-14T14:34:23Z</time>
      </trkpt>
      <trkpt lat="46.6408" lon="5.42762">
        <ele>231</ele>
        <time>2022-03-14T14:34:29Z</time>
      </trkpt>
      <trkpt lat="46.64045" lon="5.42719">
        <ele>230.8</ele>
        <time>2022-03-14T14:34:35Z</time>
      </trkpt>
      <trkpt lat="46.64018" lon="5.4267">
        <ele>231</ele>
        <time>2022-03-14T14:34:41Z</time>
      </trkpt>
      <trkpt lat="46.64006" lon="5.42645">
        <ele>231.6</ele>
        <time>2022-03-14T14:34:44Z</time>
      </trkpt>
      <trkpt lat="46.63997" lon="5.42631">
        <ele>231.8</ele>
        <time>2022-03-14T14:34:46Z</time>
      </trkpt>
      <trkpt lat="46.63974" lon="5.42609">
        <ele>232.2</ele>
        <time>2022-03-14T14:34:50Z</time>
      </trkpt>
      <trkpt lat="46.63968" lon="5.42603">
        <ele>232.2</ele>
        <time>2022-03-14T14:34:51Z</time>
      </trkpt>
      <trkpt lat="46.63946" lon="5.4258">
        <ele>232.4</ele>
        <time>2022-03-14T14:34:55Z</time>
      </trkpt>
      <trkpt lat="46.63914" lon="5.42542">
        <ele>233</ele>
        <time>2022-03-14T14:35:01Z</time>
      </trkpt>
      <trkpt lat="46.63905" lon="5.42529">
        <ele>233.2</ele>
        <time>2022-03-14T14:35:03Z</time>
      </trkpt>
      <trkpt lat="46.63896" lon="5.42514">
        <ele>233.4</ele>
        <time>2022-03-14T14:35:05Z</time>
      </trkpt>
      <trkpt lat="46.63893" lon="5.42506">
        <ele>233.4</ele>
        <time>2022-03-14T14:35:06Z</time>
      </trkpt>
      <trkpt lat="46.63891" lon="5.42496">
        <ele>233.6</ele>
        <time>2022-03-14T14:35:07Z</time>
      </trkpt>
      <trkpt lat="46.63887" lon="5.42478">
        <ele>233.8</ele>
        <time>2022-03-14T14:35:09Z</time>
      </trkpt>
      <trkpt lat="46.63884" lon="5.4247">
        <ele>233.8</ele>
        <time>2022-03-14T14:35:10Z</time>
      </trkpt>
      <trkpt lat="46.63859" lon="5.4242">
        <ele>234.8</ele>
        <time>2022-03-14T14:35:17Z</time>
      </trkpt>
      <trkpt lat="46.63855" lon="5.42413">
        <ele>235</ele>
        <time>2022-03-14T14:35:18Z</time>
      </trkpt>
      <trkpt lat="46.6384" lon="5.42385">
        <ele>235.8</ele>
        <time>2022-03-14T14:35:22Z</time>
      </trkpt>
      <trkpt lat="46.63822" lon="5.42355">
        <ele>236.2</ele>
        <time>2022-03-14T14:35:26Z</time>
      </trkpt>
      <trkpt lat="46.63787" lon="5.42316">
        <ele>236.2</ele>
        <time>2022-03-14T14:35:32Z</time>
      </trkpt>
      <trkpt lat="46.63768" lon="5.42297">
        <ele>235.8</ele>
        <time>2022-03-14T14:35:35Z</time>
      </trkpt>
      <trkpt lat="46.63758" lon="5.42281">
        <ele>235.6</ele>
        <time>2022-03-14T14:35:37Z</time>
      </trkpt>
      <trkpt lat="46.63752" lon="5.4226">
        <ele>235.6</ele>
        <time>2022-03-14T14:35:39Z</time>
      </trkpt>
      <trkpt lat="46.63752" lon="5.42249">
        <ele>235.4</ele>
        <time>2022-03-14T14:35:40Z</time>
      </trkpt>
      <trkpt lat="46.63751" lon="5.42239">
        <ele>235.4</ele>
        <time>2022-03-14T14:35:41Z</time>
      </trkpt>
      <trkpt lat="46.63743" lon="5.42221">
        <ele>235.4</ele>
        <time>2022-03-14T14:35:43Z</time>
      </trkpt>
      <trkpt lat="46.63719" lon="5.42197">
        <ele>235.4</ele>
        <time>2022-03-14T14:35:47Z</time>
      </trkpt>
      <trkpt lat="46.63669" lon="5.42161">
        <ele>235.4</ele>
        <time>2022-03-14T14:35:54Z</time>
      </trkpt>
      <trkpt lat="46.63622" lon="5.42141">
        <ele>234.8</ele>
        <time>2022-03-14T14:36:00Z</time>
      </trkpt>
      <trkpt lat="46.63614" lon="5.42137">
        <ele>234.6</ele>
        <time>2022-03-14T14:36:01Z</time>
      </trkpt>
      <trkpt lat="46.636" lon="5.42123">
        <ele>234.4</ele>
        <time>2022-03-14T14:36:03Z</time>
      </trkpt>
      <trkpt lat="46.63591" lon="5.42101">
        <ele>234</ele>
        <time>2022-03-14T14:36:05Z</time>
      </trkpt>
      <trkpt lat="46.63588" lon="5.42092">
        <ele>233.8</ele>
        <time>2022-03-14T14:36:06Z</time>
      </trkpt>
      <trkpt lat="46.63584" lon="5.4208">
        <ele>233.6</ele>
        <time>2022-03-14T14:36:07Z</time>
      </trkpt>
      <trkpt lat="46.63573" lon="5.4206">
        <ele>233.2</ele>
        <time>2022-03-14T14:36:09Z</time>
      </trkpt>
      <trkpt lat="46.63567" lon="5.42052">
        <ele>233</ele>
        <time>2022-03-14T14:36:10Z</time>
      </trkpt>
      <trkpt lat="46.63547" lon="5.42033">
        <ele>232.6</ele>
        <time>2022-03-14T14:36:13Z</time>
      </trkpt>
      <trkpt lat="46.63539" lon="5.42028">
        <ele>232.6</ele>
        <time>2022-03-14T14:36:14Z</time>
      </trkpt>
      <trkpt lat="46.63509" lon="5.42012">
        <ele>232.6</ele>
        <time>2022-03-14T14:36:18Z</time>
      </trkpt>
      <trkpt lat="46.63473" lon="5.41981">
        <ele>232.4</ele>
        <time>2022-03-14T14:36:23Z</time>
      </trkpt>
      <trkpt lat="46.63427" lon="5.41953">
        <ele>232</ele>
        <time>2022-03-14T14:36:29Z</time>
      </trkpt>
      <trkpt lat="46.63411" lon="5.41945">
        <ele>231.8</ele>
        <time>2022-03-14T14:36:31Z</time>
      </trkpt>
      <trkpt lat="46.63396" lon="5.41933">
        <ele>231.6</ele>
        <time>2022-03-14T14:36:33Z</time>
      </trkpt>
      <trkpt lat="46.63359" lon="5.41901">
        <ele>231.2</ele>
        <time>2022-03-14T14:36:38Z</time>
      </trkpt>
      <trkpt lat="46.63346" lon="5.41884">
        <ele>231</ele>
        <time>2022-03-14T14:36:40Z</time>
      </trkpt>
      <trkpt lat="46.63311" lon="5.41832">
        <ele>230.6</ele>
        <time>2022-03-14T14:36:46Z</time>
      </trkpt>
      <trkpt lat="46.633" lon="5.41816">
        <ele>230.4</ele>
        <time>2022-03-14T14:36:48Z</time>
      </trkpt>
      <trkpt lat="46.63265" lon="5.41766">
        <ele>231</ele>
        <time>2022-03-14T14:36:55Z</time>
      </trkpt>
      <trkpt lat="46.63241" lon="5.41734">
        <ele>231.8</ele>
        <time>2022-03-14T14:37:00Z</time>
      </trkpt>
      <trkpt lat="46.63226" lon="5.41713">
        <ele>232.2</ele>
        <time>2022-03-14T14:37:03Z</time>
      </trkpt>
      <trkpt lat="46.63203" lon="5.41669">
        <ele>231.8</ele>
        <time>2022-03-14T14:37:08Z</time>
      </trkpt>
      <trkpt lat="46.63171" lon="5.41596">
        <ele>231.2</ele>
        <time>2022-03-14T14:37:16Z</time>
      </trkpt>
      <trkpt lat="46.63166" lon="5.41586">
        <ele>231.2</ele>
        <time>2022-03-14T14:37:17Z</time>
      </trkpt>
      <trkpt lat="46.63133" lon="5.41516">
        <ele>231.2</ele>
        <time>2022-03-14T14:37:25Z</time>
      </trkpt>
      <trkpt lat="46.63129" lon="5.41507">
        <ele>231.2</ele>
        <time>2022-03-14T14:37:26Z</time>
      </trkpt>
      <trkpt lat="46.63104" lon="5.41459">
        <ele>231</ele>
        <time>2022-03-14T14:37:32Z</time>
      </trkpt>
      <trkpt lat="46.63063" lon="5.41405">
        <ele>231.4</ele>
        <time>2022-03-14T14:37:40Z</time>
      </trkpt>
      <trkpt lat="46.63034" lon="5.41376">
        <ele>231.6</ele>
        <time>2022-03-14T14:37:45Z</time>
      </trkpt>
      <trkpt lat="46.63021" lon="5.41366">
        <ele>231.6</ele>
        <time>2022-03-14T14:37:47Z</time>
      </trkpt>
      <trkpt lat="46.63007" lon="5.41357">
        <ele>231.4</ele>
        <time>2022-03-14T14:37:49Z</time>
      </trkpt>
      <trkpt lat="46.62991" lon="5.41349">
        <ele>231.2</ele>
        <time>2022-03-14T14:37:51Z</time>
      </trkpt>
      <trkpt lat="46.62974" lon="5.41343">
        <ele>230.6</ele>
        <time>2022-03-14T14:37:53Z</time>
      </trkpt>
      <trkpt lat="46.62957" lon="5.41334">
        <ele>229.6</ele>
        <time>2022-03-14T14:37:55Z</time>
      </trkpt>
      <trkpt lat="46.62939" lon="5.41326">
        <ele>229</ele>
        <time>2022-03-14T14:37:57Z</time>
      </trkpt>
      <trkpt lat="46.6292" lon="5.41318">
        <ele>228.4</ele>
        <time>2022-03-14T14:37:59Z</time>
      </trkpt>
      <trkpt lat="46.62882" lon="5.41303">
        <ele>226.8</ele>
        <time>2022-03-14T14:38:03Z</time>
      </trkpt>
      <trkpt lat="46.62873" lon="5.41299">
        <ele>226.4</ele>
        <time>2022-03-14T14:38:04Z</time>
      </trkpt>
      <trkpt lat="46.62854" lon="5.41291">
        <ele>225.6</ele>
        <time>2022-03-14T14:38:06Z</time>
      </trkpt>
      <trkpt lat="46.62834" lon="5.41282">
        <ele>224.2</ele>
        <time>2022-03-14T14:38:08Z</time>
      </trkpt>
      <trkpt lat="46.62806" lon="5.4127">
        <ele>223</ele>
        <time>2022-03-14T14:38:11Z</time>
      </trkpt>
      <trkpt lat="46.62797" lon="5.41266">
        <ele>221.6</ele>
        <time>2022-03-14T14:38:12Z</time>
      </trkpt>
      <trkpt lat="46.62778" lon="5.41257">
        <ele>220.4</ele>
        <time>2022-03-14T14:38:14Z</time>
      </trkpt>
      <trkpt lat="46.62751" lon="5.41245">
        <ele>219.4</ele>
        <time>2022-03-14T14:38:17Z</time>
      </trkpt>
      <trkpt lat="46.62714" lon="5.41229">
        <ele>218.2</ele>
        <time>2022-03-14T14:38:21Z</time>
      </trkpt>
      <trkpt lat="46.62704" lon="5.41225">
        <ele>218</ele>
        <time>2022-03-14T14:38:22Z</time>
      </trkpt>
      <trkpt lat="46.62666" lon="5.41208">
        <ele>217</ele>
        <time>2022-03-14T14:38:26Z</time>
      </trkpt>
      <trkpt lat="46.62627" lon="5.41191">
        <ele>216</ele>
        <time>2022-03-14T14:38:30Z</time>
      </trkpt>
      <trkpt lat="46.62617" lon="5.41187">
        <ele>215.8</ele>
        <time>2022-03-14T14:38:31Z</time>
      </trkpt>
      <trkpt lat="46.62559" lon="5.41162">
        <ele>214.4</ele>
        <time>2022-03-14T14:38:37Z</time>
      </trkpt>
      <trkpt lat="46.6253" lon="5.41149">
        <ele>213.6</ele>
        <time>2022-03-14T14:38:40Z</time>
      </trkpt>
      <trkpt lat="46.6251" lon="5.4114">
        <ele>213.2</ele>
        <time>2022-03-14T14:38:42Z</time>
      </trkpt>
      <trkpt lat="46.62491" lon="5.41128">
        <ele>212.8</ele>
        <time>2022-03-14T14:38:44Z</time>
      </trkpt>
      <trkpt lat="46.62483" lon="5.4112">
        <ele>212.6</ele>
        <time>2022-03-14T14:38:45Z</time>
      </trkpt>
      <trkpt lat="46.62475" lon="5.41111">
        <ele>212.4</ele>
        <time>2022-03-14T14:38:46Z</time>
      </trkpt>
      <trkpt lat="46.62467" lon="5.41101">
        <ele>212</ele>
        <time>2022-03-14T14:38:47Z</time>
      </trkpt>
      <trkpt lat="46.62461" lon="5.4109">
        <ele>211.8</ele>
        <time>2022-03-14T14:38:48Z</time>
      </trkpt>
      <trkpt lat="46.6244" lon="5.41042">
        <ele>211.6</ele>
        <time>2022-03-14T14:38:52Z</time>
      </trkpt>
      <trkpt lat="46.62412" lon="5.40971">
        <ele>211.2</ele>
        <time>2022-03-14T14:38:58Z</time>
      </trkpt>
      <trkpt lat="46.62407" lon="5.40959">
        <ele>211.2</ele>
        <time>2022-03-14T14:38:59Z</time>
      </trkpt>
      <trkpt lat="46.62397" lon="5.40938">
        <ele>211</ele>
        <time>2022-03-14T14:39:01Z</time>
      </trkpt>
      <trkpt lat="46.62391" lon="5.40929">
        <ele>211</ele>
        <time>2022-03-14T14:39:02Z</time>
      </trkpt>
      <trkpt lat="46.62384" lon="5.4092">
        <ele>210.8</ele>
        <time>2022-03-14T14:39:03Z</time>
      </trkpt>
      <trkpt lat="46.62346" lon="5.40885">
        <ele>210.4</ele>
        <time>2022-03-14T14:39:08Z</time>
      </trkpt>
      <trkpt lat="46.62332" lon="5.4087">
        <ele>210.4</ele>
        <time>2022-03-14T14:39:10Z</time>
      </trkpt>
      <trkpt lat="46.62326" lon="5.40861">
        <ele>210.2</ele>
        <time>2022-03-14T14:39:11Z</time>
      </trkpt>
      <trkpt lat="46.6231" lon="5.40833">
        <ele>210.2</ele>
        <time>2022-03-14T14:39:14Z</time>
      </trkpt>
      <trkpt lat="46.62272" lon="5.40786">
        <ele>210</ele>
        <time>2022-03-14T14:39:20Z</time>
      </trkpt>
      <trkpt lat="46.62266" lon="5.40779">
        <ele>210</ele>
        <time>2022-03-14T14:39:21Z</time>
      </trkpt>
      <trkpt lat="46.62218" lon="5.40733">
        <ele>209.8</ele>
        <time>2022-03-14T14:39:28Z</time>
      </trkpt>
      <trkpt lat="46.62197" lon="5.40716">
        <ele>209.6</ele>
        <time>2022-03-14T14:39:31Z</time>
      </trkpt>
      <trkpt lat="46.62182" lon="5.40709">
        <ele>209.6</ele>
        <time>2022-03-14T14:39:33Z</time>
      </trkpt>
      <trkpt lat="46.62167" lon="5.40707">
        <ele>209.6</ele>
        <time>2022-03-14T14:39:35Z</time>
      </trkpt>
      <trkpt lat="46.62151" lon="5.4071">
        <ele>209.6</ele>
        <time>2022-03-14T14:39:37Z</time>
      </trkpt>
      <trkpt lat="46.62137" lon="5.40718">
        <ele>209.6</ele>
        <time>2022-03-14T14:39:39Z</time>
      </trkpt>
      <trkpt lat="46.62124" lon="5.40731">
        <ele>209.6</ele>
        <time>2022-03-14T14:39:41Z</time>
      </trkpt>
      <trkpt lat="46.62113" lon="5.40746">
        <ele>209.6</ele>
        <time>2022-03-14T14:39:43Z</time>
      </trkpt>
      <trkpt lat="46.62105" lon="5.40765">
        <ele>209.6</ele>
        <time>2022-03-14T14:39:45Z</time>
      </trkpt>
      <trkpt lat="46.62078" lon="5.40837">
        <ele>209.8</ele>
        <time>2022-03-14T14:39:52Z</time>
      </trkpt>
      <trkpt lat="46.62075" lon="5.40848">
        <ele>209.8</ele>
        <time>2022-03-14T14:39:53Z</time>
      </trkpt>
      <trkpt lat="46.62049" lon="5.40922">
        <ele>209.4</ele>
        <time>2022-03-14T14:40:00Z</time>
      </trkpt>
      <trkpt lat="46.62043" lon="5.40944">
        <ele>209.2</ele>
        <time>2022-03-14T14:40:02Z</time>
      </trkpt>
      <trkpt lat="46.62022" lon="5.41006">
        <ele>209</ele>
        <time>2022-03-14T14:40:08Z</time>
      </trkpt>
      <trkpt lat="46.62015" lon="5.41027">
        <ele>208.8</ele>
        <time>2022-03-14T14:40:10Z</time>
      </trkpt>
      <trkpt lat="46.61991" lon="5.41072">
        <ele>208.8</ele>
        <time>2022-03-14T14:40:15Z</time>
      </trkpt>
      <trkpt lat="46.6195" lon="5.41128">
        <ele>208.6</ele>
        <time>2022-03-14T14:40:22Z</time>
      </trkpt>
      <trkpt lat="46.61909" lon="5.41185">
        <ele>208.6</ele>
        <time>2022-03-14T14:40:29Z</time>
      </trkpt>
      <trkpt lat="46.61885" lon="5.41216">
        <ele>208.6</ele>
        <time>2022-03-14T14:40:33Z</time>
      </trkpt>
      <trkpt lat="46.61847" lon="5.41275">
        <ele>208.6</ele>
        <time>2022-03-14T14:40:40Z</time>
      </trkpt>
      <trkpt lat="46.61837" lon="5.41293">
        <ele>208.4</ele>
        <time>2022-03-14T14:40:42Z</time>
      </trkpt>
      <trkpt lat="46.61802" lon="5.41355">
        <ele>208.4</ele>
        <time>2022-03-14T14:40:49Z</time>
      </trkpt>
      <trkpt lat="46.61776" lon="5.41398">
        <ele>208.4</ele>
        <time>2022-03-14T14:40:54Z</time>
      </trkpt>
      <trkpt lat="46.61757" lon="5.41419">
        <ele>208.6</ele>
        <time>2022-03-14T14:40:57Z</time>
      </trkpt>
      <trkpt lat="46.61743" lon="5.41429">
        <ele>208.6</ele>
        <time>2022-03-14T14:40:59Z</time>
      </trkpt>
      <trkpt lat="46.61727" lon="5.41435">
        <ele>208.6</ele>
        <time>2022-03-14T14:41:01Z</time>
      </trkpt>
      <trkpt lat="46.61711" lon="5.41437">
        <ele>208.4</ele>
        <time>2022-03-14T14:41:03Z</time>
      </trkpt>
      <trkpt lat="46.6168" lon="5.41427">
        <ele>208.6</ele>
        <time>2022-03-14T14:41:07Z</time>
      </trkpt>
      <trkpt lat="46.61647" lon="5.41398">
        <ele>208.8</ele>
        <time>2022-03-14T14:41:12Z</time>
      </trkpt>
      <trkpt lat="46.61604" lon="5.41349">
        <ele>208.8</ele>
        <time>2022-03-14T14:41:19Z</time>
      </trkpt>
      <trkpt lat="46.6159" lon="5.41338">
        <ele>208.8</ele>
        <time>2022-03-14T14:41:21Z</time>
      </trkpt>
      <trkpt lat="46.61541" lon="5.41304">
        <ele>208.4</ele>
        <time>2022-03-14T14:41:28Z</time>
      </trkpt>
      <trkpt lat="46.6152" lon="5.4129">
        <ele>208.4</ele>
        <time>2022-03-14T14:41:31Z</time>
      </trkpt>
      <trkpt lat="46.61491" lon="5.41276">
        <ele>208.2</ele>
        <time>2022-03-14T14:41:35Z</time>
      </trkpt>
      <trkpt lat="46.61476" lon="5.41271">
        <ele>208.2</ele>
        <time>2022-03-14T14:41:37Z</time>
      </trkpt>
      <trkpt lat="46.61423" lon="5.41256">
        <ele>208.6</ele>
        <time>2022-03-14T14:41:44Z</time>
      </trkpt>
      <trkpt lat="46.61399" lon="5.4125">
        <ele>208.6</ele>
        <time>2022-03-14T14:41:47Z</time>
      </trkpt>
      <trkpt lat="46.61346" lon="5.41235">
        <ele>208.6</ele>
        <time>2022-03-14T14:41:54Z</time>
      </trkpt>
      <trkpt lat="46.61331" lon="5.41231">
        <ele>208.6</ele>
        <time>2022-03-14T14:41:56Z</time>
      </trkpt>
      <trkpt lat="46.61277" lon="5.41217">
        <ele>208.6</ele>
        <time>2022-03-14T14:42:03Z</time>
      </trkpt>
      <trkpt lat="46.61239" lon="5.41206">
        <ele>208.2</ele>
        <time>2022-03-14T14:42:08Z</time>
      </trkpt>
      <trkpt lat="46.61185" lon="5.41191">
        <ele>207.8</ele>
        <time>2022-03-14T14:42:15Z</time>
      </trkpt>
      <trkpt lat="46.6117" lon="5.41187">
        <ele>207.6</ele>
        <time>2022-03-14T14:42:17Z</time>
      </trkpt>
      <trkpt lat="46.61116" lon="5.41172">
        <ele>207.4</ele>
        <time>2022-03-14T14:42:24Z</time>
      </trkpt>
      <trkpt lat="46.61078" lon="5.41161">
        <ele>207.6</ele>
        <time>2022-03-14T14:42:29Z</time>
      </trkpt>
      <trkpt lat="46.61048" lon="5.41153">
        <ele>207.8</ele>
        <time>2022-03-14T14:42:33Z</time>
      </trkpt>
      <trkpt lat="46.61025" lon="5.41154">
        <ele>208</ele>
        <time>2022-03-14T14:42:36Z</time>
      </trkpt>
      <trkpt lat="46.61011" lon="5.41158">
        <ele>208</ele>
        <time>2022-03-14T14:42:38Z</time>
      </trkpt>
      <trkpt lat="46.60996" lon="5.41167">
        <ele>208.2</ele>
        <time>2022-03-14T14:42:40Z</time>
      </trkpt>
      <trkpt lat="46.60951" lon="5.41209">
        <ele>208.6</ele>
        <time>2022-03-14T14:42:47Z</time>
      </trkpt>
      <trkpt lat="46.60905" lon="5.4126">
        <ele>209</ele>
        <time>2022-03-14T14:42:55Z</time>
      </trkpt>
      <trkpt lat="46.6088" lon="5.41291">
        <ele>209.6</ele>
        <time>2022-03-14T14:43:00Z</time>
      </trkpt>
      <trkpt lat="46.60855" lon="5.41323">
        <ele>210.2</ele>
        <time>2022-03-14T14:43:05Z</time>
      </trkpt>
      <trkpt lat="46.60849" lon="5.41328">
        <ele>210.2</ele>
        <time>2022-03-14T14:43:06Z</time>
      </trkpt>
      <trkpt lat="46.60837" lon="5.41333">
        <ele>210.2</ele>
        <time>2022-03-14T14:43:08Z</time>
      </trkpt>
      <trkpt lat="46.60824" lon="5.41332">
        <ele>210.4</ele>
        <time>2022-03-14T14:43:10Z</time>
      </trkpt>
      <trkpt lat="46.60819" lon="5.41329">
        <ele>210.6</ele>
        <time>2022-03-14T14:43:11Z</time>
      </trkpt>
      <trkpt lat="46.60813" lon="5.41326">
        <ele>210.6</ele>
        <time>2022-03-14T14:43:12Z</time>
      </trkpt>
      <trkpt lat="46.60803" lon="5.41316">
        <ele>210.6</ele>
        <time>2022-03-14T14:43:14Z</time>
      </trkpt>
      <trkpt lat="46.60799" lon="5.41312">
        <ele>210.8</ele>
        <time>2022-03-14T14:43:15Z</time>
      </trkpt>
      <trkpt lat="46.60791" lon="5.41302">
        <ele>211.2</ele>
        <time>2022-03-14T14:43:17Z</time>
      </trkpt>
      <trkpt lat="46.60779" lon="5.4129">
        <ele>212.2</ele>
        <time>2022-03-14T14:43:20Z</time>
      </trkpt>
      <trkpt lat="46.60768" lon="5.41277">
        <ele>213.2</ele>
        <time>2022-03-14T14:43:23Z</time>
      </trkpt>
      <trkpt lat="46.60746" lon="5.41253">
        <ele>214.4</ele>
        <time>2022-03-14T14:43:28Z</time>
      </trkpt>
      <trkpt lat="46.60723" lon="5.41224">
        <ele>214.8</ele>
        <time>2022-03-14T14:43:33Z</time>
      </trkpt>
      <trkpt lat="46.60684" lon="5.41184">
        <ele>215</ele>
        <time>2022-03-14T14:43:40Z</time>
      </trkpt>
      <trkpt lat="46.60652" lon="5.4117">
        <ele>214.8</ele>
        <time>2022-03-14T14:43:45Z</time>
      </trkpt>
      <trkpt lat="46.60602" lon="5.41152">
        <ele>215</ele>
        <time>2022-03-14T14:43:53Z</time>
      </trkpt>
      <trkpt lat="46.60578" lon="5.41145">
        <ele>215.6</ele>
        <time>2022-03-14T14:43:57Z</time>
      </trkpt>
      <trkpt lat="46.60554" lon="5.41141">
        <ele>216.2</ele>
        <time>2022-03-14T14:44:01Z</time>
      </trkpt>
      <trkpt lat="46.60537" lon="5.41139">
        <ele>216.6</ele>
        <time>2022-03-14T14:44:04Z</time>
      </trkpt>
      <trkpt lat="46.6051" lon="5.41138">
        <ele>218</ele>
        <time>2022-03-14T14:44:09Z</time>
      </trkpt>
      <trkpt lat="46.60478" lon="5.41137">
        <ele>219</ele>
        <time>2022-03-14T14:44:15Z</time>
      </trkpt>
      <trkpt lat="46.60463" lon="5.41133">
        <ele>219.6</ele>
        <time>2022-03-14T14:44:18Z</time>
      </trkpt>
      <trkpt lat="46.60458" lon="5.41131">
        <ele>219.6</ele>
        <time>2022-03-14T14:44:19Z</time>
      </trkpt>
      <trkpt lat="46.60447" lon="5.41125">
        <ele>220.2</ele>
        <time>2022-03-14T14:44:21Z</time>
      </trkpt>
      <trkpt lat="46.60438" lon="5.41117">
        <ele>220.4</ele>
        <time>2022-03-14T14:44:23Z</time>
      </trkpt>
      <trkpt lat="46.6043" lon="5.41106">
        <ele>220.8</ele>
        <time>2022-03-14T14:44:25Z</time>
      </trkpt>
      <trkpt lat="46.60424" lon="5.41093">
        <ele>221</ele>
        <time>2022-03-14T14:44:27Z</time>
      </trkpt>
      <trkpt lat="46.60421" lon="5.41086">
        <ele>221.2</ele>
        <time>2022-03-14T14:44:28Z</time>
      </trkpt>
      <trkpt lat="46.60404" lon="5.41045">
        <ele>222</ele>
        <time>2022-03-14T14:44:34Z</time>
      </trkpt>
      <trkpt lat="46.60396" lon="5.41033">
        <ele>222.4</ele>
        <time>2022-03-14T14:44:36Z</time>
      </trkpt>
      <trkpt lat="46.60373" lon="5.41013">
        <ele>222.2</ele>
        <time>2022-03-14T14:44:40Z</time>
      </trkpt>
      <trkpt lat="46.60345" lon="5.40994">
        <ele>221.8</ele>
        <time>2022-03-14T14:44:44Z</time>
      </trkpt>
      <trkpt lat="46.60338" lon="5.40987">
        <ele>221.8</ele>
        <time>2022-03-14T14:44:45Z</time>
      </trkpt>
      <trkpt lat="46.60332" lon="5.40978">
        <ele>221.2</ele>
        <time>2022-03-14T14:44:46Z</time>
      </trkpt>
      <trkpt lat="46.60316" lon="5.40949">
        <ele>220</ele>
        <time>2022-03-14T14:44:49Z</time>
      </trkpt>
      <trkpt lat="46.60306" lon="5.4093">
        <ele>218.6</ele>
        <time>2022-03-14T14:44:51Z</time>
      </trkpt>
      <trkpt lat="46.60292" lon="5.40908">
        <ele>217.4</ele>
        <time>2022-03-14T14:44:53Z</time>
      </trkpt>
      <trkpt lat="46.60284" lon="5.40899">
        <ele>217.4</ele>
        <time>2022-03-14T14:44:54Z</time>
      </trkpt>
      <trkpt lat="46.60276" lon="5.40891">
        <ele>216.4</ele>
        <time>2022-03-14T14:44:55Z</time>
      </trkpt>
      <trkpt lat="46.60242" lon="5.40863">
        <ele>215</ele>
        <time>2022-03-14T14:44:59Z</time>
      </trkpt>
      <trkpt lat="46.60234" lon="5.40856">
        <ele>214.4</ele>
        <time>2022-03-14T14:45:00Z</time>
      </trkpt>
      <trkpt lat="46.60225" lon="5.40849">
        <ele>213.8</ele>
        <time>2022-03-14T14:45:01Z</time>
      </trkpt>
      <trkpt lat="46.60208" lon="5.40835">
        <ele>212.6</ele>
        <time>2022-03-14T14:45:03Z</time>
      </trkpt>
      <trkpt lat="46.60186" lon="5.40811">
        <ele>211.4</ele>
        <time>2022-03-14T14:45:06Z</time>
      </trkpt>
      <trkpt lat="46.60176" lon="5.4079">
        <ele>211.2</ele>
        <time>2022-03-14T14:45:08Z</time>
      </trkpt>
      <trkpt lat="46.60173" lon="5.40778">
        <ele>211</ele>
        <time>2022-03-14T14:45:09Z</time>
      </trkpt>
      <trkpt lat="46.60172" lon="5.40765">
        <ele>211</ele>
        <time>2022-03-14T14:45:10Z</time>
      </trkpt>
      <trkpt lat="46.60172" lon="5.40741">
        <ele>210.6</ele>
        <time>2022-03-14T14:45:12Z</time>
      </trkpt>
      <trkpt lat="46.60176" lon="5.40718">
        <ele>210.4</ele>
        <time>2022-03-14T14:45:14Z</time>
      </trkpt>
      <trkpt lat="46.60179" lon="5.40707">
        <ele>210.4</ele>
        <time>2022-03-14T14:45:15Z</time>
      </trkpt>
      <trkpt lat="46.60184" lon="5.40697">
        <ele>210.4</ele>
        <time>2022-03-14T14:45:16Z</time>
      </trkpt>
      <trkpt lat="46.60213" lon="5.40649">
        <ele>210.4</ele>
        <time>2022-03-14T14:45:22Z</time>
      </trkpt>
      <trkpt lat="46.60229" lon="5.40617">
        <ele>210.6</ele>
        <time>2022-03-14T14:45:26Z</time>
      </trkpt>
      <trkpt lat="46.60234" lon="5.40598">
        <ele>210.6</ele>
        <time>2022-03-14T14:45:28Z</time>
      </trkpt>
      <trkpt lat="46.60236" lon="5.40579">
        <ele>210.6</ele>
        <time>2022-03-14T14:45:30Z</time>
      </trkpt>
      <trkpt lat="46.60234" lon="5.4056">
        <ele>210.8</ele>
        <time>2022-03-14T14:45:32Z</time>
      </trkpt>
      <trkpt lat="46.60221" lon="5.40495">
        <ele>211</ele>
        <time>2022-03-14T14:45:39Z</time>
      </trkpt>
      <trkpt lat="46.60217" lon="5.4046">
        <ele>211</ele>
        <time>2022-03-14T14:45:43Z</time>
      </trkpt>
      <trkpt lat="46.60217" lon="5.40451">
        <ele>211.2</ele>
        <time>2022-03-14T14:45:44Z</time>
      </trkpt>
      <trkpt lat="46.6022" lon="5.40427">
        <ele>211.4</ele>
        <time>2022-03-14T14:45:47Z</time>
      </trkpt>
      <trkpt lat="46.60222" lon="5.40397">
        <ele>212.2</ele>
        <time>2022-03-14T14:45:51Z</time>
      </trkpt>
      <trkpt lat="46.60222" lon="5.4039">
        <ele>212.4</ele>
        <time>2022-03-14T14:45:52Z</time>
      </trkpt>
      <trkpt lat="46.60221" lon="5.4037">
        <ele>213.4</ele>
        <time>2022-03-14T14:45:55Z</time>
      </trkpt>
      <trkpt lat="46.6022" lon="5.40363">
        <ele>213.8</ele>
        <time>2022-03-14T14:45:56Z</time>
      </trkpt>
      <trkpt lat="46.60219" lon="5.40357">
        <ele>214.4</ele>
        <time>2022-03-14T14:45:57Z</time>
      </trkpt>
      <trkpt lat="46.60216" lon="5.40345">
        <ele>214.8</ele>
        <time>2022-03-14T14:45:59Z</time>
      </trkpt>
      <trkpt lat="46.60206" lon="5.40309">
        <ele>215.8</ele>
        <time>2022-03-14T14:46:04Z</time>
      </trkpt>
      <trkpt lat="46.602" lon="5.40293">
        <ele>215.8</ele>
        <time>2022-03-14T14:46:06Z</time>
      </trkpt>
      <trkpt lat="46.60183" lon="5.40252">
        <ele>215.8</ele>
        <time>2022-03-14T14:46:11Z</time>
      </trkpt>
      <trkpt lat="46.60177" lon="5.40234">
        <ele>215.8</ele>
        <time>2022-03-14T14:46:13Z</time>
      </trkpt>
      <trkpt lat="46.60175" lon="5.40215">
        <ele>215.8</ele>
        <time>2022-03-14T14:46:15Z</time>
      </trkpt>
      <trkpt lat="46.60176" lon="5.40196">
        <ele>215.6</ele>
        <time>2022-03-14T14:46:17Z</time>
      </trkpt>
      <trkpt lat="46.60179" lon="5.40177">
        <ele>215.6</ele>
        <time>2022-03-14T14:46:19Z</time>
      </trkpt>
      <trkpt lat="46.6019" lon="5.40116">
        <ele>216</ele>
        <time>2022-03-14T14:46:26Z</time>
      </trkpt>
      <trkpt lat="46.60191" lon="5.40106">
        <ele>216</ele>
        <time>2022-03-14T14:46:27Z</time>
      </trkpt>
      <trkpt lat="46.60191" lon="5.40095">
        <ele>215.8</ele>
        <time>2022-03-14T14:46:28Z</time>
      </trkpt>
      <trkpt lat="46.6019" lon="5.40061">
        <ele>215.8</ele>
        <time>2022-03-14T14:46:31Z</time>
      </trkpt>
      <trkpt lat="46.60185" lon="5.39977">
        <ele>215</ele>
        <time>2022-03-14T14:46:38Z</time>
      </trkpt>
      <trkpt lat="46.60185" lon="5.39965">
        <ele>214.8</ele>
        <time>2022-03-14T14:46:39Z</time>
      </trkpt>
      <trkpt lat="46.60182" lon="5.39927">
        <ele>214</ele>
        <time>2022-03-14T14:46:42Z</time>
      </trkpt>
      <trkpt lat="46.60175" lon="5.39903">
        <ele>213.6</ele>
        <time>2022-03-14T14:46:44Z</time>
      </trkpt>
      <trkpt lat="46.60163" lon="5.39884">
        <ele>213</ele>
        <time>2022-03-14T14:46:46Z</time>
      </trkpt>
      <trkpt lat="46.60157" lon="5.39876">
        <ele>213</ele>
        <time>2022-03-14T14:46:47Z</time>
      </trkpt>
      <trkpt lat="46.60134" lon="5.39856">
        <ele>212.4</ele>
        <time>2022-03-14T14:46:50Z</time>
      </trkpt>
      <trkpt lat="46.60099" lon="5.39824">
        <ele>211.8</ele>
        <time>2022-03-14T14:46:55Z</time>
      </trkpt>
      <trkpt lat="46.60093" lon="5.39817">
        <ele>211.6</ele>
        <time>2022-03-14T14:46:56Z</time>
      </trkpt>
      <trkpt lat="46.60087" lon="5.39808">
        <ele>211.4</ele>
        <time>2022-03-14T14:46:57Z</time>
      </trkpt>
      <trkpt lat="46.60083" lon="5.39799">
        <ele>211.2</ele>
        <time>2022-03-14T14:46:58Z</time>
      </trkpt>
      <trkpt lat="46.60065" lon="5.39752">
        <ele>211.2</ele>
        <time>2022-03-14T14:47:03Z</time>
      </trkpt>
      <trkpt lat="46.60062" lon="5.39732">
        <ele>211.2</ele>
        <time>2022-03-14T14:47:05Z</time>
      </trkpt>
      <trkpt lat="46.60063" lon="5.39721">
        <ele>211.6</ele>
        <time>2022-03-14T14:47:06Z</time>
      </trkpt>
      <trkpt lat="46.60065" lon="5.39711">
        <ele>211.6</ele>
        <time>2022-03-14T14:47:07Z</time>
      </trkpt>
      <trkpt lat="46.60071" lon="5.39694">
        <ele>212</ele>
        <time>2022-03-14T14:47:09Z</time>
      </trkpt>
      <trkpt lat="46.60082" lon="5.39671">
        <ele>212.2</ele>
        <time>2022-03-14T14:47:12Z</time>
      </trkpt>
      <trkpt lat="46.60086" lon="5.39654">
        <ele>212.4</ele>
        <time>2022-03-14T14:47:14Z</time>
      </trkpt>
      <trkpt lat="46.60088" lon="5.39646">
        <ele>212.6</ele>
        <time>2022-03-14T14:47:15Z</time>
      </trkpt>
      <trkpt lat="46.60088" lon="5.39622">
        <ele>213.2</ele>
        <time>2022-03-14T14:47:18Z</time>
      </trkpt>
      <trkpt lat="46.60088" lon="5.39615">
        <ele>213.4</ele>
        <time>2022-03-14T14:47:19Z</time>
      </trkpt>
      <trkpt lat="46.60087" lon="5.39607">
        <ele>213.8</ele>
        <time>2022-03-14T14:47:20Z</time>
      </trkpt>
      <trkpt lat="46.60083" lon="5.39594">
        <ele>214.2</ele>
        <time>2022-03-14T14:47:22Z</time>
      </trkpt>
      <trkpt lat="46.60073" lon="5.3957">
        <ele>215</ele>
        <time>2022-03-14T14:47:26Z</time>
      </trkpt>
      <trkpt lat="46.60067" lon="5.39559">
        <ele>215.4</ele>
        <time>2022-03-14T14:47:28Z</time>
      </trkpt>
      <trkpt lat="46.60058" lon="5.39543">
        <ele>216.2</ele>
        <time>2022-03-14T14:47:31Z</time>
      </trkpt>
      <trkpt lat="46.60041" lon="5.39503">
        <ele>217</ele>
        <time>2022-03-14T14:47:38Z</time>
      </trkpt>
      <trkpt lat="46.60039" lon="5.39497">
        <ele>217.2</ele>
        <time>2022-03-14T14:47:39Z</time>
      </trkpt>
      <trkpt lat="46.60036" lon="5.39484">
        <ele>218</ele>
        <time>2022-03-14T14:47:41Z</time>
      </trkpt>
      <trkpt lat="46.60036" lon="5.39478">
        <ele>218.2</ele>
        <time>2022-03-14T14:47:42Z</time>
      </trkpt>
      <trkpt lat="46.60035" lon="5.39472">
        <ele>218.6</ele>
        <time>2022-03-14T14:47:43Z</time>
      </trkpt>
      <trkpt lat="46.60034" lon="5.39444">
        <ele>219.4</ele>
        <time>2022-03-14T14:47:47Z</time>
      </trkpt>
      <trkpt lat="46.60035" lon="5.39437">
        <ele>220</ele>
        <time>2022-03-14T14:47:48Z</time>
      </trkpt>
      <trkpt lat="46.60036" lon="5.39429">
        <ele>220.2</ele>
        <time>2022-03-14T14:47:49Z</time>
      </trkpt>
      <trkpt lat="46.6004" lon="5.39404">
        <ele>220.2</ele>
        <time>2022-03-14T14:47:52Z</time>
      </trkpt>
      <trkpt lat="46.60044" lon="5.39386">
        <ele>220.2</ele>
        <time>2022-03-14T14:47:54Z</time>
      </trkpt>
      <trkpt lat="46.60052" lon="5.39329">
        <ele>219.6</ele>
        <time>2022-03-14T14:48:00Z</time>
      </trkpt>
      <trkpt lat="46.60053" lon="5.39312">
        <ele>219.6</ele>
        <time>2022-03-14T14:48:02Z</time>
      </trkpt>
      <trkpt lat="46.60051" lon="5.3928">
        <ele>219.6</ele>
        <time>2022-03-14T14:48:06Z</time>
      </trkpt>
      <trkpt lat="46.60045" lon="5.39252">
        <ele>220.2</ele>
        <time>2022-03-14T14:48:10Z</time>
      </trkpt>
      <trkpt lat="46.60043" lon="5.39247">
        <ele>220.8</ele>
        <time>2022-03-14T14:48:11Z</time>
      </trkpt>
      <trkpt lat="46.60041" lon="5.39241">
        <ele>220.8</ele>
        <time>2022-03-14T14:48:12Z</time>
      </trkpt>
      <trkpt lat="46.60036" lon="5.39231">
        <ele>221.6</ele>
        <time>2022-03-14T14:48:14Z</time>
      </trkpt>
      <trkpt lat="46.60034" lon="5.39227">
        <ele>222</ele>
        <time>2022-03-14T14:48:15Z</time>
      </trkpt>
      <trkpt lat="46.60025" lon="5.39215">
        <ele>222.8</ele>
        <time>2022-03-14T14:48:18Z</time>
      </trkpt>
      <trkpt lat="46.60022" lon="5.39211">
        <ele>223.2</ele>
        <time>2022-03-14T14:48:19Z</time>
      </trkpt>
      <trkpt lat="46.60007" lon="5.39198">
        <ele>224.2</ele>
        <time>2022-03-14T14:48:23Z</time>
      </trkpt>
      <trkpt lat="46.59998" lon="5.39194">
        <ele>224.2</ele>
        <time>2022-03-14T14:48:25Z</time>
      </trkpt>
      <trkpt lat="46.59977" lon="5.39186">
        <ele>225.4</ele>
        <time>2022-03-14T14:48:29Z</time>
      </trkpt>
      <trkpt lat="46.59961" lon="5.39184">
        <ele>225.4</ele>
        <time>2022-03-14T14:48:32Z</time>
      </trkpt>
      <trkpt lat="46.59935" lon="5.39184">
        <ele>226</ele>
        <time>2022-03-14T14:48:37Z</time>
      </trkpt>
      <trkpt lat="46.59927" lon="5.3918">
        <ele>226</ele>
        <time>2022-03-14T14:48:39Z</time>
      </trkpt>
      <trkpt lat="46.59923" lon="5.39178">
        <ele>226.2</ele>
        <time>2022-03-14T14:48:40Z</time>
      </trkpt>
      <trkpt lat="46.59919" lon="5.39177">
        <ele>226.8</ele>
        <time>2022-03-14T14:48:41Z</time>
      </trkpt>
      <trkpt lat="46.59911" lon="5.39182">
        <ele>227.2</ele>
        <time>2022-03-14T14:48:43Z</time>
      </trkpt>
      <trkpt lat="46.59907" lon="5.39185">
        <ele>227.4</ele>
        <time>2022-03-14T14:48:44Z</time>
      </trkpt>
      <trkpt lat="46.59897" lon="5.39189">
        <ele>227.4</ele>
        <time>2022-03-14T14:48:46Z</time>
      </trkpt>
      <trkpt lat="46.59892" lon="5.39191">
        <ele>227.4</ele>
        <time>2022-03-14T14:48:47Z</time>
      </trkpt>
      <trkpt lat="46.59872" lon="5.39196">
        <ele>227.8</ele>
        <time>2022-03-14T14:48:51Z</time>
      </trkpt>
      <trkpt lat="46.59861" lon="5.39196">
        <ele>227.8</ele>
        <time>2022-03-14T14:48:53Z</time>
      </trkpt>
      <trkpt lat="46.59828" lon="5.39191">
        <ele>228.4</ele>
        <time>2022-03-14T14:48:59Z</time>
      </trkpt>
      <trkpt lat="46.59822" lon="5.3919">
        <ele>228.6</ele>
        <time>2022-03-14T14:49:00Z</time>
      </trkpt>
      <trkpt lat="46.59805" lon="5.3919">
        <ele>228.8</ele>
        <time>2022-03-14T14:49:03Z</time>
      </trkpt>
      <trkpt lat="46.59788" lon="5.39194">
        <ele>229.2</ele>
        <time>2022-03-14T14:49:06Z</time>
      </trkpt>
      <trkpt lat="46.59748" lon="5.3921">
        <ele>229.2</ele>
        <time>2022-03-14T14:49:13Z</time>
      </trkpt>
      <trkpt lat="46.59743" lon="5.39211">
        <ele>229.2</ele>
        <time>2022-03-14T14:49:14Z</time>
      </trkpt>
      <trkpt lat="46.59737" lon="5.3921">
        <ele>229.2</ele>
        <time>2022-03-14T14:49:15Z</time>
      </trkpt>
      <trkpt lat="46.59715" lon="5.39203">
        <ele>229.6</ele>
        <time>2022-03-14T14:49:19Z</time>
      </trkpt>
      <trkpt lat="46.59669" lon="5.39193">
        <ele>230.4</ele>
        <time>2022-03-14T14:49:27Z</time>
      </trkpt>
      <trkpt lat="46.59628" lon="5.39185">
        <ele>230.4</ele>
        <time>2022-03-14T14:49:33Z</time>
      </trkpt>
      <trkpt lat="46.59606" lon="5.39187">
        <ele>230</ele>
        <time>2022-03-14T14:49:36Z</time>
      </trkpt>
      <trkpt lat="46.59592" lon="5.39193">
        <ele>230</ele>
        <time>2022-03-14T14:49:38Z</time>
      </trkpt>
      <trkpt lat="46.59567" lon="5.39206">
        <ele>229.6</ele>
        <time>2022-03-14T14:49:42Z</time>
      </trkpt>
      <trkpt lat="46.59555" lon="5.39207">
        <ele>229.2</ele>
        <time>2022-03-14T14:49:44Z</time>
      </trkpt>
      <trkpt lat="46.59537" lon="5.39207">
        <ele>229.2</ele>
        <time>2022-03-14T14:49:47Z</time>
      </trkpt>
      <trkpt lat="46.59524" lon="5.39205">
        <ele>229.2</ele>
        <time>2022-03-14T14:49:49Z</time>
      </trkpt>
      <trkpt lat="46.59513" lon="5.39196">
        <ele>228.8</ele>
        <time>2022-03-14T14:49:51Z</time>
      </trkpt>
      <trkpt lat="46.59508" lon="5.39189">
        <ele>228.8</ele>
        <time>2022-03-14T14:49:52Z</time>
      </trkpt>
      <trkpt lat="46.59504" lon="5.39181">
        <ele>228.6</ele>
        <time>2022-03-14T14:49:53Z</time>
      </trkpt>
      <trkpt lat="46.59499" lon="5.39161">
        <ele>228.4</ele>
        <time>2022-03-14T14:49:55Z</time>
      </trkpt>
      <trkpt lat="46.59491" lon="5.39092">
        <ele>228.2</ele>
        <time>2022-03-14T14:50:01Z</time>
      </trkpt>
      <trkpt lat="46.59481" lon="5.39011">
        <ele>227.8</ele>
        <time>2022-03-14T14:50:08Z</time>
      </trkpt>
      <trkpt lat="46.59477" lon="5.38977">
        <ele>227.8</ele>
        <time>2022-03-14T14:50:11Z</time>
      </trkpt>
      <trkpt lat="46.59475" lon="5.38966">
        <ele>227.8</ele>
        <time>2022-03-14T14:50:12Z</time>
      </trkpt>
      <trkpt lat="46.59466" lon="5.38936">
        <ele>227.8</ele>
        <time>2022-03-14T14:50:15Z</time>
      </trkpt>
      <trkpt lat="46.59452" lon="5.38897">
        <ele>227.8</ele>
        <time>2022-03-14T14:50:19Z</time>
      </trkpt>
      <trkpt lat="46.5945" lon="5.38888">
        <ele>227.8</ele>
        <time>2022-03-14T14:50:20Z</time>
      </trkpt>
      <trkpt lat="46.59449" lon="5.38877">
        <ele>227.8</ele>
        <time>2022-03-14T14:50:21Z</time>
      </trkpt>
      <trkpt lat="46.59444" lon="5.38827">
        <ele>228.2</ele>
        <time>2022-03-14T14:50:26Z</time>
      </trkpt>
      <trkpt lat="46.59438" lon="5.38799">
        <ele>228.6</ele>
        <time>2022-03-14T14:50:29Z</time>
      </trkpt>
      <trkpt lat="46.5943" lon="5.38782">
        <ele>228.6</ele>
        <time>2022-03-14T14:50:31Z</time>
      </trkpt>
      <trkpt lat="46.59401" lon="5.38749">
        <ele>228.6</ele>
        <time>2022-03-14T14:50:36Z</time>
      </trkpt>
      <trkpt lat="46.59354" lon="5.38698">
        <ele>227.8</ele>
        <time>2022-03-14T14:50:44Z</time>
      </trkpt>
      <trkpt lat="46.59341" lon="5.38684">
        <ele>227.8</ele>
        <time>2022-03-14T14:50:46Z</time>
      </trkpt>
      <trkpt lat="46.59298" lon="5.38637">
        <ele>227.4</ele>
        <time>2022-03-14T14:50:53Z</time>
      </trkpt>
      <trkpt lat="46.59279" lon="5.38617">
        <ele>227.4</ele>
        <time>2022-03-14T14:50:56Z</time>
      </trkpt>
      <trkpt lat="46.59233" lon="5.38566">
        <ele>227.4</ele>
        <time>2022-03-14T14:51:04Z</time>
      </trkpt>
      <trkpt lat="46.59227" lon="5.3856">
        <ele>227.4</ele>
        <time>2022-03-14T14:51:05Z</time>
      </trkpt>
      <trkpt lat="46.59183" lon="5.38513">
        <ele>228.2</ele>
        <time>2022-03-14T14:51:13Z</time>
      </trkpt>
      <trkpt lat="46.5916" lon="5.38481">
        <ele>227.8</ele>
        <time>2022-03-14T14:51:17Z</time>
      </trkpt>
      <trkpt lat="46.59121" lon="5.38417">
        <ele>226.8</ele>
        <time>2022-03-14T14:51:24Z</time>
      </trkpt>
      <trkpt lat="46.59106" lon="5.38401">
        <ele>226.2</ele>
        <time>2022-03-14T14:51:26Z</time>
      </trkpt>
      <trkpt lat="46.59089" lon="5.38386">
        <ele>225.4</ele>
        <time>2022-03-14T14:51:28Z</time>
      </trkpt>
      <trkpt lat="46.5908" lon="5.38379">
        <ele>224.8</ele>
        <time>2022-03-14T14:51:29Z</time>
      </trkpt>
      <trkpt lat="46.59046" lon="5.38352">
        <ele>223.6</ele>
        <time>2022-03-14T14:51:33Z</time>
      </trkpt>
      <trkpt lat="46.59012" lon="5.38323">
        <ele>222.6</ele>
        <time>2022-03-14T14:51:37Z</time>
      </trkpt>
      <trkpt lat="46.58963" lon="5.38282">
        <ele>221.4</ele>
        <time>2022-03-14T14:51:43Z</time>
      </trkpt>
      <trkpt lat="46.58949" lon="5.3827">
        <ele>221</ele>
        <time>2022-03-14T14:51:45Z</time>
      </trkpt>
      <trkpt lat="46.58936" lon="5.38258">
        <ele>220.8</ele>
        <time>2022-03-14T14:51:47Z</time>
      </trkpt>
      <trkpt lat="46.58924" lon="5.38245">
        <ele>220.8</ele>
        <time>2022-03-14T14:51:49Z</time>
      </trkpt>
      <trkpt lat="46.58892" lon="5.38206">
        <ele>221</ele>
        <time>2022-03-14T14:51:55Z</time>
      </trkpt>
      <trkpt lat="46.5886" lon="5.38168">
        <ele>222.2</ele>
        <time>2022-03-14T14:52:01Z</time>
      </trkpt>
      <trkpt lat="46.58855" lon="5.38161">
        <ele>222.6</ele>
        <time>2022-03-14T14:52:02Z</time>
      </trkpt>
      <trkpt lat="46.58825" lon="5.38125">
        <ele>223.6</ele>
        <time>2022-03-14T14:52:08Z</time>
      </trkpt>
      <trkpt lat="46.58812" lon="5.38107">
        <ele>224.2</ele>
        <time>2022-03-14T14:52:11Z</time>
      </trkpt>
      <trkpt lat="46.58787" lon="5.38077">
        <ele>224.6</ele>
        <time>2022-03-14T14:52:16Z</time>
      </trkpt>
      <trkpt lat="46.58774" lon="5.38067">
        <ele>224.6</ele>
        <time>2022-03-14T14:52:18Z</time>
      </trkpt>
      <trkpt lat="46.58767" lon="5.38064">
        <ele>224.6</ele>
        <time>2022-03-14T14:52:19Z</time>
      </trkpt>
      <trkpt lat="46.58745" lon="5.38058">
        <ele>224.2</ele>
        <time>2022-03-14T14:52:22Z</time>
      </trkpt>
      <trkpt lat="46.58684" lon="5.38053">
        <ele>223.6</ele>
        <time>2022-03-14T14:52:30Z</time>
      </trkpt>
      <trkpt lat="46.58637" lon="5.38049">
        <ele>223.4</ele>
        <time>2022-03-14T14:52:36Z</time>
      </trkpt>
      <trkpt lat="46.58629" lon="5.38046">
        <ele>223.2</ele>
        <time>2022-03-14T14:52:37Z</time>
      </trkpt>
      <trkpt lat="46.58607" lon="5.38034">
        <ele>222.8</ele>
        <time>2022-03-14T14:52:40Z</time>
      </trkpt>
      <trkpt lat="46.58601" lon="5.38028">
        <ele>222.8</ele>
        <time>2022-03-14T14:52:41Z</time>
      </trkpt>
      <trkpt lat="46.58594" lon="5.38022">
        <ele>222.6</ele>
        <time>2022-03-14T14:52:42Z</time>
      </trkpt>
      <trkpt lat="46.58581" lon="5.38009">
        <ele>222.2</ele>
        <time>2022-03-14T14:52:44Z</time>
      </trkpt>
      <trkpt lat="46.58566" lon="5.38">
        <ele>222.2</ele>
        <time>2022-03-14T14:52:46Z</time>
      </trkpt>
      <trkpt lat="46.58551" lon="5.38002">
        <ele>222.2</ele>
        <time>2022-03-14T14:52:48Z</time>
      </trkpt>
      <trkpt lat="46.58543" lon="5.38006">
        <ele>222</ele>
        <time>2022-03-14T14:52:49Z</time>
      </trkpt>
      <trkpt lat="46.58528" lon="5.38016">
        <ele>221.4</ele>
        <time>2022-03-14T14:52:51Z</time>
      </trkpt>
      <trkpt lat="46.58505" lon="5.38027">
        <ele>220.8</ele>
        <time>2022-03-14T14:52:54Z</time>
      </trkpt>
      <trkpt lat="46.58489" lon="5.38029">
        <ele>220.8</ele>
        <time>2022-03-14T14:52:56Z</time>
      </trkpt>
      <trkpt lat="46.58445" lon="5.38016">
        <ele>220.8</ele>
        <time>2022-03-14T14:53:01Z</time>
      </trkpt>
      <trkpt lat="46.58389" lon="5.37994">
        <ele>220.8</ele>
        <time>2022-03-14T14:53:07Z</time>
      </trkpt>
      <trkpt lat="46.58379" lon="5.3799">
        <ele>219.6</ele>
        <time>2022-03-14T14:53:08Z</time>
      </trkpt>
      <trkpt lat="46.5837" lon="5.37987">
        <ele>219.4</ele>
        <time>2022-03-14T14:53:09Z</time>
      </trkpt>
      <trkpt lat="46.5836" lon="5.37983">
        <ele>218.6</ele>
        <time>2022-03-14T14:53:10Z</time>
      </trkpt>
      <trkpt lat="46.58322" lon="5.37967">
        <ele>217.6</ele>
        <time>2022-03-14T14:53:14Z</time>
      </trkpt>
      <trkpt lat="46.58304" lon="5.37956">
        <ele>216.8</ele>
        <time>2022-03-14T14:53:16Z</time>
      </trkpt>
      <trkpt lat="46.58295" lon="5.3795">
        <ele>216.4</ele>
        <time>2022-03-14T14:53:17Z</time>
      </trkpt>
      <trkpt lat="46.5825" lon="5.37922">
        <ele>215</ele>
        <time>2022-03-14T14:53:22Z</time>
      </trkpt>
      <trkpt lat="46.58214" lon="5.379">
        <ele>214.2</ele>
        <time>2022-03-14T14:53:26Z</time>
      </trkpt>
      <trkpt lat="46.58196" lon="5.37888">
        <ele>213.8</ele>
        <time>2022-03-14T14:53:28Z</time>
      </trkpt>
      <trkpt lat="46.58187" lon="5.37883">
        <ele>213.4</ele>
        <time>2022-03-14T14:53:29Z</time>
      </trkpt>
      <trkpt lat="46.58168" lon="5.37877">
        <ele>213</ele>
        <time>2022-03-14T14:53:31Z</time>
      </trkpt>
      <trkpt lat="46.58158" lon="5.37877">
        <ele>212.6</ele>
        <time>2022-03-14T14:53:32Z</time>
      </trkpt>
      <trkpt lat="46.58149" lon="5.37881">
        <ele>212.2</ele>
        <time>2022-03-14T14:53:33Z</time>
      </trkpt>
      <trkpt lat="46.5814" lon="5.37886">
        <ele>212</ele>
        <time>2022-03-14T14:53:34Z</time>
      </trkpt>
      <trkpt lat="46.58124" lon="5.37899">
        <ele>211.4</ele>
        <time>2022-03-14T14:53:36Z</time>
      </trkpt>
      <trkpt lat="46.58115" lon="5.37905">
        <ele>211.2</ele>
        <time>2022-03-14T14:53:37Z</time>
      </trkpt>
      <trkpt lat="46.58106" lon="5.3791">
        <ele>211</ele>
        <time>2022-03-14T14:53:38Z</time>
      </trkpt>
      <trkpt lat="46.58061" lon="5.37926">
        <ele>210.2</ele>
        <time>2022-03-14T14:53:43Z</time>
      </trkpt>
      <trkpt lat="46.58052" lon="5.37928">
        <ele>210.2</ele>
        <time>2022-03-14T14:53:44Z</time>
      </trkpt>
      <trkpt lat="46.58002" lon="5.37946">
        <ele>210</ele>
        <time>2022-03-14T14:53:50Z</time>
      </trkpt>
      <trkpt lat="46.57967" lon="5.37973">
        <ele>210</ele>
        <time>2022-03-14T14:53:55Z</time>
      </trkpt>
      <trkpt lat="46.57936" lon="5.37993">
        <ele>210.6</ele>
        <time>2022-03-14T14:54:00Z</time>
      </trkpt>
      <trkpt lat="46.57911" lon="5.3802">
        <ele>211.4</ele>
        <time>2022-03-14T14:54:05Z</time>
      </trkpt>
      <trkpt lat="46.57907" lon="5.38027">
        <ele>211.8</ele>
        <time>2022-03-14T14:54:06Z</time>
      </trkpt>
      <trkpt lat="46.57897" lon="5.3805">
        <ele>212.4</ele>
        <time>2022-03-14T14:54:09Z</time>
      </trkpt>
      <trkpt lat="46.57894" lon="5.38059">
        <ele>212.6</ele>
        <time>2022-03-14T14:54:10Z</time>
      </trkpt>
      <trkpt lat="46.57877" lon="5.38116">
        <ele>213.6</ele>
        <time>2022-03-14T14:54:16Z</time>
      </trkpt>
      <trkpt lat="46.57871" lon="5.38135">
        <ele>213.8</ele>
        <time>2022-03-14T14:54:18Z</time>
      </trkpt>
      <trkpt lat="46.57848" lon="5.38189">
        <ele>214</ele>
        <time>2022-03-14T14:54:24Z</time>
      </trkpt>
      <trkpt lat="46.57837" lon="5.38203">
        <ele>214</ele>
        <time>2022-03-14T14:54:26Z</time>
      </trkpt>
      <trkpt lat="46.57824" lon="5.38215">
        <ele>214.2</ele>
        <time>2022-03-14T14:54:28Z</time>
      </trkpt>
      <trkpt lat="46.57777" lon="5.38261">
        <ele>214.2</ele>
        <time>2022-03-14T14:54:36Z</time>
      </trkpt>
      <trkpt lat="46.57765" lon="5.38273">
        <ele>214.4</ele>
        <time>2022-03-14T14:54:38Z</time>
      </trkpt>
      <trkpt lat="46.57747" lon="5.38289">
        <ele>214.6</ele>
        <time>2022-03-14T14:54:41Z</time>
      </trkpt>
      <trkpt lat="46.57734" lon="5.38295">
        <ele>214.6</ele>
        <time>2022-03-14T14:54:43Z</time>
      </trkpt>
      <trkpt lat="46.57727" lon="5.38297">
        <ele>214.6</ele>
        <time>2022-03-14T14:54:44Z</time>
      </trkpt>
      <trkpt lat="46.57686" lon="5.38309">
        <ele>215</ele>
        <time>2022-03-14T14:54:50Z</time>
      </trkpt>
      <trkpt lat="46.57645" lon="5.38319">
        <ele>215.2</ele>
        <time>2022-03-14T14:54:56Z</time>
      </trkpt>
      <trkpt lat="46.57639" lon="5.38322">
        <ele>215.2</ele>
        <time>2022-03-14T14:54:57Z</time>
      </trkpt>
      <trkpt lat="46.57633" lon="5.38324">
        <ele>215.2</ele>
        <time>2022-03-14T14:54:58Z</time>
      </trkpt>
      <trkpt lat="46.5762" lon="5.38316">
        <ele>215</ele>
        <time>2022-03-14T14:55:00Z</time>
      </trkpt>
      <trkpt lat="46.57608" lon="5.38287">
        <ele>214</ele>
        <time>2022-03-14T14:55:03Z</time>
      </trkpt>
      <trkpt lat="46.57597" lon="5.38267">
        <ele>213.6</ele>
        <time>2022-03-14T14:55:05Z</time>
      </trkpt>
      <trkpt lat="46.57584" lon="5.38247">
        <ele>213.2</ele>
        <time>2022-03-14T14:55:07Z</time>
      </trkpt>
      <trkpt lat="46.5757" lon="5.38229">
        <ele>212.6</ele>
        <time>2022-03-14T14:55:09Z</time>
      </trkpt>
      <trkpt lat="46.57554" lon="5.38214">
        <ele>212</ele>
        <time>2022-03-14T14:55:11Z</time>
      </trkpt>
      <trkpt lat="46.57531" lon="5.38196">
        <ele>211.4</ele>
        <time>2022-03-14T14:55:14Z</time>
      </trkpt>
      <trkpt lat="46.575" lon="5.38172">
        <ele>211</ele>
        <time>2022-03-14T14:55:18Z</time>
      </trkpt>
      <trkpt lat="46.57451" lon="5.38133">
        <ele>211</ele>
        <time>2022-03-14T14:55:25Z</time>
      </trkpt>
      <trkpt lat="46.57444" lon="5.38127">
        <ele>211</ele>
        <time>2022-03-14T14:55:26Z</time>
      </trkpt>
      <trkpt lat="46.57391" lon="5.38084">
        <ele>210.8</ele>
        <time>2022-03-14T14:55:34Z</time>
      </trkpt>
      <trkpt lat="46.57385" lon="5.38077">
        <ele>210.8</ele>
        <time>2022-03-14T14:55:35Z</time>
      </trkpt>
      <trkpt lat="46.57363" lon="5.38038">
        <ele>211.4</ele>
        <time>2022-03-14T14:55:40Z</time>
      </trkpt>
      <trkpt lat="46.57345" lon="5.37999">
        <ele>212</ele>
        <time>2022-03-14T14:55:45Z</time>
      </trkpt>
      <trkpt lat="46.57341" lon="5.37992">
        <ele>212.4</ele>
        <time>2022-03-14T14:55:46Z</time>
      </trkpt>
      <trkpt lat="46.57327" lon="5.37966">
        <ele>213.6</ele>
        <time>2022-03-14T14:55:50Z</time>
      </trkpt>
      <trkpt lat="46.57321" lon="5.37953">
        <ele>214.4</ele>
        <time>2022-03-14T14:55:52Z</time>
      </trkpt>
      <trkpt lat="46.57318" lon="5.37946">
        <ele>214.6</ele>
        <time>2022-03-14T14:55:53Z</time>
      </trkpt>
      <trkpt lat="46.57302" lon="5.37912">
        <ele>215.8</ele>
        <time>2022-03-14T14:55:58Z</time>
      </trkpt>
      <trkpt lat="46.57299" lon="5.37905">
        <ele>216</ele>
        <time>2022-03-14T14:55:59Z</time>
      </trkpt>
      <trkpt lat="46.5728" lon="5.37866">
        <ele>216.8</ele>
        <time>2022-03-14T14:56:05Z</time>
      </trkpt>
      <trkpt lat="46.57271" lon="5.3785">
        <ele>218</ele>
        <time>2022-03-14T14:56:08Z</time>
      </trkpt>
      <trkpt lat="46.57261" lon="5.37828">
        <ele>219.4</ele>
        <time>2022-03-14T14:56:12Z</time>
      </trkpt>
      <trkpt lat="46.5725" lon="5.37807">
        <ele>220.4</ele>
        <time>2022-03-14T14:56:16Z</time>
      </trkpt>
      <trkpt lat="46.57247" lon="5.37801">
        <ele>220.6</ele>
        <time>2022-03-14T14:56:17Z</time>
      </trkpt>
      <trkpt lat="46.5723" lon="5.37768">
        <ele>221.8</ele>
        <time>2022-03-14T14:56:23Z</time>
      </trkpt>
      <trkpt lat="46.57227" lon="5.37763">
        <ele>222</ele>
        <time>2022-03-14T14:56:24Z</time>
      </trkpt>
      <trkpt lat="46.57223" lon="5.37759">
        <ele>222.2</ele>
        <time>2022-03-14T14:56:25Z</time>
      </trkpt>
      <trkpt lat="46.57219" lon="5.37756">
        <ele>222.4</ele>
        <time>2022-03-14T14:56:26Z</time>
      </trkpt>
      <trkpt lat="46.5721" lon="5.37757">
        <ele>222.8</ele>
        <time>2022-03-14T14:56:28Z</time>
      </trkpt>
      <trkpt lat="46.57206" lon="5.3776">
        <ele>222.8</ele>
        <time>2022-03-14T14:56:29Z</time>
      </trkpt>
      <trkpt lat="46.57202" lon="5.37764">
        <ele>222.8</ele>
        <time>2022-03-14T14:56:30Z</time>
      </trkpt>
      <trkpt lat="46.57189" lon="5.37779">
        <ele>223.4</ele>
        <time>2022-03-14T14:56:33Z</time>
      </trkpt>
      <trkpt lat="46.57181" lon="5.37791">
        <ele>223.6</ele>
        <time>2022-03-14T14:56:35Z</time>
      </trkpt>
      <trkpt lat="46.57176" lon="5.37796">
        <ele>223.6</ele>
        <time>2022-03-14T14:56:36Z</time>
      </trkpt>
      <trkpt lat="46.57159" lon="5.37814">
        <ele>223.6</ele>
        <time>2022-03-14T14:56:39Z</time>
      </trkpt>
      <trkpt lat="46.57113" lon="5.3786">
        <ele>223.2</ele>
        <time>2022-03-14T14:56:46Z</time>
      </trkpt>
      <trkpt lat="46.57106" lon="5.37867">
        <ele>222.8</ele>
        <time>2022-03-14T14:56:47Z</time>
      </trkpt>
      <trkpt lat="46.57077" lon="5.37892">
        <ele>221.6</ele>
        <time>2022-03-14T14:56:51Z</time>
      </trkpt>
      <trkpt lat="46.57063" lon="5.37904">
        <ele>221</ele>
        <time>2022-03-14T14:56:53Z</time>
      </trkpt>
      <trkpt lat="46.5701" lon="5.37946">
        <ele>220.4</ele>
        <time>2022-03-14T14:57:01Z</time>
      </trkpt>
      <trkpt lat="46.56967" lon="5.37975">
        <ele>221.4</ele>
        <time>2022-03-14T14:57:08Z</time>
      </trkpt>
      <trkpt lat="46.56949" lon="5.37984">
        <ele>221.6</ele>
        <time>2022-03-14T14:57:11Z</time>
      </trkpt>
      <trkpt lat="46.56937" lon="5.37987">
        <ele>221.6</ele>
        <time>2022-03-14T14:57:13Z</time>
      </trkpt>
      <trkpt lat="46.56907" lon="5.37984">
        <ele>222.2</ele>
        <time>2022-03-14T14:57:18Z</time>
      </trkpt>
      <trkpt lat="46.56895" lon="5.37981">
        <ele>222.6</ele>
        <time>2022-03-14T14:57:20Z</time>
      </trkpt>
      <trkpt lat="46.56865" lon="5.37974">
        <ele>223.6</ele>
        <time>2022-03-14T14:57:25Z</time>
      </trkpt>
      <trkpt lat="46.56859" lon="5.37973">
        <ele>224</ele>
        <time>2022-03-14T14:57:26Z</time>
      </trkpt>
      <trkpt lat="46.56826" lon="5.37966">
        <ele>224.2</ele>
        <time>2022-03-14T14:57:31Z</time>
      </trkpt>
      <trkpt lat="46.56798" lon="5.3796">
        <ele>224.8</ele>
        <time>2022-03-14T14:57:35Z</time>
      </trkpt>
      <trkpt lat="46.56771" lon="5.37954">
        <ele>224.8</ele>
        <time>2022-03-14T14:57:39Z</time>
      </trkpt>
      <trkpt lat="46.56716" lon="5.37941">
        <ele>225.8</ele>
        <time>2022-03-14T14:57:47Z</time>
      </trkpt>
      <trkpt lat="46.56695" lon="5.37936">
        <ele>226</ele>
        <time>2022-03-14T14:57:50Z</time>
      </trkpt>
      <trkpt lat="46.56639" lon="5.37923">
        <ele>226.2</ele>
        <time>2022-03-14T14:57:58Z</time>
      </trkpt>
      <trkpt lat="46.56632" lon="5.37921">
        <ele>226.2</ele>
        <time>2022-03-14T14:57:59Z</time>
      </trkpt>
      <trkpt lat="46.56588" lon="5.37915">
        <ele>226.8</ele>
        <time>2022-03-14T14:58:05Z</time>
      </trkpt>
      <trkpt lat="46.56573" lon="5.37915">
        <ele>226.8</ele>
        <time>2022-03-14T14:58:07Z</time>
      </trkpt>
      <trkpt lat="46.56545" lon="5.37928">
        <ele>227</ele>
        <time>2022-03-14T14:58:11Z</time>
      </trkpt>
      <trkpt lat="46.56523" lon="5.37942">
        <ele>227</ele>
        <time>2022-03-14T14:58:14Z</time>
      </trkpt>
      <trkpt lat="46.56507" lon="5.37948">
        <ele>226.8</ele>
        <time>2022-03-14T14:58:16Z</time>
      </trkpt>
      <trkpt lat="46.56499" lon="5.37949">
        <ele>226.8</ele>
        <time>2022-03-14T14:58:17Z</time>
      </trkpt>
      <trkpt lat="46.56482" lon="5.37947">
        <ele>226.6</ele>
        <time>2022-03-14T14:58:19Z</time>
      </trkpt>
      <trkpt lat="46.56474" lon="5.37946">
        <ele>226.4</ele>
        <time>2022-03-14T14:58:20Z</time>
      </trkpt>
      <trkpt lat="46.56425" lon="5.37933">
        <ele>225.8</ele>
        <time>2022-03-14T14:58:26Z</time>
      </trkpt>
      <trkpt lat="46.564" lon="5.37928">
        <ele>225.4</ele>
        <time>2022-03-14T14:58:29Z</time>
      </trkpt>
      <trkpt lat="46.56391" lon="5.37928">
        <ele>225.4</ele>
        <time>2022-03-14T14:58:30Z</time>
      </trkpt>
      <trkpt lat="46.56366" lon="5.37938">
        <ele>224.8</ele>
        <time>2022-03-14T14:58:33Z</time>
      </trkpt>
      <trkpt lat="46.56349" lon="5.37946">
        <ele>224.6</ele>
        <time>2022-03-14T14:58:35Z</time>
      </trkpt>
      <trkpt lat="46.56341" lon="5.3795">
        <ele>224.4</ele>
        <time>2022-03-14T14:58:36Z</time>
      </trkpt>
      <trkpt lat="46.56324" lon="5.37951">
        <ele>224.2</ele>
        <time>2022-03-14T14:58:38Z</time>
      </trkpt>
      <trkpt lat="46.56289" lon="5.37949">
        <ele>223.6</ele>
        <time>2022-03-14T14:58:42Z</time>
      </trkpt>
      <trkpt lat="46.56281" lon="5.37951">
        <ele>223.6</ele>
        <time>2022-03-14T14:58:43Z</time>
      </trkpt>
      <trkpt lat="46.56273" lon="5.37954">
        <ele>223.6</ele>
        <time>2022-03-14T14:58:44Z</time>
      </trkpt>
      <trkpt lat="46.56241" lon="5.37969">
        <ele>223.6</ele>
        <time>2022-03-14T14:58:48Z</time>
      </trkpt>
      <trkpt lat="46.56212" lon="5.37986">
        <ele>223.6</ele>
        <time>2022-03-14T14:58:52Z</time>
      </trkpt>
      <trkpt lat="46.56201" lon="5.37999">
        <ele>223.4</ele>
        <time>2022-03-14T14:58:54Z</time>
      </trkpt>
      <trkpt lat="46.56177" lon="5.3804">
        <ele>223.6</ele>
        <time>2022-03-14T14:58:59Z</time>
      </trkpt>
      <trkpt lat="46.56148" lon="5.3809">
        <ele>224</ele>
        <time>2022-03-14T14:59:05Z</time>
      </trkpt>
      <trkpt lat="46.56142" lon="5.38097">
        <ele>224</ele>
        <time>2022-03-14T14:59:06Z</time>
      </trkpt>
      <trkpt lat="46.56097" lon="5.38133">
        <ele>224.2</ele>
        <time>2022-03-14T14:59:13Z</time>
      </trkpt>
      <trkpt lat="46.56055" lon="5.38163">
        <ele>224.6</ele>
        <time>2022-03-14T14:59:20Z</time>
      </trkpt>
      <trkpt lat="46.56049" lon="5.38167">
        <ele>224.6</ele>
        <time>2022-03-14T14:59:21Z</time>
      </trkpt>
      <trkpt lat="46.56024" lon="5.38188">
        <ele>224.8</ele>
        <time>2022-03-14T14:59:25Z</time>
      </trkpt>
      <trkpt lat="46.56013" lon="5.38202">
        <ele>224.8</ele>
        <time>2022-03-14T14:59:27Z</time>
      </trkpt>
      <trkpt lat="46.56006" lon="5.38221">
        <ele>225</ele>
        <time>2022-03-14T14:59:29Z</time>
      </trkpt>
      <trkpt lat="46.56004" lon="5.38232">
        <ele>225</ele>
        <time>2022-03-14T14:59:30Z</time>
      </trkpt>
      <trkpt lat="46.55994" lon="5.38309">
        <ele>225.4</ele>
        <time>2022-03-14T14:59:37Z</time>
      </trkpt>
      <trkpt lat="46.55992" lon="5.3832">
        <ele>225.4</ele>
        <time>2022-03-14T14:59:38Z</time>
      </trkpt>
      <trkpt lat="46.55987" lon="5.3835">
        <ele>225.6</ele>
        <time>2022-03-14T14:59:41Z</time>
      </trkpt>
      <trkpt lat="46.55986" lon="5.3836">
        <ele>225.8</ele>
        <time>2022-03-14T14:59:42Z</time>
      </trkpt>
      <trkpt lat="46.55984" lon="5.3837">
        <ele>225.8</ele>
        <time>2022-03-14T14:59:43Z</time>
      </trkpt>
      <trkpt lat="46.55978" lon="5.3844">
        <ele>226.6</ele>
        <time>2022-03-14T14:59:50Z</time>
      </trkpt>
      <trkpt lat="46.55978" lon="5.38449">
        <ele>227</ele>
        <time>2022-03-14T14:59:51Z</time>
      </trkpt>
      <trkpt lat="46.55977" lon="5.38479">
        <ele>227.6</ele>
        <time>2022-03-14T14:59:54Z</time>
      </trkpt>
      <trkpt lat="46.55978" lon="5.38497">
        <ele>228</ele>
        <time>2022-03-14T14:59:56Z</time>
      </trkpt>
      <trkpt lat="46.55984" lon="5.38569">
        <ele>229</ele>
        <time>2022-03-14T15:00:03Z</time>
      </trkpt>
      <trkpt lat="46.55993" lon="5.38629">
        <ele>228.4</ele>
        <time>2022-03-14T15:00:09Z</time>
      </trkpt>
      <trkpt lat="46.55998" lon="5.3869">
        <ele>228.2</ele>
        <time>2022-03-14T15:00:15Z</time>
      </trkpt>
      <trkpt lat="46.56006" lon="5.38764">
        <ele>228.2</ele>
        <time>2022-03-14T15:00:22Z</time>
      </trkpt>
      <trkpt lat="46.56007" lon="5.38776">
        <ele>228.2</ele>
        <time>2022-03-14T15:00:23Z</time>
      </trkpt>
      <trkpt lat="46.56005" lon="5.38814">
        <ele>228.2</ele>
        <time>2022-03-14T15:00:26Z</time>
      </trkpt>
      <trkpt lat="46.55996" lon="5.38866">
        <ele>226.4</ele>
        <time>2022-03-14T15:00:30Z</time>
      </trkpt>
      <trkpt lat="46.55992" lon="5.38879">
        <ele>226.2</ele>
        <time>2022-03-14T15:00:31Z</time>
      </trkpt>
      <trkpt lat="46.55989" lon="5.38891">
        <ele>225</ele>
        <time>2022-03-14T15:00:32Z</time>
      </trkpt>
      <trkpt lat="46.55976" lon="5.38928">
        <ele>224</ele>
        <time>2022-03-14T15:00:35Z</time>
      </trkpt>
      <trkpt lat="46.55968" lon="5.38951">
        <ele>223.4</ele>
        <time>2022-03-14T15:00:37Z</time>
      </trkpt>
      <trkpt lat="46.55952" lon="5.38994">
        <ele>223</ele>
        <time>2022-03-14T15:00:41Z</time>
      </trkpt>
      <trkpt lat="46.55944" lon="5.39025">
        <ele>223</ele>
        <time>2022-03-14T15:00:44Z</time>
      </trkpt>
      <trkpt lat="46.55939" lon="5.39067">
        <ele>223.2</ele>
        <time>2022-03-14T15:00:48Z</time>
      </trkpt>
      <trkpt lat="46.55936" lon="5.39095">
        <ele>223.8</ele>
        <time>2022-03-14T15:00:51Z</time>
      </trkpt>
      <trkpt lat="46.55936" lon="5.39102">
        <ele>224</ele>
        <time>2022-03-14T15:00:52Z</time>
      </trkpt>
      <trkpt lat="46.55936" lon="5.3911">
        <ele>224.4</ele>
        <time>2022-03-14T15:00:53Z</time>
      </trkpt>
      <trkpt lat="46.55935" lon="5.39145">
        <ele>225.6</ele>
        <time>2022-03-14T15:00:57Z</time>
      </trkpt>
      <trkpt lat="46.55935" lon="5.39183">
        <ele>226.6</ele>
        <time>2022-03-14T15:01:01Z</time>
      </trkpt>
      <trkpt lat="46.55935" lon="5.3919">
        <ele>226.8</ele>
        <time>2022-03-14T15:01:02Z</time>
      </trkpt>
      <trkpt lat="46.55933" lon="5.39238">
        <ele>228</ele>
        <time>2022-03-14T15:01:07Z</time>
      </trkpt>
      <trkpt lat="46.55932" lon="5.39247">
        <ele>228</ele>
        <time>2022-03-14T15:01:08Z</time>
      </trkpt>
      <trkpt lat="46.55922" lon="5.39325">
        <ele>228.4</ele>
        <time>2022-03-14T15:01:17Z</time>
      </trkpt>
      <trkpt lat="46.55921" lon="5.39333">
        <ele>228.4</ele>
        <time>2022-03-14T15:01:18Z</time>
      </trkpt>
      <trkpt lat="46.55916" lon="5.39374">
        <ele>229</ele>
        <time>2022-03-14T15:01:23Z</time>
      </trkpt>
      <trkpt lat="46.55913" lon="5.39399">
        <ele>229.4</ele>
        <time>2022-03-14T15:01:26Z</time>
      </trkpt>
      <trkpt lat="46.55906" lon="5.39464">
        <ele>230.2</ele>
        <time>2022-03-14T15:01:34Z</time>
      </trkpt>
      <trkpt lat="46.55904" lon="5.3948">
        <ele>230.6</ele>
        <time>2022-03-14T15:01:36Z</time>
      </trkpt>
      <trkpt lat="46.55896" lon="5.39546">
        <ele>231.4</ele>
        <time>2022-03-14T15:01:44Z</time>
      </trkpt>
      <trkpt lat="46.55893" lon="5.39572">
        <ele>231.8</ele>
        <time>2022-03-14T15:01:47Z</time>
      </trkpt>
      <trkpt lat="46.5588" lon="5.39652">
        <ele>232</ele>
        <time>2022-03-14T15:01:56Z</time>
      </trkpt>
      <trkpt lat="46.55878" lon="5.39661">
        <ele>232</ele>
        <time>2022-03-14T15:01:57Z</time>
      </trkpt>
      <trkpt lat="46.55862" lon="5.39722">
        <ele>232.6</ele>
        <time>2022-03-14T15:02:04Z</time>
      </trkpt>
      <trkpt lat="46.55853" lon="5.39755">
        <ele>233.2</ele>
        <time>2022-03-14T15:02:08Z</time>
      </trkpt>
      <trkpt lat="46.55847" lon="5.39778">
        <ele>233.8</ele>
        <time>2022-03-14T15:02:11Z</time>
      </trkpt>
      <trkpt lat="46.55837" lon="5.39816">
        <ele>234.6</ele>
        <time>2022-03-14T15:02:16Z</time>
      </trkpt>
      <trkpt lat="46.55833" lon="5.39831">
        <ele>235</ele>
        <time>2022-03-14T15:02:18Z</time>
      </trkpt>
      <trkpt lat="46.55821" lon="5.39882">
        <ele>235</ele>
        <time>2022-03-14T15:02:24Z</time>
      </trkpt>
      <trkpt lat="46.55813" lon="5.39906">
        <ele>235</ele>
        <time>2022-03-14T15:02:27Z</time>
      </trkpt>
      <trkpt lat="46.55805" lon="5.39916">
        <ele>234.6</ele>
        <time>2022-03-14T15:02:29Z</time>
      </trkpt>
      <trkpt lat="46.55795" lon="5.39914">
        <ele>234.4</ele>
        <time>2022-03-14T15:02:31Z</time>
      </trkpt>
      <trkpt lat="46.55757" lon="5.39882">
        <ele>234.4</ele>
        <time>2022-03-14T15:02:38Z</time>
      </trkpt>
      <trkpt lat="46.55712" lon="5.39842">
        <ele>236.2</ele>
        <time>2022-03-14T15:02:47Z</time>
      </trkpt>
      <trkpt lat="46.55698" lon="5.39829">
        <ele>236.8</ele>
        <time>2022-03-14T15:02:50Z</time>
      </trkpt>
      <trkpt lat="46.55688" lon="5.3982">
        <ele>237.4</ele>
        <time>2022-03-14T15:02:52Z</time>
      </trkpt>
      <trkpt lat="46.55667" lon="5.39802">
        <ele>238.4</ele>
        <time>2022-03-14T15:02:56Z</time>
      </trkpt>
      <trkpt lat="46.55656" lon="5.39795">
        <ele>238.8</ele>
        <time>2022-03-14T15:02:58Z</time>
      </trkpt>
      <trkpt lat="46.55621" lon="5.39769">
        <ele>239.4</ele>
        <time>2022-03-14T15:03:04Z</time>
      </trkpt>
      <trkpt lat="46.55574" lon="5.39733">
        <ele>238.2</ele>
        <time>2022-03-14T15:03:11Z</time>
      </trkpt>
      <trkpt lat="46.55541" lon="5.39706">
        <ele>237.4</ele>
        <time>2022-03-14T15:03:16Z</time>
      </trkpt>
      <trkpt lat="46.55524" lon="5.3969">
        <ele>237.2</ele>
        <time>2022-03-14T15:03:19Z</time>
      </trkpt>
      <trkpt lat="46.55487" lon="5.39662">
        <ele>237.6</ele>
        <time>2022-03-14T15:03:25Z</time>
      </trkpt>
      <trkpt lat="46.55434" lon="5.39618">
        <ele>238.6</ele>
        <time>2022-03-14T15:03:34Z</time>
      </trkpt>
      <trkpt lat="46.55429" lon="5.39613">
        <ele>238.6</ele>
        <time>2022-03-14T15:03:35Z</time>
      </trkpt>
      <trkpt lat="46.55402" lon="5.39587">
        <ele>239.6</ele>
        <time>2022-03-14T15:03:41Z</time>
      </trkpt>
      <trkpt lat="46.55397" lon="5.39582">
        <ele>239.8</ele>
        <time>2022-03-14T15:03:42Z</time>
      </trkpt>
      <trkpt lat="46.55371" lon="5.3956">
        <ele>240.8</ele>
        <time>2022-03-14T15:03:47Z</time>
      </trkpt>
      <trkpt lat="46.55355" lon="5.39548">
        <ele>241.2</ele>
        <time>2022-03-14T15:03:50Z</time>
      </trkpt>
      <trkpt lat="46.55327" lon="5.39526">
        <ele>241.8</ele>
        <time>2022-03-14T15:03:55Z</time>
      </trkpt>
      <trkpt lat="46.55298" lon="5.39506">
        <ele>242</ele>
        <time>2022-03-14T15:04:00Z</time>
      </trkpt>
      <trkpt lat="46.55244" lon="5.39462">
        <ele>241.8</ele>
        <time>2022-03-14T15:04:09Z</time>
      </trkpt>
      <trkpt lat="46.55238" lon="5.39456">
        <ele>241.8</ele>
        <time>2022-03-14T15:04:10Z</time>
      </trkpt>
      <trkpt lat="46.55222" lon="5.39434">
        <ele>241.4</ele>
        <time>2022-03-14T15:04:13Z</time>
      </trkpt>
      <trkpt lat="46.55215" lon="5.3943">
        <ele>241.4</ele>
        <time>2022-03-14T15:04:14Z</time>
      </trkpt>
      <trkpt lat="46.55208" lon="5.39427">
        <ele>241.4</ele>
        <time>2022-03-14T15:04:15Z</time>
      </trkpt>
      <trkpt lat="46.55185" lon="5.39424">
        <ele>241.2</ele>
        <time>2022-03-14T15:04:18Z</time>
      </trkpt>
      <trkpt lat="46.55157" lon="5.3942">
        <ele>241.2</ele>
        <time>2022-03-14T15:04:22Z</time>
      </trkpt>
      <trkpt lat="46.55144" lon="5.39415">
        <ele>241.2</ele>
        <time>2022-03-14T15:04:24Z</time>
      </trkpt>
      <trkpt lat="46.55089" lon="5.3939">
        <ele>242</ele>
        <time>2022-03-14T15:04:32Z</time>
      </trkpt>
      <trkpt lat="46.55038" lon="5.39363">
        <ele>241.8</ele>
        <time>2022-03-14T15:04:39Z</time>
      </trkpt>
      <trkpt lat="46.55003" lon="5.39341">
        <ele>240.6</ele>
        <time>2022-03-14T15:04:43Z</time>
      </trkpt>
      <trkpt lat="46.54986" lon="5.39331">
        <ele>239.8</ele>
        <time>2022-03-14T15:04:45Z</time>
      </trkpt>
      <trkpt lat="46.54965" lon="5.39322">
        <ele>239.2</ele>
        <time>2022-03-14T15:04:47Z</time>
      </trkpt>
      <trkpt lat="46.54946" lon="5.39314">
        <ele>238</ele>
        <time>2022-03-14T15:04:49Z</time>
      </trkpt>
      <trkpt lat="46.5493" lon="5.39308">
        <ele>237.2</ele>
        <time>2022-03-14T15:04:51Z</time>
      </trkpt>
      <trkpt lat="46.54921" lon="5.39305">
        <ele>236.8</ele>
        <time>2022-03-14T15:04:52Z</time>
      </trkpt>
      <trkpt lat="46.54892" lon="5.39296">
        <ele>236.8</ele>
        <time>2022-03-14T15:04:56Z</time>
      </trkpt>
      <trkpt lat="46.54865" lon="5.39287">
        <ele>238</ele>
        <time>2022-03-14T15:05:00Z</time>
      </trkpt>
      <trkpt lat="46.5485" lon="5.39281">
        <ele>238.6</ele>
        <time>2022-03-14T15:05:02Z</time>
      </trkpt>
      <trkpt lat="46.54845" lon="5.39279">
        <ele>239</ele>
        <time>2022-03-14T15:05:03Z</time>
      </trkpt>
      <trkpt lat="46.54826" lon="5.39269">
        <ele>240.2</ele>
        <time>2022-03-14T15:05:06Z</time>
      </trkpt>
      <trkpt lat="46.54812" lon="5.39262">
        <ele>240.8</ele>
        <time>2022-03-14T15:05:08Z</time>
      </trkpt>
      <trkpt lat="46.54801" lon="5.39256">
        <ele>241.4</ele>
        <time>2022-03-14T15:05:10Z</time>
      </trkpt>
      <trkpt lat="46.54774" lon="5.39243">
        <ele>242.4</ele>
        <time>2022-03-14T15:05:14Z</time>
      </trkpt>
      <trkpt lat="46.54744" lon="5.39227">
        <ele>243.4</ele>
        <time>2022-03-14T15:05:19Z</time>
      </trkpt>
      <trkpt lat="46.54728" lon="5.3922">
        <ele>244</ele>
        <time>2022-03-14T15:05:22Z</time>
      </trkpt>
      <trkpt lat="46.547" lon="5.39206">
        <ele>244.4</ele>
        <time>2022-03-14T15:05:27Z</time>
      </trkpt>
      <trkpt lat="46.54678" lon="5.39195">
        <ele>245</ele>
        <time>2022-03-14T15:05:31Z</time>
      </trkpt>
      <trkpt lat="46.54629" lon="5.39172">
        <ele>245.4</ele>
        <time>2022-03-14T15:05:39Z</time>
      </trkpt>
      <trkpt lat="46.54573" lon="5.39146">
        <ele>245.4</ele>
        <time>2022-03-14T15:05:48Z</time>
      </trkpt>
      <trkpt lat="46.54544" lon="5.3913">
        <ele>245.4</ele>
        <time>2022-03-14T15:05:53Z</time>
      </trkpt>
      <trkpt lat="46.54524" lon="5.39117">
        <ele>246</ele>
        <time>2022-03-14T15:05:57Z</time>
      </trkpt>
      <trkpt lat="46.54514" lon="5.39112">
        <ele>246.8</ele>
        <time>2022-03-14T15:05:59Z</time>
      </trkpt>
      <trkpt lat="46.54503" lon="5.39116">
        <ele>247.2</ele>
        <time>2022-03-14T15:06:01Z</time>
      </trkpt>
      <trkpt lat="46.54499" lon="5.39126">
        <ele>247.8</ele>
        <time>2022-03-14T15:06:03Z</time>
      </trkpt>
      <trkpt lat="46.54498" lon="5.39132">
        <ele>248</ele>
        <time>2022-03-14T15:06:04Z</time>
      </trkpt>
      <trkpt lat="46.5449" lon="5.39145">
        <ele>248.4</ele>
        <time>2022-03-14T15:06:07Z</time>
      </trkpt>
      <trkpt lat="46.54485" lon="5.39145">
        <ele>248.4</ele>
        <time>2022-03-14T15:06:08Z</time>
      </trkpt>
      <trkpt lat="46.5448" lon="5.39144">
        <ele>248.4</ele>
        <time>2022-03-14T15:06:09Z</time>
      </trkpt>
      <trkpt lat="46.54467" lon="5.39138">
        <ele>248.6</ele>
        <time>2022-03-14T15:06:11Z</time>
      </trkpt>
      <trkpt lat="46.5443" lon="5.39127">
        <ele>247.8</ele>
        <time>2022-03-14T15:06:16Z</time>
      </trkpt>
      <trkpt lat="46.54405" lon="5.3912">
        <ele>246</ele>
        <time>2022-03-14T15:06:19Z</time>
      </trkpt>
      <trkpt lat="46.54379" lon="5.3911">
        <ele>245</ele>
        <time>2022-03-14T15:06:22Z</time>
      </trkpt>
      <trkpt lat="46.54346" lon="5.39097">
        <ele>244</ele>
        <time>2022-03-14T15:06:26Z</time>
      </trkpt>
      <trkpt lat="46.54322" lon="5.39087">
        <ele>243.4</ele>
        <time>2022-03-14T15:06:29Z</time>
      </trkpt>
      <trkpt lat="46.54276" lon="5.39062">
        <ele>242.8</ele>
        <time>2022-03-14T15:06:35Z</time>
      </trkpt>
      <trkpt lat="46.54219" lon="5.39032">
        <ele>242.6</ele>
        <time>2022-03-14T15:06:43Z</time>
      </trkpt>
      <trkpt lat="46.54162" lon="5.39009">
        <ele>242.6</ele>
        <time>2022-03-14T15:06:51Z</time>
      </trkpt>
      <trkpt lat="46.54155" lon="5.39006">
        <ele>242.6</ele>
        <time>2022-03-14T15:06:52Z</time>
      </trkpt>
      <trkpt lat="46.54098" lon="5.38984">
        <ele>243.2</ele>
        <time>2022-03-14T15:07:00Z</time>
      </trkpt>
      <trkpt lat="46.54078" lon="5.38976">
        <ele>243.4</ele>
        <time>2022-03-14T15:07:03Z</time>
      </trkpt>
      <trkpt lat="46.5403" lon="5.38956">
        <ele>243.6</ele>
        <time>2022-03-14T15:07:10Z</time>
      </trkpt>
      <trkpt lat="46.53987" lon="5.38944">
        <ele>243.8</ele>
        <time>2022-03-14T15:07:16Z</time>
      </trkpt>
      <trkpt lat="46.53958" lon="5.38939">
        <ele>244</ele>
        <time>2022-03-14T15:07:20Z</time>
      </trkpt>
      <trkpt lat="46.53902" lon="5.38935">
        <ele>244.6</ele>
        <time>2022-03-14T15:07:28Z</time>
      </trkpt>
      <trkpt lat="46.53882" lon="5.38934">
        <ele>244.8</ele>
        <time>2022-03-14T15:07:31Z</time>
      </trkpt>
      <trkpt lat="46.5385" lon="5.3893">
        <ele>245</ele>
        <time>2022-03-14T15:07:36Z</time>
      </trkpt>
      <trkpt lat="46.53837" lon="5.38925">
        <ele>245.2</ele>
        <time>2022-03-14T15:07:38Z</time>
      </trkpt>
      <trkpt lat="46.53782" lon="5.38905">
        <ele>245.6</ele>
        <time>2022-03-14T15:07:46Z</time>
      </trkpt>
      <trkpt lat="46.53775" lon="5.38903">
        <ele>245.6</ele>
        <time>2022-03-14T15:07:47Z</time>
      </trkpt>
      <trkpt lat="46.53719" lon="5.38885">
        <ele>245.6</ele>
        <time>2022-03-14T15:07:55Z</time>
      </trkpt>
      <trkpt lat="46.53713" lon="5.38882">
        <ele>245.6</ele>
        <time>2022-03-14T15:07:56Z</time>
      </trkpt>
      <trkpt lat="46.53667" lon="5.38862">
        <ele>245.8</ele>
        <time>2022-03-14T15:08:03Z</time>
      </trkpt>
      <trkpt lat="46.53643" lon="5.38849">
        <ele>246</ele>
        <time>2022-03-14T15:08:07Z</time>
      </trkpt>
      <trkpt lat="46.53625" lon="5.3884">
        <ele>246.2</ele>
        <time>2022-03-14T15:08:10Z</time>
      </trkpt>
      <trkpt lat="46.53572" lon="5.3881">
        <ele>246.4</ele>
        <time>2022-03-14T15:08:19Z</time>
      </trkpt>
      <trkpt lat="46.53566" lon="5.38806">
        <ele>246.4</ele>
        <time>2022-03-14T15:08:20Z</time>
      </trkpt>
      <trkpt lat="46.5356" lon="5.38801">
        <ele>246.4</ele>
        <time>2022-03-14T15:08:21Z</time>
      </trkpt>
      <trkpt lat="46.53545" lon="5.3878">
        <ele>246.4</ele>
        <time>2022-03-14T15:08:24Z</time>
      </trkpt>
      <trkpt lat="46.53531" lon="5.38757">
        <ele>246.2</ele>
        <time>2022-03-14T15:08:27Z</time>
      </trkpt>
      <trkpt lat="46.53518" lon="5.38747">
        <ele>245.6</ele>
        <time>2022-03-14T15:08:29Z</time>
      </trkpt>
      <trkpt lat="46.53498" lon="5.38747">
        <ele>244.8</ele>
        <time>2022-03-14T15:08:32Z</time>
      </trkpt>
      <trkpt lat="46.53491" lon="5.38746">
        <ele>244.6</ele>
        <time>2022-03-14T15:08:33Z</time>
      </trkpt>
      <trkpt lat="46.5348" lon="5.38737">
        <ele>244.4</ele>
        <time>2022-03-14T15:08:35Z</time>
      </trkpt>
      <trkpt lat="46.53468" lon="5.38724">
        <ele>244.4</ele>
        <time>2022-03-14T15:08:37Z</time>
      </trkpt>
      <trkpt lat="46.53455" lon="5.38716">
        <ele>244.4</ele>
        <time>2022-03-14T15:08:39Z</time>
      </trkpt>
      <trkpt lat="46.53413" lon="5.38704">
        <ele>244.4</ele>
        <time>2022-03-14T15:08:45Z</time>
      </trkpt>
      <trkpt lat="46.53355" lon="5.38701">
        <ele>244.4</ele>
        <time>2022-03-14T15:08:53Z</time>
      </trkpt>
      <trkpt lat="46.53347" lon="5.38701">
        <ele>244.4</ele>
        <time>2022-03-14T15:08:54Z</time>
      </trkpt>
      <trkpt lat="46.53332" lon="5.38699">
        <ele>244.2</ele>
        <time>2022-03-14T15:08:56Z</time>
      </trkpt>
      <trkpt lat="46.53301" lon="5.3869">
        <ele>243.8</ele>
        <time>2022-03-14T15:09:00Z</time>
      </trkpt>
      <trkpt lat="46.53246" lon="5.38668">
        <ele>242.6</ele>
        <time>2022-03-14T15:09:07Z</time>
      </trkpt>
      <trkpt lat="46.5323" lon="5.38662">
        <ele>242.4</ele>
        <time>2022-03-14T15:09:09Z</time>
      </trkpt>
      <trkpt lat="46.53207" lon="5.38649">
        <ele>241.8</ele>
        <time>2022-03-14T15:09:12Z</time>
      </trkpt>
      <trkpt lat="46.53194" lon="5.38637">
        <ele>241.4</ele>
        <time>2022-03-14T15:09:14Z</time>
      </trkpt>
      <trkpt lat="46.53181" lon="5.38622">
        <ele>240.8</ele>
        <time>2022-03-14T15:09:16Z</time>
      </trkpt>
      <trkpt lat="46.53168" lon="5.38608">
        <ele>240.2</ele>
        <time>2022-03-14T15:09:18Z</time>
      </trkpt>
      <trkpt lat="46.5316" lon="5.38602">
        <ele>239.8</ele>
        <time>2022-03-14T15:09:19Z</time>
      </trkpt>
      <trkpt lat="46.53139" lon="5.38589">
        <ele>239</ele>
        <time>2022-03-14T15:09:22Z</time>
      </trkpt>
      <trkpt lat="46.53128" lon="5.38583">
        <ele>238.4</ele>
        <time>2022-03-14T15:09:24Z</time>
      </trkpt>
      <trkpt lat="46.53122" lon="5.3858">
        <ele>238</ele>
        <time>2022-03-14T15:09:25Z</time>
      </trkpt>
      <trkpt lat="46.5311" lon="5.38582">
        <ele>237.4</ele>
        <time>2022-03-14T15:09:27Z</time>
      </trkpt>
      <trkpt lat="46.53095" lon="5.38587">
        <ele>236.8</ele>
        <time>2022-03-14T15:09:29Z</time>
      </trkpt>
      <trkpt lat="46.53073" lon="5.38593">
        <ele>236</ele>
        <time>2022-03-14T15:09:32Z</time>
      </trkpt>
      <trkpt lat="46.53065" lon="5.38596">
        <ele>235.8</ele>
        <time>2022-03-14T15:09:33Z</time>
      </trkpt>
      <trkpt lat="46.53032" lon="5.38604">
        <ele>235.2</ele>
        <time>2022-03-14T15:09:37Z</time>
      </trkpt>
      <trkpt lat="46.53008" lon="5.38608">
        <ele>234.8</ele>
        <time>2022-03-14T15:09:40Z</time>
      </trkpt>
      <trkpt lat="46.52999" lon="5.38608">
        <ele>234.4</ele>
        <time>2022-03-14T15:09:41Z</time>
      </trkpt>
      <trkpt lat="46.52983" lon="5.38606">
        <ele>234.2</ele>
        <time>2022-03-14T15:09:43Z</time>
      </trkpt>
      <trkpt lat="46.52974" lon="5.38604">
        <ele>233.6</ele>
        <time>2022-03-14T15:09:44Z</time>
      </trkpt>
      <trkpt lat="46.52958" lon="5.38601">
        <ele>233.2</ele>
        <time>2022-03-14T15:09:46Z</time>
      </trkpt>
      <trkpt lat="46.5295" lon="5.38601">
        <ele>233</ele>
        <time>2022-03-14T15:09:47Z</time>
      </trkpt>
      <trkpt lat="46.52934" lon="5.38604">
        <ele>232.6</ele>
        <time>2022-03-14T15:09:49Z</time>
      </trkpt>
      <trkpt lat="46.52927" lon="5.38605">
        <ele>232.2</ele>
        <time>2022-03-14T15:09:50Z</time>
      </trkpt>
      <trkpt lat="46.52919" lon="5.38604">
        <ele>231.8</ele>
        <time>2022-03-14T15:09:51Z</time>
      </trkpt>
      <trkpt lat="46.52912" lon="5.38604">
        <ele>231.6</ele>
        <time>2022-03-14T15:09:52Z</time>
      </trkpt>
      <trkpt lat="46.52905" lon="5.38607">
        <ele>231.2</ele>
        <time>2022-03-14T15:09:53Z</time>
      </trkpt>
      <trkpt lat="46.52897" lon="5.3861">
        <ele>231</ele>
        <time>2022-03-14T15:09:54Z</time>
      </trkpt>
      <trkpt lat="46.5288" lon="5.38609">
        <ele>230.2</ele>
        <time>2022-03-14T15:09:56Z</time>
      </trkpt>
      <trkpt lat="46.52871" lon="5.38608">
        <ele>229.6</ele>
        <time>2022-03-14T15:09:57Z</time>
      </trkpt>
      <trkpt lat="46.52845" lon="5.38603">
        <ele>228.4</ele>
        <time>2022-03-14T15:10:00Z</time>
      </trkpt>
      <trkpt lat="46.52837" lon="5.386">
        <ele>228.2</ele>
        <time>2022-03-14T15:10:01Z</time>
      </trkpt>
      <trkpt lat="46.52821" lon="5.38594">
        <ele>227.6</ele>
        <time>2022-03-14T15:10:03Z</time>
      </trkpt>
      <trkpt lat="46.52813" lon="5.3859">
        <ele>227.2</ele>
        <time>2022-03-14T15:10:04Z</time>
      </trkpt>
      <trkpt lat="46.52807" lon="5.38585">
        <ele>227</ele>
        <time>2022-03-14T15:10:05Z</time>
      </trkpt>
      <trkpt lat="46.52795" lon="5.3857">
        <ele>226.2</ele>
        <time>2022-03-14T15:10:07Z</time>
      </trkpt>
      <trkpt lat="46.5279" lon="5.3856">
        <ele>226.2</ele>
        <time>2022-03-14T15:10:08Z</time>
      </trkpt>
      <trkpt lat="46.52783" lon="5.38543">
        <ele>225.8</ele>
        <time>2022-03-14T15:10:10Z</time>
      </trkpt>
      <trkpt lat="46.52772" lon="5.38531">
        <ele>225.6</ele>
        <time>2022-03-14T15:10:12Z</time>
      </trkpt>
      <trkpt lat="46.52755" lon="5.38528">
        <ele>225.6</ele>
        <time>2022-03-14T15:10:14Z</time>
      </trkpt>
      <trkpt lat="46.52748" lon="5.3853">
        <ele>225.6</ele>
        <time>2022-03-14T15:10:15Z</time>
      </trkpt>
      <trkpt lat="46.52736" lon="5.38534">
        <ele>225.8</ele>
        <time>2022-03-14T15:10:17Z</time>
      </trkpt>
      <trkpt lat="46.5272" lon="5.3853">
        <ele>225.8</ele>
        <time>2022-03-14T15:10:19Z</time>
      </trkpt>
      <trkpt lat="46.52685" lon="5.38515">
        <ele>226.4</ele>
        <time>2022-03-14T15:10:24Z</time>
      </trkpt>
      <trkpt lat="46.52657" lon="5.3851">
        <ele>227.2</ele>
        <time>2022-03-14T15:10:28Z</time>
      </trkpt>
      <trkpt lat="46.52644" lon="5.38508">
        <ele>227.6</ele>
        <time>2022-03-14T15:10:30Z</time>
      </trkpt>
      <trkpt lat="46.52599" lon="5.38501">
        <ele>227.8</ele>
        <time>2022-03-14T15:10:37Z</time>
      </trkpt>
      <trkpt lat="46.52574" lon="5.38495">
        <ele>228.4</ele>
        <time>2022-03-14T15:10:41Z</time>
      </trkpt>
      <trkpt lat="46.52558" lon="5.38486">
        <ele>228.4</ele>
        <time>2022-03-14T15:10:44Z</time>
      </trkpt>
      <trkpt lat="46.52534" lon="5.38463">
        <ele>229.2</ele>
        <time>2022-03-14T15:10:49Z</time>
      </trkpt>
      <trkpt lat="46.5253" lon="5.38455">
        <ele>229.4</ele>
        <time>2022-03-14T15:10:50Z</time>
      </trkpt>
      <trkpt lat="46.52527" lon="5.38448">
        <ele>229.4</ele>
        <time>2022-03-14T15:10:51Z</time>
      </trkpt>
      <trkpt lat="46.52526" lon="5.38441">
        <ele>229.4</ele>
        <time>2022-03-14T15:10:52Z</time>
      </trkpt>
      <trkpt lat="46.52524" lon="5.38427">
        <ele>229.6</ele>
        <time>2022-03-14T15:10:54Z</time>
      </trkpt>
      <trkpt lat="46.52523" lon="5.38405">
        <ele>229.8</ele>
        <time>2022-03-14T15:10:57Z</time>
      </trkpt>
      <trkpt lat="46.52524" lon="5.38398">
        <ele>230</ele>
        <time>2022-03-14T15:10:58Z</time>
      </trkpt>
      <trkpt lat="46.52525" lon="5.38385">
        <ele>230</ele>
        <time>2022-03-14T15:11:00Z</time>
      </trkpt>
      <trkpt lat="46.52524" lon="5.38376">
        <ele>230</ele>
        <time>2022-03-14T15:11:01Z</time>
      </trkpt>
      <trkpt lat="46.52518" lon="5.38327">
        <ele>229.8</ele>
        <time>2022-03-14T15:11:06Z</time>
      </trkpt>
      <trkpt lat="46.52513" lon="5.38271">
        <ele>228.4</ele>
        <time>2022-03-14T15:11:11Z</time>
      </trkpt>
      <trkpt lat="46.52514" lon="5.38262">
        <ele>228.2</ele>
        <time>2022-03-14T15:11:12Z</time>
      </trkpt>
      <trkpt lat="46.5252" lon="5.38227">
        <ele>227.2</ele>
        <time>2022-03-14T15:11:15Z</time>
      </trkpt>
      <trkpt lat="46.52523" lon="5.38215">
        <ele>227</ele>
        <time>2022-03-14T15:11:16Z</time>
      </trkpt>
      <trkpt lat="46.52525" lon="5.38204">
        <ele>226.8</ele>
        <time>2022-03-14T15:11:17Z</time>
      </trkpt>
      <trkpt lat="46.52535" lon="5.38171">
        <ele>225.8</ele>
        <time>2022-03-14T15:11:20Z</time>
      </trkpt>
      <trkpt lat="46.52546" lon="5.38114">
        <ele>224.6</ele>
        <time>2022-03-14T15:11:25Z</time>
      </trkpt>
      <trkpt lat="46.52546" lon="5.381">
        <ele>224.4</ele>
        <time>2022-03-14T15:11:26Z</time>
      </trkpt>
      <trkpt lat="46.52546" lon="5.3808">
        <ele>224</ele>
        <time>2022-03-14T15:11:28Z</time>
      </trkpt>
      <trkpt lat="46.52544" lon="5.38058">
        <ele>223.8</ele>
        <time>2022-03-14T15:11:30Z</time>
      </trkpt>
      <trkpt lat="46.52543" lon="5.38047">
        <ele>223.6</ele>
        <time>2022-03-14T15:11:31Z</time>
      </trkpt>
      <trkpt lat="46.52535" lon="5.38006">
        <ele>223.4</ele>
        <time>2022-03-14T15:11:35Z</time>
      </trkpt>
      <trkpt lat="46.52519" lon="5.37947">
        <ele>223</ele>
        <time>2022-03-14T15:11:41Z</time>
      </trkpt>
      <trkpt lat="46.5252" lon="5.37905">
        <ele>222.4</ele>
        <time>2022-03-14T15:11:45Z</time>
      </trkpt>
      <trkpt lat="46.52526" lon="5.37821">
        <ele>221.6</ele>
        <time>2022-03-14T15:11:53Z</time>
      </trkpt>
      <trkpt lat="46.52527" lon="5.37798">
        <ele>221.4</ele>
        <time>2022-03-14T15:11:55Z</time>
      </trkpt>
      <trkpt lat="46.52528" lon="5.37789">
        <ele>221.4</ele>
        <time>2022-03-14T15:11:56Z</time>
      </trkpt>
      <trkpt lat="46.52533" lon="5.37704">
        <ele>221</ele>
        <time>2022-03-14T15:12:04Z</time>
      </trkpt>
      <trkpt lat="46.5254" lon="5.3762">
        <ele>220.8</ele>
        <time>2022-03-14T15:12:12Z</time>
      </trkpt>
      <trkpt lat="46.52542" lon="5.37599">
        <ele>220.8</ele>
        <time>2022-03-14T15:12:14Z</time>
      </trkpt>
      <trkpt lat="46.5255" lon="5.37518">
        <ele>220.6</ele>
        <time>2022-03-14T15:12:22Z</time>
      </trkpt>
      <trkpt lat="46.52552" lon="5.37497">
        <ele>220.6</ele>
        <time>2022-03-14T15:12:24Z</time>
      </trkpt>
      <trkpt lat="46.52555" lon="5.37457">
        <ele>220.4</ele>
        <time>2022-03-14T15:12:28Z</time>
      </trkpt>
      <trkpt lat="46.52559" lon="5.37407">
        <ele>220</ele>
        <time>2022-03-14T15:12:33Z</time>
      </trkpt>
      <trkpt lat="46.52562" lon="5.37354">
        <ele>219.4</ele>
        <time>2022-03-14T15:12:38Z</time>
      </trkpt>
      <trkpt lat="46.52563" lon="5.37303">
        <ele>219</ele>
        <time>2022-03-14T15:12:43Z</time>
      </trkpt>
      <trkpt lat="46.52561" lon="5.37281">
        <ele>219</ele>
        <time>2022-03-14T15:12:45Z</time>
      </trkpt>
      <trkpt lat="46.52556" lon="5.37255">
        <ele>218.8</ele>
        <time>2022-03-14T15:12:48Z</time>
      </trkpt>
      <trkpt lat="46.52551" lon="5.37237">
        <ele>218.8</ele>
        <time>2022-03-14T15:12:50Z</time>
      </trkpt>
      <trkpt lat="46.52545" lon="5.37223">
        <ele>218.8</ele>
        <time>2022-03-14T15:12:52Z</time>
      </trkpt>
      <trkpt lat="46.52534" lon="5.37202">
        <ele>218.6</ele>
        <time>2022-03-14T15:12:55Z</time>
      </trkpt>
      <trkpt lat="46.52523" lon="5.37188">
        <ele>218.2</ele>
        <time>2022-03-14T15:12:57Z</time>
      </trkpt>
      <trkpt lat="46.52489" lon="5.37148">
        <ele>218.2</ele>
        <time>2022-03-14T15:13:03Z</time>
      </trkpt>
      <trkpt lat="46.52459" lon="5.37103">
        <ele>218</ele>
        <time>2022-03-14T15:13:09Z</time>
      </trkpt>
      <trkpt lat="46.52443" lon="5.37058">
        <ele>217.8</ele>
        <time>2022-03-14T15:13:14Z</time>
      </trkpt>
      <trkpt lat="46.52434" lon="5.37025">
        <ele>217.6</ele>
        <time>2022-03-14T15:13:18Z</time>
      </trkpt>
      <trkpt lat="46.52425" lon="5.37018">
        <ele>217.4</ele>
        <time>2022-03-14T15:13:20Z</time>
      </trkpt>
      <trkpt lat="46.52416" lon="5.37024">
        <ele>217.4</ele>
        <time>2022-03-14T15:13:22Z</time>
      </trkpt>
      <trkpt lat="46.52412" lon="5.3703">
        <ele>217.2</ele>
        <time>2022-03-14T15:13:23Z</time>
      </trkpt>
      <trkpt lat="46.52385" lon="5.37074">
        <ele>216.8</ele>
        <time>2022-03-14T15:13:29Z</time>
      </trkpt>
      <trkpt lat="46.52348" lon="5.37114">
        <ele>218</ele>
        <time>2022-03-14T15:13:36Z</time>
      </trkpt>
      <trkpt lat="46.5233" lon="5.37133">
        <ele>218.6</ele>
        <time>2022-03-14T15:13:40Z</time>
      </trkpt>
      <trkpt lat="46.52326" lon="5.37138">
        <ele>218.6</ele>
        <time>2022-03-14T15:13:41Z</time>
      </trkpt>
      <trkpt lat="46.5231" lon="5.37155">
        <ele>219.6</ele>
        <time>2022-03-14T15:13:45Z</time>
      </trkpt>
      <trkpt lat="46.52299" lon="5.37167">
        <ele>220.2</ele>
        <time>2022-03-14T15:13:48Z</time>
      </trkpt>
      <trkpt lat="46.52292" lon="5.37175">
        <ele>220.6</ele>
        <time>2022-03-14T15:13:50Z</time>
      </trkpt>
      <trkpt lat="46.5227" lon="5.37198">
        <ele>221.6</ele>
        <time>2022-03-14T15:13:56Z</time>
      </trkpt>
      <trkpt lat="46.52267" lon="5.37202">
        <ele>221.8</ele>
        <time>2022-03-14T15:13:57Z</time>
      </trkpt>
      <trkpt lat="46.52252" lon="5.37216">
        <ele>222.8</ele>
        <time>2022-03-14T15:14:01Z</time>
      </trkpt>
      <trkpt lat="46.52242" lon="5.37227">
        <ele>223.6</ele>
        <time>2022-03-14T15:14:04Z</time>
      </trkpt>
      <trkpt lat="46.52235" lon="5.37234">
        <ele>224</ele>
        <time>2022-03-14T15:14:06Z</time>
      </trkpt>
      <trkpt lat="46.52229" lon="5.37239">
        <ele>224.4</ele>
        <time>2022-03-14T15:14:08Z</time>
      </trkpt>
      <trkpt lat="46.52222" lon="5.37245">
        <ele>224.8</ele>
        <time>2022-03-14T15:14:10Z</time>
      </trkpt>
      <trkpt lat="46.52215" lon="5.37252">
        <ele>225.4</ele>
        <time>2022-03-14T15:14:12Z</time>
      </trkpt>
      <trkpt lat="46.52193" lon="5.37269">
        <ele>226.2</ele>
        <time>2022-03-14T15:14:18Z</time>
      </trkpt>
      <trkpt lat="46.52189" lon="5.37272">
        <ele>226.4</ele>
        <time>2022-03-14T15:14:19Z</time>
      </trkpt>
      <trkpt lat="46.52167" lon="5.37287">
        <ele>227.4</ele>
        <time>2022-03-14T15:14:25Z</time>
      </trkpt>
      <trkpt lat="46.5215" lon="5.373">
        <ele>228.4</ele>
        <time>2022-03-14T15:14:30Z</time>
      </trkpt>
      <trkpt lat="46.52133" lon="5.37311">
        <ele>229.4</ele>
        <time>2022-03-14T15:14:35Z</time>
      </trkpt>
      <trkpt lat="46.52112" lon="5.37326">
        <ele>230.4</ele>
        <time>2022-03-14T15:14:41Z</time>
      </trkpt>
      <trkpt lat="46.52092" lon="5.37341">
        <ele>231.6</ele>
        <time>2022-03-14T15:14:47Z</time>
      </trkpt>
      <trkpt lat="46.52082" lon="5.37355">
        <ele>232.6</ele>
        <time>2022-03-14T15:14:51Z</time>
      </trkpt>
      <trkpt lat="46.5208" lon="5.3736">
        <ele>233.2</ele>
        <time>2022-03-14T15:14:52Z</time>
      </trkpt>
      <trkpt lat="46.52074" lon="5.37383">
        <ele>234.2</ele>
        <time>2022-03-14T15:14:56Z</time>
      </trkpt>
      <trkpt lat="46.52073" lon="5.37389">
        <ele>234.4</ele>
        <time>2022-03-14T15:14:57Z</time>
      </trkpt>
      <trkpt lat="46.52061" lon="5.37442">
        <ele>235.4</ele>
        <time>2022-03-14T15:15:05Z</time>
      </trkpt>
      <trkpt lat="46.52048" lon="5.37501">
        <ele>235.4</ele>
        <time>2022-03-14T15:15:12Z</time>
      </trkpt>
      <trkpt lat="46.52033" lon="5.37573">
        <ele>235.4</ele>
        <time>2022-03-14T15:15:20Z</time>
      </trkpt>
      <trkpt lat="46.52024" lon="5.37611">
        <ele>235.4</ele>
        <time>2022-03-14T15:15:24Z</time>
      </trkpt>
      <trkpt lat="46.52016" lon="5.37624">
        <ele>235.6</ele>
        <time>2022-03-14T15:15:26Z</time>
      </trkpt>
      <trkpt lat="46.52005" lon="5.3763">
        <ele>235.6</ele>
        <time>2022-03-14T15:15:28Z</time>
      </trkpt>
      <trkpt lat="46.51998" lon="5.37631">
        <ele>235.6</ele>
        <time>2022-03-14T15:15:29Z</time>
      </trkpt>
      <trkpt lat="46.51962" lon="5.37636">
        <ele>235.8</ele>
        <time>2022-03-14T15:15:34Z</time>
      </trkpt>
      <trkpt lat="46.51903" lon="5.37646">
        <ele>235.8</ele>
        <time>2022-03-14T15:15:42Z</time>
      </trkpt>
      <trkpt lat="46.51853" lon="5.37648">
        <ele>236.4</ele>
        <time>2022-03-14T15:15:49Z</time>
      </trkpt>
      <trkpt lat="46.51845" lon="5.37648">
        <ele>236.4</ele>
        <time>2022-03-14T15:15:50Z</time>
      </trkpt>
      <trkpt lat="46.51785" lon="5.3765">
        <ele>236.2</ele>
        <time>2022-03-14T15:15:58Z</time>
      </trkpt>
      <trkpt lat="46.51777" lon="5.37649">
        <ele>236.2</ele>
        <time>2022-03-14T15:15:59Z</time>
      </trkpt>
      <trkpt lat="46.51742" lon="5.37639">
        <ele>235.4</ele>
        <time>2022-03-14T15:16:03Z</time>
      </trkpt>
      <trkpt lat="46.51735" lon="5.37637">
        <ele>235.2</ele>
        <time>2022-03-14T15:16:04Z</time>
      </trkpt>
      <trkpt lat="46.51708" lon="5.37631">
        <ele>234.6</ele>
        <time>2022-03-14T15:16:07Z</time>
      </trkpt>
      <trkpt lat="46.51699" lon="5.37633">
        <ele>234.4</ele>
        <time>2022-03-14T15:16:08Z</time>
      </trkpt>
      <trkpt lat="46.51692" lon="5.37635">
        <ele>234.2</ele>
        <time>2022-03-14T15:16:09Z</time>
      </trkpt>
      <trkpt lat="46.51684" lon="5.37639">
        <ele>234</ele>
        <time>2022-03-14T15:16:10Z</time>
      </trkpt>
      <trkpt lat="46.51667" lon="5.37651">
        <ele>233.8</ele>
        <time>2022-03-14T15:16:12Z</time>
      </trkpt>
      <trkpt lat="46.5166" lon="5.37656">
        <ele>233.4</ele>
        <time>2022-03-14T15:16:13Z</time>
      </trkpt>
      <trkpt lat="46.51654" lon="5.3766">
        <ele>233.2</ele>
        <time>2022-03-14T15:16:14Z</time>
      </trkpt>
      <trkpt lat="46.51637" lon="5.37668">
        <ele>232.8</ele>
        <time>2022-03-14T15:16:16Z</time>
      </trkpt>
      <trkpt lat="46.51629" lon="5.37671">
        <ele>232.8</ele>
        <time>2022-03-14T15:16:17Z</time>
      </trkpt>
      <trkpt lat="46.5158" lon="5.37684">
        <ele>232.8</ele>
        <time>2022-03-14T15:16:24Z</time>
      </trkpt>
      <trkpt lat="46.51539" lon="5.37688">
        <ele>233.4</ele>
        <time>2022-03-14T15:16:30Z</time>
      </trkpt>
      <trkpt lat="46.51503" lon="5.37698">
        <ele>234.2</ele>
        <time>2022-03-14T15:16:36Z</time>
      </trkpt>
      <trkpt lat="46.51484" lon="5.37702">
        <ele>234.8</ele>
        <time>2022-03-14T15:16:39Z</time>
      </trkpt>
      <trkpt lat="46.51468" lon="5.37705">
        <ele>235.4</ele>
        <time>2022-03-14T15:16:42Z</time>
      </trkpt>
      <trkpt lat="46.51429" lon="5.37714">
        <ele>236.2</ele>
        <time>2022-03-14T15:16:49Z</time>
      </trkpt>
      <trkpt lat="46.51413" lon="5.37719">
        <ele>236.4</ele>
        <time>2022-03-14T15:16:52Z</time>
      </trkpt>
      <trkpt lat="46.51365" lon="5.37739">
        <ele>237.4</ele>
        <time>2022-03-14T15:17:01Z</time>
      </trkpt>
      <trkpt lat="46.51361" lon="5.37741">
        <ele>237.4</ele>
        <time>2022-03-14T15:17:02Z</time>
      </trkpt>
      <trkpt lat="46.51315" lon="5.37765">
        <ele>238.6</ele>
        <time>2022-03-14T15:17:11Z</time>
      </trkpt>
      <trkpt lat="46.513" lon="5.37773">
        <ele>239.2</ele>
        <time>2022-03-14T15:17:14Z</time>
      </trkpt>
      <trkpt lat="46.51285" lon="5.3778">
        <ele>239.6</ele>
        <time>2022-03-14T15:17:17Z</time>
      </trkpt>
      <trkpt lat="46.5128" lon="5.37782">
        <ele>239.8</ele>
        <time>2022-03-14T15:17:18Z</time>
      </trkpt>
      <trkpt lat="46.51254" lon="5.37796">
        <ele>240.6</ele>
        <time>2022-03-14T15:17:23Z</time>
      </trkpt>
      <trkpt lat="46.51244" lon="5.378">
        <ele>240.8</ele>
        <time>2022-03-14T15:17:25Z</time>
      </trkpt>
      <trkpt lat="46.51233" lon="5.37802">
        <ele>240.8</ele>
        <time>2022-03-14T15:17:27Z</time>
      </trkpt>
      <trkpt lat="46.51189" lon="5.3781">
        <ele>241.8</ele>
        <time>2022-03-14T15:17:35Z</time>
      </trkpt>
      <trkpt lat="46.51179" lon="5.37813">
        <ele>241.8</ele>
        <time>2022-03-14T15:17:37Z</time>
      </trkpt>
      <trkpt lat="46.51159" lon="5.37821">
        <ele>242.6</ele>
        <time>2022-03-14T15:17:41Z</time>
      </trkpt>
      <trkpt lat="46.51155" lon="5.37825">
        <ele>243</ele>
        <time>2022-03-14T15:17:42Z</time>
      </trkpt>
      <trkpt lat="46.5115" lon="5.37829">
        <ele>243</ele>
        <time>2022-03-14T15:17:43Z</time>
      </trkpt>
      <trkpt lat="46.51121" lon="5.3785">
        <ele>244</ele>
        <time>2022-03-14T15:17:49Z</time>
      </trkpt>
      <trkpt lat="46.51106" lon="5.37858">
        <ele>244.2</ele>
        <time>2022-03-14T15:17:52Z</time>
      </trkpt>
      <trkpt lat="46.5107" lon="5.3787">
        <ele>245</ele>
        <time>2022-03-14T15:17:59Z</time>
      </trkpt>
      <trkpt lat="46.51065" lon="5.3787">
        <ele>245.2</ele>
        <time>2022-03-14T15:18:00Z</time>
      </trkpt>
      <trkpt lat="46.51026" lon="5.37873">
        <ele>246.4</ele>
        <time>2022-03-14T15:18:07Z</time>
      </trkpt>
      <trkpt lat="46.5102" lon="5.37874">
        <ele>246.8</ele>
        <time>2022-03-14T15:18:08Z</time>
      </trkpt>
      <trkpt lat="46.50997" lon="5.37876">
        <ele>247.6</ele>
        <time>2022-03-14T15:18:12Z</time>
      </trkpt>
      <trkpt lat="46.50961" lon="5.37885">
        <ele>248.2</ele>
        <time>2022-03-14T15:18:18Z</time>
      </trkpt>
      <trkpt lat="46.50944" lon="5.37891">
        <ele>248.6</ele>
        <time>2022-03-14T15:18:21Z</time>
      </trkpt>
      <trkpt lat="46.5092" lon="5.37899">
        <ele>249.2</ele>
        <time>2022-03-14T15:18:25Z</time>
      </trkpt>
      <trkpt lat="46.50874" lon="5.37902">
        <ele>249.6</ele>
        <time>2022-03-14T15:18:32Z</time>
      </trkpt>
      <trkpt lat="46.50819" lon="5.37894">
        <ele>249.2</ele>
        <time>2022-03-14T15:18:40Z</time>
      </trkpt>
      <trkpt lat="46.50806" lon="5.37886">
        <ele>249.4</ele>
        <time>2022-03-14T15:18:42Z</time>
      </trkpt>
      <trkpt lat="46.50795" lon="5.37874">
        <ele>249.2</ele>
        <time>2022-03-14T15:18:44Z</time>
      </trkpt>
      <trkpt lat="46.50762" lon="5.37823">
        <ele>249.2</ele>
        <time>2022-03-14T15:18:51Z</time>
      </trkpt>
      <trkpt lat="46.50759" lon="5.37814">
        <ele>249.2</ele>
        <time>2022-03-14T15:18:52Z</time>
      </trkpt>
      <trkpt lat="46.50748" lon="5.37774">
        <ele>248.8</ele>
        <time>2022-03-14T15:18:56Z</time>
      </trkpt>
      <trkpt lat="46.5074" lon="5.37703">
        <ele>247.8</ele>
        <time>2022-03-14T15:19:03Z</time>
      </trkpt>
      <trkpt lat="46.50739" lon="5.37682">
        <ele>247.8</ele>
        <time>2022-03-14T15:19:05Z</time>
      </trkpt>
      <trkpt lat="46.50733" lon="5.37623">
        <ele>247</ele>
        <time>2022-03-14T15:19:10Z</time>
      </trkpt>
      <trkpt lat="46.5073" lon="5.37613">
        <ele>246.6</ele>
        <time>2022-03-14T15:19:11Z</time>
      </trkpt>
      <trkpt lat="46.50726" lon="5.37603">
        <ele>246</ele>
        <time>2022-03-14T15:19:12Z</time>
      </trkpt>
      <trkpt lat="46.5072" lon="5.37594">
        <ele>245.4</ele>
        <time>2022-03-14T15:19:13Z</time>
      </trkpt>
      <trkpt lat="46.50705" lon="5.37574">
        <ele>244.2</ele>
        <time>2022-03-14T15:19:16Z</time>
      </trkpt>
      <trkpt lat="46.50701" lon="5.37569">
        <ele>244</ele>
        <time>2022-03-14T15:19:17Z</time>
      </trkpt>
      <trkpt lat="46.50699" lon="5.37565">
        <ele>243.6</ele>
        <time>2022-03-14T15:19:18Z</time>
      </trkpt>
      <trkpt lat="46.50697" lon="5.3756">
        <ele>243</ele>
        <time>2022-03-14T15:19:20Z</time>
      </trkpt>
      <trkpt lat="46.50696" lon="5.37559">
        <ele>242.2</ele>
        <time>2022-03-14T15:19:22Z</time>
      </trkpt>
      <trkpt lat="46.50696" lon="5.37559">
        <ele>241.8</ele>
        <time>2022-03-14T15:19:23Z</time>
      </trkpt>
      <trkpt lat="46.50694" lon="5.37555">
        <ele>241.6</ele>
        <time>2022-03-14T15:19:27Z</time>
      </trkpt>
      <trkpt lat="46.50689" lon="5.37557">
        <ele>241.6</ele>
        <time>2022-03-14T15:19:29Z</time>
      </trkpt>
      <trkpt lat="46.50678" lon="5.37576">
        <ele>241.6</ele>
        <time>2022-03-14T15:19:33Z</time>
      </trkpt>
      <trkpt lat="46.50659" lon="5.37604">
        <ele>241.8</ele>
        <time>2022-03-14T15:19:38Z</time>
      </trkpt>
      <trkpt lat="46.50629" lon="5.3765">
        <ele>242.6</ele>
        <time>2022-03-14T15:19:45Z</time>
      </trkpt>
      <trkpt lat="46.50608" lon="5.37683">
        <ele>243</ele>
        <time>2022-03-14T15:19:50Z</time>
      </trkpt>
      <trkpt lat="46.50584" lon="5.37719">
        <ele>243.8</ele>
        <time>2022-03-14T15:19:56Z</time>
      </trkpt>
      <trkpt lat="46.5058" lon="5.37724">
        <ele>244</ele>
        <time>2022-03-14T15:19:57Z</time>
      </trkpt>
      <trkpt lat="46.50559" lon="5.37757">
        <ele>245</ele>
        <time>2022-03-14T15:20:03Z</time>
      </trkpt>
      <trkpt lat="46.50552" lon="5.37767">
        <ele>245.4</ele>
        <time>2022-03-14T15:20:05Z</time>
      </trkpt>
      <trkpt lat="46.50546" lon="5.37777">
        <ele>246</ele>
        <time>2022-03-14T15:20:07Z</time>
      </trkpt>
      <trkpt lat="46.50526" lon="5.37806">
        <ele>247</ele>
        <time>2022-03-14T15:20:13Z</time>
      </trkpt>
      <trkpt lat="46.50523" lon="5.37811">
        <ele>247.2</ele>
        <time>2022-03-14T15:20:14Z</time>
      </trkpt>
      <trkpt lat="46.50504" lon="5.37839">
        <ele>248.4</ele>
        <time>2022-03-14T15:20:20Z</time>
      </trkpt>
      <trkpt lat="46.50495" lon="5.37853">
        <ele>249</ele>
        <time>2022-03-14T15:20:23Z</time>
      </trkpt>
      <trkpt lat="46.50489" lon="5.37862">
        <ele>249.4</ele>
        <time>2022-03-14T15:20:25Z</time>
      </trkpt>
      <trkpt lat="46.50471" lon="5.37889">
        <ele>250.6</ele>
        <time>2022-03-14T15:20:31Z</time>
      </trkpt>
      <trkpt lat="46.50465" lon="5.37899">
        <ele>250.8</ele>
        <time>2022-03-14T15:20:33Z</time>
      </trkpt>
      <trkpt lat="46.50455" lon="5.37914">
        <ele>251.6</ele>
        <time>2022-03-14T15:20:36Z</time>
      </trkpt>
      <trkpt lat="46.50452" lon="5.37919">
        <ele>251.8</ele>
        <time>2022-03-14T15:20:37Z</time>
      </trkpt>
      <trkpt lat="46.50447" lon="5.37929">
        <ele>252</ele>
        <time>2022-03-14T15:20:39Z</time>
      </trkpt>
      <trkpt lat="46.50445" lon="5.37934">
        <ele>252.2</ele>
        <time>2022-03-14T15:20:40Z</time>
      </trkpt>
      <trkpt lat="46.50437" lon="5.37946">
        <ele>252.6</ele>
        <time>2022-03-14T15:20:43Z</time>
      </trkpt>
      <trkpt lat="46.50428" lon="5.37958">
        <ele>253.2</ele>
        <time>2022-03-14T15:20:46Z</time>
      </trkpt>
      <trkpt lat="46.50422" lon="5.37966">
        <ele>253.8</ele>
        <time>2022-03-14T15:20:48Z</time>
      </trkpt>
      <trkpt lat="46.50406" lon="5.3799">
        <ele>255</ele>
        <time>2022-03-14T15:20:53Z</time>
      </trkpt>
      <trkpt lat="46.50403" lon="5.37995">
        <ele>255.2</ele>
        <time>2022-03-14T15:20:54Z</time>
      </trkpt>
      <trkpt lat="46.50397" lon="5.38006">
        <ele>255.6</ele>
        <time>2022-03-14T15:20:56Z</time>
      </trkpt>
      <trkpt lat="46.50391" lon="5.38016">
        <ele>256</ele>
        <time>2022-03-14T15:20:58Z</time>
      </trkpt>
      <trkpt lat="46.50385" lon="5.38024">
        <ele>256.4</ele>
        <time>2022-03-14T15:21:00Z</time>
      </trkpt>
      <trkpt lat="46.50381" lon="5.38028">
        <ele>256.6</ele>
        <time>2022-03-14T15:21:01Z</time>
      </trkpt>
      <trkpt lat="46.50374" lon="5.3803">
        <ele>257</ele>
        <time>2022-03-14T15:21:03Z</time>
      </trkpt>
      <trkpt lat="46.50369" lon="5.38027">
        <ele>257.2</ele>
        <time>2022-03-14T15:21:04Z</time>
      </trkpt>
      <trkpt lat="46.50366" lon="5.38023">
        <ele>257.4</ele>
        <time>2022-03-14T15:21:05Z</time>
      </trkpt>
      <trkpt lat="46.50363" lon="5.38017">
        <ele>257.6</ele>
        <time>2022-03-14T15:21:06Z</time>
      </trkpt>
      <trkpt lat="46.50361" lon="5.38012">
        <ele>257.8</ele>
        <time>2022-03-14T15:21:07Z</time>
      </trkpt>
      <trkpt lat="46.50361" lon="5.37993">
        <ele>258.4</ele>
        <time>2022-03-14T15:21:10Z</time>
      </trkpt>
      <trkpt lat="46.5036" lon="5.37947">
        <ele>259.4</ele>
        <time>2022-03-14T15:21:17Z</time>
      </trkpt>
      <trkpt lat="46.50353" lon="5.3791">
        <ele>260</ele>
        <time>2022-03-14T15:21:22Z</time>
      </trkpt>
      <trkpt lat="46.50346" lon="5.37896">
        <ele>260</ele>
        <time>2022-03-14T15:21:24Z</time>
      </trkpt>
      <trkpt lat="46.50337" lon="5.37884">
        <ele>259.8</ele>
        <time>2022-03-14T15:21:26Z</time>
      </trkpt>
      <trkpt lat="46.50309" lon="5.37853">
        <ele>259.2</ele>
        <time>2022-03-14T15:21:32Z</time>
      </trkpt>
      <trkpt lat="46.50263" lon="5.37809">
        <ele>258.8</ele>
        <time>2022-03-14T15:21:41Z</time>
      </trkpt>
      <trkpt lat="46.50224" lon="5.37773">
        <ele>258.8</ele>
        <time>2022-03-14T15:21:48Z</time>
      </trkpt>
      <trkpt lat="46.5018" lon="5.37751">
        <ele>258.2</ele>
        <time>2022-03-14T15:21:54Z</time>
      </trkpt>
      <trkpt lat="46.50138" lon="5.37742">
        <ele>258</ele>
        <time>2022-03-14T15:22:00Z</time>
      </trkpt>
      <trkpt lat="46.50093" lon="5.37729">
        <ele>259</ele>
        <time>2022-03-14T15:22:07Z</time>
      </trkpt>
      <trkpt lat="46.50073" lon="5.37722">
        <ele>259.4</ele>
        <time>2022-03-14T15:22:10Z</time>
      </trkpt>
      <trkpt lat="46.50033" lon="5.37704">
        <ele>260.4</ele>
        <time>2022-03-14T15:22:16Z</time>
      </trkpt>
      <trkpt lat="46.5002" lon="5.37697">
        <ele>260.4</ele>
        <time>2022-03-14T15:22:18Z</time>
      </trkpt>
      <trkpt lat="46.49978" lon="5.37677">
        <ele>260.2</ele>
        <time>2022-03-14T15:22:24Z</time>
      </trkpt>
      <trkpt lat="46.49919" lon="5.37652">
        <ele>259.8</ele>
        <time>2022-03-14T15:22:32Z</time>
      </trkpt>
      <trkpt lat="46.49868" lon="5.37635">
        <ele>259.2</ele>
        <time>2022-03-14T15:22:39Z</time>
      </trkpt>
      <trkpt lat="46.49853" lon="5.37629">
        <ele>259</ele>
        <time>2022-03-14T15:22:41Z</time>
      </trkpt>
      <trkpt lat="46.49795" lon="5.37599">
        <ele>258.6</ele>
        <time>2022-03-14T15:22:49Z</time>
      </trkpt>
      <trkpt lat="46.49788" lon="5.37595">
        <ele>258.4</ele>
        <time>2022-03-14T15:22:50Z</time>
      </trkpt>
      <trkpt lat="46.49732" lon="5.37559">
        <ele>258.2</ele>
        <time>2022-03-14T15:22:58Z</time>
      </trkpt>
      <trkpt lat="46.49718" lon="5.3755">
        <ele>258.2</ele>
        <time>2022-03-14T15:23:00Z</time>
      </trkpt>
      <trkpt lat="46.49668" lon="5.37527">
        <ele>258</ele>
        <time>2022-03-14T15:23:07Z</time>
      </trkpt>
      <trkpt lat="46.49636" lon="5.37511">
        <ele>257.6</ele>
        <time>2022-03-14T15:23:12Z</time>
      </trkpt>
      <trkpt lat="46.49633" lon="5.37507">
        <ele>257.6</ele>
        <time>2022-03-14T15:23:13Z</time>
      </trkpt>
      <trkpt lat="46.49632" lon="5.37502">
        <ele>257.6</ele>
        <time>2022-03-14T15:23:14Z</time>
      </trkpt>
      <trkpt lat="46.49633" lon="5.37497">
        <ele>257.6</ele>
        <time>2022-03-14T15:23:15Z</time>
      </trkpt>
      <trkpt lat="46.49636" lon="5.3749">
        <ele>257.6</ele>
        <time>2022-03-14T15:23:16Z</time>
      </trkpt>
      <trkpt lat="46.49644" lon="5.37478">
        <ele>257.4</ele>
        <time>2022-03-14T15:23:18Z</time>
      </trkpt>
      <trkpt lat="46.49654" lon="5.37462">
        <ele>257.4</ele>
        <time>2022-03-14T15:23:20Z</time>
      </trkpt>
      <trkpt lat="46.49662" lon="5.37442">
        <ele>257.2</ele>
        <time>2022-03-14T15:23:22Z</time>
      </trkpt>
      <trkpt lat="46.49669" lon="5.37422">
        <ele>256.2</ele>
        <time>2022-03-14T15:23:24Z</time>
      </trkpt>
      <trkpt lat="46.4968" lon="5.37388">
        <ele>255.2</ele>
        <time>2022-03-14T15:23:27Z</time>
      </trkpt>
      <trkpt lat="46.49688" lon="5.37364">
        <ele>254.8</ele>
        <time>2022-03-14T15:23:29Z</time>
      </trkpt>
      <trkpt lat="46.49696" lon="5.37339">
        <ele>254</ele>
        <time>2022-03-14T15:23:31Z</time>
      </trkpt>
      <trkpt lat="46.49708" lon="5.37301">
        <ele>252.8</ele>
        <time>2022-03-14T15:23:34Z</time>
      </trkpt>
      <trkpt lat="46.49716" lon="5.37274">
        <ele>252.4</ele>
        <time>2022-03-14T15:23:36Z</time>
      </trkpt>
      <trkpt lat="46.49724" lon="5.37248">
        <ele>251.4</ele>
        <time>2022-03-14T15:23:38Z</time>
      </trkpt>
      <trkpt lat="46.49736" lon="5.37208">
        <ele>250</ele>
        <time>2022-03-14T15:23:41Z</time>
      </trkpt>
      <trkpt lat="46.49752" lon="5.37157">
        <ele>248.8</ele>
        <time>2022-03-14T15:23:45Z</time>
      </trkpt>
      <trkpt lat="46.49755" lon="5.37145">
        <ele>248.8</ele>
        <time>2022-03-14T15:23:46Z</time>
      </trkpt>
      <trkpt lat="46.49775" lon="5.37081">
        <ele>247.8</ele>
        <time>2022-03-14T15:23:51Z</time>
      </trkpt>
      <trkpt lat="46.49794" lon="5.37018">
        <ele>246.8</ele>
        <time>2022-03-14T15:23:56Z</time>
      </trkpt>
      <trkpt lat="46.49798" lon="5.37006">
        <ele>246.4</ele>
        <time>2022-03-14T15:23:57Z</time>
      </trkpt>
      <trkpt lat="46.49821" lon="5.36934">
        <ele>245.6</ele>
        <time>2022-03-14T15:24:03Z</time>
      </trkpt>
      <trkpt lat="46.49824" lon="5.36922">
        <ele>245.6</ele>
        <time>2022-03-14T15:24:04Z</time>
      </trkpt>
      <trkpt lat="46.49842" lon="5.36864">
        <ele>244.6</ele>
        <time>2022-03-14T15:24:09Z</time>
      </trkpt>
      <trkpt lat="46.49857" lon="5.36816">
        <ele>243.6</ele>
        <time>2022-03-14T15:24:13Z</time>
      </trkpt>
      <trkpt lat="46.4986" lon="5.36803">
        <ele>243.4</ele>
        <time>2022-03-14T15:24:14Z</time>
      </trkpt>
      <trkpt lat="46.49876" lon="5.36756">
        <ele>242.6</ele>
        <time>2022-03-14T15:24:18Z</time>
      </trkpt>
      <trkpt lat="46.4989" lon="5.36721">
        <ele>242.2</ele>
        <time>2022-03-14T15:24:21Z</time>
      </trkpt>
      <trkpt lat="46.49904" lon="5.36688">
        <ele>241.4</ele>
        <time>2022-03-14T15:24:24Z</time>
      </trkpt>
      <trkpt lat="46.4992" lon="5.36644">
        <ele>241</ele>
        <time>2022-03-14T15:24:28Z</time>
      </trkpt>
      <trkpt lat="46.49922" lon="5.36619">
        <ele>240.8</ele>
        <time>2022-03-14T15:24:30Z</time>
      </trkpt>
      <trkpt lat="46.4992" lon="5.36607">
        <ele>240.4</ele>
        <time>2022-03-14T15:24:31Z</time>
      </trkpt>
      <trkpt lat="46.49916" lon="5.36595">
        <ele>240.2</ele>
        <time>2022-03-14T15:24:32Z</time>
      </trkpt>
      <trkpt lat="46.49906" lon="5.36573">
        <ele>239.8</ele>
        <time>2022-03-14T15:24:34Z</time>
      </trkpt>
      <trkpt lat="46.49867" lon="5.36515">
        <ele>239.4</ele>
        <time>2022-03-14T15:24:40Z</time>
      </trkpt>
      <trkpt lat="46.49862" lon="5.36507">
        <ele>239.2</ele>
        <time>2022-03-14T15:24:41Z</time>
      </trkpt>
      <trkpt lat="46.49836" lon="5.36467">
        <ele>238.2</ele>
        <time>2022-03-14T15:24:45Z</time>
      </trkpt>
      <trkpt lat="46.49819" lon="5.36435">
        <ele>237.6</ele>
        <time>2022-03-14T15:24:48Z</time>
      </trkpt>
      <trkpt lat="46.49808" lon="5.3641">
        <ele>237</ele>
        <time>2022-03-14T15:24:50Z</time>
      </trkpt>
      <trkpt lat="46.4978" lon="5.36342">
        <ele>236.4</ele>
        <time>2022-03-14T15:24:56Z</time>
      </trkpt>
      <trkpt lat="46.49766" lon="5.36309">
        <ele>236</ele>
        <time>2022-03-14T15:24:59Z</time>
      </trkpt>
      <trkpt lat="46.4975" lon="5.36273">
        <ele>234.8</ele>
        <time>2022-03-14T15:25:02Z</time>
      </trkpt>
      <trkpt lat="46.49727" lon="5.36221">
        <ele>233.4</ele>
        <time>2022-03-14T15:25:06Z</time>
      </trkpt>
      <trkpt lat="46.49706" lon="5.36181">
        <ele>232.2</ele>
        <time>2022-03-14T15:25:10Z</time>
      </trkpt>
      <trkpt lat="46.49694" lon="5.36161">
        <ele>231.8</ele>
        <time>2022-03-14T15:25:12Z</time>
      </trkpt>
      <trkpt lat="46.49676" lon="5.36132">
        <ele>231.2</ele>
        <time>2022-03-14T15:25:15Z</time>
      </trkpt>
      <trkpt lat="46.49664" lon="5.3611">
        <ele>230.8</ele>
        <time>2022-03-14T15:25:17Z</time>
      </trkpt>
      <trkpt lat="46.4966" lon="5.36099">
        <ele>230.6</ele>
        <time>2022-03-14T15:25:18Z</time>
      </trkpt>
      <trkpt lat="46.49648" lon="5.36053">
        <ele>230.2</ele>
        <time>2022-03-14T15:25:22Z</time>
      </trkpt>
      <trkpt lat="46.49647" lon="5.36041">
        <ele>230.2</ele>
        <time>2022-03-14T15:25:23Z</time>
      </trkpt>
      <trkpt lat="46.49644" lon="5.35994">
        <ele>230.2</ele>
        <time>2022-03-14T15:25:27Z</time>
      </trkpt>
      <trkpt lat="46.49637" lon="5.35907">
        <ele>230.4</ele>
        <time>2022-03-14T15:25:35Z</time>
      </trkpt>
      <trkpt lat="46.49638" lon="5.35837">
        <ele>230.6</ele>
        <time>2022-03-14T15:25:42Z</time>
      </trkpt>
      <trkpt lat="46.49644" lon="5.35812">
        <ele>231</ele>
        <time>2022-03-14T15:25:45Z</time>
      </trkpt>
      <trkpt lat="46.49648" lon="5.35798">
        <ele>231.4</ele>
        <time>2022-03-14T15:25:47Z</time>
      </trkpt>
      <trkpt lat="46.49651" lon="5.3579">
        <ele>231.4</ele>
        <time>2022-03-14T15:25:48Z</time>
      </trkpt>
      <trkpt lat="46.49662" lon="5.35764">
        <ele>232.6</ele>
        <time>2022-03-14T15:25:52Z</time>
      </trkpt>
      <trkpt lat="46.49678" lon="5.3573">
        <ele>233.8</ele>
        <time>2022-03-14T15:25:57Z</time>
      </trkpt>
      <trkpt lat="46.49683" lon="5.35717">
        <ele>233.8</ele>
        <time>2022-03-14T15:25:59Z</time>
      </trkpt>
      <trkpt lat="46.49693" lon="5.35683">
        <ele>234.8</ele>
        <time>2022-03-14T15:26:04Z</time>
      </trkpt>
      <trkpt lat="46.49696" lon="5.3567">
        <ele>235.2</ele>
        <time>2022-03-14T15:26:06Z</time>
      </trkpt>
      <trkpt lat="46.49698" lon="5.35657">
        <ele>235.8</ele>
        <time>2022-03-14T15:26:08Z</time>
      </trkpt>
      <trkpt lat="46.49697" lon="5.35646">
        <ele>236</ele>
        <time>2022-03-14T15:26:10Z</time>
      </trkpt>
      <trkpt lat="46.49694" lon="5.35643">
        <ele>236</ele>
        <time>2022-03-14T15:26:11Z</time>
      </trkpt>
      <trkpt lat="46.4969" lon="5.35641">
        <ele>236.2</ele>
        <time>2022-03-14T15:26:12Z</time>
      </trkpt>
      <trkpt lat="46.49675" lon="5.35637">
        <ele>236.4</ele>
        <time>2022-03-14T15:26:16Z</time>
      </trkpt>
      <trkpt lat="46.49644" lon="5.35627">
        <ele>237</ele>
        <time>2022-03-14T15:26:22Z</time>
      </trkpt>
      <trkpt lat="46.49638" lon="5.35626">
        <ele>237.2</ele>
        <time>2022-03-14T15:26:23Z</time>
      </trkpt>
      <trkpt lat="46.49602" lon="5.35615">
        <ele>238.6</ele>
        <time>2022-03-14T15:26:30Z</time>
      </trkpt>
      <trkpt lat="46.49586" lon="5.3561">
        <ele>239</ele>
        <time>2022-03-14T15:26:33Z</time>
      </trkpt>
      <trkpt lat="46.49554" lon="5.356">
        <ele>239.8</ele>
        <time>2022-03-14T15:26:39Z</time>
      </trkpt>
      <trkpt lat="46.49538" lon="5.35594">
        <ele>240</ele>
        <time>2022-03-14T15:26:42Z</time>
      </trkpt>
      <trkpt lat="46.49533" lon="5.35591">
        <ele>240</ele>
        <time>2022-03-14T15:26:43Z</time>
      </trkpt>
      <trkpt lat="46.49507" lon="5.3558">
        <ele>240.8</ele>
        <time>2022-03-14T15:26:48Z</time>
      </trkpt>
      <trkpt lat="46.49476" lon="5.35567">
        <ele>241.6</ele>
        <time>2022-03-14T15:26:54Z</time>
      </trkpt>
      <trkpt lat="46.49459" lon="5.3556">
        <ele>242</ele>
        <time>2022-03-14T15:26:57Z</time>
      </trkpt>
      <trkpt lat="46.49431" lon="5.35549">
        <ele>242.4</ele>
        <time>2022-03-14T15:27:02Z</time>
      </trkpt>
      <trkpt lat="46.49396" lon="5.35535">
        <ele>242.6</ele>
        <time>2022-03-14T15:27:09Z</time>
      </trkpt>
      <trkpt lat="46.49368" lon="5.3553">
        <ele>243</ele>
        <time>2022-03-14T15:27:14Z</time>
      </trkpt>
      <trkpt lat="46.49334" lon="5.3553">
        <ele>243.4</ele>
        <time>2022-03-14T15:27:20Z</time>
      </trkpt>
      <trkpt lat="46.49328" lon="5.3553">
        <ele>243.4</ele>
        <time>2022-03-14T15:27:21Z</time>
      </trkpt>
      <trkpt lat="46.49323" lon="5.35531">
        <ele>243.6</ele>
        <time>2022-03-14T15:27:22Z</time>
      </trkpt>
      <trkpt lat="46.49299" lon="5.35532">
        <ele>244</ele>
        <time>2022-03-14T15:27:26Z</time>
      </trkpt>
      <trkpt lat="46.49286" lon="5.35532">
        <ele>244</ele>
        <time>2022-03-14T15:27:28Z</time>
      </trkpt>
      <trkpt lat="46.49279" lon="5.35532">
        <ele>244</ele>
        <time>2022-03-14T15:27:29Z</time>
      </trkpt>
      <trkpt lat="46.49258" lon="5.35532">
        <ele>244.2</ele>
        <time>2022-03-14T15:27:32Z</time>
      </trkpt>
      <trkpt lat="46.49218" lon="5.35538">
        <ele>244.6</ele>
        <time>2022-03-14T15:27:38Z</time>
      </trkpt>
      <trkpt lat="46.49174" lon="5.3554">
        <ele>244.8</ele>
        <time>2022-03-14T15:27:45Z</time>
      </trkpt>
      <trkpt lat="46.49166" lon="5.3554">
        <ele>244.6</ele>
        <time>2022-03-14T15:27:46Z</time>
      </trkpt>
      <trkpt lat="46.49136" lon="5.35539">
        <ele>244.6</ele>
        <time>2022-03-14T15:27:50Z</time>
      </trkpt>
      <trkpt lat="46.49092" lon="5.35541">
        <ele>243.6</ele>
        <time>2022-03-14T15:27:55Z</time>
      </trkpt>
      <trkpt lat="46.4906" lon="5.35544">
        <ele>243</ele>
        <time>2022-03-14T15:27:59Z</time>
      </trkpt>
      <trkpt lat="46.49034" lon="5.35547">
        <ele>242.4</ele>
        <time>2022-03-14T15:28:02Z</time>
      </trkpt>
      <trkpt lat="46.49017" lon="5.35548">
        <ele>242</ele>
        <time>2022-03-14T15:28:04Z</time>
      </trkpt>
      <trkpt lat="46.48975" lon="5.35551">
        <ele>241</ele>
        <time>2022-03-14T15:28:09Z</time>
      </trkpt>
      <trkpt lat="46.4893" lon="5.35553">
        <ele>240.6</ele>
        <time>2022-03-14T15:28:15Z</time>
      </trkpt>
      <trkpt lat="46.48898" lon="5.35555">
        <ele>241</ele>
        <time>2022-03-14T15:28:20Z</time>
      </trkpt>
      <trkpt lat="46.48868" lon="5.35556">
        <ele>242</ele>
        <time>2022-03-14T15:28:25Z</time>
      </trkpt>
      <trkpt lat="46.48858" lon="5.35556">
        <ele>242.4</ele>
        <time>2022-03-14T15:28:27Z</time>
      </trkpt>
      <trkpt lat="46.48853" lon="5.35555">
        <ele>242.4</ele>
        <time>2022-03-14T15:28:28Z</time>
      </trkpt>
      <trkpt lat="46.48845" lon="5.35555">
        <ele>242.8</ele>
        <time>2022-03-14T15:28:30Z</time>
      </trkpt>
      <trkpt lat="46.48841" lon="5.35556">
        <ele>242.8</ele>
        <time>2022-03-14T15:28:31Z</time>
      </trkpt>
      <trkpt lat="46.48838" lon="5.3556">
        <ele>242.6</ele>
        <time>2022-03-14T15:28:32Z</time>
      </trkpt>
      <trkpt lat="46.48833" lon="5.35571">
        <ele>242.8</ele>
        <time>2022-03-14T15:28:34Z</time>
      </trkpt>
      <trkpt lat="46.4883" lon="5.35578">
        <ele>242.8</ele>
        <time>2022-03-14T15:28:35Z</time>
      </trkpt>
      <trkpt lat="46.48815" lon="5.35613">
        <ele>243.2</ele>
        <time>2022-03-14T15:28:39Z</time>
      </trkpt>
      <trkpt lat="46.48796" lon="5.35656">
        <ele>243.4</ele>
        <time>2022-03-14T15:28:44Z</time>
      </trkpt>
      <trkpt lat="46.48764" lon="5.35727">
        <ele>243.8</ele>
        <time>2022-03-14T15:28:52Z</time>
      </trkpt>
      <trkpt lat="46.48739" lon="5.35783">
        <ele>243.2</ele>
        <time>2022-03-14T15:28:59Z</time>
      </trkpt>
      <trkpt lat="46.48715" lon="5.35839">
        <ele>243.4</ele>
        <time>2022-03-14T15:29:07Z</time>
      </trkpt>
      <trkpt lat="46.487" lon="5.3587">
        <ele>243.8</ele>
        <time>2022-03-14T15:29:12Z</time>
      </trkpt>
      <trkpt lat="46.48695" lon="5.35882">
        <ele>244</ele>
        <time>2022-03-14T15:29:14Z</time>
      </trkpt>
      <trkpt lat="46.48683" lon="5.35925">
        <ele>245</ele>
        <time>2022-03-14T15:29:20Z</time>
      </trkpt>
      <trkpt lat="46.48682" lon="5.35933">
        <ele>245.2</ele>
        <time>2022-03-14T15:29:21Z</time>
      </trkpt>
      <trkpt lat="46.48677" lon="5.35975">
        <ele>246</ele>
        <time>2022-03-14T15:29:26Z</time>
      </trkpt>
      <trkpt lat="46.48674" lon="5.36002">
        <ele>246.4</ele>
        <time>2022-03-14T15:29:29Z</time>
      </trkpt>
      <trkpt lat="46.4867" lon="5.36028">
        <ele>246.4</ele>
        <time>2022-03-14T15:29:32Z</time>
      </trkpt>
      <trkpt lat="46.48666" lon="5.36048">
        <ele>246.6</ele>
        <time>2022-03-14T15:29:34Z</time>
      </trkpt>
      <trkpt lat="46.4865" lon="5.36115">
        <ele>245.6</ele>
        <time>2022-03-14T15:29:40Z</time>
      </trkpt>
      <trkpt lat="46.48645" lon="5.36147">
        <ele>244.8</ele>
        <time>2022-03-14T15:29:43Z</time>
      </trkpt>
      <trkpt lat="46.48641" lon="5.36179">
        <ele>244.4</ele>
        <time>2022-03-14T15:29:46Z</time>
      </trkpt>
      <trkpt lat="46.48634" lon="5.36257">
        <ele>244.6</ele>
        <time>2022-03-14T15:29:54Z</time>
      </trkpt>
      <trkpt lat="46.48628" lon="5.36291">
        <ele>245.2</ele>
        <time>2022-03-14T15:29:58Z</time>
      </trkpt>
      <trkpt lat="46.48622" lon="5.36305">
        <ele>245.4</ele>
        <time>2022-03-14T15:30:00Z</time>
      </trkpt>
      <trkpt lat="46.48615" lon="5.36315">
        <ele>245.8</ele>
        <time>2022-03-14T15:30:02Z</time>
      </trkpt>
      <trkpt lat="46.48606" lon="5.36321">
        <ele>246.2</ele>
        <time>2022-03-14T15:30:04Z</time>
      </trkpt>
      <trkpt lat="46.48586" lon="5.36324">
        <ele>247.2</ele>
        <time>2022-03-14T15:30:08Z</time>
      </trkpt>
      <trkpt lat="46.48571" lon="5.36327">
        <ele>248.2</ele>
        <time>2022-03-14T15:30:11Z</time>
      </trkpt>
      <trkpt lat="46.48566" lon="5.36328">
        <ele>248.6</ele>
        <time>2022-03-14T15:30:12Z</time>
      </trkpt>
      <trkpt lat="46.48542" lon="5.36334">
        <ele>249.4</ele>
        <time>2022-03-14T15:30:17Z</time>
      </trkpt>
      <trkpt lat="46.48526" lon="5.36336">
        <ele>250.2</ele>
        <time>2022-03-14T15:30:20Z</time>
      </trkpt>
      <trkpt lat="46.4851" lon="5.36337">
        <ele>250.6</ele>
        <time>2022-03-14T15:30:23Z</time>
      </trkpt>
      <trkpt lat="46.48477" lon="5.36342">
        <ele>251.6</ele>
        <time>2022-03-14T15:30:29Z</time>
      </trkpt>
      <trkpt lat="46.48421" lon="5.36353">
        <ele>252</ele>
        <time>2022-03-14T15:30:39Z</time>
      </trkpt>
      <trkpt lat="46.48391" lon="5.36374">
        <ele>252.2</ele>
        <time>2022-03-14T15:30:45Z</time>
      </trkpt>
      <trkpt lat="46.48358" lon="5.36408">
        <ele>252.6</ele>
        <time>2022-03-14T15:30:52Z</time>
      </trkpt>
      <trkpt lat="46.48345" lon="5.36423">
        <ele>253</ele>
        <time>2022-03-14T15:30:55Z</time>
      </trkpt>
      <trkpt lat="46.48311" lon="5.36459">
        <ele>253.6</ele>
        <time>2022-03-14T15:31:03Z</time>
      </trkpt>
      <trkpt lat="46.48303" lon="5.36469">
        <ele>254</ele>
        <time>2022-03-14T15:31:05Z</time>
      </trkpt>
      <trkpt lat="46.48283" lon="5.36491">
        <ele>255</ele>
        <time>2022-03-14T15:31:10Z</time>
      </trkpt>
      <trkpt lat="46.48259" lon="5.36519">
        <ele>255.6</ele>
        <time>2022-03-14T15:31:16Z</time>
      </trkpt>
      <trkpt lat="46.48252" lon="5.36527">
        <ele>256</ele>
        <time>2022-03-14T15:31:18Z</time>
      </trkpt>
      <trkpt lat="46.4823" lon="5.3655">
        <ele>256.8</ele>
        <time>2022-03-14T15:31:24Z</time>
      </trkpt>
      <trkpt lat="46.48221" lon="5.36557">
        <ele>256.8</ele>
        <time>2022-03-14T15:31:26Z</time>
      </trkpt>
      <trkpt lat="46.48213" lon="5.36557">
        <ele>257</ele>
        <time>2022-03-14T15:31:28Z</time>
      </trkpt>
      <trkpt lat="46.48208" lon="5.36556">
        <ele>257.2</ele>
        <time>2022-03-14T15:31:29Z</time>
      </trkpt>
      <trkpt lat="46.48203" lon="5.36557">
        <ele>257.2</ele>
        <time>2022-03-14T15:31:30Z</time>
      </trkpt>
      <trkpt lat="46.48195" lon="5.36562">
        <ele>257.4</ele>
        <time>2022-03-14T15:31:32Z</time>
      </trkpt>
      <trkpt lat="46.48188" lon="5.36572">
        <ele>257.6</ele>
        <time>2022-03-14T15:31:34Z</time>
      </trkpt>
      <trkpt lat="46.48187" lon="5.36578">
        <ele>257.6</ele>
        <time>2022-03-14T15:31:35Z</time>
      </trkpt>
      <trkpt lat="46.48183" lon="5.36592">
        <ele>257.8</ele>
        <time>2022-03-14T15:31:37Z</time>
      </trkpt>
      <trkpt lat="46.48178" lon="5.36603">
        <ele>258.2</ele>
        <time>2022-03-14T15:31:39Z</time>
      </trkpt>
      <trkpt lat="46.48174" lon="5.36609">
        <ele>258.4</ele>
        <time>2022-03-14T15:31:40Z</time>
      </trkpt>
      <trkpt lat="46.48159" lon="5.36627">
        <ele>258.6</ele>
        <time>2022-03-14T15:31:44Z</time>
      </trkpt>
      <trkpt lat="46.48149" lon="5.36642">
        <ele>258.6</ele>
        <time>2022-03-14T15:31:47Z</time>
      </trkpt>
      <trkpt lat="46.48139" lon="5.36649">
        <ele>258.8</ele>
        <time>2022-03-14T15:31:50Z</time>
      </trkpt>
      <trkpt lat="46.48131" lon="5.36657">
        <ele>259</ele>
        <time>2022-03-14T15:31:52Z</time>
      </trkpt>
      <trkpt lat="46.4812" lon="5.36669">
        <ele>259.2</ele>
        <time>2022-03-14T15:31:55Z</time>
      </trkpt>
      <trkpt lat="46.48105" lon="5.36686">
        <ele>259.6</ele>
        <time>2022-03-14T15:32:01Z</time>
      </trkpt>
      <trkpt lat="46.48105" lon="5.36687">
        <ele>260</ele>
        <time>2022-03-14T15:32:04Z</time>
      </trkpt>
      <trkpt lat="46.48101" lon="5.36694">
        <ele>260.2</ele>
        <time>2022-03-14T15:32:11Z</time>
      </trkpt>
      <trkpt lat="46.48102" lon="5.36698">
        <ele>260</ele>
        <time>2022-03-14T15:32:12Z</time>
      </trkpt>
      <trkpt lat="46.48114" lon="5.36708">
        <ele>260</ele>
        <time>2022-03-14T15:32:16Z</time>
      </trkpt>
      <trkpt lat="46.48125" lon="5.36715">
        <ele>260.2</ele>
        <time>2022-03-14T15:32:19Z</time>
      </trkpt>
      <trkpt lat="46.48139" lon="5.36727">
        <ele>260.8</ele>
        <time>2022-03-14T15:32:23Z</time>
      </trkpt>
      <trkpt lat="46.48146" lon="5.36734">
        <ele>261.4</ele>
        <time>2022-03-14T15:32:25Z</time>
      </trkpt>
      <trkpt lat="46.48167" lon="5.36752">
        <ele>262.4</ele>
        <time>2022-03-14T15:32:31Z</time>
      </trkpt>
      <trkpt lat="46.48178" lon="5.3676">
        <ele>263</ele>
        <time>2022-03-14T15:32:34Z</time>
      </trkpt>
      <trkpt lat="46.48185" lon="5.36765">
        <ele>263.8</ele>
        <time>2022-03-14T15:32:36Z</time>
      </trkpt>
      <trkpt lat="46.48207" lon="5.36783">
        <ele>264.8</ele>
        <time>2022-03-14T15:32:42Z</time>
      </trkpt>
      <trkpt lat="46.4821" lon="5.36785">
        <ele>265</ele>
        <time>2022-03-14T15:32:43Z</time>
      </trkpt>
      <trkpt lat="46.48222" lon="5.36796">
        <ele>266.2</ele>
        <time>2022-03-14T15:32:47Z</time>
      </trkpt>
      <trkpt lat="46.48236" lon="5.36808">
        <ele>267.4</ele>
        <time>2022-03-14T15:32:52Z</time>
      </trkpt>
      <trkpt lat="46.48255" lon="5.36827">
        <ele>268.8</ele>
        <time>2022-03-14T15:32:59Z</time>
      </trkpt>
    </trkseg>
  </trk>
</gpx>